<?xml version="1.0" encoding="UTF-8"?>
<gpx version="1.1" creator="Endomondo.com" xsi:schemaLocation="http://www.topografix.com/GPX/1/1 http://www.topografix.com/GPX/1/1/gpx.xsd http://www.garmin.com/xmlschemas/GpxExtensions/v3 http://www.garmin.com/xmlschemas/GpxExtensionsv3.xsd http://www.garmin.com/xmlschemas/TrackPointExtension/v1 http://www.garmin.com/xmlschemas/TrackPointExtensionv1.xsd" xmlns="http://www.topografix.com/GPX/1/1" xmlns:gpxtpx="http://www.garmin.com/xmlschemas/TrackPointExtension/v1" xmlns:gpxx="http://www.garmin.com/xmlschemas/GpxExtensions/v3" xmlns:xsi="http://www.w3.org/2001/XMLSchema-instance">
  <metadata>
    <author>
      <name>Pablo Pravia Fernadez</name>
      <email id="praporvertesonreir" domain="gmail.com"/>
    </author>
    <link href="http://www.endomondo.com">
      <text>Endomondo</text>
    </link>
    <time>2012-06-15T14:46:10Z</time>
    <bounds minlat="43.38887" minlon="-6.068395" maxlat="43.38854" maxlon="-6.072112"/>
  </metadata>
  <trk>
    <name>115 Km, San Tirso y Gargantada</name>
    <cmt>Grado, Trubia, Oviedo, Mieres, Alto de San Tirso, La Felguera, Alto de la Gargantada, El Berrón, Colloto, Viella, Lugones, Posada de Llanera, Santullano, Lazana, Bolgues, Grado. 115 Km.</cmt>
    <src>http://www.endomondo.com/</src>
    <link href="http://www.endomondo.com/workouts/hNQFNRlO9rs">
      <text>115 Km, San Tirso y Gargantada</text>
    </link>
    <type>CYCLING_SPORT</type>
    <trkseg>
      <trkpt lat="43.38887" lon="-6.068395">
        <time>2012-06-15T07:29:55Z</time>
      </trkpt>
      <trkpt lat="43.38887" lon="-6.068395">
        <ele>256.0</ele>
        <time>2012-06-15T07:29:56Z</time>
      </trkpt>
      <trkpt lat="43.388924" lon="-6.068219">
        <ele>253.0</ele>
        <time>2012-06-15T07:30:03Z</time>
      </trkpt>
      <trkpt lat="43.388793" lon="-6.067791">
        <ele>245.0</ele>
        <time>2012-06-15T07:30:07Z</time>
      </trkpt>
      <trkpt lat="43.388627" lon="-6.067204">
        <ele>234.0</ele>
        <time>2012-06-15T07:30:11Z</time>
      </trkpt>
      <trkpt lat="43.388598" lon="-6.06685">
        <ele>229.0</ele>
        <time>2012-06-15T07:30:15Z</time>
      </trkpt>
      <trkpt lat="43.388667" lon="-6.066799">
        <ele>211.0</ele>
        <time>2012-06-15T07:30:20Z</time>
      </trkpt>
      <trkpt lat="43.388667" lon="-6.066799">
        <time>2012-06-15T07:30:31Z</time>
      </trkpt>
    </trkseg>
    <trkseg>
      <trkpt lat="43.388667" lon="-6.066799">
        <time>2012-06-15T07:30:43Z</time>
      </trkpt>
      <trkpt lat="43.388951" lon="-6.066679">
        <ele>199.0</ele>
        <time>2012-06-15T07:30:53Z</time>
      </trkpt>
      <trkpt lat="43.38902" lon="-6.066684">
        <ele>198.0</ele>
        <time>2012-06-15T07:30:58Z</time>
      </trkpt>
      <trkpt lat="43.389088" lon="-6.066713">
        <ele>196.0</ele>
        <time>2012-06-15T07:31:02Z</time>
      </trkpt>
      <trkpt lat="43.389165" lon="-6.066716">
        <ele>193.0</ele>
        <time>2012-06-15T07:31:07Z</time>
      </trkpt>
      <trkpt lat="43.389242" lon="-6.066574">
        <ele>189.0</ele>
        <time>2012-06-15T07:31:18Z</time>
      </trkpt>
      <trkpt lat="43.389232" lon="-6.066334">
        <ele>188.0</ele>
        <time>2012-06-15T07:31:23Z</time>
      </trkpt>
      <trkpt lat="43.389181" lon="-6.066078">
        <ele>184.0</ele>
        <time>2012-06-15T07:31:27Z</time>
      </trkpt>
      <trkpt lat="43.389213" lon="-6.065873">
        <ele>183.0</ele>
        <time>2012-06-15T07:31:31Z</time>
      </trkpt>
      <trkpt lat="43.389333" lon="-6.065733">
        <ele>182.0</ele>
        <time>2012-06-15T07:31:35Z</time>
      </trkpt>
      <trkpt lat="43.389463" lon="-6.065623">
        <ele>181.0</ele>
        <time>2012-06-15T07:31:39Z</time>
      </trkpt>
      <trkpt lat="43.389618" lon="-6.065463">
        <ele>181.0</ele>
        <time>2012-06-15T07:31:43Z</time>
      </trkpt>
      <trkpt lat="43.38981" lon="-6.065267">
        <ele>179.0</ele>
        <time>2012-06-15T07:31:47Z</time>
      </trkpt>
      <trkpt lat="43.389971" lon="-6.065091">
        <ele>178.0</ele>
        <time>2012-06-15T07:31:51Z</time>
      </trkpt>
      <trkpt lat="43.390096" lon="-6.064951">
        <ele>177.0</ele>
        <time>2012-06-15T07:31:55Z</time>
      </trkpt>
      <trkpt lat="43.390151" lon="-6.064891">
        <ele>176.0</ele>
        <time>2012-06-15T07:31:57Z</time>
      </trkpt>
      <trkpt lat="43.390267" lon="-6.064777">
        <ele>175.0</ele>
        <time>2012-06-15T07:32:03Z</time>
      </trkpt>
      <trkpt lat="43.390341" lon="-6.064718">
        <ele>174.0</ele>
        <time>2012-06-15T07:32:07Z</time>
      </trkpt>
      <trkpt lat="43.390516" lon="-6.064632">
        <ele>166.0</ele>
        <time>2012-06-15T07:32:11Z</time>
      </trkpt>
      <trkpt lat="43.390737" lon="-6.064705">
        <ele>160.0</ele>
        <time>2012-06-15T07:32:15Z</time>
      </trkpt>
      <trkpt lat="43.390932" lon="-6.06474">
        <ele>156.0</ele>
        <time>2012-06-15T07:32:19Z</time>
      </trkpt>
      <trkpt lat="43.391126" lon="-6.06473">
        <ele>153.0</ele>
        <time>2012-06-15T07:32:23Z</time>
      </trkpt>
      <trkpt lat="43.391329" lon="-6.064736">
        <ele>151.0</ele>
        <time>2012-06-15T07:32:27Z</time>
      </trkpt>
      <trkpt lat="43.391536" lon="-6.064745">
        <ele>150.0</ele>
        <time>2012-06-15T07:32:31Z</time>
      </trkpt>
      <trkpt lat="43.391742" lon="-6.064799">
        <ele>148.0</ele>
        <time>2012-06-15T07:32:35Z</time>
      </trkpt>
      <trkpt lat="43.391845" lon="-6.064847">
        <ele>148.0</ele>
        <time>2012-06-15T07:32:37Z</time>
      </trkpt>
      <trkpt lat="43.392148" lon="-6.065004">
        <ele>146.0</ele>
        <time>2012-06-15T07:32:43Z</time>
      </trkpt>
      <trkpt lat="43.392351" lon="-6.065111">
        <ele>145.0</ele>
        <time>2012-06-15T07:32:47Z</time>
      </trkpt>
      <trkpt lat="43.392555" lon="-6.065218">
        <ele>144.0</ele>
        <time>2012-06-15T07:32:51Z</time>
      </trkpt>
      <trkpt lat="43.39276" lon="-6.065289">
        <ele>143.0</ele>
        <time>2012-06-15T07:32:55Z</time>
      </trkpt>
      <trkpt lat="43.392971" lon="-6.065288">
        <ele>143.0</ele>
        <time>2012-06-15T07:32:59Z</time>
      </trkpt>
      <trkpt lat="43.393142" lon="-6.065179">
        <ele>144.0</ele>
        <time>2012-06-15T07:33:03Z</time>
      </trkpt>
      <trkpt lat="43.393214" lon="-6.065016">
        <ele>145.0</ele>
        <time>2012-06-15T07:33:07Z</time>
      </trkpt>
      <trkpt lat="43.393218" lon="-6.064754">
        <ele>146.0</ele>
        <time>2012-06-15T07:33:11Z</time>
      </trkpt>
      <trkpt lat="43.393211" lon="-6.064443">
        <ele>146.0</ele>
        <time>2012-06-15T07:33:15Z</time>
      </trkpt>
      <trkpt lat="43.393213" lon="-6.064096">
        <ele>147.0</ele>
        <time>2012-06-15T07:33:19Z</time>
      </trkpt>
      <trkpt lat="43.393212" lon="-6.063701">
        <ele>146.0</ele>
        <time>2012-06-15T07:33:23Z</time>
      </trkpt>
      <trkpt lat="43.393214" lon="-6.063307">
        <ele>144.0</ele>
        <time>2012-06-15T07:33:27Z</time>
      </trkpt>
      <trkpt lat="43.393204" lon="-6.062888">
        <ele>144.0</ele>
        <time>2012-06-15T07:33:31Z</time>
      </trkpt>
      <trkpt lat="43.39318" lon="-6.062475">
        <ele>144.0</ele>
        <time>2012-06-15T07:33:35Z</time>
      </trkpt>
      <trkpt lat="43.393163" lon="-6.062067">
        <ele>143.0</ele>
        <time>2012-06-15T07:33:39Z</time>
      </trkpt>
      <trkpt lat="43.393167" lon="-6.061673">
        <ele>143.0</ele>
        <time>2012-06-15T07:33:43Z</time>
      </trkpt>
      <trkpt lat="43.393217" lon="-6.061307">
        <ele>143.0</ele>
        <time>2012-06-15T07:33:47Z</time>
      </trkpt>
      <trkpt lat="43.39327" lon="-6.060953">
        <ele>143.0</ele>
        <time>2012-06-15T07:33:51Z</time>
      </trkpt>
      <trkpt lat="43.393364" lon="-6.060617">
        <ele>143.0</ele>
        <time>2012-06-15T07:33:55Z</time>
      </trkpt>
      <trkpt lat="43.393493" lon="-6.060297">
        <ele>143.0</ele>
        <time>2012-06-15T07:33:59Z</time>
      </trkpt>
      <trkpt lat="43.393636" lon="-6.059993">
        <ele>144.0</ele>
        <time>2012-06-15T07:34:03Z</time>
      </trkpt>
      <trkpt lat="43.393806" lon="-6.059709">
        <ele>144.0</ele>
        <time>2012-06-15T07:34:07Z</time>
      </trkpt>
      <trkpt lat="43.393973" lon="-6.059412">
        <ele>144.0</ele>
        <time>2012-06-15T07:34:11Z</time>
      </trkpt>
      <trkpt lat="43.394137" lon="-6.059094">
        <ele>144.0</ele>
        <time>2012-06-15T07:34:15Z</time>
      </trkpt>
      <trkpt lat="43.394298" lon="-6.058778">
        <ele>144.0</ele>
        <time>2012-06-15T07:34:19Z</time>
      </trkpt>
      <trkpt lat="43.39444" lon="-6.058459">
        <ele>144.0</ele>
        <time>2012-06-15T07:34:23Z</time>
      </trkpt>
      <trkpt lat="43.394542" lon="-6.058107">
        <ele>144.0</ele>
        <time>2012-06-15T07:34:27Z</time>
      </trkpt>
      <trkpt lat="43.39475" lon="-6.05786">
        <ele>144.0</ele>
        <time>2012-06-15T07:34:31Z</time>
      </trkpt>
      <trkpt lat="43.394912" lon="-6.057572">
        <ele>145.0</ele>
        <time>2012-06-15T07:34:35Z</time>
      </trkpt>
      <trkpt lat="43.395046" lon="-6.057254">
        <ele>145.0</ele>
        <time>2012-06-15T07:34:39Z</time>
      </trkpt>
      <trkpt lat="43.395169" lon="-6.056933">
        <ele>145.0</ele>
        <time>2012-06-15T07:34:43Z</time>
      </trkpt>
      <trkpt lat="43.395289" lon="-6.056661">
        <ele>145.0</ele>
        <time>2012-06-15T07:34:47Z</time>
      </trkpt>
      <trkpt lat="43.395399" lon="-6.056426">
        <ele>144.0</ele>
        <time>2012-06-15T07:34:51Z</time>
      </trkpt>
      <trkpt lat="43.395517" lon="-6.056184">
        <ele>143.0</ele>
        <time>2012-06-15T07:34:55Z</time>
      </trkpt>
      <trkpt lat="43.395655" lon="-6.055926">
        <ele>143.0</ele>
        <time>2012-06-15T07:34:59Z</time>
      </trkpt>
      <trkpt lat="43.395807" lon="-6.055651">
        <ele>142.0</ele>
        <time>2012-06-15T07:35:03Z</time>
      </trkpt>
      <trkpt lat="43.395966" lon="-6.055352">
        <ele>142.0</ele>
        <time>2012-06-15T07:35:07Z</time>
      </trkpt>
      <trkpt lat="43.396045" lon="-6.055196">
        <ele>141.0</ele>
        <time>2012-06-15T07:35:09Z</time>
      </trkpt>
      <trkpt lat="43.396276" lon="-6.05473">
        <ele>142.0</ele>
        <time>2012-06-15T07:35:15Z</time>
      </trkpt>
      <trkpt lat="43.396425" lon="-6.054424">
        <ele>142.0</ele>
        <time>2012-06-15T07:35:19Z</time>
      </trkpt>
      <trkpt lat="43.396576" lon="-6.054121">
        <ele>142.0</ele>
        <time>2012-06-15T07:35:23Z</time>
      </trkpt>
      <trkpt lat="43.396719" lon="-6.053821">
        <ele>142.0</ele>
        <time>2012-06-15T07:35:27Z</time>
      </trkpt>
      <trkpt lat="43.396861" lon="-6.053534">
        <ele>143.0</ele>
        <time>2012-06-15T07:35:31Z</time>
      </trkpt>
      <trkpt lat="43.396938" lon="-6.053407">
        <ele>143.0</ele>
        <time>2012-06-15T07:35:33Z</time>
      </trkpt>
      <trkpt lat="43.397158" lon="-6.05297">
        <ele>143.0</ele>
        <time>2012-06-15T07:35:39Z</time>
      </trkpt>
      <trkpt lat="43.397301" lon="-6.052662">
        <ele>144.0</ele>
        <time>2012-06-15T07:35:43Z</time>
      </trkpt>
      <trkpt lat="43.397452" lon="-6.052366">
        <ele>144.0</ele>
        <time>2012-06-15T07:35:47Z</time>
      </trkpt>
      <trkpt lat="43.397615" lon="-6.052071">
        <ele>144.0</ele>
        <time>2012-06-15T07:35:51Z</time>
      </trkpt>
      <trkpt lat="43.397779" lon="-6.051754">
        <ele>144.0</ele>
        <time>2012-06-15T07:35:55Z</time>
      </trkpt>
      <trkpt lat="43.39789" lon="-6.051373">
        <ele>143.0</ele>
        <time>2012-06-15T07:35:59Z</time>
      </trkpt>
      <trkpt lat="43.397871" lon="-6.05101">
        <ele>144.0</ele>
        <time>2012-06-15T07:36:03Z</time>
      </trkpt>
      <trkpt lat="43.397856" lon="-6.05083">
        <ele>144.0</ele>
        <time>2012-06-15T07:36:05Z</time>
      </trkpt>
      <trkpt lat="43.398148" lon="-6.050535">
        <ele>143.0</ele>
        <time>2012-06-15T07:36:11Z</time>
      </trkpt>
      <trkpt lat="43.398249" lon="-6.050574">
        <ele>142.0</ele>
        <time>2012-06-15T07:36:13Z</time>
      </trkpt>
      <trkpt lat="43.398511" lon="-6.050276">
        <ele>139.0</ele>
        <time>2012-06-15T07:36:19Z</time>
      </trkpt>
      <trkpt lat="43.39863" lon="-6.050044">
        <ele>138.0</ele>
        <time>2012-06-15T07:36:22Z</time>
      </trkpt>
      <trkpt lat="43.398783" lon="-6.049714">
        <ele>138.0</ele>
        <time>2012-06-15T07:36:26Z</time>
      </trkpt>
      <trkpt lat="43.398975" lon="-6.049313">
        <ele>138.0</ele>
        <time>2012-06-15T07:36:31Z</time>
      </trkpt>
      <trkpt lat="43.399142" lon="-6.049023">
        <ele>137.0</ele>
        <time>2012-06-15T07:36:35Z</time>
      </trkpt>
      <trkpt lat="43.399312" lon="-6.048739">
        <ele>137.0</ele>
        <time>2012-06-15T07:36:39Z</time>
      </trkpt>
      <trkpt lat="43.399476" lon="-6.048444">
        <ele>136.0</ele>
        <time>2012-06-15T07:36:43Z</time>
      </trkpt>
      <trkpt lat="43.399667" lon="-6.048182">
        <ele>136.0</ele>
        <time>2012-06-15T07:36:47Z</time>
      </trkpt>
      <trkpt lat="43.399867" lon="-6.047928">
        <ele>136.0</ele>
        <time>2012-06-15T07:36:51Z</time>
      </trkpt>
      <trkpt lat="43.400071" lon="-6.047687">
        <ele>135.0</ele>
        <time>2012-06-15T07:36:55Z</time>
      </trkpt>
      <trkpt lat="43.400282" lon="-6.047463">
        <ele>135.0</ele>
        <time>2012-06-15T07:36:59Z</time>
      </trkpt>
      <trkpt lat="43.400503" lon="-6.047256">
        <ele>135.0</ele>
        <time>2012-06-15T07:37:03Z</time>
      </trkpt>
      <trkpt lat="43.40073" lon="-6.047063">
        <ele>135.0</ele>
        <time>2012-06-15T07:37:07Z</time>
      </trkpt>
      <trkpt lat="43.40094" lon="-6.046851">
        <ele>134.0</ele>
        <time>2012-06-15T07:37:11Z</time>
      </trkpt>
      <trkpt lat="43.401153" lon="-6.046633">
        <ele>134.0</ele>
        <time>2012-06-15T07:37:15Z</time>
      </trkpt>
      <trkpt lat="43.401373" lon="-6.046421">
        <ele>133.0</ele>
        <time>2012-06-15T07:37:19Z</time>
      </trkpt>
      <trkpt lat="43.401593" lon="-6.046209">
        <ele>132.0</ele>
        <time>2012-06-15T07:37:23Z</time>
      </trkpt>
      <trkpt lat="43.401762" lon="-6.046065">
        <ele>132.0</ele>
        <time>2012-06-15T07:37:26Z</time>
      </trkpt>
      <trkpt lat="43.402028" lon="-6.045812">
        <ele>132.0</ele>
        <time>2012-06-15T07:37:31Z</time>
      </trkpt>
      <trkpt lat="43.402121" lon="-6.045694">
        <ele>133.0</ele>
        <time>2012-06-15T07:37:33Z</time>
      </trkpt>
      <trkpt lat="43.402356" lon="-6.045291">
        <ele>134.0</ele>
        <time>2012-06-15T07:37:39Z</time>
      </trkpt>
      <trkpt lat="43.402511" lon="-6.045025">
        <ele>133.0</ele>
        <time>2012-06-15T07:37:43Z</time>
      </trkpt>
      <trkpt lat="43.402666" lon="-6.044721">
        <ele>133.0</ele>
        <time>2012-06-15T07:37:47Z</time>
      </trkpt>
      <trkpt lat="43.402874" lon="-6.044457">
        <ele>132.0</ele>
        <time>2012-06-15T07:37:51Z</time>
      </trkpt>
      <trkpt lat="43.402991" lon="-6.044063">
        <ele>133.0</ele>
        <time>2012-06-15T07:37:55Z</time>
      </trkpt>
      <trkpt lat="43.403044" lon="-6.043617">
        <ele>132.0</ele>
        <time>2012-06-15T07:37:59Z</time>
      </trkpt>
      <trkpt lat="43.403088" lon="-6.043236">
        <ele>132.0</ele>
        <time>2012-06-15T07:38:03Z</time>
      </trkpt>
      <trkpt lat="43.403114" lon="-6.042981">
        <ele>132.0</ele>
        <time>2012-06-15T07:38:06Z</time>
      </trkpt>
      <trkpt lat="43.403124" lon="-6.042821">
        <ele>131.0</ele>
        <time>2012-06-15T07:38:08Z</time>
      </trkpt>
      <trkpt lat="43.403128" lon="-6.042511">
        <ele>131.0</ele>
        <time>2012-06-15T07:38:12Z</time>
      </trkpt>
      <trkpt lat="43.403114" lon="-6.042085">
        <ele>131.0</ele>
        <time>2012-06-15T07:38:18Z</time>
      </trkpt>
      <trkpt lat="43.403105" lon="-6.041799">
        <ele>131.0</ele>
        <time>2012-06-15T07:38:22Z</time>
      </trkpt>
      <trkpt lat="43.403087" lon="-6.041273">
        <ele>130.0</ele>
        <time>2012-06-15T07:38:30Z</time>
      </trkpt>
      <trkpt lat="43.403063" lon="-6.041013">
        <ele>131.0</ele>
        <time>2012-06-15T07:38:34Z</time>
      </trkpt>
      <trkpt lat="43.403036" lon="-6.040765">
        <ele>132.0</ele>
        <time>2012-06-15T07:38:38Z</time>
      </trkpt>
      <trkpt lat="43.40303" lon="-6.040479">
        <ele>133.0</ele>
        <time>2012-06-15T07:38:42Z</time>
      </trkpt>
      <trkpt lat="43.402991" lon="-6.040069">
        <ele>133.0</ele>
        <time>2012-06-15T07:38:47Z</time>
      </trkpt>
      <trkpt lat="43.4029" lon="-6.039737">
        <ele>132.0</ele>
        <time>2012-06-15T07:38:51Z</time>
      </trkpt>
      <trkpt lat="43.40279" lon="-6.039391">
        <ele>132.0</ele>
        <time>2012-06-15T07:38:55Z</time>
      </trkpt>
      <trkpt lat="43.402677" lon="-6.039058">
        <ele>132.0</ele>
        <time>2012-06-15T07:38:59Z</time>
      </trkpt>
      <trkpt lat="43.402582" lon="-6.038712">
        <ele>132.0</ele>
        <time>2012-06-15T07:39:03Z</time>
      </trkpt>
      <trkpt lat="43.402472" lon="-6.03836">
        <ele>132.0</ele>
        <time>2012-06-15T07:39:07Z</time>
      </trkpt>
      <trkpt lat="43.402349" lon="-6.03802">
        <ele>132.0</ele>
        <time>2012-06-15T07:39:11Z</time>
      </trkpt>
      <trkpt lat="43.40223" lon="-6.037687">
        <ele>132.0</ele>
        <time>2012-06-15T07:39:15Z</time>
      </trkpt>
      <trkpt lat="43.402093" lon="-6.037356">
        <ele>132.0</ele>
        <time>2012-06-15T07:39:19Z</time>
      </trkpt>
      <trkpt lat="43.402023" lon="-6.037195">
        <ele>132.0</ele>
        <time>2012-06-15T07:39:21Z</time>
      </trkpt>
      <trkpt lat="43.401821" lon="-6.036727">
        <ele>132.0</ele>
        <time>2012-06-15T07:39:27Z</time>
      </trkpt>
      <trkpt lat="43.401699" lon="-6.036425">
        <ele>132.0</ele>
        <time>2012-06-15T07:39:31Z</time>
      </trkpt>
      <trkpt lat="43.401577" lon="-6.036118">
        <ele>132.0</ele>
        <time>2012-06-15T07:39:35Z</time>
      </trkpt>
      <trkpt lat="43.401516" lon="-6.035965">
        <ele>132.0</ele>
        <time>2012-06-15T07:39:37Z</time>
      </trkpt>
      <trkpt lat="43.401516" lon="-6.035965">
        <time>2012-06-15T07:39:48Z</time>
      </trkpt>
    </trkseg>
    <trkseg>
      <trkpt lat="43.401516" lon="-6.035965">
        <time>2012-06-15T07:40:01Z</time>
      </trkpt>
      <trkpt lat="43.402443" lon="-6.038593">
        <ele>130.0</ele>
        <time>2012-06-15T07:40:04Z</time>
      </trkpt>
      <trkpt lat="43.402517" lon="-6.038889">
        <ele>128.0</ele>
        <time>2012-06-15T07:40:08Z</time>
      </trkpt>
      <trkpt lat="43.402637" lon="-6.039169">
        <ele>127.0</ele>
        <time>2012-06-15T07:40:12Z</time>
      </trkpt>
      <trkpt lat="43.402758" lon="-6.039465">
        <ele>127.0</ele>
        <time>2012-06-15T07:40:16Z</time>
      </trkpt>
      <trkpt lat="43.402873" lon="-6.039774">
        <ele>127.0</ele>
        <time>2012-06-15T07:40:20Z</time>
      </trkpt>
      <trkpt lat="43.402964" lon="-6.040127">
        <ele>128.0</ele>
        <time>2012-06-15T07:40:24Z</time>
      </trkpt>
      <trkpt lat="43.403022" lon="-6.0405">
        <ele>128.0</ele>
        <time>2012-06-15T07:40:28Z</time>
      </trkpt>
      <trkpt lat="43.403038" lon="-6.040863">
        <ele>128.0</ele>
        <time>2012-06-15T07:40:32Z</time>
      </trkpt>
      <trkpt lat="43.403048" lon="-6.041144">
        <ele>127.0</ele>
        <time>2012-06-15T07:40:35Z</time>
      </trkpt>
      <trkpt lat="43.403104" lon="-6.041655">
        <ele>126.0</ele>
        <time>2012-06-15T07:40:40Z</time>
      </trkpt>
      <trkpt lat="43.403153" lon="-6.042105">
        <ele>125.0</ele>
        <time>2012-06-15T07:40:44Z</time>
      </trkpt>
      <trkpt lat="43.403171" lon="-6.042613">
        <ele>125.0</ele>
        <time>2012-06-15T07:40:48Z</time>
      </trkpt>
      <trkpt lat="43.40314" lon="-6.043165">
        <ele>124.0</ele>
        <time>2012-06-15T07:40:52Z</time>
      </trkpt>
      <trkpt lat="43.403088" lon="-6.043694">
        <ele>123.0</ele>
        <time>2012-06-15T07:40:56Z</time>
      </trkpt>
      <trkpt lat="43.402943" lon="-6.044153">
        <ele>122.0</ele>
        <time>2012-06-15T07:41:00Z</time>
      </trkpt>
      <trkpt lat="43.402821" lon="-6.044326">
        <ele>122.0</ele>
        <time>2012-06-15T07:41:02Z</time>
      </trkpt>
      <trkpt lat="43.402514" lon="-6.044751">
        <ele>122.0</ele>
        <time>2012-06-15T07:41:08Z</time>
      </trkpt>
      <trkpt lat="43.402377" lon="-6.045075">
        <ele>121.0</ele>
        <time>2012-06-15T07:41:12Z</time>
      </trkpt>
      <trkpt lat="43.402242" lon="-6.045395">
        <ele>121.0</ele>
        <time>2012-06-15T07:41:16Z</time>
      </trkpt>
      <trkpt lat="43.402083" lon="-6.045682">
        <ele>121.0</ele>
        <time>2012-06-15T07:41:20Z</time>
      </trkpt>
      <trkpt lat="43.401891" lon="-6.045923">
        <ele>121.0</ele>
        <time>2012-06-15T07:41:24Z</time>
      </trkpt>
      <trkpt lat="43.401672" lon="-6.046146">
        <ele>121.0</ele>
        <time>2012-06-15T07:41:28Z</time>
      </trkpt>
      <trkpt lat="43.401447" lon="-6.046367">
        <ele>121.0</ele>
        <time>2012-06-15T07:41:32Z</time>
      </trkpt>
      <trkpt lat="43.401213" lon="-6.046581">
        <ele>121.0</ele>
        <time>2012-06-15T07:41:36Z</time>
      </trkpt>
      <trkpt lat="43.400978" lon="-6.046801">
        <ele>121.0</ele>
        <time>2012-06-15T07:41:40Z</time>
      </trkpt>
      <trkpt lat="43.400803" lon="-6.046967">
        <ele>121.0</ele>
        <time>2012-06-15T07:41:43Z</time>
      </trkpt>
      <trkpt lat="43.400508" lon="-6.047252">
        <ele>121.0</ele>
        <time>2012-06-15T07:41:48Z</time>
      </trkpt>
      <trkpt lat="43.400268" lon="-6.047468">
        <ele>120.0</ele>
        <time>2012-06-15T07:41:52Z</time>
      </trkpt>
      <trkpt lat="43.400033" lon="-6.047682">
        <ele>120.0</ele>
        <time>2012-06-15T07:41:56Z</time>
      </trkpt>
      <trkpt lat="43.399819" lon="-6.047928">
        <ele>120.0</ele>
        <time>2012-06-15T07:42:00Z</time>
      </trkpt>
      <trkpt lat="43.399626" lon="-6.048204">
        <ele>120.0</ele>
        <time>2012-06-15T07:42:04Z</time>
      </trkpt>
      <trkpt lat="43.399436" lon="-6.048485">
        <ele>120.0</ele>
        <time>2012-06-15T07:42:08Z</time>
      </trkpt>
      <trkpt lat="43.399263" lon="-6.048783">
        <ele>120.0</ele>
        <time>2012-06-15T07:42:12Z</time>
      </trkpt>
      <trkpt lat="43.399099" lon="-6.049093">
        <ele>120.0</ele>
        <time>2012-06-15T07:42:16Z</time>
      </trkpt>
      <trkpt lat="43.398933" lon="-6.049407">
        <ele>119.0</ele>
        <time>2012-06-15T07:42:20Z</time>
      </trkpt>
      <trkpt lat="43.398818" lon="-6.049651">
        <ele>119.0</ele>
        <time>2012-06-15T07:42:23Z</time>
      </trkpt>
      <trkpt lat="43.398625" lon="-6.05005">
        <ele>118.0</ele>
        <time>2012-06-15T07:42:28Z</time>
      </trkpt>
      <trkpt lat="43.398467" lon="-6.050361">
        <ele>119.0</ele>
        <time>2012-06-15T07:42:32Z</time>
      </trkpt>
      <trkpt lat="43.39831" lon="-6.050669">
        <ele>120.0</ele>
        <time>2012-06-15T07:42:36Z</time>
      </trkpt>
      <trkpt lat="43.398248" lon="-6.050933">
        <ele>120.0</ele>
        <time>2012-06-15T07:42:39Z</time>
      </trkpt>
      <trkpt lat="43.398005" lon="-6.051266">
        <ele>120.0</ele>
        <time>2012-06-15T07:42:44Z</time>
      </trkpt>
      <trkpt lat="43.397902" lon="-6.051494">
        <ele>120.0</ele>
        <time>2012-06-15T07:42:47Z</time>
      </trkpt>
      <trkpt lat="43.397774" lon="-6.051811">
        <ele>121.0</ele>
        <time>2012-06-15T07:42:51Z</time>
      </trkpt>
      <trkpt lat="43.397592" lon="-6.052211">
        <ele>121.0</ele>
        <time>2012-06-15T07:42:56Z</time>
      </trkpt>
      <trkpt lat="43.397435" lon="-6.052522">
        <ele>121.0</ele>
        <time>2012-06-15T07:43:00Z</time>
      </trkpt>
      <trkpt lat="43.397283" lon="-6.052838">
        <ele>121.0</ele>
        <time>2012-06-15T07:43:04Z</time>
      </trkpt>
      <trkpt lat="43.397175" lon="-6.053084">
        <ele>120.0</ele>
        <time>2012-06-15T07:43:07Z</time>
      </trkpt>
      <trkpt lat="43.396985" lon="-6.053503">
        <ele>120.0</ele>
        <time>2012-06-15T07:43:12Z</time>
      </trkpt>
      <trkpt lat="43.396833" lon="-6.053842">
        <ele>120.0</ele>
        <time>2012-06-15T07:43:16Z</time>
      </trkpt>
      <trkpt lat="43.396685" lon="-6.054174">
        <ele>119.0</ele>
        <time>2012-06-15T07:43:20Z</time>
      </trkpt>
      <trkpt lat="43.396536" lon="-6.054493">
        <ele>119.0</ele>
        <time>2012-06-15T07:43:24Z</time>
      </trkpt>
      <trkpt lat="43.396383" lon="-6.054801">
        <ele>119.0</ele>
        <time>2012-06-15T07:43:28Z</time>
      </trkpt>
      <trkpt lat="43.396222" lon="-6.055097">
        <ele>119.0</ele>
        <time>2012-06-15T07:43:32Z</time>
      </trkpt>
      <trkpt lat="43.396067" lon="-6.055397">
        <ele>119.0</ele>
        <time>2012-06-15T07:43:36Z</time>
      </trkpt>
      <trkpt lat="43.395909" lon="-6.055692">
        <ele>119.0</ele>
        <time>2012-06-15T07:43:40Z</time>
      </trkpt>
      <trkpt lat="43.395755" lon="-6.055983">
        <ele>119.0</ele>
        <time>2012-06-15T07:43:44Z</time>
      </trkpt>
      <trkpt lat="43.395599" lon="-6.056278">
        <ele>119.0</ele>
        <time>2012-06-15T07:43:48Z</time>
      </trkpt>
      <trkpt lat="43.395442" lon="-6.056577">
        <ele>119.0</ele>
        <time>2012-06-15T07:43:52Z</time>
      </trkpt>
      <trkpt lat="43.395275" lon="-6.056878">
        <ele>119.0</ele>
        <time>2012-06-15T07:43:56Z</time>
      </trkpt>
      <trkpt lat="43.395103" lon="-6.057194">
        <ele>118.0</ele>
        <time>2012-06-15T07:44:00Z</time>
      </trkpt>
      <trkpt lat="43.394942" lon="-6.057517">
        <ele>118.0</ele>
        <time>2012-06-15T07:44:04Z</time>
      </trkpt>
      <trkpt lat="43.394812" lon="-6.057851">
        <ele>117.0</ele>
        <time>2012-06-15T07:44:08Z</time>
      </trkpt>
      <trkpt lat="43.394753" lon="-6.058117">
        <ele>117.0</ele>
        <time>2012-06-15T07:44:11Z</time>
      </trkpt>
      <trkpt lat="43.394555" lon="-6.058433">
        <ele>117.0</ele>
        <time>2012-06-15T07:44:16Z</time>
      </trkpt>
      <trkpt lat="43.394383" lon="-6.058673">
        <ele>118.0</ele>
        <time>2012-06-15T07:44:20Z</time>
      </trkpt>
      <trkpt lat="43.394241" lon="-6.058968">
        <ele>119.0</ele>
        <time>2012-06-15T07:44:24Z</time>
      </trkpt>
      <trkpt lat="43.394135" lon="-6.05919">
        <ele>118.0</ele>
        <time>2012-06-15T07:44:27Z</time>
      </trkpt>
      <trkpt lat="43.393955" lon="-6.059546">
        <ele>118.0</ele>
        <time>2012-06-15T07:44:32Z</time>
      </trkpt>
      <trkpt lat="43.393808" lon="-6.059828">
        <ele>118.0</ele>
        <time>2012-06-15T07:44:36Z</time>
      </trkpt>
      <trkpt lat="43.393666" lon="-6.060117">
        <ele>118.0</ele>
        <time>2012-06-15T07:44:40Z</time>
      </trkpt>
      <trkpt lat="43.39355" lon="-6.060421">
        <ele>117.0</ele>
        <time>2012-06-15T07:44:44Z</time>
      </trkpt>
      <trkpt lat="43.393458" lon="-6.060752">
        <ele>117.0</ele>
        <time>2012-06-15T07:44:48Z</time>
      </trkpt>
      <trkpt lat="43.393397" lon="-6.061009">
        <ele>116.0</ele>
        <time>2012-06-15T07:44:51Z</time>
      </trkpt>
      <trkpt lat="43.393332" lon="-6.061464">
        <ele>114.0</ele>
        <time>2012-06-15T07:44:56Z</time>
      </trkpt>
      <trkpt lat="43.393301" lon="-6.061844">
        <ele>113.0</ele>
        <time>2012-06-15T07:45:00Z</time>
      </trkpt>
      <trkpt lat="43.393302" lon="-6.062229">
        <ele>112.0</ele>
        <time>2012-06-15T07:45:04Z</time>
      </trkpt>
      <trkpt lat="43.393306" lon="-6.062511">
        <ele>111.0</ele>
        <time>2012-06-15T07:45:07Z</time>
      </trkpt>
      <trkpt lat="43.393303" lon="-6.062994">
        <ele>110.0</ele>
        <time>2012-06-15T07:45:12Z</time>
      </trkpt>
      <trkpt lat="43.393298" lon="-6.063373">
        <ele>109.0</ele>
        <time>2012-06-15T07:45:16Z</time>
      </trkpt>
      <trkpt lat="43.393289" lon="-6.063745">
        <ele>109.0</ele>
        <time>2012-06-15T07:45:20Z</time>
      </trkpt>
      <trkpt lat="43.393297" lon="-6.06409">
        <ele>109.0</ele>
        <time>2012-06-15T07:45:24Z</time>
      </trkpt>
      <trkpt lat="43.39329" lon="-6.064415">
        <ele>109.0</ele>
        <time>2012-06-15T07:45:28Z</time>
      </trkpt>
      <trkpt lat="43.393282" lon="-6.064564">
        <ele>110.0</ele>
        <time>2012-06-15T07:45:30Z</time>
      </trkpt>
      <trkpt lat="43.393283" lon="-6.065011">
        <ele>110.0</ele>
        <time>2012-06-15T07:45:36Z</time>
      </trkpt>
      <trkpt lat="43.393287" lon="-6.065309">
        <ele>110.0</ele>
        <time>2012-06-15T07:45:40Z</time>
      </trkpt>
      <trkpt lat="43.393306" lon="-6.065596">
        <ele>110.0</ele>
        <time>2012-06-15T07:45:44Z</time>
      </trkpt>
      <trkpt lat="43.39333" lon="-6.065895">
        <ele>110.0</ele>
        <time>2012-06-15T07:45:48Z</time>
      </trkpt>
      <trkpt lat="43.393357" lon="-6.066221">
        <ele>110.0</ele>
        <time>2012-06-15T07:45:52Z</time>
      </trkpt>
      <trkpt lat="43.393348" lon="-6.066556">
        <ele>111.0</ele>
        <time>2012-06-15T07:45:56Z</time>
      </trkpt>
      <trkpt lat="43.393254" lon="-6.066865">
        <ele>112.0</ele>
        <time>2012-06-15T07:46:00Z</time>
      </trkpt>
      <trkpt lat="43.392912" lon="-6.067265">
        <ele>113.0</ele>
        <time>2012-06-15T07:46:08Z</time>
      </trkpt>
      <trkpt lat="43.392886" lon="-6.067353">
        <ele>113.0</ele>
        <time>2012-06-15T07:46:11Z</time>
      </trkpt>
      <trkpt lat="43.392833" lon="-6.067434">
        <ele>113.0</ele>
        <time>2012-06-15T07:46:15Z</time>
      </trkpt>
      <trkpt lat="43.392833" lon="-6.067434">
        <time>2012-06-15T07:46:26Z</time>
      </trkpt>
    </trkseg>
    <trkseg>
      <trkpt lat="43.392833" lon="-6.067434">
        <time>2012-06-15T07:46:29Z</time>
      </trkpt>
      <trkpt lat="43.392833" lon="-6.067434">
        <time>2012-06-15T07:46:40Z</time>
      </trkpt>
    </trkseg>
    <trkseg>
      <trkpt lat="43.392833" lon="-6.067434">
        <time>2012-06-15T07:47:04Z</time>
      </trkpt>
      <trkpt lat="43.393014" lon="-6.067388">
        <ele>115.0</ele>
        <time>2012-06-15T07:47:06Z</time>
      </trkpt>
      <trkpt lat="43.393223" lon="-6.067093">
        <ele>117.0</ele>
        <time>2012-06-15T07:47:11Z</time>
      </trkpt>
      <trkpt lat="43.393367" lon="-6.066654">
        <ele>117.0</ele>
        <time>2012-06-15T07:47:15Z</time>
      </trkpt>
      <trkpt lat="43.39354" lon="-6.066213">
        <ele>117.0</ele>
        <time>2012-06-15T07:47:19Z</time>
      </trkpt>
      <trkpt lat="43.393569" lon="-6.065801">
        <ele>117.0</ele>
        <time>2012-06-15T07:47:23Z</time>
      </trkpt>
      <trkpt lat="43.393577" lon="-6.065419">
        <ele>117.0</ele>
        <time>2012-06-15T07:47:27Z</time>
      </trkpt>
      <trkpt lat="43.393574" lon="-6.065046">
        <ele>117.0</ele>
        <time>2012-06-15T07:47:31Z</time>
      </trkpt>
      <trkpt lat="43.393547" lon="-6.064668">
        <ele>118.0</ele>
        <time>2012-06-15T07:47:35Z</time>
      </trkpt>
      <trkpt lat="43.393523" lon="-6.064258">
        <ele>118.0</ele>
        <time>2012-06-15T07:47:39Z</time>
      </trkpt>
      <trkpt lat="43.393522" lon="-6.063829">
        <ele>119.0</ele>
        <time>2012-06-15T07:47:43Z</time>
      </trkpt>
      <trkpt lat="43.393523" lon="-6.063612">
        <ele>118.0</ele>
        <time>2012-06-15T07:47:45Z</time>
      </trkpt>
      <trkpt lat="43.393516" lon="-6.062946">
        <ele>118.0</ele>
        <time>2012-06-15T07:47:51Z</time>
      </trkpt>
      <trkpt lat="43.393495" lon="-6.062488">
        <ele>118.0</ele>
        <time>2012-06-15T07:47:55Z</time>
      </trkpt>
      <trkpt lat="43.393478" lon="-6.062042">
        <ele>118.0</ele>
        <time>2012-06-15T07:47:59Z</time>
      </trkpt>
      <trkpt lat="43.393492" lon="-6.061611">
        <ele>118.0</ele>
        <time>2012-06-15T07:48:03Z</time>
      </trkpt>
      <trkpt lat="43.393483" lon="-6.061179">
        <ele>119.0</ele>
        <time>2012-06-15T07:48:07Z</time>
      </trkpt>
      <trkpt lat="43.393505" lon="-6.060759">
        <ele>119.0</ele>
        <time>2012-06-15T07:48:11Z</time>
      </trkpt>
      <trkpt lat="43.393629" lon="-6.060384">
        <ele>118.0</ele>
        <time>2012-06-15T07:48:15Z</time>
      </trkpt>
      <trkpt lat="43.393743" lon="-6.06012">
        <ele>117.0</ele>
        <time>2012-06-15T07:48:18Z</time>
      </trkpt>
      <trkpt lat="43.393956" lon="-6.059694">
        <ele>116.0</ele>
        <time>2012-06-15T07:48:23Z</time>
      </trkpt>
      <trkpt lat="43.394044" lon="-6.059523">
        <ele>116.0</ele>
        <time>2012-06-15T07:48:25Z</time>
      </trkpt>
      <trkpt lat="43.39431" lon="-6.058992">
        <ele>117.0</ele>
        <time>2012-06-15T07:48:31Z</time>
      </trkpt>
      <trkpt lat="43.394481" lon="-6.058632">
        <ele>118.0</ele>
        <time>2012-06-15T07:48:35Z</time>
      </trkpt>
      <trkpt lat="43.394645" lon="-6.058264">
        <ele>119.0</ele>
        <time>2012-06-15T07:48:39Z</time>
      </trkpt>
      <trkpt lat="43.39483" lon="-6.057942">
        <ele>119.0</ele>
        <time>2012-06-15T07:48:43Z</time>
      </trkpt>
      <trkpt lat="43.395039" lon="-6.057709">
        <ele>119.0</ele>
        <time>2012-06-15T07:48:47Z</time>
      </trkpt>
      <trkpt lat="43.39519" lon="-6.0574">
        <ele>119.0</ele>
        <time>2012-06-15T07:48:51Z</time>
      </trkpt>
      <trkpt lat="43.395336" lon="-6.057064">
        <ele>118.0</ele>
        <time>2012-06-15T07:48:55Z</time>
      </trkpt>
      <trkpt lat="43.395479" lon="-6.056717">
        <ele>118.0</ele>
        <time>2012-06-15T07:48:59Z</time>
      </trkpt>
      <trkpt lat="43.39562" lon="-6.056377">
        <ele>119.0</ele>
        <time>2012-06-15T07:49:03Z</time>
      </trkpt>
      <trkpt lat="43.395767" lon="-6.056044">
        <ele>119.0</ele>
        <time>2012-06-15T07:49:07Z</time>
      </trkpt>
      <trkpt lat="43.395881" lon="-6.055795">
        <ele>119.0</ele>
        <time>2012-06-15T07:49:10Z</time>
      </trkpt>
      <trkpt lat="43.396094" lon="-6.055378">
        <ele>119.0</ele>
        <time>2012-06-15T07:49:15Z</time>
      </trkpt>
      <trkpt lat="43.396272" lon="-6.055044">
        <ele>119.0</ele>
        <time>2012-06-15T07:49:19Z</time>
      </trkpt>
      <trkpt lat="43.39644" lon="-6.054707">
        <ele>120.0</ele>
        <time>2012-06-15T07:49:23Z</time>
      </trkpt>
      <trkpt lat="43.396566" lon="-6.054456">
        <ele>120.0</ele>
        <time>2012-06-15T07:49:26Z</time>
      </trkpt>
      <trkpt lat="43.396763" lon="-6.054026">
        <ele>120.0</ele>
        <time>2012-06-15T07:49:31Z</time>
      </trkpt>
      <trkpt lat="43.396911" lon="-6.053669">
        <ele>121.0</ele>
        <time>2012-06-15T07:49:35Z</time>
      </trkpt>
      <trkpt lat="43.397059" lon="-6.053314">
        <ele>122.0</ele>
        <time>2012-06-15T07:49:39Z</time>
      </trkpt>
      <trkpt lat="43.397221" lon="-6.052967">
        <ele>122.0</ele>
        <time>2012-06-15T07:49:43Z</time>
      </trkpt>
      <trkpt lat="43.397376" lon="-6.052612">
        <ele>122.0</ele>
        <time>2012-06-15T07:49:47Z</time>
      </trkpt>
      <trkpt lat="43.397533" lon="-6.052253">
        <ele>122.0</ele>
        <time>2012-06-15T07:49:51Z</time>
      </trkpt>
      <trkpt lat="43.397702" lon="-6.051893">
        <ele>121.0</ele>
        <time>2012-06-15T07:49:55Z</time>
      </trkpt>
      <trkpt lat="43.397841" lon="-6.051507">
        <ele>121.0</ele>
        <time>2012-06-15T07:49:59Z</time>
      </trkpt>
      <trkpt lat="43.397852" lon="-6.051104">
        <ele>121.0</ele>
        <time>2012-06-15T07:50:03Z</time>
      </trkpt>
      <trkpt lat="43.397822" lon="-6.050791">
        <ele>121.0</ele>
        <time>2012-06-15T07:50:07Z</time>
      </trkpt>
      <trkpt lat="43.397922" lon="-6.050478">
        <ele>121.0</ele>
        <time>2012-06-15T07:50:11Z</time>
      </trkpt>
      <trkpt lat="43.398334" lon="-6.050527">
        <ele>122.0</ele>
        <time>2012-06-15T07:50:15Z</time>
      </trkpt>
      <trkpt lat="43.398601" lon="-6.050311">
        <ele>123.0</ele>
        <time>2012-06-15T07:50:19Z</time>
      </trkpt>
      <trkpt lat="43.398792" lon="-6.049974">
        <ele>123.0</ele>
        <time>2012-06-15T07:50:23Z</time>
      </trkpt>
      <trkpt lat="43.398956" lon="-6.049636">
        <ele>123.0</ele>
        <time>2012-06-15T07:50:27Z</time>
      </trkpt>
      <trkpt lat="43.39912" lon="-6.049311">
        <ele>124.0</ele>
        <time>2012-06-15T07:50:31Z</time>
      </trkpt>
      <trkpt lat="43.3992" lon="-6.049152">
        <ele>125.0</ele>
        <time>2012-06-15T07:50:33Z</time>
      </trkpt>
      <trkpt lat="43.399427" lon="-6.048683">
        <ele>125.0</ele>
        <time>2012-06-15T07:50:39Z</time>
      </trkpt>
      <trkpt lat="43.399593" lon="-6.048394">
        <ele>125.0</ele>
        <time>2012-06-15T07:50:43Z</time>
      </trkpt>
      <trkpt lat="43.399778" lon="-6.048127">
        <ele>124.0</ele>
        <time>2012-06-15T07:50:47Z</time>
      </trkpt>
      <trkpt lat="43.399975" lon="-6.047869">
        <ele>124.0</ele>
        <time>2012-06-15T07:50:51Z</time>
      </trkpt>
      <trkpt lat="43.400181" lon="-6.047629">
        <ele>124.0</ele>
        <time>2012-06-15T07:50:55Z</time>
      </trkpt>
      <trkpt lat="43.400396" lon="-6.047403">
        <ele>124.0</ele>
        <time>2012-06-15T07:50:59Z</time>
      </trkpt>
      <trkpt lat="43.400622" lon="-6.047187">
        <ele>124.0</ele>
        <time>2012-06-15T07:51:03Z</time>
      </trkpt>
      <trkpt lat="43.400732" lon="-6.047077">
        <ele>125.0</ele>
        <time>2012-06-15T07:51:05Z</time>
      </trkpt>
      <trkpt lat="43.401079" lon="-6.046742">
        <ele>124.0</ele>
        <time>2012-06-15T07:51:11Z</time>
      </trkpt>
      <trkpt lat="43.401317" lon="-6.046516">
        <ele>124.0</ele>
        <time>2012-06-15T07:51:15Z</time>
      </trkpt>
      <trkpt lat="43.401552" lon="-6.04629">
        <ele>124.0</ele>
        <time>2012-06-15T07:51:19Z</time>
      </trkpt>
      <trkpt lat="43.401778" lon="-6.04606">
        <ele>124.0</ele>
        <time>2012-06-15T07:51:23Z</time>
      </trkpt>
      <trkpt lat="43.401949" lon="-6.045888">
        <ele>124.0</ele>
        <time>2012-06-15T07:51:26Z</time>
      </trkpt>
      <trkpt lat="43.402166" lon="-6.045625">
        <ele>124.0</ele>
        <time>2012-06-15T07:51:30Z</time>
      </trkpt>
      <trkpt lat="43.402409" lon="-6.045227">
        <ele>125.0</ele>
        <time>2012-06-15T07:51:35Z</time>
      </trkpt>
      <trkpt lat="43.40259" lon="-6.044889">
        <ele>125.0</ele>
        <time>2012-06-15T07:51:39Z</time>
      </trkpt>
      <trkpt lat="43.402775" lon="-6.044561">
        <ele>125.0</ele>
        <time>2012-06-15T07:51:43Z</time>
      </trkpt>
      <trkpt lat="43.402981" lon="-6.044255">
        <ele>124.0</ele>
        <time>2012-06-15T07:51:47Z</time>
      </trkpt>
      <trkpt lat="43.403111" lon="-6.043835">
        <ele>124.0</ele>
        <time>2012-06-15T07:51:51Z</time>
      </trkpt>
      <trkpt lat="43.403186" lon="-6.043395">
        <ele>124.0</ele>
        <time>2012-06-15T07:51:55Z</time>
      </trkpt>
      <trkpt lat="43.403213" lon="-6.042987">
        <ele>124.0</ele>
        <time>2012-06-15T07:51:59Z</time>
      </trkpt>
      <trkpt lat="43.403207" lon="-6.042614">
        <ele>124.0</ele>
        <time>2012-06-15T07:52:03Z</time>
      </trkpt>
      <trkpt lat="43.403159" lon="-6.042072">
        <ele>123.0</ele>
        <time>2012-06-15T07:52:10Z</time>
      </trkpt>
      <trkpt lat="43.403137" lon="-6.041772">
        <ele>122.0</ele>
        <time>2012-06-15T07:52:14Z</time>
      </trkpt>
      <trkpt lat="43.403118" lon="-6.041491">
        <ele>121.0</ele>
        <time>2012-06-15T07:52:18Z</time>
      </trkpt>
      <trkpt lat="43.403092" lon="-6.041216">
        <ele>121.0</ele>
        <time>2012-06-15T07:52:22Z</time>
      </trkpt>
      <trkpt lat="43.403056" lon="-6.040947">
        <ele>121.0</ele>
        <time>2012-06-15T07:52:26Z</time>
      </trkpt>
      <trkpt lat="43.403021" lon="-6.040671">
        <ele>121.0</ele>
        <time>2012-06-15T07:52:30Z</time>
      </trkpt>
      <trkpt lat="43.403009" lon="-6.040524">
        <ele>122.0</ele>
        <time>2012-06-15T07:52:32Z</time>
      </trkpt>
      <trkpt lat="43.40294" lon="-6.040076">
        <ele>123.0</ele>
        <time>2012-06-15T07:52:38Z</time>
      </trkpt>
      <trkpt lat="43.402897" lon="-6.039774">
        <ele>123.0</ele>
        <time>2012-06-15T07:52:42Z</time>
      </trkpt>
      <trkpt lat="43.402857" lon="-6.039474">
        <ele>121.0</ele>
        <time>2012-06-15T07:52:46Z</time>
      </trkpt>
      <trkpt lat="43.402818" lon="-6.039166">
        <ele>119.0</ele>
        <time>2012-06-15T07:52:50Z</time>
      </trkpt>
      <trkpt lat="43.402752" lon="-6.038863">
        <ele>118.0</ele>
        <time>2012-06-15T07:52:54Z</time>
      </trkpt>
      <trkpt lat="43.402575" lon="-6.038413">
        <ele>118.0</ele>
        <time>2012-06-15T07:52:59Z</time>
      </trkpt>
      <trkpt lat="43.402435" lon="-6.038038">
        <ele>117.0</ele>
        <time>2012-06-15T07:53:03Z</time>
      </trkpt>
      <trkpt lat="43.402296" lon="-6.037692">
        <ele>117.0</ele>
        <time>2012-06-15T07:53:07Z</time>
      </trkpt>
      <trkpt lat="43.402155" lon="-6.03735">
        <ele>118.0</ele>
        <time>2012-06-15T07:53:11Z</time>
      </trkpt>
      <trkpt lat="43.402022" lon="-6.037016">
        <ele>118.0</ele>
        <time>2012-06-15T07:53:15Z</time>
      </trkpt>
      <trkpt lat="43.401893" lon="-6.036695">
        <ele>119.0</ele>
        <time>2012-06-15T07:53:19Z</time>
      </trkpt>
      <trkpt lat="43.401797" lon="-6.036367">
        <ele>119.0</ele>
        <time>2012-06-15T07:53:23Z</time>
      </trkpt>
      <trkpt lat="43.401721" lon="-6.036029">
        <ele>119.0</ele>
        <time>2012-06-15T07:53:27Z</time>
      </trkpt>
      <trkpt lat="43.401649" lon="-6.03569">
        <ele>119.0</ele>
        <time>2012-06-15T07:53:31Z</time>
      </trkpt>
      <trkpt lat="43.401572" lon="-6.035353">
        <ele>119.0</ele>
        <time>2012-06-15T07:53:35Z</time>
      </trkpt>
      <trkpt lat="43.401534" lon="-6.035185">
        <ele>119.0</ele>
        <time>2012-06-15T07:53:37Z</time>
      </trkpt>
      <trkpt lat="43.401369" lon="-6.034682">
        <ele>121.0</ele>
        <time>2012-06-15T07:53:43Z</time>
      </trkpt>
      <trkpt lat="43.401251" lon="-6.034388">
        <ele>122.0</ele>
        <time>2012-06-15T07:53:47Z</time>
      </trkpt>
      <trkpt lat="43.401105" lon="-6.034116">
        <ele>123.0</ele>
        <time>2012-06-15T07:53:51Z</time>
      </trkpt>
      <trkpt lat="43.400844" lon="-6.033873">
        <ele>125.0</ele>
        <time>2012-06-15T07:53:55Z</time>
      </trkpt>
      <trkpt lat="43.400613" lon="-6.033634">
        <ele>126.0</ele>
        <time>2012-06-15T07:53:59Z</time>
      </trkpt>
      <trkpt lat="43.400411" lon="-6.033388">
        <ele>126.0</ele>
        <time>2012-06-15T07:54:03Z</time>
      </trkpt>
      <trkpt lat="43.400216" lon="-6.033138">
        <ele>126.0</ele>
        <time>2012-06-15T07:54:07Z</time>
      </trkpt>
      <trkpt lat="43.400026" lon="-6.032883">
        <ele>126.0</ele>
        <time>2012-06-15T07:54:11Z</time>
      </trkpt>
      <trkpt lat="43.399841" lon="-6.032626">
        <ele>126.0</ele>
        <time>2012-06-15T07:54:15Z</time>
      </trkpt>
      <trkpt lat="43.399653" lon="-6.032358">
        <ele>126.0</ele>
        <time>2012-06-15T07:54:19Z</time>
      </trkpt>
      <trkpt lat="43.399517" lon="-6.032163">
        <ele>125.0</ele>
        <time>2012-06-15T07:54:22Z</time>
      </trkpt>
      <trkpt lat="43.399298" lon="-6.031836">
        <ele>125.0</ele>
        <time>2012-06-15T07:54:27Z</time>
      </trkpt>
      <trkpt lat="43.399121" lon="-6.031578">
        <ele>125.0</ele>
        <time>2012-06-15T07:54:31Z</time>
      </trkpt>
      <trkpt lat="43.398942" lon="-6.031325">
        <ele>125.0</ele>
        <time>2012-06-15T07:54:35Z</time>
      </trkpt>
      <trkpt lat="43.398759" lon="-6.031072">
        <ele>124.0</ele>
        <time>2012-06-15T07:54:39Z</time>
      </trkpt>
      <trkpt lat="43.398569" lon="-6.030823">
        <ele>124.0</ele>
        <time>2012-06-15T07:54:43Z</time>
      </trkpt>
      <trkpt lat="43.398351" lon="-6.03062">
        <ele>124.0</ele>
        <time>2012-06-15T07:54:47Z</time>
      </trkpt>
      <trkpt lat="43.398144" lon="-6.030406">
        <ele>124.0</ele>
        <time>2012-06-15T07:54:51Z</time>
      </trkpt>
      <trkpt lat="43.397933" lon="-6.030218">
        <ele>124.0</ele>
        <time>2012-06-15T07:54:55Z</time>
      </trkpt>
      <trkpt lat="43.397699" lon="-6.030064">
        <ele>122.0</ele>
        <time>2012-06-15T07:54:59Z</time>
      </trkpt>
      <trkpt lat="43.397457" lon="-6.02992">
        <ele>122.0</ele>
        <time>2012-06-15T07:55:03Z</time>
      </trkpt>
      <trkpt lat="43.397283" lon="-6.029818">
        <ele>123.0</ele>
        <time>2012-06-15T07:55:06Z</time>
      </trkpt>
      <trkpt lat="43.397006" lon="-6.029576">
        <ele>125.0</ele>
        <time>2012-06-15T07:55:11Z</time>
      </trkpt>
      <trkpt lat="43.39682" lon="-6.029292">
        <ele>126.0</ele>
        <time>2012-06-15T07:55:15Z</time>
      </trkpt>
      <trkpt lat="43.396663" lon="-6.028982">
        <ele>126.0</ele>
        <time>2012-06-15T07:55:19Z</time>
      </trkpt>
      <trkpt lat="43.396523" lon="-6.028642">
        <ele>126.0</ele>
        <time>2012-06-15T07:55:23Z</time>
      </trkpt>
      <trkpt lat="43.396393" lon="-6.028279">
        <ele>126.0</ele>
        <time>2012-06-15T07:55:27Z</time>
      </trkpt>
      <trkpt lat="43.396323" lon="-6.027891">
        <ele>125.0</ele>
        <time>2012-06-15T07:55:31Z</time>
      </trkpt>
      <trkpt lat="43.396277" lon="-6.027511">
        <ele>126.0</ele>
        <time>2012-06-15T07:55:35Z</time>
      </trkpt>
      <trkpt lat="43.39622" lon="-6.027134">
        <ele>127.0</ele>
        <time>2012-06-15T07:55:39Z</time>
      </trkpt>
      <trkpt lat="43.396167" lon="-6.026763">
        <ele>128.0</ele>
        <time>2012-06-15T07:55:43Z</time>
      </trkpt>
      <trkpt lat="43.396094" lon="-6.026392">
        <ele>128.0</ele>
        <time>2012-06-15T07:55:47Z</time>
      </trkpt>
      <trkpt lat="43.396014" lon="-6.026032">
        <ele>128.0</ele>
        <time>2012-06-15T07:55:51Z</time>
      </trkpt>
      <trkpt lat="43.395819" lon="-6.025767">
        <ele>128.0</ele>
        <time>2012-06-15T07:55:55Z</time>
      </trkpt>
      <trkpt lat="43.395685" lon="-6.025716">
        <ele>128.0</ele>
        <time>2012-06-15T07:55:57Z</time>
      </trkpt>
      <trkpt lat="43.39523" lon="-6.025645">
        <ele>128.0</ele>
        <time>2012-06-15T07:56:03Z</time>
      </trkpt>
      <trkpt lat="43.39494" lon="-6.02565">
        <ele>128.0</ele>
        <time>2012-06-15T07:56:07Z</time>
      </trkpt>
      <trkpt lat="43.39466" lon="-6.025615">
        <ele>128.0</ele>
        <time>2012-06-15T07:56:11Z</time>
      </trkpt>
      <trkpt lat="43.394401" lon="-6.025506">
        <ele>128.0</ele>
        <time>2012-06-15T07:56:15Z</time>
      </trkpt>
      <trkpt lat="43.394277" lon="-6.025421">
        <ele>129.0</ele>
        <time>2012-06-15T07:56:17Z</time>
      </trkpt>
      <trkpt lat="43.393933" lon="-6.025099">
        <ele>129.0</ele>
        <time>2012-06-15T07:56:23Z</time>
      </trkpt>
      <trkpt lat="43.393707" lon="-6.024875">
        <ele>130.0</ele>
        <time>2012-06-15T07:56:27Z</time>
      </trkpt>
      <trkpt lat="43.393505" lon="-6.024614">
        <ele>130.0</ele>
        <time>2012-06-15T07:56:31Z</time>
      </trkpt>
      <trkpt lat="43.393324" lon="-6.024286">
        <ele>130.0</ele>
        <time>2012-06-15T07:56:35Z</time>
      </trkpt>
      <trkpt lat="43.393173" lon="-6.023934">
        <ele>130.0</ele>
        <time>2012-06-15T07:56:39Z</time>
      </trkpt>
      <trkpt lat="43.393146" lon="-6.023732">
        <ele>131.0</ele>
        <time>2012-06-15T07:56:41Z</time>
      </trkpt>
      <trkpt lat="43.393056" lon="-6.023126">
        <ele>133.0</ele>
        <time>2012-06-15T07:56:47Z</time>
      </trkpt>
      <trkpt lat="43.392987" lon="-6.022714">
        <ele>133.0</ele>
        <time>2012-06-15T07:56:51Z</time>
      </trkpt>
      <trkpt lat="43.392892" lon="-6.022347">
        <ele>134.0</ele>
        <time>2012-06-15T07:56:55Z</time>
      </trkpt>
      <trkpt lat="43.392775" lon="-6.022015">
        <ele>135.0</ele>
        <time>2012-06-15T07:56:59Z</time>
      </trkpt>
      <trkpt lat="43.392715" lon="-6.021661">
        <ele>136.0</ele>
        <time>2012-06-15T07:57:03Z</time>
      </trkpt>
      <trkpt lat="43.392673" lon="-6.021343">
        <ele>136.0</ele>
        <time>2012-06-15T07:57:07Z</time>
      </trkpt>
      <trkpt lat="43.392796" lon="-6.021081">
        <ele>137.0</ele>
        <time>2012-06-15T07:57:11Z</time>
      </trkpt>
      <trkpt lat="43.393265" lon="-6.020915">
        <ele>139.0</ele>
        <time>2012-06-15T07:57:15Z</time>
      </trkpt>
      <trkpt lat="43.393485" lon="-6.02076">
        <ele>139.0</ele>
        <time>2012-06-15T07:57:18Z</time>
      </trkpt>
      <trkpt lat="43.393751" lon="-6.020325">
        <ele>140.0</ele>
        <time>2012-06-15T07:57:23Z</time>
      </trkpt>
      <trkpt lat="43.393709" lon="-6.019898">
        <ele>140.0</ele>
        <time>2012-06-15T07:57:27Z</time>
      </trkpt>
      <trkpt lat="43.393576" lon="-6.019527">
        <ele>141.0</ele>
        <time>2012-06-15T07:57:31Z</time>
      </trkpt>
      <trkpt lat="43.393384" lon="-6.019189">
        <ele>141.0</ele>
        <time>2012-06-15T07:57:35Z</time>
      </trkpt>
      <trkpt lat="43.393117" lon="-6.01897">
        <ele>140.0</ele>
        <time>2012-06-15T07:57:39Z</time>
      </trkpt>
      <trkpt lat="43.392853" lon="-6.018779">
        <ele>140.0</ele>
        <time>2012-06-15T07:57:43Z</time>
      </trkpt>
      <trkpt lat="43.39266" lon="-6.01848">
        <ele>140.0</ele>
        <time>2012-06-15T07:57:47Z</time>
      </trkpt>
      <trkpt lat="43.392547" lon="-6.018108">
        <ele>140.0</ele>
        <time>2012-06-15T07:57:51Z</time>
      </trkpt>
      <trkpt lat="43.392498" lon="-6.01792">
        <ele>141.0</ele>
        <time>2012-06-15T07:57:53Z</time>
      </trkpt>
      <trkpt lat="43.392376" lon="-6.017357">
        <ele>141.0</ele>
        <time>2012-06-15T07:57:59Z</time>
      </trkpt>
      <trkpt lat="43.392319" lon="-6.016994">
        <ele>142.0</ele>
        <time>2012-06-15T07:58:03Z</time>
      </trkpt>
      <trkpt lat="43.392288" lon="-6.016646">
        <ele>143.0</ele>
        <time>2012-06-15T07:58:07Z</time>
      </trkpt>
      <trkpt lat="43.39227" lon="-6.01639">
        <ele>143.0</ele>
        <time>2012-06-15T07:58:10Z</time>
      </trkpt>
      <trkpt lat="43.392269" lon="-6.016077">
        <ele>144.0</ele>
        <time>2012-06-15T07:58:14Z</time>
      </trkpt>
      <trkpt lat="43.392281" lon="-6.015765">
        <ele>144.0</ele>
        <time>2012-06-15T07:58:18Z</time>
      </trkpt>
      <trkpt lat="43.392281" lon="-6.015446">
        <ele>144.0</ele>
        <time>2012-06-15T07:58:22Z</time>
      </trkpt>
      <trkpt lat="43.392279" lon="-6.015126">
        <ele>144.0</ele>
        <time>2012-06-15T07:58:26Z</time>
      </trkpt>
      <trkpt lat="43.392273" lon="-6.014811">
        <ele>144.0</ele>
        <time>2012-06-15T07:58:30Z</time>
      </trkpt>
      <trkpt lat="43.392272" lon="-6.014496">
        <ele>144.0</ele>
        <time>2012-06-15T07:58:34Z</time>
      </trkpt>
      <trkpt lat="43.39227" lon="-6.014194">
        <ele>144.0</ele>
        <time>2012-06-15T07:58:38Z</time>
      </trkpt>
      <trkpt lat="43.392275" lon="-6.013915">
        <ele>144.0</ele>
        <time>2012-06-15T07:58:42Z</time>
      </trkpt>
      <trkpt lat="43.392281" lon="-6.01365">
        <ele>143.0</ele>
        <time>2012-06-15T07:58:46Z</time>
      </trkpt>
      <trkpt lat="43.392281" lon="-6.01339">
        <ele>143.0</ele>
        <time>2012-06-15T07:58:50Z</time>
      </trkpt>
      <trkpt lat="43.392244" lon="-6.013139">
        <ele>144.0</ele>
        <time>2012-06-15T07:58:54Z</time>
      </trkpt>
      <trkpt lat="43.391965" lon="-6.012902">
        <ele>145.0</ele>
        <time>2012-06-15T07:58:59Z</time>
      </trkpt>
      <trkpt lat="43.391807" lon="-6.012775">
        <ele>146.0</ele>
        <time>2012-06-15T07:59:02Z</time>
      </trkpt>
      <trkpt lat="43.391614" lon="-6.012593">
        <ele>147.0</ele>
        <time>2012-06-15T07:59:06Z</time>
      </trkpt>
      <trkpt lat="43.391419" lon="-6.01242">
        <ele>147.0</ele>
        <time>2012-06-15T07:59:10Z</time>
      </trkpt>
      <trkpt lat="43.391209" lon="-6.01228">
        <ele>148.0</ele>
        <time>2012-06-15T07:59:14Z</time>
      </trkpt>
      <trkpt lat="43.390987" lon="-6.012173">
        <ele>148.0</ele>
        <time>2012-06-15T07:59:18Z</time>
      </trkpt>
      <trkpt lat="43.390792" lon="-6.012018">
        <ele>148.0</ele>
        <time>2012-06-15T07:59:22Z</time>
      </trkpt>
      <trkpt lat="43.390502" lon="-6.011486">
        <ele>148.0</ele>
        <time>2012-06-15T07:59:30Z</time>
      </trkpt>
      <trkpt lat="43.390329" lon="-6.011122">
        <ele>148.0</ele>
        <time>2012-06-15T07:59:35Z</time>
      </trkpt>
      <trkpt lat="43.390192" lon="-6.010841">
        <ele>149.0</ele>
        <time>2012-06-15T07:59:39Z</time>
      </trkpt>
      <trkpt lat="43.390059" lon="-6.010562">
        <ele>149.0</ele>
        <time>2012-06-15T07:59:43Z</time>
      </trkpt>
      <trkpt lat="43.389926" lon="-6.010282">
        <ele>149.0</ele>
        <time>2012-06-15T07:59:47Z</time>
      </trkpt>
      <trkpt lat="43.389861" lon="-6.010145">
        <ele>149.0</ele>
        <time>2012-06-15T07:59:49Z</time>
      </trkpt>
      <trkpt lat="43.389671" lon="-6.009735">
        <ele>149.0</ele>
        <time>2012-06-15T07:59:55Z</time>
      </trkpt>
      <trkpt lat="43.389547" lon="-6.009462">
        <ele>149.0</ele>
        <time>2012-06-15T07:59:59Z</time>
      </trkpt>
      <trkpt lat="43.389413" lon="-6.009215">
        <ele>148.0</ele>
        <time>2012-06-15T08:00:03Z</time>
      </trkpt>
      <trkpt lat="43.389273" lon="-6.008983">
        <ele>148.0</ele>
        <time>2012-06-15T08:00:07Z</time>
      </trkpt>
      <trkpt lat="43.389142" lon="-6.008742">
        <ele>149.0</ele>
        <time>2012-06-15T08:00:11Z</time>
      </trkpt>
      <trkpt lat="43.389024" lon="-6.008501">
        <ele>149.0</ele>
        <time>2012-06-15T08:00:15Z</time>
      </trkpt>
      <trkpt lat="43.388909" lon="-6.008262">
        <ele>150.0</ele>
        <time>2012-06-15T08:00:19Z</time>
      </trkpt>
      <trkpt lat="43.388857" lon="-6.008138">
        <ele>150.0</ele>
        <time>2012-06-15T08:00:21Z</time>
      </trkpt>
      <trkpt lat="43.388704" lon="-6.007764">
        <ele>150.0</ele>
        <time>2012-06-15T08:00:27Z</time>
      </trkpt>
      <trkpt lat="43.388608" lon="-6.007509">
        <ele>151.0</ele>
        <time>2012-06-15T08:00:31Z</time>
      </trkpt>
      <trkpt lat="43.388508" lon="-6.007256">
        <ele>151.0</ele>
        <time>2012-06-15T08:00:35Z</time>
      </trkpt>
      <trkpt lat="43.388424" lon="-6.006988">
        <ele>152.0</ele>
        <time>2012-06-15T08:00:39Z</time>
      </trkpt>
      <trkpt lat="43.388348" lon="-6.006718">
        <ele>154.0</ele>
        <time>2012-06-15T08:00:43Z</time>
      </trkpt>
      <trkpt lat="43.388268" lon="-6.006452">
        <ele>155.0</ele>
        <time>2012-06-15T08:00:47Z</time>
      </trkpt>
      <trkpt lat="43.388192" lon="-6.006183">
        <ele>156.0</ele>
        <time>2012-06-15T08:00:51Z</time>
      </trkpt>
      <trkpt lat="43.388141" lon="-6.00592">
        <ele>157.0</ele>
        <time>2012-06-15T08:00:55Z</time>
      </trkpt>
      <trkpt lat="43.388105" lon="-6.005648">
        <ele>157.0</ele>
        <time>2012-06-15T08:00:59Z</time>
      </trkpt>
      <trkpt lat="43.388087" lon="-6.005384">
        <ele>156.0</ele>
        <time>2012-06-15T08:01:03Z</time>
      </trkpt>
      <trkpt lat="43.388084" lon="-6.005144">
        <ele>156.0</ele>
        <time>2012-06-15T08:01:07Z</time>
      </trkpt>
      <trkpt lat="43.388159" lon="-6.004886">
        <ele>156.0</ele>
        <time>2012-06-15T08:01:11Z</time>
      </trkpt>
      <trkpt lat="43.388274" lon="-6.004485">
        <ele>155.0</ele>
        <time>2012-06-15T08:01:15Z</time>
      </trkpt>
      <trkpt lat="43.388368" lon="-6.003969">
        <ele>155.0</ele>
        <time>2012-06-15T08:01:19Z</time>
      </trkpt>
      <trkpt lat="43.388334" lon="-6.003449">
        <ele>155.0</ele>
        <time>2012-06-15T08:01:23Z</time>
      </trkpt>
      <trkpt lat="43.388218" lon="-6.002948">
        <ele>155.0</ele>
        <time>2012-06-15T08:01:27Z</time>
      </trkpt>
      <trkpt lat="43.388051" lon="-6.002448">
        <ele>155.0</ele>
        <time>2012-06-15T08:01:31Z</time>
      </trkpt>
      <trkpt lat="43.387933" lon="-6.001932">
        <ele>155.0</ele>
        <time>2012-06-15T08:01:35Z</time>
      </trkpt>
      <trkpt lat="43.387823" lon="-6.001421">
        <ele>155.0</ele>
        <time>2012-06-15T08:01:39Z</time>
      </trkpt>
      <trkpt lat="43.387598" lon="-6.001027">
        <ele>155.0</ele>
        <time>2012-06-15T08:01:43Z</time>
      </trkpt>
      <trkpt lat="43.387355" lon="-6.000756">
        <ele>155.0</ele>
        <time>2012-06-15T08:01:47Z</time>
      </trkpt>
      <trkpt lat="43.387099" lon="-6.00051">
        <ele>155.0</ele>
        <time>2012-06-15T08:01:51Z</time>
      </trkpt>
      <trkpt lat="43.386878" lon="-6.000339">
        <ele>156.0</ele>
        <time>2012-06-15T08:01:55Z</time>
      </trkpt>
      <trkpt lat="43.386372" lon="-6.000518">
        <ele>155.0</ele>
        <time>2012-06-15T08:02:03Z</time>
      </trkpt>
      <trkpt lat="43.386128" lon="-6.000791">
        <ele>155.0</ele>
        <time>2012-06-15T08:02:07Z</time>
      </trkpt>
      <trkpt lat="43.385932" lon="-6.00107">
        <ele>155.0</ele>
        <time>2012-06-15T08:02:11Z</time>
      </trkpt>
      <trkpt lat="43.385745" lon="-6.001255">
        <ele>154.0</ele>
        <time>2012-06-15T08:02:15Z</time>
      </trkpt>
      <trkpt lat="43.385546" lon="-6.001376">
        <ele>155.0</ele>
        <time>2012-06-15T08:02:19Z</time>
      </trkpt>
      <trkpt lat="43.385332" lon="-6.001365">
        <ele>156.0</ele>
        <time>2012-06-15T08:02:23Z</time>
      </trkpt>
      <trkpt lat="43.385126" lon="-6.001308">
        <ele>156.0</ele>
        <time>2012-06-15T08:02:27Z</time>
      </trkpt>
      <trkpt lat="43.384954" lon="-6.001163">
        <ele>156.0</ele>
        <time>2012-06-15T08:02:31Z</time>
      </trkpt>
      <trkpt lat="43.384799" lon="-6.000968">
        <ele>156.0</ele>
        <time>2012-06-15T08:02:35Z</time>
      </trkpt>
      <trkpt lat="43.384629" lon="-6.000791">
        <ele>156.0</ele>
        <time>2012-06-15T08:02:39Z</time>
      </trkpt>
      <trkpt lat="43.384454" lon="-6.000618">
        <ele>157.0</ele>
        <time>2012-06-15T08:02:43Z</time>
      </trkpt>
      <trkpt lat="43.38429" lon="-6.000425">
        <ele>157.0</ele>
        <time>2012-06-15T08:02:47Z</time>
      </trkpt>
      <trkpt lat="43.384132" lon="-6.000227">
        <ele>158.0</ele>
        <time>2012-06-15T08:02:51Z</time>
      </trkpt>
      <trkpt lat="43.383962" lon="-6.000056">
        <ele>158.0</ele>
        <time>2012-06-15T08:02:55Z</time>
      </trkpt>
      <trkpt lat="43.383785" lon="-5.9999">
        <ele>158.0</ele>
        <time>2012-06-15T08:02:59Z</time>
      </trkpt>
      <trkpt lat="43.383694" lon="-5.999827">
        <ele>158.0</ele>
        <time>2012-06-15T08:03:01Z</time>
      </trkpt>
      <trkpt lat="43.38343" lon="-5.999582">
        <ele>159.0</ele>
        <time>2012-06-15T08:03:07Z</time>
      </trkpt>
      <trkpt lat="43.383245" lon="-5.999404">
        <ele>160.0</ele>
        <time>2012-06-15T08:03:11Z</time>
      </trkpt>
      <trkpt lat="43.383043" lon="-5.999245">
        <ele>160.0</ele>
        <time>2012-06-15T08:03:15Z</time>
      </trkpt>
      <trkpt lat="43.382835" lon="-5.999123">
        <ele>160.0</ele>
        <time>2012-06-15T08:03:19Z</time>
      </trkpt>
      <trkpt lat="43.382638" lon="-5.999033">
        <ele>161.0</ele>
        <time>2012-06-15T08:03:23Z</time>
      </trkpt>
      <trkpt lat="43.382463" lon="-5.998937">
        <ele>162.0</ele>
        <time>2012-06-15T08:03:27Z</time>
      </trkpt>
      <trkpt lat="43.382294" lon="-5.998805">
        <ele>162.0</ele>
        <time>2012-06-15T08:03:31Z</time>
      </trkpt>
      <trkpt lat="43.382119" lon="-5.998643">
        <ele>162.0</ele>
        <time>2012-06-15T08:03:35Z</time>
      </trkpt>
      <trkpt lat="43.381942" lon="-5.998474">
        <ele>162.0</ele>
        <time>2012-06-15T08:03:39Z</time>
      </trkpt>
      <trkpt lat="43.381765" lon="-5.998296">
        <ele>162.0</ele>
        <time>2012-06-15T08:03:43Z</time>
      </trkpt>
      <trkpt lat="43.381687" lon="-5.998195">
        <ele>163.0</ele>
        <time>2012-06-15T08:03:45Z</time>
      </trkpt>
      <trkpt lat="43.381392" lon="-5.9981">
        <ele>164.0</ele>
        <time>2012-06-15T08:03:51Z</time>
      </trkpt>
      <trkpt lat="43.381189" lon="-5.998174">
        <ele>164.0</ele>
        <time>2012-06-15T08:03:55Z</time>
      </trkpt>
      <trkpt lat="43.38109" lon="-5.998213">
        <ele>165.0</ele>
        <time>2012-06-15T08:03:57Z</time>
      </trkpt>
      <trkpt lat="43.380802" lon="-5.998308">
        <ele>166.0</ele>
        <time>2012-06-15T08:04:03Z</time>
      </trkpt>
      <trkpt lat="43.380624" lon="-5.998357">
        <ele>166.0</ele>
        <time>2012-06-15T08:04:07Z</time>
      </trkpt>
      <trkpt lat="43.380445" lon="-5.998404">
        <ele>166.0</ele>
        <time>2012-06-15T08:04:11Z</time>
      </trkpt>
      <trkpt lat="43.380268" lon="-5.998427">
        <ele>167.0</ele>
        <time>2012-06-15T08:04:15Z</time>
      </trkpt>
      <trkpt lat="43.380087" lon="-5.998398">
        <ele>167.0</ele>
        <time>2012-06-15T08:04:19Z</time>
      </trkpt>
      <trkpt lat="43.379901" lon="-5.998337">
        <ele>168.0</ele>
        <time>2012-06-15T08:04:23Z</time>
      </trkpt>
      <trkpt lat="43.37971" lon="-5.998264">
        <ele>170.0</ele>
        <time>2012-06-15T08:04:27Z</time>
      </trkpt>
      <trkpt lat="43.379517" lon="-5.998177">
        <ele>170.0</ele>
        <time>2012-06-15T08:04:31Z</time>
      </trkpt>
      <trkpt lat="43.379361" lon="-5.997981">
        <ele>170.0</ele>
        <time>2012-06-15T08:04:35Z</time>
      </trkpt>
      <trkpt lat="43.379222" lon="-5.997795">
        <ele>171.0</ele>
        <time>2012-06-15T08:04:39Z</time>
      </trkpt>
      <trkpt lat="43.379093" lon="-5.997607">
        <ele>171.0</ele>
        <time>2012-06-15T08:04:43Z</time>
      </trkpt>
      <trkpt lat="43.378975" lon="-5.997422">
        <ele>171.0</ele>
        <time>2012-06-15T08:04:47Z</time>
      </trkpt>
      <trkpt lat="43.378819" lon="-5.997408">
        <ele>171.0</ele>
        <time>2012-06-15T08:04:51Z</time>
      </trkpt>
      <trkpt lat="43.378695" lon="-5.997565">
        <ele>172.0</ele>
        <time>2012-06-15T08:04:55Z</time>
      </trkpt>
      <trkpt lat="43.378569" lon="-5.99773">
        <ele>173.0</ele>
        <time>2012-06-15T08:04:59Z</time>
      </trkpt>
      <trkpt lat="43.378443" lon="-5.997902">
        <ele>173.0</ele>
        <time>2012-06-15T08:05:03Z</time>
      </trkpt>
      <trkpt lat="43.378324" lon="-5.998089">
        <ele>173.0</ele>
        <time>2012-06-15T08:05:07Z</time>
      </trkpt>
      <trkpt lat="43.378195" lon="-5.998252">
        <ele>173.0</ele>
        <time>2012-06-15T08:05:11Z</time>
      </trkpt>
      <trkpt lat="43.378077" lon="-5.998441">
        <ele>173.0</ele>
        <time>2012-06-15T08:05:15Z</time>
      </trkpt>
      <trkpt lat="43.377949" lon="-5.998621">
        <ele>173.0</ele>
        <time>2012-06-15T08:05:19Z</time>
      </trkpt>
      <trkpt lat="43.377818" lon="-5.998798">
        <ele>174.0</ele>
        <time>2012-06-15T08:05:23Z</time>
      </trkpt>
      <trkpt lat="43.377689" lon="-5.99897">
        <ele>174.0</ele>
        <time>2012-06-15T08:05:27Z</time>
      </trkpt>
      <trkpt lat="43.37756" lon="-5.999136">
        <ele>175.0</ele>
        <time>2012-06-15T08:05:31Z</time>
      </trkpt>
      <trkpt lat="43.37742" lon="-5.999276">
        <ele>175.0</ele>
        <time>2012-06-15T08:05:35Z</time>
      </trkpt>
      <trkpt lat="43.37727" lon="-5.999366">
        <ele>175.0</ele>
        <time>2012-06-15T08:05:39Z</time>
      </trkpt>
      <trkpt lat="43.377187" lon="-5.999372">
        <ele>175.0</ele>
        <time>2012-06-15T08:05:41Z</time>
      </trkpt>
      <trkpt lat="43.376904" lon="-5.999218">
        <ele>179.0</ele>
        <time>2012-06-15T08:05:47Z</time>
      </trkpt>
      <trkpt lat="43.376725" lon="-5.999076">
        <ele>180.0</ele>
        <time>2012-06-15T08:05:51Z</time>
      </trkpt>
      <trkpt lat="43.376566" lon="-5.998799">
        <ele>181.0</ele>
        <time>2012-06-15T08:05:55Z</time>
      </trkpt>
      <trkpt lat="43.376424" lon="-5.998544">
        <ele>183.0</ele>
        <time>2012-06-15T08:05:59Z</time>
      </trkpt>
      <trkpt lat="43.376273" lon="-5.998306">
        <ele>184.0</ele>
        <time>2012-06-15T08:06:03Z</time>
      </trkpt>
      <trkpt lat="43.376117" lon="-5.998097">
        <ele>184.0</ele>
        <time>2012-06-15T08:06:07Z</time>
      </trkpt>
      <trkpt lat="43.375973" lon="-5.997907">
        <ele>185.0</ele>
        <time>2012-06-15T08:06:11Z</time>
      </trkpt>
      <trkpt lat="43.375837" lon="-5.997728">
        <ele>186.0</ele>
        <time>2012-06-15T08:06:15Z</time>
      </trkpt>
      <trkpt lat="43.375716" lon="-5.997538">
        <ele>186.0</ele>
        <time>2012-06-15T08:06:19Z</time>
      </trkpt>
      <trkpt lat="43.375606" lon="-5.997339">
        <ele>186.0</ele>
        <time>2012-06-15T08:06:23Z</time>
      </trkpt>
      <trkpt lat="43.375454" lon="-5.997183">
        <ele>186.0</ele>
        <time>2012-06-15T08:06:27Z</time>
      </trkpt>
      <trkpt lat="43.375271" lon="-5.997258">
        <ele>188.0</ele>
        <time>2012-06-15T08:06:30Z</time>
      </trkpt>
      <trkpt lat="43.375067" lon="-5.997434">
        <ele>189.0</ele>
        <time>2012-06-15T08:06:34Z</time>
      </trkpt>
      <trkpt lat="43.374903" lon="-5.997632">
        <ele>190.0</ele>
        <time>2012-06-15T08:06:38Z</time>
      </trkpt>
      <trkpt lat="43.374773" lon="-5.997828">
        <ele>190.0</ele>
        <time>2012-06-15T08:06:42Z</time>
      </trkpt>
      <trkpt lat="43.374608" lon="-5.997967">
        <ele>190.0</ele>
        <time>2012-06-15T08:06:46Z</time>
      </trkpt>
      <trkpt lat="43.374425" lon="-5.99804">
        <ele>190.0</ele>
        <time>2012-06-15T08:06:50Z</time>
      </trkpt>
      <trkpt lat="43.374235" lon="-5.998033">
        <ele>191.0</ele>
        <time>2012-06-15T08:06:54Z</time>
      </trkpt>
      <trkpt lat="43.374061" lon="-5.997983">
        <ele>191.0</ele>
        <time>2012-06-15T08:06:58Z</time>
      </trkpt>
      <trkpt lat="43.373895" lon="-5.997843">
        <ele>193.0</ele>
        <time>2012-06-15T08:07:02Z</time>
      </trkpt>
      <trkpt lat="43.373735" lon="-5.997641">
        <ele>193.0</ele>
        <time>2012-06-15T08:07:06Z</time>
      </trkpt>
      <trkpt lat="43.373605" lon="-5.997394">
        <ele>194.0</ele>
        <time>2012-06-15T08:07:10Z</time>
      </trkpt>
      <trkpt lat="43.373487" lon="-5.997112">
        <ele>194.0</ele>
        <time>2012-06-15T08:07:14Z</time>
      </trkpt>
      <trkpt lat="43.373375" lon="-5.996824">
        <ele>194.0</ele>
        <time>2012-06-15T08:07:18Z</time>
      </trkpt>
      <trkpt lat="43.373238" lon="-5.996582">
        <ele>194.0</ele>
        <time>2012-06-15T08:07:22Z</time>
      </trkpt>
      <trkpt lat="43.373054" lon="-5.996419">
        <ele>195.0</ele>
        <time>2012-06-15T08:07:26Z</time>
      </trkpt>
      <trkpt lat="43.372624" lon="-5.996273">
        <ele>195.0</ele>
        <time>2012-06-15T08:07:34Z</time>
      </trkpt>
      <trkpt lat="43.37241" lon="-5.996264">
        <ele>195.0</ele>
        <time>2012-06-15T08:07:38Z</time>
      </trkpt>
      <trkpt lat="43.372194" lon="-5.996286">
        <ele>195.0</ele>
        <time>2012-06-15T08:07:42Z</time>
      </trkpt>
      <trkpt lat="43.371989" lon="-5.996372">
        <ele>195.0</ele>
        <time>2012-06-15T08:07:46Z</time>
      </trkpt>
      <trkpt lat="43.371846" lon="-5.996588">
        <ele>195.0</ele>
        <time>2012-06-15T08:07:50Z</time>
      </trkpt>
      <trkpt lat="43.37177" lon="-5.996836">
        <ele>196.0</ele>
        <time>2012-06-15T08:07:54Z</time>
      </trkpt>
      <trkpt lat="43.371705" lon="-5.99707">
        <ele>196.0</ele>
        <time>2012-06-15T08:07:58Z</time>
      </trkpt>
      <trkpt lat="43.371607" lon="-5.997264">
        <ele>197.0</ele>
        <time>2012-06-15T08:08:02Z</time>
      </trkpt>
      <trkpt lat="43.37149" lon="-5.997442">
        <ele>198.0</ele>
        <time>2012-06-15T08:08:06Z</time>
      </trkpt>
      <trkpt lat="43.371354" lon="-5.997605">
        <ele>199.0</ele>
        <time>2012-06-15T08:08:10Z</time>
      </trkpt>
      <trkpt lat="43.371205" lon="-5.997743">
        <ele>199.0</ele>
        <time>2012-06-15T08:08:14Z</time>
      </trkpt>
      <trkpt lat="43.371044" lon="-5.997844">
        <ele>200.0</ele>
        <time>2012-06-15T08:08:18Z</time>
      </trkpt>
      <trkpt lat="43.370857" lon="-5.997853">
        <ele>200.0</ele>
        <time>2012-06-15T08:08:22Z</time>
      </trkpt>
      <trkpt lat="43.370661" lon="-5.997859">
        <ele>201.0</ele>
        <time>2012-06-15T08:08:26Z</time>
      </trkpt>
      <trkpt lat="43.370457" lon="-5.997872">
        <ele>201.0</ele>
        <time>2012-06-15T08:08:30Z</time>
      </trkpt>
      <trkpt lat="43.370252" lon="-5.997889">
        <ele>201.0</ele>
        <time>2012-06-15T08:08:34Z</time>
      </trkpt>
      <trkpt lat="43.370042" lon="-5.9979">
        <ele>202.0</ele>
        <time>2012-06-15T08:08:38Z</time>
      </trkpt>
      <trkpt lat="43.369842" lon="-5.99786">
        <ele>202.0</ele>
        <time>2012-06-15T08:08:42Z</time>
      </trkpt>
      <trkpt lat="43.369659" lon="-5.997766">
        <ele>203.0</ele>
        <time>2012-06-15T08:08:46Z</time>
      </trkpt>
      <trkpt lat="43.36948" lon="-5.997652">
        <ele>204.0</ele>
        <time>2012-06-15T08:08:50Z</time>
      </trkpt>
      <trkpt lat="43.369287" lon="-5.997535">
        <ele>206.0</ele>
        <time>2012-06-15T08:08:54Z</time>
      </trkpt>
      <trkpt lat="43.369093" lon="-5.997412">
        <ele>207.0</ele>
        <time>2012-06-15T08:08:58Z</time>
      </trkpt>
      <trkpt lat="43.368897" lon="-5.99726">
        <ele>208.0</ele>
        <time>2012-06-15T08:09:02Z</time>
      </trkpt>
      <trkpt lat="43.368701" lon="-5.997103">
        <ele>209.0</ele>
        <time>2012-06-15T08:09:06Z</time>
      </trkpt>
      <trkpt lat="43.368511" lon="-5.996944">
        <ele>209.0</ele>
        <time>2012-06-15T08:09:10Z</time>
      </trkpt>
      <trkpt lat="43.368324" lon="-5.996767">
        <ele>209.0</ele>
        <time>2012-06-15T08:09:14Z</time>
      </trkpt>
      <trkpt lat="43.368144" lon="-5.996558">
        <ele>210.0</ele>
        <time>2012-06-15T08:09:18Z</time>
      </trkpt>
      <trkpt lat="43.367976" lon="-5.996341">
        <ele>210.0</ele>
        <time>2012-06-15T08:09:22Z</time>
      </trkpt>
      <trkpt lat="43.367823" lon="-5.996115">
        <ele>211.0</ele>
        <time>2012-06-15T08:09:26Z</time>
      </trkpt>
      <trkpt lat="43.367679" lon="-5.995876">
        <ele>211.0</ele>
        <time>2012-06-15T08:09:30Z</time>
      </trkpt>
      <trkpt lat="43.367543" lon="-5.995624">
        <ele>212.0</ele>
        <time>2012-06-15T08:09:34Z</time>
      </trkpt>
      <trkpt lat="43.367271" lon="-5.995129">
        <ele>212.0</ele>
        <time>2012-06-15T08:09:42Z</time>
      </trkpt>
      <trkpt lat="43.367321" lon="-5.994667">
        <ele>213.0</ele>
        <time>2012-06-15T08:09:47Z</time>
      </trkpt>
      <trkpt lat="43.367375" lon="-5.994445">
        <ele>215.0</ele>
        <time>2012-06-15T08:09:50Z</time>
      </trkpt>
      <trkpt lat="43.367398" lon="-5.99436">
        <ele>215.0</ele>
        <time>2012-06-15T08:09:52Z</time>
      </trkpt>
      <trkpt lat="43.36732" lon="-5.994362">
        <ele>217.0</ele>
        <time>2012-06-15T08:09:58Z</time>
      </trkpt>
      <trkpt lat="43.367277" lon="-5.994431">
        <ele>216.0</ele>
        <time>2012-06-15T08:10:01Z</time>
      </trkpt>
      <trkpt lat="43.367228" lon="-5.994648">
        <ele>216.0</ele>
        <time>2012-06-15T08:10:07Z</time>
      </trkpt>
      <trkpt lat="43.367149" lon="-5.994808">
        <ele>215.0</ele>
        <time>2012-06-15T08:10:11Z</time>
      </trkpt>
      <trkpt lat="43.367038" lon="-5.994963">
        <ele>216.0</ele>
        <time>2012-06-15T08:10:15Z</time>
      </trkpt>
      <trkpt lat="43.366979" lon="-5.99503">
        <ele>216.0</ele>
        <time>2012-06-15T08:10:17Z</time>
      </trkpt>
      <trkpt lat="43.366839" lon="-5.995078">
        <ele>217.0</ele>
        <time>2012-06-15T08:10:23Z</time>
      </trkpt>
      <trkpt lat="43.366717" lon="-5.994887">
        <ele>218.0</ele>
        <time>2012-06-15T08:10:27Z</time>
      </trkpt>
      <trkpt lat="43.366671" lon="-5.994555">
        <ele>218.0</ele>
        <time>2012-06-15T08:10:30Z</time>
      </trkpt>
      <trkpt lat="43.366652" lon="-5.994048">
        <ele>218.0</ele>
        <time>2012-06-15T08:10:35Z</time>
      </trkpt>
      <trkpt lat="43.366761" lon="-5.993709">
        <ele>219.0</ele>
        <time>2012-06-15T08:10:39Z</time>
      </trkpt>
      <trkpt lat="43.366904" lon="-5.993423">
        <ele>220.0</ele>
        <time>2012-06-15T08:10:43Z</time>
      </trkpt>
      <trkpt lat="43.367044" lon="-5.993132">
        <ele>221.0</ele>
        <time>2012-06-15T08:10:47Z</time>
      </trkpt>
      <trkpt lat="43.367161" lon="-5.992845">
        <ele>222.0</ele>
        <time>2012-06-15T08:10:51Z</time>
      </trkpt>
      <trkpt lat="43.367226" lon="-5.992556">
        <ele>222.0</ele>
        <time>2012-06-15T08:10:55Z</time>
      </trkpt>
      <trkpt lat="43.367166" lon="-5.992284">
        <ele>223.0</ele>
        <time>2012-06-15T08:10:59Z</time>
      </trkpt>
      <trkpt lat="43.366913" lon="-5.992155">
        <ele>224.0</ele>
        <time>2012-06-15T08:11:03Z</time>
      </trkpt>
      <trkpt lat="43.366665" lon="-5.992115">
        <ele>224.0</ele>
        <time>2012-06-15T08:11:07Z</time>
      </trkpt>
      <trkpt lat="43.366442" lon="-5.992069">
        <ele>224.0</ele>
        <time>2012-06-15T08:11:11Z</time>
      </trkpt>
      <trkpt lat="43.36623" lon="-5.991993">
        <ele>225.0</ele>
        <time>2012-06-15T08:11:15Z</time>
      </trkpt>
      <trkpt lat="43.366021" lon="-5.991903">
        <ele>225.0</ele>
        <time>2012-06-15T08:11:19Z</time>
      </trkpt>
      <trkpt lat="43.365834" lon="-5.991726">
        <ele>226.0</ele>
        <time>2012-06-15T08:11:23Z</time>
      </trkpt>
      <trkpt lat="43.365673" lon="-5.991496">
        <ele>227.0</ele>
        <time>2012-06-15T08:11:27Z</time>
      </trkpt>
      <trkpt lat="43.365534" lon="-5.991233">
        <ele>227.0</ele>
        <time>2012-06-15T08:11:31Z</time>
      </trkpt>
      <trkpt lat="43.365396" lon="-5.990942">
        <ele>228.0</ele>
        <time>2012-06-15T08:11:35Z</time>
      </trkpt>
      <trkpt lat="43.365247" lon="-5.990642">
        <ele>229.0</ele>
        <time>2012-06-15T08:11:39Z</time>
      </trkpt>
      <trkpt lat="43.365109" lon="-5.990315">
        <ele>229.0</ele>
        <time>2012-06-15T08:11:43Z</time>
      </trkpt>
      <trkpt lat="43.365012" lon="-5.989955">
        <ele>230.0</ele>
        <time>2012-06-15T08:11:47Z</time>
      </trkpt>
      <trkpt lat="43.364929" lon="-5.989585">
        <ele>230.0</ele>
        <time>2012-06-15T08:11:51Z</time>
      </trkpt>
      <trkpt lat="43.364882" lon="-5.989301">
        <ele>230.0</ele>
        <time>2012-06-15T08:11:54Z</time>
      </trkpt>
      <trkpt lat="43.364825" lon="-5.988914">
        <ele>231.0</ele>
        <time>2012-06-15T08:11:58Z</time>
      </trkpt>
      <trkpt lat="43.364764" lon="-5.988434">
        <ele>231.0</ele>
        <time>2012-06-15T08:12:03Z</time>
      </trkpt>
      <trkpt lat="43.364718" lon="-5.98806">
        <ele>231.0</ele>
        <time>2012-06-15T08:12:07Z</time>
      </trkpt>
      <trkpt lat="43.364703" lon="-5.987683">
        <ele>231.0</ele>
        <time>2012-06-15T08:12:11Z</time>
      </trkpt>
      <trkpt lat="43.364851" lon="-5.987377">
        <ele>232.0</ele>
        <time>2012-06-15T08:12:15Z</time>
      </trkpt>
      <trkpt lat="43.365118" lon="-5.987137">
        <ele>232.0</ele>
        <time>2012-06-15T08:12:19Z</time>
      </trkpt>
      <trkpt lat="43.365448" lon="-5.986866">
        <ele>234.0</ele>
        <time>2012-06-15T08:12:24Z</time>
      </trkpt>
      <trkpt lat="43.365646" lon="-5.986706">
        <ele>235.0</ele>
        <time>2012-06-15T08:12:27Z</time>
      </trkpt>
      <trkpt lat="43.365897" lon="-5.986484">
        <ele>236.0</ele>
        <time>2012-06-15T08:12:31Z</time>
      </trkpt>
      <trkpt lat="43.366111" lon="-5.986212">
        <ele>237.0</ele>
        <time>2012-06-15T08:12:35Z</time>
      </trkpt>
      <trkpt lat="43.366268" lon="-5.985856">
        <ele>238.0</ele>
        <time>2012-06-15T08:12:39Z</time>
      </trkpt>
      <trkpt lat="43.366364" lon="-5.98544">
        <ele>238.0</ele>
        <time>2012-06-15T08:12:43Z</time>
      </trkpt>
      <trkpt lat="43.366375" lon="-5.985116">
        <ele>238.0</ele>
        <time>2012-06-15T08:12:46Z</time>
      </trkpt>
      <trkpt lat="43.366347" lon="-5.984688">
        <ele>238.0</ele>
        <time>2012-06-15T08:12:50Z</time>
      </trkpt>
      <trkpt lat="43.366285" lon="-5.98427">
        <ele>239.0</ele>
        <time>2012-06-15T08:12:54Z</time>
      </trkpt>
      <trkpt lat="43.366206" lon="-5.983857">
        <ele>239.0</ele>
        <time>2012-06-15T08:12:58Z</time>
      </trkpt>
      <trkpt lat="43.366045" lon="-5.983346">
        <ele>240.0</ele>
        <time>2012-06-15T08:13:03Z</time>
      </trkpt>
      <trkpt lat="43.365951" lon="-5.983155">
        <ele>240.0</ele>
        <time>2012-06-15T08:13:05Z</time>
      </trkpt>
      <trkpt lat="43.365715" lon="-5.9827">
        <ele>241.0</ele>
        <time>2012-06-15T08:13:10Z</time>
      </trkpt>
      <trkpt lat="43.365516" lon="-5.982347">
        <ele>241.0</ele>
        <time>2012-06-15T08:13:14Z</time>
      </trkpt>
      <trkpt lat="43.365361" lon="-5.981959">
        <ele>241.0</ele>
        <time>2012-06-15T08:13:18Z</time>
      </trkpt>
      <trkpt lat="43.365257" lon="-5.981527">
        <ele>241.0</ele>
        <time>2012-06-15T08:13:22Z</time>
      </trkpt>
      <trkpt lat="43.365184" lon="-5.981097">
        <ele>241.0</ele>
        <time>2012-06-15T08:13:26Z</time>
      </trkpt>
      <trkpt lat="43.36508" lon="-5.980685">
        <ele>241.0</ele>
        <time>2012-06-15T08:13:30Z</time>
      </trkpt>
      <trkpt lat="43.364823" lon="-5.980513">
        <ele>240.0</ele>
        <time>2012-06-15T08:13:34Z</time>
      </trkpt>
      <trkpt lat="43.364313" lon="-5.980379">
        <ele>239.0</ele>
        <time>2012-06-15T08:13:39Z</time>
      </trkpt>
      <trkpt lat="43.3639" lon="-5.980273">
        <ele>239.0</ele>
        <time>2012-06-15T08:13:43Z</time>
      </trkpt>
      <trkpt lat="43.36359" lon="-5.980168">
        <ele>238.0</ele>
        <time>2012-06-15T08:13:46Z</time>
      </trkpt>
      <trkpt lat="43.363221" lon="-5.979891">
        <ele>238.0</ele>
        <time>2012-06-15T08:13:50Z</time>
      </trkpt>
      <trkpt lat="43.362758" lon="-5.979447">
        <ele>238.0</ele>
        <time>2012-06-15T08:13:55Z</time>
      </trkpt>
      <trkpt lat="43.362387" lon="-5.979081">
        <ele>237.0</ele>
        <time>2012-06-15T08:13:59Z</time>
      </trkpt>
      <trkpt lat="43.362056" lon="-5.97867">
        <ele>238.0</ele>
        <time>2012-06-15T08:14:03Z</time>
      </trkpt>
      <trkpt lat="43.361754" lon="-5.978247">
        <ele>237.0</ele>
        <time>2012-06-15T08:14:07Z</time>
      </trkpt>
      <trkpt lat="43.361464" lon="-5.977839">
        <ele>236.0</ele>
        <time>2012-06-15T08:14:11Z</time>
      </trkpt>
      <trkpt lat="43.361208" lon="-5.977439">
        <ele>236.0</ele>
        <time>2012-06-15T08:14:15Z</time>
      </trkpt>
      <trkpt lat="43.36104" lon="-5.976979">
        <ele>237.0</ele>
        <time>2012-06-15T08:14:19Z</time>
      </trkpt>
      <trkpt lat="43.360915" lon="-5.97651">
        <ele>237.0</ele>
        <time>2012-06-15T08:14:23Z</time>
      </trkpt>
      <trkpt lat="43.36066" lon="-5.976131">
        <ele>236.0</ele>
        <time>2012-06-15T08:14:27Z</time>
      </trkpt>
      <trkpt lat="43.360437" lon="-5.975701">
        <ele>237.0</ele>
        <time>2012-06-15T08:14:31Z</time>
      </trkpt>
      <trkpt lat="43.360329" lon="-5.9752">
        <ele>239.0</ele>
        <time>2012-06-15T08:14:35Z</time>
      </trkpt>
      <trkpt lat="43.360236" lon="-5.974727">
        <ele>239.0</ele>
        <time>2012-06-15T08:14:39Z</time>
      </trkpt>
      <trkpt lat="43.359962" lon="-5.974342">
        <ele>237.0</ele>
        <time>2012-06-15T08:14:43Z</time>
      </trkpt>
      <trkpt lat="43.35978" lon="-5.973914">
        <ele>238.0</ele>
        <time>2012-06-15T08:14:47Z</time>
      </trkpt>
      <trkpt lat="43.359842" lon="-5.973497">
        <ele>239.0</ele>
        <time>2012-06-15T08:14:51Z</time>
      </trkpt>
      <trkpt lat="43.359861" lon="-5.973048">
        <ele>240.0</ele>
        <time>2012-06-15T08:14:55Z</time>
      </trkpt>
      <trkpt lat="43.359847" lon="-5.972569">
        <ele>241.0</ele>
        <time>2012-06-15T08:14:59Z</time>
      </trkpt>
      <trkpt lat="43.359796" lon="-5.972092">
        <ele>242.0</ele>
        <time>2012-06-15T08:15:03Z</time>
      </trkpt>
      <trkpt lat="43.35986" lon="-5.971612">
        <ele>240.0</ele>
        <time>2012-06-15T08:15:07Z</time>
      </trkpt>
      <trkpt lat="43.359882" lon="-5.971139">
        <ele>240.0</ele>
        <time>2012-06-15T08:15:11Z</time>
      </trkpt>
      <trkpt lat="43.359812" lon="-5.970704">
        <ele>240.0</ele>
        <time>2012-06-15T08:15:15Z</time>
      </trkpt>
      <trkpt lat="43.359706" lon="-5.970298">
        <ele>240.0</ele>
        <time>2012-06-15T08:15:19Z</time>
      </trkpt>
      <trkpt lat="43.35956" lon="-5.969898">
        <ele>239.0</ele>
        <time>2012-06-15T08:15:23Z</time>
      </trkpt>
      <trkpt lat="43.359412" lon="-5.969511">
        <ele>240.0</ele>
        <time>2012-06-15T08:15:27Z</time>
      </trkpt>
      <trkpt lat="43.359296" lon="-5.969117">
        <ele>240.0</ele>
        <time>2012-06-15T08:15:31Z</time>
      </trkpt>
      <trkpt lat="43.359238" lon="-5.968703">
        <ele>241.0</ele>
        <time>2012-06-15T08:15:35Z</time>
      </trkpt>
      <trkpt lat="43.359255" lon="-5.968274">
        <ele>241.0</ele>
        <time>2012-06-15T08:15:39Z</time>
      </trkpt>
      <trkpt lat="43.359355" lon="-5.96782">
        <ele>241.0</ele>
        <time>2012-06-15T08:15:43Z</time>
      </trkpt>
      <trkpt lat="43.359439" lon="-5.967319">
        <ele>240.0</ele>
        <time>2012-06-15T08:15:47Z</time>
      </trkpt>
      <trkpt lat="43.359493" lon="-5.966919">
        <ele>239.0</ele>
        <time>2012-06-15T08:15:50Z</time>
      </trkpt>
      <trkpt lat="43.35948" lon="-5.966231">
        <ele>238.0</ele>
        <time>2012-06-15T08:15:55Z</time>
      </trkpt>
      <trkpt lat="43.359223" lon="-5.965793">
        <ele>236.0</ele>
        <time>2012-06-15T08:15:59Z</time>
      </trkpt>
      <trkpt lat="43.358792" lon="-5.965632">
        <ele>235.0</ele>
        <time>2012-06-15T08:16:03Z</time>
      </trkpt>
      <trkpt lat="43.358296" lon="-5.965534">
        <ele>233.0</ele>
        <time>2012-06-15T08:16:07Z</time>
      </trkpt>
      <trkpt lat="43.357814" lon="-5.9655">
        <ele>228.0</ele>
        <time>2012-06-15T08:16:11Z</time>
      </trkpt>
      <trkpt lat="43.357312" lon="-5.965565">
        <ele>224.0</ele>
        <time>2012-06-15T08:16:15Z</time>
      </trkpt>
      <trkpt lat="43.356812" lon="-5.965715">
        <ele>221.0</ele>
        <time>2012-06-15T08:16:19Z</time>
      </trkpt>
      <trkpt lat="43.356363" lon="-5.965878">
        <ele>218.0</ele>
        <time>2012-06-15T08:16:23Z</time>
      </trkpt>
      <trkpt lat="43.355912" lon="-5.965997">
        <ele>216.0</ele>
        <time>2012-06-15T08:16:27Z</time>
      </trkpt>
      <trkpt lat="43.355471" lon="-5.966018">
        <ele>214.0</ele>
        <time>2012-06-15T08:16:31Z</time>
      </trkpt>
      <trkpt lat="43.355048" lon="-5.96599">
        <ele>211.0</ele>
        <time>2012-06-15T08:16:35Z</time>
      </trkpt>
      <trkpt lat="43.354622" lon="-5.965984">
        <ele>209.0</ele>
        <time>2012-06-15T08:16:39Z</time>
      </trkpt>
      <trkpt lat="43.35442" lon="-5.966002">
        <ele>207.0</ele>
        <time>2012-06-15T08:16:41Z</time>
      </trkpt>
      <trkpt lat="43.354126" lon="-5.966018">
        <ele>203.0</ele>
        <time>2012-06-15T08:16:46Z</time>
      </trkpt>
      <trkpt lat="43.353941" lon="-5.965901">
        <ele>202.0</ele>
        <time>2012-06-15T08:16:50Z</time>
      </trkpt>
      <trkpt lat="43.353793" lon="-5.965561">
        <ele>200.0</ele>
        <time>2012-06-15T08:16:55Z</time>
      </trkpt>
      <trkpt lat="43.353666" lon="-5.965306">
        <ele>199.0</ele>
        <time>2012-06-15T08:16:59Z</time>
      </trkpt>
      <trkpt lat="43.353553" lon="-5.96502">
        <ele>197.0</ele>
        <time>2012-06-15T08:17:03Z</time>
      </trkpt>
      <trkpt lat="43.353466" lon="-5.964711">
        <ele>196.0</ele>
        <time>2012-06-15T08:17:07Z</time>
      </trkpt>
      <trkpt lat="43.353344" lon="-5.964413">
        <ele>195.0</ele>
        <time>2012-06-15T08:17:11Z</time>
      </trkpt>
      <trkpt lat="43.353209" lon="-5.964153">
        <ele>194.0</ele>
        <time>2012-06-15T08:17:15Z</time>
      </trkpt>
      <trkpt lat="43.353033" lon="-5.963977">
        <ele>194.0</ele>
        <time>2012-06-15T08:17:19Z</time>
      </trkpt>
      <trkpt lat="43.352842" lon="-5.963842">
        <ele>194.0</ele>
        <time>2012-06-15T08:17:23Z</time>
      </trkpt>
      <trkpt lat="43.352745" lon="-5.963789">
        <ele>193.0</ele>
        <time>2012-06-15T08:17:25Z</time>
      </trkpt>
      <trkpt lat="43.352408" lon="-5.963679">
        <ele>192.0</ele>
        <time>2012-06-15T08:17:31Z</time>
      </trkpt>
      <trkpt lat="43.352182" lon="-5.963611">
        <ele>191.0</ele>
        <time>2012-06-15T08:17:35Z</time>
      </trkpt>
      <trkpt lat="43.35198" lon="-5.963532">
        <ele>191.0</ele>
        <time>2012-06-15T08:17:39Z</time>
      </trkpt>
      <trkpt lat="43.351792" lon="-5.963482">
        <ele>189.0</ele>
        <time>2012-06-15T08:17:43Z</time>
      </trkpt>
      <trkpt lat="43.351615" lon="-5.963447">
        <ele>188.0</ele>
        <time>2012-06-15T08:17:47Z</time>
      </trkpt>
      <trkpt lat="43.351446" lon="-5.963442">
        <ele>186.0</ele>
        <time>2012-06-15T08:17:51Z</time>
      </trkpt>
      <trkpt lat="43.351273" lon="-5.963476">
        <ele>185.0</ele>
        <time>2012-06-15T08:17:55Z</time>
      </trkpt>
      <trkpt lat="43.35109" lon="-5.963571">
        <ele>184.0</ele>
        <time>2012-06-15T08:17:59Z</time>
      </trkpt>
      <trkpt lat="43.350903" lon="-5.963704">
        <ele>183.0</ele>
        <time>2012-06-15T08:18:03Z</time>
      </trkpt>
      <trkpt lat="43.350714" lon="-5.963849">
        <ele>182.0</ele>
        <time>2012-06-15T08:18:07Z</time>
      </trkpt>
      <trkpt lat="43.350623" lon="-5.963913">
        <ele>181.0</ele>
        <time>2012-06-15T08:18:09Z</time>
      </trkpt>
      <trkpt lat="43.35036" lon="-5.964039">
        <ele>179.0</ele>
        <time>2012-06-15T08:18:15Z</time>
      </trkpt>
      <trkpt lat="43.350184" lon="-5.964053">
        <ele>179.0</ele>
        <time>2012-06-15T08:18:19Z</time>
      </trkpt>
      <trkpt lat="43.35001" lon="-5.964034">
        <ele>179.0</ele>
        <time>2012-06-15T08:18:23Z</time>
      </trkpt>
      <trkpt lat="43.349833" lon="-5.963984">
        <ele>179.0</ele>
        <time>2012-06-15T08:18:27Z</time>
      </trkpt>
      <trkpt lat="43.349664" lon="-5.963901">
        <ele>180.0</ele>
        <time>2012-06-15T08:18:31Z</time>
      </trkpt>
      <trkpt lat="43.349505" lon="-5.963837">
        <ele>180.0</ele>
        <time>2012-06-15T08:18:35Z</time>
      </trkpt>
      <trkpt lat="43.349425" lon="-5.963802">
        <ele>180.0</ele>
        <time>2012-06-15T08:18:37Z</time>
      </trkpt>
      <trkpt lat="43.349194" lon="-5.963508">
        <ele>180.0</ele>
        <time>2012-06-15T08:18:43Z</time>
      </trkpt>
      <trkpt lat="43.349176" lon="-5.963149">
        <ele>180.0</ele>
        <time>2012-06-15T08:18:47Z</time>
      </trkpt>
      <trkpt lat="43.349227" lon="-5.962911">
        <ele>180.0</ele>
        <time>2012-06-15T08:18:50Z</time>
      </trkpt>
      <trkpt lat="43.349299" lon="-5.962638">
        <ele>180.0</ele>
        <time>2012-06-15T08:18:54Z</time>
      </trkpt>
      <trkpt lat="43.349363" lon="-5.962383">
        <ele>179.0</ele>
        <time>2012-06-15T08:18:58Z</time>
      </trkpt>
      <trkpt lat="43.349405" lon="-5.962136">
        <ele>179.0</ele>
        <time>2012-06-15T08:19:02Z</time>
      </trkpt>
      <trkpt lat="43.349417" lon="-5.96189">
        <ele>179.0</ele>
        <time>2012-06-15T08:19:06Z</time>
      </trkpt>
      <trkpt lat="43.34943" lon="-5.961631">
        <ele>180.0</ele>
        <time>2012-06-15T08:19:10Z</time>
      </trkpt>
      <trkpt lat="43.349433" lon="-5.961371">
        <ele>180.0</ele>
        <time>2012-06-15T08:19:14Z</time>
      </trkpt>
      <trkpt lat="43.349422" lon="-5.961113">
        <ele>180.0</ele>
        <time>2012-06-15T08:19:18Z</time>
      </trkpt>
      <trkpt lat="43.349399" lon="-5.960863">
        <ele>181.0</ele>
        <time>2012-06-15T08:19:22Z</time>
      </trkpt>
      <trkpt lat="43.349392" lon="-5.960737">
        <ele>181.0</ele>
        <time>2012-06-15T08:19:24Z</time>
      </trkpt>
      <trkpt lat="43.349392" lon="-5.960365">
        <ele>181.0</ele>
        <time>2012-06-15T08:19:30Z</time>
      </trkpt>
      <trkpt lat="43.349397" lon="-5.960115">
        <ele>182.0</ele>
        <time>2012-06-15T08:19:34Z</time>
      </trkpt>
      <trkpt lat="43.349409" lon="-5.959862">
        <ele>182.0</ele>
        <time>2012-06-15T08:19:38Z</time>
      </trkpt>
      <trkpt lat="43.349423" lon="-5.959609">
        <ele>183.0</ele>
        <time>2012-06-15T08:19:42Z</time>
      </trkpt>
      <trkpt lat="43.34945" lon="-5.959347">
        <ele>183.0</ele>
        <time>2012-06-15T08:19:46Z</time>
      </trkpt>
      <trkpt lat="43.349438" lon="-5.959084">
        <ele>184.0</ele>
        <time>2012-06-15T08:19:50Z</time>
      </trkpt>
      <trkpt lat="43.349426" lon="-5.958821">
        <ele>185.0</ele>
        <time>2012-06-15T08:19:54Z</time>
      </trkpt>
      <trkpt lat="43.349402" lon="-5.958565">
        <ele>185.0</ele>
        <time>2012-06-15T08:19:58Z</time>
      </trkpt>
      <trkpt lat="43.349369" lon="-5.958339">
        <ele>186.0</ele>
        <time>2012-06-15T08:20:02Z</time>
      </trkpt>
      <trkpt lat="43.349331" lon="-5.958135">
        <ele>186.0</ele>
        <time>2012-06-15T08:20:06Z</time>
      </trkpt>
      <trkpt lat="43.34931" lon="-5.958032">
        <ele>186.0</ele>
        <time>2012-06-15T08:20:08Z</time>
      </trkpt>
      <trkpt lat="43.349198" lon="-5.957729">
        <ele>186.0</ele>
        <time>2012-06-15T08:20:14Z</time>
      </trkpt>
      <trkpt lat="43.349078" lon="-5.957566">
        <ele>186.0</ele>
        <time>2012-06-15T08:20:18Z</time>
      </trkpt>
      <trkpt lat="43.348883" lon="-5.957475">
        <ele>187.0</ele>
        <time>2012-06-15T08:20:22Z</time>
      </trkpt>
      <trkpt lat="43.348704" lon="-5.957376">
        <ele>187.0</ele>
        <time>2012-06-15T08:20:26Z</time>
      </trkpt>
      <trkpt lat="43.348563" lon="-5.957255">
        <ele>187.0</ele>
        <time>2012-06-15T08:20:30Z</time>
      </trkpt>
      <trkpt lat="43.348438" lon="-5.957128">
        <ele>187.0</ele>
        <time>2012-06-15T08:20:34Z</time>
      </trkpt>
      <trkpt lat="43.348317" lon="-5.957006">
        <ele>187.0</ele>
        <time>2012-06-15T08:20:38Z</time>
      </trkpt>
      <trkpt lat="43.348195" lon="-5.956885">
        <ele>187.0</ele>
        <time>2012-06-15T08:20:42Z</time>
      </trkpt>
      <trkpt lat="43.348071" lon="-5.956766">
        <ele>187.0</ele>
        <time>2012-06-15T08:20:46Z</time>
      </trkpt>
      <trkpt lat="43.347939" lon="-5.956652">
        <ele>187.0</ele>
        <time>2012-06-15T08:20:50Z</time>
      </trkpt>
      <trkpt lat="43.347808" lon="-5.956535">
        <ele>187.0</ele>
        <time>2012-06-15T08:20:54Z</time>
      </trkpt>
      <trkpt lat="43.34767" lon="-5.956425">
        <ele>186.0</ele>
        <time>2012-06-15T08:20:58Z</time>
      </trkpt>
      <trkpt lat="43.34752" lon="-5.956338">
        <ele>186.0</ele>
        <time>2012-06-15T08:21:02Z</time>
      </trkpt>
      <trkpt lat="43.347359" lon="-5.956264">
        <ele>186.0</ele>
        <time>2012-06-15T08:21:06Z</time>
      </trkpt>
      <trkpt lat="43.347186" lon="-5.956201">
        <ele>187.0</ele>
        <time>2012-06-15T08:21:10Z</time>
      </trkpt>
      <trkpt lat="43.346998" lon="-5.956147">
        <ele>188.0</ele>
        <time>2012-06-15T08:21:14Z</time>
      </trkpt>
      <trkpt lat="43.3468" lon="-5.956083">
        <ele>190.0</ele>
        <time>2012-06-15T08:21:18Z</time>
      </trkpt>
      <trkpt lat="43.346596" lon="-5.956003">
        <ele>191.0</ele>
        <time>2012-06-15T08:21:22Z</time>
      </trkpt>
      <trkpt lat="43.34639" lon="-5.955928">
        <ele>192.0</ele>
        <time>2012-06-15T08:21:26Z</time>
      </trkpt>
      <trkpt lat="43.346184" lon="-5.955863">
        <ele>192.0</ele>
        <time>2012-06-15T08:21:30Z</time>
      </trkpt>
      <trkpt lat="43.345986" lon="-5.955795">
        <ele>193.0</ele>
        <time>2012-06-15T08:21:34Z</time>
      </trkpt>
      <trkpt lat="43.345789" lon="-5.955725">
        <ele>193.0</ele>
        <time>2012-06-15T08:21:38Z</time>
      </trkpt>
      <trkpt lat="43.345591" lon="-5.955648">
        <ele>194.0</ele>
        <time>2012-06-15T08:21:42Z</time>
      </trkpt>
      <trkpt lat="43.345393" lon="-5.955561">
        <ele>195.0</ele>
        <time>2012-06-15T08:21:46Z</time>
      </trkpt>
      <trkpt lat="43.345196" lon="-5.955478">
        <ele>195.0</ele>
        <time>2012-06-15T08:21:50Z</time>
      </trkpt>
      <trkpt lat="43.344998" lon="-5.955407">
        <ele>196.0</ele>
        <time>2012-06-15T08:21:54Z</time>
      </trkpt>
      <trkpt lat="43.344804" lon="-5.95536">
        <ele>197.0</ele>
        <time>2012-06-15T08:21:58Z</time>
      </trkpt>
      <trkpt lat="43.344603" lon="-5.955348">
        <ele>198.0</ele>
        <time>2012-06-15T08:22:02Z</time>
      </trkpt>
      <trkpt lat="43.344406" lon="-5.955321">
        <ele>199.0</ele>
        <time>2012-06-15T08:22:06Z</time>
      </trkpt>
      <trkpt lat="43.344214" lon="-5.955286">
        <ele>201.0</ele>
        <time>2012-06-15T08:22:10Z</time>
      </trkpt>
      <trkpt lat="43.344036" lon="-5.955232">
        <ele>202.0</ele>
        <time>2012-06-15T08:22:14Z</time>
      </trkpt>
      <trkpt lat="43.343867" lon="-5.955178">
        <ele>202.0</ele>
        <time>2012-06-15T08:22:18Z</time>
      </trkpt>
      <trkpt lat="43.343672" lon="-5.955143">
        <ele>203.0</ele>
        <time>2012-06-15T08:22:22Z</time>
      </trkpt>
      <trkpt lat="43.343469" lon="-5.955097">
        <ele>203.0</ele>
        <time>2012-06-15T08:22:26Z</time>
      </trkpt>
      <trkpt lat="43.343274" lon="-5.955043">
        <ele>203.0</ele>
        <time>2012-06-15T08:22:30Z</time>
      </trkpt>
      <trkpt lat="43.343087" lon="-5.954995">
        <ele>204.0</ele>
        <time>2012-06-15T08:22:34Z</time>
      </trkpt>
      <trkpt lat="43.342905" lon="-5.954954">
        <ele>204.0</ele>
        <time>2012-06-15T08:22:38Z</time>
      </trkpt>
      <trkpt lat="43.342728" lon="-5.954916">
        <ele>205.0</ele>
        <time>2012-06-15T08:22:42Z</time>
      </trkpt>
      <trkpt lat="43.342555" lon="-5.954877">
        <ele>204.0</ele>
        <time>2012-06-15T08:22:46Z</time>
      </trkpt>
      <trkpt lat="43.342383" lon="-5.954827">
        <ele>204.0</ele>
        <time>2012-06-15T08:22:50Z</time>
      </trkpt>
      <trkpt lat="43.342224" lon="-5.9548">
        <ele>205.0</ele>
        <time>2012-06-15T08:22:54Z</time>
      </trkpt>
      <trkpt lat="43.342066" lon="-5.954794">
        <ele>205.0</ele>
        <time>2012-06-15T08:22:58Z</time>
      </trkpt>
      <trkpt lat="43.341919" lon="-5.954797">
        <ele>205.0</ele>
        <time>2012-06-15T08:23:02Z</time>
      </trkpt>
      <trkpt lat="43.341787" lon="-5.95474">
        <ele>206.0</ele>
        <time>2012-06-15T08:23:06Z</time>
      </trkpt>
      <trkpt lat="43.341657" lon="-5.954645">
        <ele>206.0</ele>
        <time>2012-06-15T08:23:10Z</time>
      </trkpt>
      <trkpt lat="43.341536" lon="-5.954522">
        <ele>206.0</ele>
        <time>2012-06-15T08:23:14Z</time>
      </trkpt>
      <trkpt lat="43.341415" lon="-5.954379">
        <ele>206.0</ele>
        <time>2012-06-15T08:23:18Z</time>
      </trkpt>
      <trkpt lat="43.341299" lon="-5.954218">
        <ele>207.0</ele>
        <time>2012-06-15T08:23:22Z</time>
      </trkpt>
      <trkpt lat="43.341183" lon="-5.954042">
        <ele>207.0</ele>
        <time>2012-06-15T08:23:26Z</time>
      </trkpt>
      <trkpt lat="43.34106" lon="-5.953854">
        <ele>208.0</ele>
        <time>2012-06-15T08:23:30Z</time>
      </trkpt>
      <trkpt lat="43.340942" lon="-5.953638">
        <ele>208.0</ele>
        <time>2012-06-15T08:23:34Z</time>
      </trkpt>
      <trkpt lat="43.340818" lon="-5.953434">
        <ele>208.0</ele>
        <time>2012-06-15T08:23:38Z</time>
      </trkpt>
      <trkpt lat="43.340755" lon="-5.953341">
        <ele>208.0</ele>
        <time>2012-06-15T08:23:40Z</time>
      </trkpt>
      <trkpt lat="43.340577" lon="-5.953026">
        <ele>203.0</ele>
        <time>2012-06-15T08:23:46Z</time>
      </trkpt>
      <trkpt lat="43.340566" lon="-5.952797">
        <ele>202.0</ele>
        <time>2012-06-15T08:23:50Z</time>
      </trkpt>
      <trkpt lat="43.340698" lon="-5.952427">
        <ele>204.0</ele>
        <time>2012-06-15T08:23:55Z</time>
      </trkpt>
      <trkpt lat="43.340789" lon="-5.952195">
        <ele>206.0</ele>
        <time>2012-06-15T08:23:58Z</time>
      </trkpt>
      <trkpt lat="43.340899" lon="-5.951896">
        <ele>208.0</ele>
        <time>2012-06-15T08:24:02Z</time>
      </trkpt>
      <trkpt lat="43.341018" lon="-5.951626">
        <ele>210.0</ele>
        <time>2012-06-15T08:24:06Z</time>
      </trkpt>
      <trkpt lat="43.341107" lon="-5.951382">
        <ele>212.0</ele>
        <time>2012-06-15T08:24:10Z</time>
      </trkpt>
      <trkpt lat="43.341077" lon="-5.951201">
        <ele>216.0</ele>
        <time>2012-06-15T08:24:14Z</time>
      </trkpt>
      <trkpt lat="43.340982" lon="-5.951067">
        <ele>221.0</ele>
        <time>2012-06-15T08:24:18Z</time>
      </trkpt>
      <trkpt lat="43.340929" lon="-5.951007">
        <ele>222.0</ele>
        <time>2012-06-15T08:24:20Z</time>
      </trkpt>
      <trkpt lat="43.340742" lon="-5.950831">
        <ele>225.0</ele>
        <time>2012-06-15T08:24:27Z</time>
      </trkpt>
      <trkpt lat="43.34063" lon="-5.950736">
        <ele>226.0</ele>
        <time>2012-06-15T08:24:31Z</time>
      </trkpt>
      <trkpt lat="43.340526" lon="-5.950599">
        <ele>226.0</ele>
        <time>2012-06-15T08:24:35Z</time>
      </trkpt>
      <trkpt lat="43.340476" lon="-5.950517">
        <ele>226.0</ele>
        <time>2012-06-15T08:24:37Z</time>
      </trkpt>
      <trkpt lat="43.340429" lon="-5.950235">
        <ele>227.0</ele>
        <time>2012-06-15T08:24:43Z</time>
      </trkpt>
      <trkpt lat="43.340575" lon="-5.950048">
        <ele>231.0</ele>
        <time>2012-06-15T08:24:47Z</time>
      </trkpt>
      <trkpt lat="43.34091" lon="-5.949759">
        <ele>236.0</ele>
        <time>2012-06-15T08:24:55Z</time>
      </trkpt>
      <trkpt lat="43.341075" lon="-5.9496">
        <ele>237.0</ele>
        <time>2012-06-15T08:24:59Z</time>
      </trkpt>
      <trkpt lat="43.341313" lon="-5.949358">
        <ele>239.0</ele>
        <time>2012-06-15T08:25:05Z</time>
      </trkpt>
      <trkpt lat="43.341456" lon="-5.949184">
        <ele>240.0</ele>
        <time>2012-06-15T08:25:09Z</time>
      </trkpt>
      <trkpt lat="43.341669" lon="-5.948931">
        <ele>240.0</ele>
        <time>2012-06-15T08:25:15Z</time>
      </trkpt>
      <trkpt lat="43.341802" lon="-5.948743">
        <ele>240.0</ele>
        <time>2012-06-15T08:25:19Z</time>
      </trkpt>
      <trkpt lat="43.341931" lon="-5.948551">
        <ele>240.0</ele>
        <time>2012-06-15T08:25:23Z</time>
      </trkpt>
      <trkpt lat="43.342048" lon="-5.948353">
        <ele>240.0</ele>
        <time>2012-06-15T08:25:27Z</time>
      </trkpt>
      <trkpt lat="43.342179" lon="-5.948018">
        <ele>240.0</ele>
        <time>2012-06-15T08:25:33Z</time>
      </trkpt>
      <trkpt lat="43.342295" lon="-5.94765">
        <ele>240.0</ele>
        <time>2012-06-15T08:25:39Z</time>
      </trkpt>
      <trkpt lat="43.342374" lon="-5.947411">
        <ele>239.0</ele>
        <time>2012-06-15T08:25:43Z</time>
      </trkpt>
      <trkpt lat="43.342455" lon="-5.947179">
        <ele>238.0</ele>
        <time>2012-06-15T08:25:47Z</time>
      </trkpt>
      <trkpt lat="43.342545" lon="-5.946956">
        <ele>238.0</ele>
        <time>2012-06-15T08:25:51Z</time>
      </trkpt>
      <trkpt lat="43.342645" lon="-5.946725">
        <ele>238.0</ele>
        <time>2012-06-15T08:25:55Z</time>
      </trkpt>
      <trkpt lat="43.342746" lon="-5.946469">
        <ele>239.0</ele>
        <time>2012-06-15T08:25:59Z</time>
      </trkpt>
      <trkpt lat="43.342847" lon="-5.946216">
        <ele>240.0</ele>
        <time>2012-06-15T08:26:03Z</time>
      </trkpt>
      <trkpt lat="43.342937" lon="-5.945954">
        <ele>241.0</ele>
        <time>2012-06-15T08:26:07Z</time>
      </trkpt>
      <trkpt lat="43.342978" lon="-5.945818">
        <ele>242.0</ele>
        <time>2012-06-15T08:26:09Z</time>
      </trkpt>
      <trkpt lat="43.34295" lon="-5.945467">
        <ele>245.0</ele>
        <time>2012-06-15T08:26:15Z</time>
      </trkpt>
      <trkpt lat="43.342764" lon="-5.945347">
        <ele>248.0</ele>
        <time>2012-06-15T08:26:19Z</time>
      </trkpt>
      <trkpt lat="43.342548" lon="-5.945243">
        <ele>249.0</ele>
        <time>2012-06-15T08:26:23Z</time>
      </trkpt>
      <trkpt lat="43.342145" lon="-5.944996">
        <ele>248.0</ele>
        <time>2012-06-15T08:26:31Z</time>
      </trkpt>
      <trkpt lat="43.341969" lon="-5.944838">
        <ele>248.0</ele>
        <time>2012-06-15T08:26:35Z</time>
      </trkpt>
      <trkpt lat="43.341816" lon="-5.944637">
        <ele>247.0</ele>
        <time>2012-06-15T08:26:39Z</time>
      </trkpt>
      <trkpt lat="43.341655" lon="-5.944404">
        <ele>247.0</ele>
        <time>2012-06-15T08:26:43Z</time>
      </trkpt>
      <trkpt lat="43.341532" lon="-5.944023">
        <ele>246.0</ele>
        <time>2012-06-15T08:26:47Z</time>
      </trkpt>
      <trkpt lat="43.341583" lon="-5.943594">
        <ele>246.0</ele>
        <time>2012-06-15T08:26:51Z</time>
      </trkpt>
      <trkpt lat="43.34171" lon="-5.943243">
        <ele>248.0</ele>
        <time>2012-06-15T08:26:55Z</time>
      </trkpt>
      <trkpt lat="43.341892" lon="-5.942952">
        <ele>250.0</ele>
        <time>2012-06-15T08:26:59Z</time>
      </trkpt>
      <trkpt lat="43.342108" lon="-5.942699">
        <ele>252.0</ele>
        <time>2012-06-15T08:27:03Z</time>
      </trkpt>
      <trkpt lat="43.342309" lon="-5.942458">
        <ele>253.0</ele>
        <time>2012-06-15T08:27:07Z</time>
      </trkpt>
      <trkpt lat="43.342511" lon="-5.942244">
        <ele>254.0</ele>
        <time>2012-06-15T08:27:11Z</time>
      </trkpt>
      <trkpt lat="43.342669" lon="-5.942106">
        <ele>255.0</ele>
        <time>2012-06-15T08:27:14Z</time>
      </trkpt>
      <trkpt lat="43.342931" lon="-5.941889">
        <ele>256.0</ele>
        <time>2012-06-15T08:27:19Z</time>
      </trkpt>
      <trkpt lat="43.34315" lon="-5.941721">
        <ele>257.0</ele>
        <time>2012-06-15T08:27:23Z</time>
      </trkpt>
      <trkpt lat="43.343357" lon="-5.941565">
        <ele>257.0</ele>
        <time>2012-06-15T08:27:27Z</time>
      </trkpt>
      <trkpt lat="43.343715" lon="-5.941233">
        <ele>259.0</ele>
        <time>2012-06-15T08:27:35Z</time>
      </trkpt>
      <trkpt lat="43.343865" lon="-5.941054">
        <ele>259.0</ele>
        <time>2012-06-15T08:27:39Z</time>
      </trkpt>
      <trkpt lat="43.344003" lon="-5.940877">
        <ele>260.0</ele>
        <time>2012-06-15T08:27:43Z</time>
      </trkpt>
      <trkpt lat="43.344115" lon="-5.940667">
        <ele>261.0</ele>
        <time>2012-06-15T08:27:47Z</time>
      </trkpt>
      <trkpt lat="43.344206" lon="-5.940426">
        <ele>262.0</ele>
        <time>2012-06-15T08:27:51Z</time>
      </trkpt>
      <trkpt lat="43.344208" lon="-5.940117">
        <ele>264.0</ele>
        <time>2012-06-15T08:27:55Z</time>
      </trkpt>
      <trkpt lat="43.344156" lon="-5.939824">
        <ele>265.0</ele>
        <time>2012-06-15T08:27:59Z</time>
      </trkpt>
      <trkpt lat="43.344096" lon="-5.939539">
        <ele>267.0</ele>
        <time>2012-06-15T08:28:03Z</time>
      </trkpt>
      <trkpt lat="43.344033" lon="-5.939263">
        <ele>268.0</ele>
        <time>2012-06-15T08:28:07Z</time>
      </trkpt>
      <trkpt lat="43.344021" lon="-5.938984">
        <ele>270.0</ele>
        <time>2012-06-15T08:28:11Z</time>
      </trkpt>
      <trkpt lat="43.344067" lon="-5.938711">
        <ele>270.0</ele>
        <time>2012-06-15T08:28:15Z</time>
      </trkpt>
      <trkpt lat="43.344157" lon="-5.938462">
        <ele>271.0</ele>
        <time>2012-06-15T08:28:19Z</time>
      </trkpt>
      <trkpt lat="43.344218" lon="-5.938358">
        <ele>272.0</ele>
        <time>2012-06-15T08:28:21Z</time>
      </trkpt>
      <trkpt lat="43.344383" lon="-5.938173">
        <ele>273.0</ele>
        <time>2012-06-15T08:28:25Z</time>
      </trkpt>
      <trkpt lat="43.344637" lon="-5.937888">
        <ele>274.0</ele>
        <time>2012-06-15T08:28:31Z</time>
      </trkpt>
      <trkpt lat="43.344872" lon="-5.937593">
        <ele>275.0</ele>
        <time>2012-06-15T08:28:37Z</time>
      </trkpt>
      <trkpt lat="43.345099" lon="-5.937302">
        <ele>275.0</ele>
        <time>2012-06-15T08:28:43Z</time>
      </trkpt>
      <trkpt lat="43.345245" lon="-5.937102">
        <ele>276.0</ele>
        <time>2012-06-15T08:28:47Z</time>
      </trkpt>
      <trkpt lat="43.345375" lon="-5.936875">
        <ele>276.0</ele>
        <time>2012-06-15T08:28:51Z</time>
      </trkpt>
      <trkpt lat="43.345509" lon="-5.936642">
        <ele>277.0</ele>
        <time>2012-06-15T08:28:55Z</time>
      </trkpt>
      <trkpt lat="43.345646" lon="-5.936421">
        <ele>277.0</ele>
        <time>2012-06-15T08:28:59Z</time>
      </trkpt>
      <trkpt lat="43.345792" lon="-5.936209">
        <ele>277.0</ele>
        <time>2012-06-15T08:29:03Z</time>
      </trkpt>
      <trkpt lat="43.34595" lon="-5.936009">
        <ele>277.0</ele>
        <time>2012-06-15T08:29:07Z</time>
      </trkpt>
      <trkpt lat="43.346094" lon="-5.93579">
        <ele>277.0</ele>
        <time>2012-06-15T08:29:11Z</time>
      </trkpt>
      <trkpt lat="43.346311" lon="-5.935273">
        <ele>278.0</ele>
        <time>2012-06-15T08:29:19Z</time>
      </trkpt>
      <trkpt lat="43.346396" lon="-5.935008">
        <ele>279.0</ele>
        <time>2012-06-15T08:29:23Z</time>
      </trkpt>
      <trkpt lat="43.34645" lon="-5.934882">
        <ele>279.0</ele>
        <time>2012-06-15T08:29:25Z</time>
      </trkpt>
      <trkpt lat="43.346643" lon="-5.93453">
        <ele>280.0</ele>
        <time>2012-06-15T08:29:31Z</time>
      </trkpt>
      <trkpt lat="43.346795" lon="-5.934328">
        <ele>281.0</ele>
        <time>2012-06-15T08:29:35Z</time>
      </trkpt>
      <trkpt lat="43.346963" lon="-5.934167">
        <ele>282.0</ele>
        <time>2012-06-15T08:29:39Z</time>
      </trkpt>
      <trkpt lat="43.347136" lon="-5.934027">
        <ele>282.0</ele>
        <time>2012-06-15T08:29:43Z</time>
      </trkpt>
      <trkpt lat="43.347304" lon="-5.933894">
        <ele>282.0</ele>
        <time>2012-06-15T08:29:47Z</time>
      </trkpt>
      <trkpt lat="43.347465" lon="-5.93376">
        <ele>282.0</ele>
        <time>2012-06-15T08:29:51Z</time>
      </trkpt>
      <trkpt lat="43.347544" lon="-5.933689">
        <ele>282.0</ele>
        <time>2012-06-15T08:29:53Z</time>
      </trkpt>
      <trkpt lat="43.347716" lon="-5.933362">
        <ele>282.0</ele>
        <time>2012-06-15T08:29:59Z</time>
      </trkpt>
      <trkpt lat="43.347808" lon="-5.933128">
        <ele>283.0</ele>
        <time>2012-06-15T08:30:03Z</time>
      </trkpt>
      <trkpt lat="43.347946" lon="-5.932634">
        <ele>284.0</ele>
        <time>2012-06-15T08:30:11Z</time>
      </trkpt>
      <trkpt lat="43.347988" lon="-5.932362">
        <ele>285.0</ele>
        <time>2012-06-15T08:30:15Z</time>
      </trkpt>
      <trkpt lat="43.348004" lon="-5.932079">
        <ele>285.0</ele>
        <time>2012-06-15T08:30:19Z</time>
      </trkpt>
      <trkpt lat="43.347988" lon="-5.93179">
        <ele>286.0</ele>
        <time>2012-06-15T08:30:23Z</time>
      </trkpt>
      <trkpt lat="43.347849" lon="-5.931255">
        <ele>289.0</ele>
        <time>2012-06-15T08:30:31Z</time>
      </trkpt>
      <trkpt lat="43.347796" lon="-5.930983">
        <ele>289.0</ele>
        <time>2012-06-15T08:30:35Z</time>
      </trkpt>
      <trkpt lat="43.34775" lon="-5.930704">
        <ele>290.0</ele>
        <time>2012-06-15T08:30:39Z</time>
      </trkpt>
      <trkpt lat="43.347716" lon="-5.930421">
        <ele>290.0</ele>
        <time>2012-06-15T08:30:43Z</time>
      </trkpt>
      <trkpt lat="43.347699" lon="-5.930132">
        <ele>291.0</ele>
        <time>2012-06-15T08:30:47Z</time>
      </trkpt>
      <trkpt lat="43.347691" lon="-5.929843">
        <ele>291.0</ele>
        <time>2012-06-15T08:30:51Z</time>
      </trkpt>
      <trkpt lat="43.347687" lon="-5.92956">
        <ele>291.0</ele>
        <time>2012-06-15T08:30:55Z</time>
      </trkpt>
      <trkpt lat="43.347668" lon="-5.929281">
        <ele>291.0</ele>
        <time>2012-06-15T08:30:59Z</time>
      </trkpt>
      <trkpt lat="43.347641" lon="-5.928995">
        <ele>292.0</ele>
        <time>2012-06-15T08:31:03Z</time>
      </trkpt>
      <trkpt lat="43.347594" lon="-5.928715">
        <ele>292.0</ele>
        <time>2012-06-15T08:31:07Z</time>
      </trkpt>
      <trkpt lat="43.347472" lon="-5.92848">
        <ele>293.0</ele>
        <time>2012-06-15T08:31:11Z</time>
      </trkpt>
      <trkpt lat="43.347281" lon="-5.92831">
        <ele>294.0</ele>
        <time>2012-06-15T08:31:15Z</time>
      </trkpt>
      <trkpt lat="43.347136" lon="-5.928091">
        <ele>295.0</ele>
        <time>2012-06-15T08:31:19Z</time>
      </trkpt>
      <trkpt lat="43.347059" lon="-5.927819">
        <ele>296.0</ele>
        <time>2012-06-15T08:31:23Z</time>
      </trkpt>
      <trkpt lat="43.347015" lon="-5.927541">
        <ele>297.0</ele>
        <time>2012-06-15T08:31:27Z</time>
      </trkpt>
      <trkpt lat="43.346987" lon="-5.927258">
        <ele>298.0</ele>
        <time>2012-06-15T08:31:31Z</time>
      </trkpt>
      <trkpt lat="43.347024" lon="-5.926961">
        <ele>299.0</ele>
        <time>2012-06-15T08:31:35Z</time>
      </trkpt>
      <trkpt lat="43.34707" lon="-5.926655">
        <ele>299.0</ele>
        <time>2012-06-15T08:31:39Z</time>
      </trkpt>
      <trkpt lat="43.346988" lon="-5.926051">
        <ele>300.0</ele>
        <time>2012-06-15T08:31:47Z</time>
      </trkpt>
      <trkpt lat="43.346931" lon="-5.925758">
        <ele>301.0</ele>
        <time>2012-06-15T08:31:51Z</time>
      </trkpt>
      <trkpt lat="43.346867" lon="-5.92548">
        <ele>302.0</ele>
        <time>2012-06-15T08:31:55Z</time>
      </trkpt>
      <trkpt lat="43.346805" lon="-5.925358">
        <ele>303.0</ele>
        <time>2012-06-15T08:31:57Z</time>
      </trkpt>
      <trkpt lat="43.346439" lon="-5.925198">
        <ele>303.0</ele>
        <time>2012-06-15T08:32:03Z</time>
      </trkpt>
      <trkpt lat="43.346204" lon="-5.92501">
        <ele>304.0</ele>
        <time>2012-06-15T08:32:07Z</time>
      </trkpt>
      <trkpt lat="43.346021" lon="-5.924672">
        <ele>305.0</ele>
        <time>2012-06-15T08:32:11Z</time>
      </trkpt>
      <trkpt lat="43.345876" lon="-5.924294">
        <ele>306.0</ele>
        <time>2012-06-15T08:32:15Z</time>
      </trkpt>
      <trkpt lat="43.345748" lon="-5.923904">
        <ele>307.0</ele>
        <time>2012-06-15T08:32:19Z</time>
      </trkpt>
      <trkpt lat="43.345633" lon="-5.923494">
        <ele>307.0</ele>
        <time>2012-06-15T08:32:23Z</time>
      </trkpt>
      <trkpt lat="43.345464" lon="-5.92312">
        <ele>307.0</ele>
        <time>2012-06-15T08:32:27Z</time>
      </trkpt>
      <trkpt lat="43.345235" lon="-5.922807">
        <ele>308.0</ele>
        <time>2012-06-15T08:32:31Z</time>
      </trkpt>
      <trkpt lat="43.345004" lon="-5.922523">
        <ele>309.0</ele>
        <time>2012-06-15T08:32:35Z</time>
      </trkpt>
      <trkpt lat="43.344769" lon="-5.922257">
        <ele>309.0</ele>
        <time>2012-06-15T08:32:39Z</time>
      </trkpt>
      <trkpt lat="43.344569" lon="-5.921926">
        <ele>309.0</ele>
        <time>2012-06-15T08:32:43Z</time>
      </trkpt>
      <trkpt lat="43.34446" lon="-5.921476">
        <ele>310.0</ele>
        <time>2012-06-15T08:32:47Z</time>
      </trkpt>
      <trkpt lat="43.34442" lon="-5.921026">
        <ele>311.0</ele>
        <time>2012-06-15T08:32:51Z</time>
      </trkpt>
      <trkpt lat="43.34446" lon="-5.920619">
        <ele>310.0</ele>
        <time>2012-06-15T08:32:55Z</time>
      </trkpt>
      <trkpt lat="43.344586" lon="-5.92023">
        <ele>309.0</ele>
        <time>2012-06-15T08:32:59Z</time>
      </trkpt>
      <trkpt lat="43.344808" lon="-5.919886">
        <ele>307.0</ele>
        <time>2012-06-15T08:33:03Z</time>
      </trkpt>
      <trkpt lat="43.345015" lon="-5.919666">
        <ele>307.0</ele>
        <time>2012-06-15T08:33:06Z</time>
      </trkpt>
      <trkpt lat="43.345408" lon="-5.919345">
        <ele>307.0</ele>
        <time>2012-06-15T08:33:11Z</time>
      </trkpt>
      <trkpt lat="43.345712" lon="-5.919115">
        <ele>307.0</ele>
        <time>2012-06-15T08:33:15Z</time>
      </trkpt>
      <trkpt lat="43.346015" lon="-5.918889">
        <ele>307.0</ele>
        <time>2012-06-15T08:33:19Z</time>
      </trkpt>
      <trkpt lat="43.346228" lon="-5.918693">
        <ele>307.0</ele>
        <time>2012-06-15T08:33:22Z</time>
      </trkpt>
      <trkpt lat="43.346558" lon="-5.918333">
        <ele>307.0</ele>
        <time>2012-06-15T08:33:27Z</time>
      </trkpt>
      <trkpt lat="43.346747" lon="-5.917967">
        <ele>308.0</ele>
        <time>2012-06-15T08:33:31Z</time>
      </trkpt>
      <trkpt lat="43.346812" lon="-5.917762">
        <ele>308.0</ele>
        <time>2012-06-15T08:33:33Z</time>
      </trkpt>
      <trkpt lat="43.346967" lon="-5.917107">
        <ele>308.0</ele>
        <time>2012-06-15T08:33:39Z</time>
      </trkpt>
      <trkpt lat="43.347035" lon="-5.916655">
        <ele>308.0</ele>
        <time>2012-06-15T08:33:43Z</time>
      </trkpt>
      <trkpt lat="43.347031" lon="-5.916208">
        <ele>308.0</ele>
        <time>2012-06-15T08:33:47Z</time>
      </trkpt>
      <trkpt lat="43.347022" lon="-5.915789">
        <ele>308.0</ele>
        <time>2012-06-15T08:33:51Z</time>
      </trkpt>
      <trkpt lat="43.347014" lon="-5.915512">
        <ele>308.0</ele>
        <time>2012-06-15T08:33:54Z</time>
      </trkpt>
      <trkpt lat="43.346983" lon="-5.915177">
        <ele>308.0</ele>
        <time>2012-06-15T08:33:58Z</time>
      </trkpt>
      <trkpt lat="43.346949" lon="-5.914881">
        <ele>307.0</ele>
        <time>2012-06-15T08:34:02Z</time>
      </trkpt>
      <trkpt lat="43.346871" lon="-5.914635">
        <ele>306.0</ele>
        <time>2012-06-15T08:34:06Z</time>
      </trkpt>
      <trkpt lat="43.34675" lon="-5.914437">
        <ele>306.0</ele>
        <time>2012-06-15T08:34:10Z</time>
      </trkpt>
      <trkpt lat="43.346618" lon="-5.914246">
        <ele>306.0</ele>
        <time>2012-06-15T08:34:14Z</time>
      </trkpt>
      <trkpt lat="43.346481" lon="-5.914048">
        <ele>306.0</ele>
        <time>2012-06-15T08:34:18Z</time>
      </trkpt>
      <trkpt lat="43.346346" lon="-5.913826">
        <ele>307.0</ele>
        <time>2012-06-15T08:34:22Z</time>
      </trkpt>
      <trkpt lat="43.346288" lon="-5.913715">
        <ele>307.0</ele>
        <time>2012-06-15T08:34:24Z</time>
      </trkpt>
      <trkpt lat="43.346124" lon="-5.913386">
        <ele>307.0</ele>
        <time>2012-06-15T08:34:30Z</time>
      </trkpt>
      <trkpt lat="43.346012" lon="-5.913169">
        <ele>307.0</ele>
        <time>2012-06-15T08:34:34Z</time>
      </trkpt>
      <trkpt lat="43.345907" lon="-5.912925">
        <ele>307.0</ele>
        <time>2012-06-15T08:34:38Z</time>
      </trkpt>
      <trkpt lat="43.345824" lon="-5.91267">
        <ele>307.0</ele>
        <time>2012-06-15T08:34:42Z</time>
      </trkpt>
      <trkpt lat="43.34583" lon="-5.912414">
        <ele>307.0</ele>
        <time>2012-06-15T08:34:46Z</time>
      </trkpt>
      <trkpt lat="43.345924" lon="-5.912163">
        <ele>308.0</ele>
        <time>2012-06-15T08:34:50Z</time>
      </trkpt>
      <trkpt lat="43.346026" lon="-5.911925">
        <ele>309.0</ele>
        <time>2012-06-15T08:34:54Z</time>
      </trkpt>
      <trkpt lat="43.346081" lon="-5.911653">
        <ele>309.0</ele>
        <time>2012-06-15T08:34:58Z</time>
      </trkpt>
      <trkpt lat="43.346069" lon="-5.911228">
        <ele>309.0</ele>
        <time>2012-06-15T08:35:03Z</time>
      </trkpt>
      <trkpt lat="43.34591" lon="-5.910878">
        <ele>308.0</ele>
        <time>2012-06-15T08:35:07Z</time>
      </trkpt>
      <trkpt lat="43.345657" lon="-5.910648">
        <ele>308.0</ele>
        <time>2012-06-15T08:35:11Z</time>
      </trkpt>
      <trkpt lat="43.345364" lon="-5.910527">
        <ele>308.0</ele>
        <time>2012-06-15T08:35:15Z</time>
      </trkpt>
      <trkpt lat="43.345079" lon="-5.910387">
        <ele>308.0</ele>
        <time>2012-06-15T08:35:19Z</time>
      </trkpt>
      <trkpt lat="43.344875" lon="-5.910272">
        <ele>309.0</ele>
        <time>2012-06-15T08:35:22Z</time>
      </trkpt>
      <trkpt lat="43.344552" lon="-5.910054">
        <ele>309.0</ele>
        <time>2012-06-15T08:35:27Z</time>
      </trkpt>
      <trkpt lat="43.34436" lon="-5.909932">
        <ele>309.0</ele>
        <time>2012-06-15T08:35:30Z</time>
      </trkpt>
      <trkpt lat="43.344049" lon="-5.90971">
        <ele>310.0</ele>
        <time>2012-06-15T08:35:35Z</time>
      </trkpt>
      <trkpt lat="43.343827" lon="-5.909472">
        <ele>310.0</ele>
        <time>2012-06-15T08:35:39Z</time>
      </trkpt>
      <trkpt lat="43.343675" lon="-5.909304">
        <ele>310.0</ele>
        <time>2012-06-15T08:35:42Z</time>
      </trkpt>
      <trkpt lat="43.343476" lon="-5.909101">
        <ele>310.0</ele>
        <time>2012-06-15T08:35:46Z</time>
      </trkpt>
      <trkpt lat="43.343351" lon="-5.908847">
        <ele>310.0</ele>
        <time>2012-06-15T08:35:50Z</time>
      </trkpt>
      <trkpt lat="43.34326" lon="-5.908597">
        <ele>310.0</ele>
        <time>2012-06-15T08:35:54Z</time>
      </trkpt>
      <trkpt lat="43.343246" lon="-5.908293">
        <ele>310.0</ele>
        <time>2012-06-15T08:35:58Z</time>
      </trkpt>
      <trkpt lat="43.343257" lon="-5.90795">
        <ele>310.0</ele>
        <time>2012-06-15T08:36:02Z</time>
      </trkpt>
      <trkpt lat="43.343253" lon="-5.907505">
        <ele>311.0</ele>
        <time>2012-06-15T08:36:07Z</time>
      </trkpt>
      <trkpt lat="43.343287" lon="-5.907172">
        <ele>311.0</ele>
        <time>2012-06-15T08:36:11Z</time>
      </trkpt>
      <trkpt lat="43.343373" lon="-5.90682">
        <ele>312.0</ele>
        <time>2012-06-15T08:36:15Z</time>
      </trkpt>
      <trkpt lat="43.34349" lon="-5.906436">
        <ele>312.0</ele>
        <time>2012-06-15T08:36:19Z</time>
      </trkpt>
      <trkpt lat="43.343599" lon="-5.906041">
        <ele>311.0</ele>
        <time>2012-06-15T08:36:23Z</time>
      </trkpt>
      <trkpt lat="43.343677" lon="-5.905643">
        <ele>310.0</ele>
        <time>2012-06-15T08:36:27Z</time>
      </trkpt>
      <trkpt lat="43.343748" lon="-5.905255">
        <ele>310.0</ele>
        <time>2012-06-15T08:36:31Z</time>
      </trkpt>
      <trkpt lat="43.343816" lon="-5.90487">
        <ele>310.0</ele>
        <time>2012-06-15T08:36:35Z</time>
      </trkpt>
      <trkpt lat="43.343861" lon="-5.904586">
        <ele>310.0</ele>
        <time>2012-06-15T08:36:38Z</time>
      </trkpt>
      <trkpt lat="43.343936" lon="-5.904213">
        <ele>309.0</ele>
        <time>2012-06-15T08:36:42Z</time>
      </trkpt>
      <trkpt lat="43.34404" lon="-5.90386">
        <ele>308.0</ele>
        <time>2012-06-15T08:36:46Z</time>
      </trkpt>
      <trkpt lat="43.344133" lon="-5.903526">
        <ele>308.0</ele>
        <time>2012-06-15T08:36:50Z</time>
      </trkpt>
      <trkpt lat="43.344213" lon="-5.903195">
        <ele>308.0</ele>
        <time>2012-06-15T08:36:54Z</time>
      </trkpt>
      <trkpt lat="43.344298" lon="-5.902867">
        <ele>309.0</ele>
        <time>2012-06-15T08:36:58Z</time>
      </trkpt>
      <trkpt lat="43.344368" lon="-5.902533">
        <ele>310.0</ele>
        <time>2012-06-15T08:37:02Z</time>
      </trkpt>
      <trkpt lat="43.344424" lon="-5.902188">
        <ele>311.0</ele>
        <time>2012-06-15T08:37:06Z</time>
      </trkpt>
      <trkpt lat="43.344472" lon="-5.901842">
        <ele>311.0</ele>
        <time>2012-06-15T08:37:10Z</time>
      </trkpt>
      <trkpt lat="43.344523" lon="-5.901483">
        <ele>311.0</ele>
        <time>2012-06-15T08:37:14Z</time>
      </trkpt>
      <trkpt lat="43.344553" lon="-5.901109">
        <ele>311.0</ele>
        <time>2012-06-15T08:37:18Z</time>
      </trkpt>
      <trkpt lat="43.34456" lon="-5.900822">
        <ele>311.0</ele>
        <time>2012-06-15T08:37:21Z</time>
      </trkpt>
      <trkpt lat="43.344493" lon="-5.900529">
        <ele>311.0</ele>
        <time>2012-06-15T08:37:25Z</time>
      </trkpt>
      <trkpt lat="43.344456" lon="-5.90042">
        <ele>311.0</ele>
        <time>2012-06-15T08:37:27Z</time>
      </trkpt>
      <trkpt lat="43.34431" lon="-5.900054">
        <ele>313.0</ele>
        <time>2012-06-15T08:37:33Z</time>
      </trkpt>
      <trkpt lat="43.344282" lon="-5.899843">
        <ele>315.0</ele>
        <time>2012-06-15T08:37:37Z</time>
      </trkpt>
      <trkpt lat="43.344688" lon="-5.899558">
        <ele>315.0</ele>
        <time>2012-06-15T08:37:43Z</time>
      </trkpt>
      <trkpt lat="43.345" lon="-5.899318">
        <ele>315.0</ele>
        <time>2012-06-15T08:37:47Z</time>
      </trkpt>
      <trkpt lat="43.345326" lon="-5.899101">
        <ele>316.0</ele>
        <time>2012-06-15T08:37:51Z</time>
      </trkpt>
      <trkpt lat="43.345676" lon="-5.898879">
        <ele>316.0</ele>
        <time>2012-06-15T08:37:55Z</time>
      </trkpt>
      <trkpt lat="43.346038" lon="-5.898627">
        <ele>316.0</ele>
        <time>2012-06-15T08:37:59Z</time>
      </trkpt>
      <trkpt lat="43.346298" lon="-5.898405">
        <ele>316.0</ele>
        <time>2012-06-15T08:38:02Z</time>
      </trkpt>
      <trkpt lat="43.346669" lon="-5.897959">
        <ele>316.0</ele>
        <time>2012-06-15T08:38:07Z</time>
      </trkpt>
      <trkpt lat="43.346897" lon="-5.897587">
        <ele>316.0</ele>
        <time>2012-06-15T08:38:11Z</time>
      </trkpt>
      <trkpt lat="43.347072" lon="-5.897216">
        <ele>316.0</ele>
        <time>2012-06-15T08:38:15Z</time>
      </trkpt>
      <trkpt lat="43.34721" lon="-5.896871">
        <ele>315.0</ele>
        <time>2012-06-15T08:38:19Z</time>
      </trkpt>
      <trkpt lat="43.347316" lon="-5.896589">
        <ele>315.0</ele>
        <time>2012-06-15T08:38:23Z</time>
      </trkpt>
      <trkpt lat="43.347508" lon="-5.896046">
        <ele>315.0</ele>
        <time>2012-06-15T08:38:31Z</time>
      </trkpt>
      <trkpt lat="43.347557" lon="-5.89591">
        <ele>315.0</ele>
        <time>2012-06-15T08:38:33Z</time>
      </trkpt>
      <trkpt lat="43.34769" lon="-5.895504">
        <ele>316.0</ele>
        <time>2012-06-15T08:38:39Z</time>
      </trkpt>
      <trkpt lat="43.347757" lon="-5.895309">
        <ele>317.0</ele>
        <time>2012-06-15T08:38:43Z</time>
      </trkpt>
      <trkpt lat="43.347753" lon="-5.895181">
        <ele>319.0</ele>
        <time>2012-06-15T08:38:46Z</time>
      </trkpt>
      <trkpt lat="43.347752" lon="-5.894994">
        <ele>321.0</ele>
        <time>2012-06-15T08:38:50Z</time>
      </trkpt>
      <trkpt lat="43.347772" lon="-5.894791">
        <ele>322.0</ele>
        <time>2012-06-15T08:38:54Z</time>
      </trkpt>
      <trkpt lat="43.347797" lon="-5.894579">
        <ele>323.0</ele>
        <time>2012-06-15T08:38:58Z</time>
      </trkpt>
      <trkpt lat="43.347823" lon="-5.894367">
        <ele>323.0</ele>
        <time>2012-06-15T08:39:02Z</time>
      </trkpt>
      <trkpt lat="43.34785" lon="-5.894153">
        <ele>324.0</ele>
        <time>2012-06-15T08:39:06Z</time>
      </trkpt>
      <trkpt lat="43.347869" lon="-5.893949">
        <ele>324.0</ele>
        <time>2012-06-15T08:39:10Z</time>
      </trkpt>
      <trkpt lat="43.34787" lon="-5.893745">
        <ele>324.0</ele>
        <time>2012-06-15T08:39:14Z</time>
      </trkpt>
      <trkpt lat="43.347888" lon="-5.893644">
        <ele>324.0</ele>
        <time>2012-06-15T08:39:16Z</time>
      </trkpt>
      <trkpt lat="43.347902" lon="-5.893331">
        <ele>324.0</ele>
        <time>2012-06-15T08:39:22Z</time>
      </trkpt>
      <trkpt lat="43.347866" lon="-5.893128">
        <ele>324.0</ele>
        <time>2012-06-15T08:39:26Z</time>
      </trkpt>
      <trkpt lat="43.347747" lon="-5.892754">
        <ele>325.0</ele>
        <time>2012-06-15T08:39:34Z</time>
      </trkpt>
      <trkpt lat="43.3477" lon="-5.89255">
        <ele>325.0</ele>
        <time>2012-06-15T08:39:38Z</time>
      </trkpt>
      <trkpt lat="43.34768" lon="-5.89245">
        <ele>326.0</ele>
        <time>2012-06-15T08:39:40Z</time>
      </trkpt>
      <trkpt lat="43.347683" lon="-5.89217">
        <ele>326.0</ele>
        <time>2012-06-15T08:39:46Z</time>
      </trkpt>
      <trkpt lat="43.347713" lon="-5.89198">
        <ele>326.0</ele>
        <time>2012-06-15T08:39:50Z</time>
      </trkpt>
      <trkpt lat="43.347733" lon="-5.89177">
        <ele>326.0</ele>
        <time>2012-06-15T08:39:54Z</time>
      </trkpt>
      <trkpt lat="43.347726" lon="-5.891554">
        <ele>326.0</ele>
        <time>2012-06-15T08:39:58Z</time>
      </trkpt>
      <trkpt lat="43.347675" lon="-5.891339">
        <ele>327.0</ele>
        <time>2012-06-15T08:40:02Z</time>
      </trkpt>
      <trkpt lat="43.347548" lon="-5.891171">
        <ele>328.0</ele>
        <time>2012-06-15T08:40:06Z</time>
      </trkpt>
      <trkpt lat="43.347421" lon="-5.891057">
        <ele>329.0</ele>
        <time>2012-06-15T08:40:10Z</time>
      </trkpt>
      <trkpt lat="43.34728" lon="-5.890953">
        <ele>329.0</ele>
        <time>2012-06-15T08:40:15Z</time>
      </trkpt>
      <trkpt lat="43.347202" lon="-5.890893">
        <ele>329.0</ele>
        <time>2012-06-15T08:40:18Z</time>
      </trkpt>
      <trkpt lat="43.347129" lon="-5.890842">
        <ele>329.0</ele>
        <time>2012-06-15T08:40:21Z</time>
      </trkpt>
      <trkpt lat="43.346981" lon="-5.890727">
        <ele>330.0</ele>
        <time>2012-06-15T08:40:27Z</time>
      </trkpt>
      <trkpt lat="43.346909" lon="-5.890651">
        <ele>330.0</ele>
        <time>2012-06-15T08:40:30Z</time>
      </trkpt>
      <trkpt lat="43.346812" lon="-5.890534">
        <ele>330.0</ele>
        <time>2012-06-15T08:40:34Z</time>
      </trkpt>
      <trkpt lat="43.346722" lon="-5.8904">
        <ele>330.0</ele>
        <time>2012-06-15T08:40:38Z</time>
      </trkpt>
      <trkpt lat="43.346624" lon="-5.890231">
        <ele>331.0</ele>
        <time>2012-06-15T08:40:43Z</time>
      </trkpt>
      <trkpt lat="43.346568" lon="-5.890133">
        <ele>331.0</ele>
        <time>2012-06-15T08:40:46Z</time>
      </trkpt>
      <trkpt lat="43.346513" lon="-5.890042">
        <ele>331.0</ele>
        <time>2012-06-15T08:40:49Z</time>
      </trkpt>
      <trkpt lat="43.346357" lon="-5.889933">
        <ele>331.0</ele>
        <time>2012-06-15T08:40:55Z</time>
      </trkpt>
      <trkpt lat="43.346274" lon="-5.889883">
        <ele>331.0</ele>
        <time>2012-06-15T08:40:58Z</time>
      </trkpt>
      <trkpt lat="43.34619" lon="-5.88984">
        <ele>332.0</ele>
        <time>2012-06-15T08:41:01Z</time>
      </trkpt>
      <trkpt lat="43.346017" lon="-5.889794">
        <ele>332.0</ele>
        <time>2012-06-15T08:41:07Z</time>
      </trkpt>
      <trkpt lat="43.345921" lon="-5.889775">
        <ele>332.0</ele>
        <time>2012-06-15T08:41:10Z</time>
      </trkpt>
      <trkpt lat="43.345866" lon="-5.88969">
        <ele>333.0</ele>
        <time>2012-06-15T08:41:13Z</time>
      </trkpt>
      <trkpt lat="43.345768" lon="-5.889515">
        <ele>334.0</ele>
        <time>2012-06-15T08:41:19Z</time>
      </trkpt>
      <trkpt lat="43.345685" lon="-5.889363">
        <ele>335.0</ele>
        <time>2012-06-15T08:41:23Z</time>
      </trkpt>
      <trkpt lat="43.3456" lon="-5.889155">
        <ele>338.0</ele>
        <time>2012-06-15T08:41:27Z</time>
      </trkpt>
      <trkpt lat="43.345532" lon="-5.888953">
        <ele>339.0</ele>
        <time>2012-06-15T08:41:30Z</time>
      </trkpt>
      <trkpt lat="43.34542" lon="-5.888505">
        <ele>339.0</ele>
        <time>2012-06-15T08:41:35Z</time>
      </trkpt>
      <trkpt lat="43.34541" lon="-5.888409">
        <ele>339.0</ele>
        <time>2012-06-15T08:41:36Z</time>
      </trkpt>
      <trkpt lat="43.345313" lon="-5.887788">
        <ele>337.0</ele>
        <time>2012-06-15T08:41:43Z</time>
      </trkpt>
      <trkpt lat="43.345233" lon="-5.887541">
        <ele>332.0</ele>
        <time>2012-06-15T08:41:46Z</time>
      </trkpt>
      <trkpt lat="43.345128" lon="-5.887234">
        <ele>330.0</ele>
        <time>2012-06-15T08:41:50Z</time>
      </trkpt>
      <trkpt lat="43.345062" lon="-5.886927">
        <ele>332.0</ele>
        <time>2012-06-15T08:41:54Z</time>
      </trkpt>
      <trkpt lat="43.345019" lon="-5.886657">
        <ele>333.0</ele>
        <time>2012-06-15T08:41:58Z</time>
      </trkpt>
      <trkpt lat="43.344984" lon="-5.886402">
        <ele>333.0</ele>
        <time>2012-06-15T08:42:02Z</time>
      </trkpt>
      <trkpt lat="43.344949" lon="-5.886156">
        <ele>333.0</ele>
        <time>2012-06-15T08:42:06Z</time>
      </trkpt>
      <trkpt lat="43.344912" lon="-5.885941">
        <ele>334.0</ele>
        <time>2012-06-15T08:42:10Z</time>
      </trkpt>
      <trkpt lat="43.344867" lon="-5.885762">
        <ele>334.0</ele>
        <time>2012-06-15T08:42:14Z</time>
      </trkpt>
      <trkpt lat="43.344839" lon="-5.885581">
        <ele>334.0</ele>
        <time>2012-06-15T08:42:18Z</time>
      </trkpt>
      <trkpt lat="43.344874" lon="-5.885303">
        <ele>335.0</ele>
        <time>2012-06-15T08:42:22Z</time>
      </trkpt>
      <trkpt lat="43.344895" lon="-5.885159">
        <ele>335.0</ele>
        <time>2012-06-15T08:42:24Z</time>
      </trkpt>
      <trkpt lat="43.344962" lon="-5.884741">
        <ele>335.0</ele>
        <time>2012-06-15T08:42:30Z</time>
      </trkpt>
      <trkpt lat="43.344999" lon="-5.884469">
        <ele>335.0</ele>
        <time>2012-06-15T08:42:34Z</time>
      </trkpt>
      <trkpt lat="43.345033" lon="-5.884194">
        <ele>335.0</ele>
        <time>2012-06-15T08:42:38Z</time>
      </trkpt>
      <trkpt lat="43.345054" lon="-5.883921">
        <ele>335.0</ele>
        <time>2012-06-15T08:42:42Z</time>
      </trkpt>
      <trkpt lat="43.34506" lon="-5.88366">
        <ele>335.0</ele>
        <time>2012-06-15T08:42:46Z</time>
      </trkpt>
      <trkpt lat="43.345063" lon="-5.8834">
        <ele>336.0</ele>
        <time>2012-06-15T08:42:50Z</time>
      </trkpt>
      <trkpt lat="43.345036" lon="-5.883146">
        <ele>336.0</ele>
        <time>2012-06-15T08:42:54Z</time>
      </trkpt>
      <trkpt lat="43.344827" lon="-5.882842">
        <ele>338.0</ele>
        <time>2012-06-15T08:42:59Z</time>
      </trkpt>
      <trkpt lat="43.344302" lon="-5.882879">
        <ele>340.0</ele>
        <time>2012-06-15T08:43:03Z</time>
      </trkpt>
      <trkpt lat="43.343858" lon="-5.882975">
        <ele>342.0</ele>
        <time>2012-06-15T08:43:07Z</time>
      </trkpt>
      <trkpt lat="43.343641" lon="-5.882963">
        <ele>342.0</ele>
        <time>2012-06-15T08:43:10Z</time>
      </trkpt>
      <trkpt lat="43.343496" lon="-5.8828">
        <ele>341.0</ele>
        <time>2012-06-15T08:43:14Z</time>
      </trkpt>
      <trkpt lat="43.343497" lon="-5.88259">
        <ele>341.0</ele>
        <time>2012-06-15T08:43:18Z</time>
      </trkpt>
      <trkpt lat="43.34353" lon="-5.882356">
        <ele>341.0</ele>
        <time>2012-06-15T08:43:22Z</time>
      </trkpt>
      <trkpt lat="43.343495" lon="-5.882134">
        <ele>342.0</ele>
        <time>2012-06-15T08:43:26Z</time>
      </trkpt>
      <trkpt lat="43.343387" lon="-5.881942">
        <ele>342.0</ele>
        <time>2012-06-15T08:43:30Z</time>
      </trkpt>
      <trkpt lat="43.343263" lon="-5.881761">
        <ele>342.0</ele>
        <time>2012-06-15T08:43:34Z</time>
      </trkpt>
      <trkpt lat="43.343137" lon="-5.881586">
        <ele>342.0</ele>
        <time>2012-06-15T08:43:38Z</time>
      </trkpt>
      <trkpt lat="43.343001" lon="-5.881427">
        <ele>342.0</ele>
        <time>2012-06-15T08:43:42Z</time>
      </trkpt>
      <trkpt lat="43.342877" lon="-5.881292">
        <ele>342.0</ele>
        <time>2012-06-15T08:43:47Z</time>
      </trkpt>
      <trkpt lat="43.342788" lon="-5.881231">
        <ele>342.0</ele>
        <time>2012-06-15T08:43:50Z</time>
      </trkpt>
      <trkpt lat="43.342679" lon="-5.881135">
        <ele>342.0</ele>
        <time>2012-06-15T08:43:54Z</time>
      </trkpt>
      <trkpt lat="43.342451" lon="-5.881142">
        <ele>342.0</ele>
        <time>2012-06-15T08:43:59Z</time>
      </trkpt>
      <trkpt lat="43.342159" lon="-5.881233">
        <ele>342.0</ele>
        <time>2012-06-15T08:44:03Z</time>
      </trkpt>
      <trkpt lat="43.34189" lon="-5.881312">
        <ele>342.0</ele>
        <time>2012-06-15T08:44:07Z</time>
      </trkpt>
      <trkpt lat="43.341621" lon="-5.881391">
        <ele>342.0</ele>
        <time>2012-06-15T08:44:11Z</time>
      </trkpt>
      <trkpt lat="43.341369" lon="-5.881484">
        <ele>343.0</ele>
        <time>2012-06-15T08:44:15Z</time>
      </trkpt>
      <trkpt lat="43.341123" lon="-5.881538">
        <ele>343.0</ele>
        <time>2012-06-15T08:44:19Z</time>
      </trkpt>
      <trkpt lat="43.34087" lon="-5.881466">
        <ele>344.0</ele>
        <time>2012-06-15T08:44:23Z</time>
      </trkpt>
      <trkpt lat="43.340654" lon="-5.881383">
        <ele>344.0</ele>
        <time>2012-06-15T08:44:27Z</time>
      </trkpt>
      <trkpt lat="43.340468" lon="-5.881325">
        <ele>344.0</ele>
        <time>2012-06-15T08:44:31Z</time>
      </trkpt>
      <trkpt lat="43.340286" lon="-5.881347">
        <ele>344.0</ele>
        <time>2012-06-15T08:44:35Z</time>
      </trkpt>
      <trkpt lat="43.340063" lon="-5.88147">
        <ele>344.0</ele>
        <time>2012-06-15T08:44:39Z</time>
      </trkpt>
      <trkpt lat="43.339805" lon="-5.88149">
        <ele>345.0</ele>
        <time>2012-06-15T08:44:43Z</time>
      </trkpt>
      <trkpt lat="43.33948" lon="-5.881369">
        <ele>345.0</ele>
        <time>2012-06-15T08:44:47Z</time>
      </trkpt>
      <trkpt lat="43.339156" lon="-5.88128">
        <ele>346.0</ele>
        <time>2012-06-15T08:44:51Z</time>
      </trkpt>
      <trkpt lat="43.338862" lon="-5.881129">
        <ele>345.0</ele>
        <time>2012-06-15T08:44:55Z</time>
      </trkpt>
      <trkpt lat="43.338553" lon="-5.881033">
        <ele>345.0</ele>
        <time>2012-06-15T08:44:59Z</time>
      </trkpt>
      <trkpt lat="43.338233" lon="-5.881054">
        <ele>345.0</ele>
        <time>2012-06-15T08:45:03Z</time>
      </trkpt>
      <trkpt lat="43.337919" lon="-5.881019">
        <ele>345.0</ele>
        <time>2012-06-15T08:45:07Z</time>
      </trkpt>
      <trkpt lat="43.337688" lon="-5.88077">
        <ele>345.0</ele>
        <time>2012-06-15T08:45:11Z</time>
      </trkpt>
      <trkpt lat="43.337582" lon="-5.880411">
        <ele>345.0</ele>
        <time>2012-06-15T08:45:15Z</time>
      </trkpt>
      <trkpt lat="43.337502" lon="-5.880038">
        <ele>344.0</ele>
        <time>2012-06-15T08:45:19Z</time>
      </trkpt>
      <trkpt lat="43.33739" lon="-5.879664">
        <ele>344.0</ele>
        <time>2012-06-15T08:45:23Z</time>
      </trkpt>
      <trkpt lat="43.33724" lon="-5.879338">
        <ele>344.0</ele>
        <time>2012-06-15T08:45:27Z</time>
      </trkpt>
      <trkpt lat="43.337104" lon="-5.879015">
        <ele>345.0</ele>
        <time>2012-06-15T08:45:31Z</time>
      </trkpt>
      <trkpt lat="43.336952" lon="-5.878734">
        <ele>346.0</ele>
        <time>2012-06-15T08:45:35Z</time>
      </trkpt>
      <trkpt lat="43.336794" lon="-5.878496">
        <ele>347.0</ele>
        <time>2012-06-15T08:45:39Z</time>
      </trkpt>
      <trkpt lat="43.336668" lon="-5.878335">
        <ele>348.0</ele>
        <time>2012-06-15T08:45:43Z</time>
      </trkpt>
      <trkpt lat="43.336481" lon="-5.878246">
        <ele>349.0</ele>
        <time>2012-06-15T08:45:47Z</time>
      </trkpt>
      <trkpt lat="43.336293" lon="-5.878131">
        <ele>349.0</ele>
        <time>2012-06-15T08:45:51Z</time>
      </trkpt>
      <trkpt lat="43.336088" lon="-5.878122">
        <ele>348.0</ele>
        <time>2012-06-15T08:45:55Z</time>
      </trkpt>
      <trkpt lat="43.335892" lon="-5.87813">
        <ele>347.0</ele>
        <time>2012-06-15T08:45:59Z</time>
      </trkpt>
      <trkpt lat="43.335701" lon="-5.878088">
        <ele>347.0</ele>
        <time>2012-06-15T08:46:03Z</time>
      </trkpt>
      <trkpt lat="43.335519" lon="-5.877998">
        <ele>347.0</ele>
        <time>2012-06-15T08:46:07Z</time>
      </trkpt>
      <trkpt lat="43.335365" lon="-5.877834">
        <ele>347.0</ele>
        <time>2012-06-15T08:46:11Z</time>
      </trkpt>
      <trkpt lat="43.335225" lon="-5.877701">
        <ele>348.0</ele>
        <time>2012-06-15T08:46:15Z</time>
      </trkpt>
      <trkpt lat="43.335192" lon="-5.877598">
        <ele>347.0</ele>
        <time>2012-06-15T08:46:18Z</time>
      </trkpt>
      <trkpt lat="43.335249" lon="-5.877385">
        <ele>346.0</ele>
        <time>2012-06-15T08:46:22Z</time>
      </trkpt>
      <trkpt lat="43.335305" lon="-5.877148">
        <ele>346.0</ele>
        <time>2012-06-15T08:46:26Z</time>
      </trkpt>
      <trkpt lat="43.335472" lon="-5.876758">
        <ele>346.0</ele>
        <time>2012-06-15T08:46:31Z</time>
      </trkpt>
      <trkpt lat="43.335578" lon="-5.87638">
        <ele>346.0</ele>
        <time>2012-06-15T08:46:35Z</time>
      </trkpt>
      <trkpt lat="43.335582" lon="-5.875902">
        <ele>346.0</ele>
        <time>2012-06-15T08:46:39Z</time>
      </trkpt>
      <trkpt lat="43.33549" lon="-5.875408">
        <ele>345.0</ele>
        <time>2012-06-15T08:46:43Z</time>
      </trkpt>
      <trkpt lat="43.335419" lon="-5.874903">
        <ele>343.0</ele>
        <time>2012-06-15T08:46:47Z</time>
      </trkpt>
      <trkpt lat="43.335347" lon="-5.874435">
        <ele>341.0</ele>
        <time>2012-06-15T08:46:51Z</time>
      </trkpt>
      <trkpt lat="43.335244" lon="-5.87405">
        <ele>341.0</ele>
        <time>2012-06-15T08:46:55Z</time>
      </trkpt>
      <trkpt lat="43.334947" lon="-5.873853">
        <ele>340.0</ele>
        <time>2012-06-15T08:46:59Z</time>
      </trkpt>
      <trkpt lat="43.334621" lon="-5.873698">
        <ele>340.0</ele>
        <time>2012-06-15T08:47:03Z</time>
      </trkpt>
      <trkpt lat="43.33434" lon="-5.873543">
        <ele>339.0</ele>
        <time>2012-06-15T08:47:07Z</time>
      </trkpt>
      <trkpt lat="43.334203" lon="-5.873526">
        <ele>338.0</ele>
        <time>2012-06-15T08:47:11Z</time>
      </trkpt>
      <trkpt lat="43.334019" lon="-5.873522">
        <ele>335.0</ele>
        <time>2012-06-15T08:47:15Z</time>
      </trkpt>
      <trkpt lat="43.333738" lon="-5.873485">
        <ele>334.0</ele>
        <time>2012-06-15T08:47:19Z</time>
      </trkpt>
      <trkpt lat="43.333448" lon="-5.873443">
        <ele>335.0</ele>
        <time>2012-06-15T08:47:23Z</time>
      </trkpt>
      <trkpt lat="43.333173" lon="-5.873417">
        <ele>335.0</ele>
        <time>2012-06-15T08:47:27Z</time>
      </trkpt>
      <trkpt lat="43.332906" lon="-5.873393">
        <ele>335.0</ele>
        <time>2012-06-15T08:47:31Z</time>
      </trkpt>
      <trkpt lat="43.332706" lon="-5.873374">
        <ele>336.0</ele>
        <time>2012-06-15T08:47:34Z</time>
      </trkpt>
      <trkpt lat="43.332386" lon="-5.873309">
        <ele>336.0</ele>
        <time>2012-06-15T08:47:39Z</time>
      </trkpt>
      <trkpt lat="43.33219" lon="-5.873279">
        <ele>336.0</ele>
        <time>2012-06-15T08:47:42Z</time>
      </trkpt>
      <trkpt lat="43.331859" lon="-5.873242">
        <ele>334.0</ele>
        <time>2012-06-15T08:47:47Z</time>
      </trkpt>
      <trkpt lat="43.331562" lon="-5.873279">
        <ele>334.0</ele>
        <time>2012-06-15T08:47:51Z</time>
      </trkpt>
      <trkpt lat="43.331277" lon="-5.873331">
        <ele>333.0</ele>
        <time>2012-06-15T08:47:55Z</time>
      </trkpt>
      <trkpt lat="43.330998" lon="-5.873391">
        <ele>334.0</ele>
        <time>2012-06-15T08:47:59Z</time>
      </trkpt>
      <trkpt lat="43.330754" lon="-5.873382">
        <ele>333.0</ele>
        <time>2012-06-15T08:48:03Z</time>
      </trkpt>
      <trkpt lat="43.330564" lon="-5.87353">
        <ele>333.0</ele>
        <time>2012-06-15T08:48:07Z</time>
      </trkpt>
      <trkpt lat="43.3305" lon="-5.874007">
        <ele>332.0</ele>
        <time>2012-06-15T08:48:11Z</time>
      </trkpt>
      <trkpt lat="43.330369" lon="-5.874418">
        <ele>332.0</ele>
        <time>2012-06-15T08:48:15Z</time>
      </trkpt>
      <trkpt lat="43.330214" lon="-5.874722">
        <ele>323.0</ele>
        <time>2012-06-15T08:48:19Z</time>
      </trkpt>
      <trkpt lat="43.330039" lon="-5.875034">
        <ele>310.0</ele>
        <time>2012-06-15T08:48:23Z</time>
      </trkpt>
      <trkpt lat="43.329727" lon="-5.87526">
        <ele>301.0</ele>
        <time>2012-06-15T08:48:27Z</time>
      </trkpt>
      <trkpt lat="43.329386" lon="-5.875469">
        <ele>297.0</ele>
        <time>2012-06-15T08:48:31Z</time>
      </trkpt>
      <trkpt lat="43.329043" lon="-5.875672">
        <ele>295.0</ele>
        <time>2012-06-15T08:48:35Z</time>
      </trkpt>
      <trkpt lat="43.328767" lon="-5.875842">
        <ele>294.0</ele>
        <time>2012-06-15T08:48:39Z</time>
      </trkpt>
      <trkpt lat="43.328546" lon="-5.875996">
        <ele>293.0</ele>
        <time>2012-06-15T08:48:43Z</time>
      </trkpt>
      <trkpt lat="43.328358" lon="-5.876115">
        <ele>292.0</ele>
        <time>2012-06-15T08:48:47Z</time>
      </trkpt>
      <trkpt lat="43.32817" lon="-5.876225">
        <ele>291.0</ele>
        <time>2012-06-15T08:48:51Z</time>
      </trkpt>
      <trkpt lat="43.327985" lon="-5.876336">
        <ele>290.0</ele>
        <time>2012-06-15T08:48:55Z</time>
      </trkpt>
      <trkpt lat="43.3278" lon="-5.876448">
        <ele>290.0</ele>
        <time>2012-06-15T08:48:59Z</time>
      </trkpt>
      <trkpt lat="43.327619" lon="-5.876545">
        <ele>290.0</ele>
        <time>2012-06-15T08:49:03Z</time>
      </trkpt>
      <trkpt lat="43.327438" lon="-5.876629">
        <ele>289.0</ele>
        <time>2012-06-15T08:49:07Z</time>
      </trkpt>
      <trkpt lat="43.327273" lon="-5.876705">
        <ele>287.0</ele>
        <time>2012-06-15T08:49:11Z</time>
      </trkpt>
      <trkpt lat="43.327122" lon="-5.87675">
        <ele>286.0</ele>
        <time>2012-06-15T08:49:15Z</time>
      </trkpt>
      <trkpt lat="43.326978" lon="-5.876795">
        <ele>284.0</ele>
        <time>2012-06-15T08:49:19Z</time>
      </trkpt>
      <trkpt lat="43.326826" lon="-5.876839">
        <ele>284.0</ele>
        <time>2012-06-15T08:49:23Z</time>
      </trkpt>
      <trkpt lat="43.326675" lon="-5.876907">
        <ele>283.0</ele>
        <time>2012-06-15T08:49:27Z</time>
      </trkpt>
      <trkpt lat="43.326519" lon="-5.87696">
        <ele>284.0</ele>
        <time>2012-06-15T08:49:31Z</time>
      </trkpt>
      <trkpt lat="43.326355" lon="-5.877">
        <ele>284.0</ele>
        <time>2012-06-15T08:49:35Z</time>
      </trkpt>
      <trkpt lat="43.326192" lon="-5.877004">
        <ele>284.0</ele>
        <time>2012-06-15T08:49:39Z</time>
      </trkpt>
      <trkpt lat="43.326035" lon="-5.876995">
        <ele>285.0</ele>
        <time>2012-06-15T08:49:43Z</time>
      </trkpt>
      <trkpt lat="43.325886" lon="-5.876985">
        <ele>285.0</ele>
        <time>2012-06-15T08:49:47Z</time>
      </trkpt>
      <trkpt lat="43.325738" lon="-5.87696">
        <ele>284.0</ele>
        <time>2012-06-15T08:49:51Z</time>
      </trkpt>
      <trkpt lat="43.325589" lon="-5.876913">
        <ele>284.0</ele>
        <time>2012-06-15T08:49:55Z</time>
      </trkpt>
      <trkpt lat="43.325444" lon="-5.876865">
        <ele>284.0</ele>
        <time>2012-06-15T08:49:59Z</time>
      </trkpt>
      <trkpt lat="43.325375" lon="-5.876845">
        <ele>284.0</ele>
        <time>2012-06-15T08:50:01Z</time>
      </trkpt>
      <trkpt lat="43.325223" lon="-5.876791">
        <ele>284.0</ele>
        <time>2012-06-15T08:50:06Z</time>
      </trkpt>
      <trkpt lat="43.325073" lon="-5.876719">
        <ele>284.0</ele>
        <time>2012-06-15T08:50:11Z</time>
      </trkpt>
      <trkpt lat="43.32494" lon="-5.876645">
        <ele>284.0</ele>
        <time>2012-06-15T08:50:15Z</time>
      </trkpt>
      <trkpt lat="43.324792" lon="-5.87656">
        <ele>284.0</ele>
        <time>2012-06-15T08:50:19Z</time>
      </trkpt>
      <trkpt lat="43.324635" lon="-5.876437">
        <ele>284.0</ele>
        <time>2012-06-15T08:50:23Z</time>
      </trkpt>
      <trkpt lat="43.324514" lon="-5.876257">
        <ele>284.0</ele>
        <time>2012-06-15T08:50:27Z</time>
      </trkpt>
      <trkpt lat="43.324392" lon="-5.876097">
        <ele>284.0</ele>
        <time>2012-06-15T08:50:31Z</time>
      </trkpt>
      <trkpt lat="43.324259" lon="-5.875924">
        <ele>285.0</ele>
        <time>2012-06-15T08:50:35Z</time>
      </trkpt>
      <trkpt lat="43.324134" lon="-5.875749">
        <ele>286.0</ele>
        <time>2012-06-15T08:50:39Z</time>
      </trkpt>
      <trkpt lat="43.324055" lon="-5.875525">
        <ele>287.0</ele>
        <time>2012-06-15T08:50:43Z</time>
      </trkpt>
      <trkpt lat="43.323937" lon="-5.875325">
        <ele>287.0</ele>
        <time>2012-06-15T08:50:47Z</time>
      </trkpt>
      <trkpt lat="43.323803" lon="-5.875117">
        <ele>287.0</ele>
        <time>2012-06-15T08:50:51Z</time>
      </trkpt>
      <trkpt lat="43.323655" lon="-5.874844">
        <ele>287.0</ele>
        <time>2012-06-15T08:50:55Z</time>
      </trkpt>
      <trkpt lat="43.323497" lon="-5.87453">
        <ele>288.0</ele>
        <time>2012-06-15T08:50:59Z</time>
      </trkpt>
      <trkpt lat="43.323329" lon="-5.874177">
        <ele>289.0</ele>
        <time>2012-06-15T08:51:03Z</time>
      </trkpt>
      <trkpt lat="43.323195" lon="-5.873908">
        <ele>289.0</ele>
        <time>2012-06-15T08:51:06Z</time>
      </trkpt>
      <trkpt lat="43.322968" lon="-5.873452">
        <ele>289.0</ele>
        <time>2012-06-15T08:51:11Z</time>
      </trkpt>
      <trkpt lat="43.322778" lon="-5.873082">
        <ele>288.0</ele>
        <time>2012-06-15T08:51:15Z</time>
      </trkpt>
      <trkpt lat="43.322686" lon="-5.872892">
        <ele>288.0</ele>
        <time>2012-06-15T08:51:17Z</time>
      </trkpt>
      <trkpt lat="43.322411" lon="-5.87232">
        <ele>288.0</ele>
        <time>2012-06-15T08:51:23Z</time>
      </trkpt>
      <trkpt lat="43.322273" lon="-5.872036">
        <ele>288.0</ele>
        <time>2012-06-15T08:51:26Z</time>
      </trkpt>
      <trkpt lat="43.322034" lon="-5.871564">
        <ele>287.0</ele>
        <time>2012-06-15T08:51:31Z</time>
      </trkpt>
      <trkpt lat="43.321842" lon="-5.871182">
        <ele>287.0</ele>
        <time>2012-06-15T08:51:35Z</time>
      </trkpt>
      <trkpt lat="43.321558" lon="-5.870911">
        <ele>287.0</ele>
        <time>2012-06-15T08:51:39Z</time>
      </trkpt>
      <trkpt lat="43.321256" lon="-5.870691">
        <ele>287.0</ele>
        <time>2012-06-15T08:51:43Z</time>
      </trkpt>
      <trkpt lat="43.320587" lon="-5.87087">
        <ele>280.0</ele>
        <time>2012-06-15T08:51:47Z</time>
      </trkpt>
      <trkpt lat="43.320004" lon="-5.870851">
        <ele>278.0</ele>
        <time>2012-06-15T08:51:51Z</time>
      </trkpt>
      <trkpt lat="43.319503" lon="-5.870735">
        <ele>277.0</ele>
        <time>2012-06-15T08:51:55Z</time>
      </trkpt>
      <trkpt lat="43.319039" lon="-5.8705">
        <ele>277.0</ele>
        <time>2012-06-15T08:51:59Z</time>
      </trkpt>
      <trkpt lat="43.318614" lon="-5.870163">
        <ele>277.0</ele>
        <time>2012-06-15T08:52:03Z</time>
      </trkpt>
      <trkpt lat="43.318235" lon="-5.869808">
        <ele>277.0</ele>
        <time>2012-06-15T08:52:07Z</time>
      </trkpt>
      <trkpt lat="43.317871" lon="-5.869473">
        <ele>276.0</ele>
        <time>2012-06-15T08:52:11Z</time>
      </trkpt>
      <trkpt lat="43.317491" lon="-5.869138">
        <ele>276.0</ele>
        <time>2012-06-15T08:52:15Z</time>
      </trkpt>
      <trkpt lat="43.317096" lon="-5.868792">
        <ele>275.0</ele>
        <time>2012-06-15T08:52:19Z</time>
      </trkpt>
      <trkpt lat="43.316684" lon="-5.868461">
        <ele>275.0</ele>
        <time>2012-06-15T08:52:23Z</time>
      </trkpt>
      <trkpt lat="43.316288" lon="-5.868273">
        <ele>274.0</ele>
        <time>2012-06-15T08:52:27Z</time>
      </trkpt>
      <trkpt lat="43.315906" lon="-5.868178">
        <ele>274.0</ele>
        <time>2012-06-15T08:52:31Z</time>
      </trkpt>
      <trkpt lat="43.315605" lon="-5.868175">
        <ele>275.0</ele>
        <time>2012-06-15T08:52:34Z</time>
      </trkpt>
      <trkpt lat="43.315129" lon="-5.868142">
        <ele>275.0</ele>
        <time>2012-06-15T08:52:39Z</time>
      </trkpt>
      <trkpt lat="43.314787" lon="-5.868049">
        <ele>275.0</ele>
        <time>2012-06-15T08:52:43Z</time>
      </trkpt>
      <trkpt lat="43.31442" lon="-5.868159">
        <ele>270.0</ele>
        <time>2012-06-15T08:52:47Z</time>
      </trkpt>
      <trkpt lat="43.313979" lon="-5.868351">
        <ele>267.0</ele>
        <time>2012-06-15T08:52:51Z</time>
      </trkpt>
      <trkpt lat="43.31352" lon="-5.868502">
        <ele>266.0</ele>
        <time>2012-06-15T08:52:55Z</time>
      </trkpt>
      <trkpt lat="43.313066" lon="-5.868655">
        <ele>266.0</ele>
        <time>2012-06-15T08:52:59Z</time>
      </trkpt>
      <trkpt lat="43.312607" lon="-5.868788">
        <ele>266.0</ele>
        <time>2012-06-15T08:53:03Z</time>
      </trkpt>
      <trkpt lat="43.312163" lon="-5.868916">
        <ele>265.0</ele>
        <time>2012-06-15T08:53:07Z</time>
      </trkpt>
      <trkpt lat="43.311872" lon="-5.869023">
        <ele>264.0</ele>
        <time>2012-06-15T08:53:11Z</time>
      </trkpt>
      <trkpt lat="43.31165" lon="-5.869259">
        <ele>264.0</ele>
        <time>2012-06-15T08:53:15Z</time>
      </trkpt>
      <trkpt lat="43.311344" lon="-5.869216">
        <ele>263.0</ele>
        <time>2012-06-15T08:53:19Z</time>
      </trkpt>
      <trkpt lat="43.311027" lon="-5.869308">
        <ele>263.0</ele>
        <time>2012-06-15T08:53:23Z</time>
      </trkpt>
      <trkpt lat="43.310796" lon="-5.869412">
        <ele>263.0</ele>
        <time>2012-06-15T08:53:26Z</time>
      </trkpt>
      <trkpt lat="43.310407" lon="-5.869705">
        <ele>263.0</ele>
        <time>2012-06-15T08:53:31Z</time>
      </trkpt>
      <trkpt lat="43.310169" lon="-5.870134">
        <ele>263.0</ele>
        <time>2012-06-15T08:53:35Z</time>
      </trkpt>
      <trkpt lat="43.309978" lon="-5.870648">
        <ele>262.0</ele>
        <time>2012-06-15T08:53:39Z</time>
      </trkpt>
      <trkpt lat="43.309818" lon="-5.871118">
        <ele>260.0</ele>
        <time>2012-06-15T08:53:43Z</time>
      </trkpt>
      <trkpt lat="43.309753" lon="-5.871382">
        <ele>258.0</ele>
        <time>2012-06-15T08:53:46Z</time>
      </trkpt>
      <trkpt lat="43.309708" lon="-5.87174">
        <ele>255.0</ele>
        <time>2012-06-15T08:53:50Z</time>
      </trkpt>
      <trkpt lat="43.309456" lon="-5.872043">
        <ele>251.0</ele>
        <time>2012-06-15T08:53:55Z</time>
      </trkpt>
      <trkpt lat="43.309278" lon="-5.87239">
        <ele>243.0</ele>
        <time>2012-06-15T08:53:59Z</time>
      </trkpt>
      <trkpt lat="43.309119" lon="-5.872763">
        <ele>233.0</ele>
        <time>2012-06-15T08:54:03Z</time>
      </trkpt>
      <trkpt lat="43.309038" lon="-5.872939">
        <ele>230.0</ele>
        <time>2012-06-15T08:54:05Z</time>
      </trkpt>
      <trkpt lat="43.308821" lon="-5.873358">
        <ele>225.0</ele>
        <time>2012-06-15T08:54:10Z</time>
      </trkpt>
      <trkpt lat="43.308569" lon="-5.873732">
        <ele>220.0</ele>
        <time>2012-06-15T08:54:15Z</time>
      </trkpt>
      <trkpt lat="43.308327" lon="-5.873969">
        <ele>218.0</ele>
        <time>2012-06-15T08:54:19Z</time>
      </trkpt>
      <trkpt lat="43.308064" lon="-5.874173">
        <ele>216.0</ele>
        <time>2012-06-15T08:54:23Z</time>
      </trkpt>
      <trkpt lat="43.307866" lon="-5.874329">
        <ele>216.0</ele>
        <time>2012-06-15T08:54:26Z</time>
      </trkpt>
      <trkpt lat="43.307553" lon="-5.874585">
        <ele>216.0</ele>
        <time>2012-06-15T08:54:31Z</time>
      </trkpt>
      <trkpt lat="43.307307" lon="-5.874792">
        <ele>217.0</ele>
        <time>2012-06-15T08:54:35Z</time>
      </trkpt>
      <trkpt lat="43.307062" lon="-5.874999">
        <ele>218.0</ele>
        <time>2012-06-15T08:54:39Z</time>
      </trkpt>
      <trkpt lat="43.307001" lon="-5.875052">
        <ele>218.0</ele>
        <time>2012-06-15T08:54:40Z</time>
      </trkpt>
      <trkpt lat="43.306611" lon="-5.875484">
        <ele>214.0</ele>
        <time>2012-06-15T08:54:47Z</time>
      </trkpt>
      <trkpt lat="43.306435" lon="-5.875796">
        <ele>213.0</ele>
        <time>2012-06-15T08:54:51Z</time>
      </trkpt>
      <trkpt lat="43.306262" lon="-5.876129">
        <ele>212.0</ele>
        <time>2012-06-15T08:54:55Z</time>
      </trkpt>
      <trkpt lat="43.306083" lon="-5.876457">
        <ele>210.0</ele>
        <time>2012-06-15T08:54:59Z</time>
      </trkpt>
      <trkpt lat="43.305903" lon="-5.876788">
        <ele>208.0</ele>
        <time>2012-06-15T08:55:03Z</time>
      </trkpt>
      <trkpt lat="43.305729" lon="-5.877121">
        <ele>207.0</ele>
        <time>2012-06-15T08:55:07Z</time>
      </trkpt>
      <trkpt lat="43.305559" lon="-5.87745">
        <ele>207.0</ele>
        <time>2012-06-15T08:55:11Z</time>
      </trkpt>
      <trkpt lat="43.305384" lon="-5.877778">
        <ele>206.0</ele>
        <time>2012-06-15T08:55:15Z</time>
      </trkpt>
      <trkpt lat="43.305206" lon="-5.878099">
        <ele>205.0</ele>
        <time>2012-06-15T08:55:19Z</time>
      </trkpt>
      <trkpt lat="43.305026" lon="-5.878409">
        <ele>204.0</ele>
        <time>2012-06-15T08:55:23Z</time>
      </trkpt>
      <trkpt lat="43.304851" lon="-5.878729">
        <ele>204.0</ele>
        <time>2012-06-15T08:55:27Z</time>
      </trkpt>
      <trkpt lat="43.304681" lon="-5.879049">
        <ele>204.0</ele>
        <time>2012-06-15T08:55:31Z</time>
      </trkpt>
      <trkpt lat="43.304514" lon="-5.879375">
        <ele>206.0</ele>
        <time>2012-06-15T08:55:35Z</time>
      </trkpt>
      <trkpt lat="43.304354" lon="-5.879702">
        <ele>207.0</ele>
        <time>2012-06-15T08:55:39Z</time>
      </trkpt>
      <trkpt lat="43.304195" lon="-5.880028">
        <ele>207.0</ele>
        <time>2012-06-15T08:55:43Z</time>
      </trkpt>
      <trkpt lat="43.304027" lon="-5.880346">
        <ele>206.0</ele>
        <time>2012-06-15T08:55:47Z</time>
      </trkpt>
      <trkpt lat="43.303846" lon="-5.880649">
        <ele>200.0</ele>
        <time>2012-06-15T08:55:51Z</time>
      </trkpt>
      <trkpt lat="43.303653" lon="-5.880924">
        <ele>197.0</ele>
        <time>2012-06-15T08:55:55Z</time>
      </trkpt>
      <trkpt lat="43.303424" lon="-5.881141">
        <ele>197.0</ele>
        <time>2012-06-15T08:55:59Z</time>
      </trkpt>
      <trkpt lat="43.303171" lon="-5.881316">
        <ele>197.0</ele>
        <time>2012-06-15T08:56:03Z</time>
      </trkpt>
      <trkpt lat="43.302913" lon="-5.881466">
        <ele>198.0</ele>
        <time>2012-06-15T08:56:07Z</time>
      </trkpt>
      <trkpt lat="43.302659" lon="-5.881615">
        <ele>198.0</ele>
        <time>2012-06-15T08:56:11Z</time>
      </trkpt>
      <trkpt lat="43.3024" lon="-5.881758">
        <ele>199.0</ele>
        <time>2012-06-15T08:56:15Z</time>
      </trkpt>
      <trkpt lat="43.302137" lon="-5.881895">
        <ele>199.0</ele>
        <time>2012-06-15T08:56:19Z</time>
      </trkpt>
      <trkpt lat="43.301872" lon="-5.882036">
        <ele>199.0</ele>
        <time>2012-06-15T08:56:23Z</time>
      </trkpt>
      <trkpt lat="43.30161" lon="-5.882185">
        <ele>199.0</ele>
        <time>2012-06-15T08:56:27Z</time>
      </trkpt>
      <trkpt lat="43.301416" lon="-5.882295">
        <ele>199.0</ele>
        <time>2012-06-15T08:56:30Z</time>
      </trkpt>
      <trkpt lat="43.30108" lon="-5.882462">
        <ele>199.0</ele>
        <time>2012-06-15T08:56:35Z</time>
      </trkpt>
      <trkpt lat="43.300797" lon="-5.882603">
        <ele>199.0</ele>
        <time>2012-06-15T08:56:39Z</time>
      </trkpt>
      <trkpt lat="43.300503" lon="-5.882734">
        <ele>198.0</ele>
        <time>2012-06-15T08:56:43Z</time>
      </trkpt>
      <trkpt lat="43.300205" lon="-5.882814">
        <ele>198.0</ele>
        <time>2012-06-15T08:56:47Z</time>
      </trkpt>
      <trkpt lat="43.299911" lon="-5.882888">
        <ele>197.0</ele>
        <time>2012-06-15T08:56:51Z</time>
      </trkpt>
      <trkpt lat="43.299614" lon="-5.882931">
        <ele>198.0</ele>
        <time>2012-06-15T08:56:55Z</time>
      </trkpt>
      <trkpt lat="43.299316" lon="-5.88295">
        <ele>198.0</ele>
        <time>2012-06-15T08:56:59Z</time>
      </trkpt>
      <trkpt lat="43.29902" lon="-5.882952">
        <ele>198.0</ele>
        <time>2012-06-15T08:57:03Z</time>
      </trkpt>
      <trkpt lat="43.298721" lon="-5.882927">
        <ele>198.0</ele>
        <time>2012-06-15T08:57:07Z</time>
      </trkpt>
      <trkpt lat="43.298423" lon="-5.882887">
        <ele>199.0</ele>
        <time>2012-06-15T08:57:11Z</time>
      </trkpt>
      <trkpt lat="43.298128" lon="-5.882835">
        <ele>200.0</ele>
        <time>2012-06-15T08:57:15Z</time>
      </trkpt>
      <trkpt lat="43.297839" lon="-5.882768">
        <ele>200.0</ele>
        <time>2012-06-15T08:57:19Z</time>
      </trkpt>
      <trkpt lat="43.297557" lon="-5.882681">
        <ele>200.0</ele>
        <time>2012-06-15T08:57:23Z</time>
      </trkpt>
      <trkpt lat="43.297276" lon="-5.882601">
        <ele>201.0</ele>
        <time>2012-06-15T08:57:27Z</time>
      </trkpt>
      <trkpt lat="43.296993" lon="-5.882531">
        <ele>201.0</ele>
        <time>2012-06-15T08:57:31Z</time>
      </trkpt>
      <trkpt lat="43.296708" lon="-5.882464">
        <ele>201.0</ele>
        <time>2012-06-15T08:57:35Z</time>
      </trkpt>
      <trkpt lat="43.296637" lon="-5.882447">
        <ele>201.0</ele>
        <time>2012-06-15T08:57:36Z</time>
      </trkpt>
      <trkpt lat="43.296138" lon="-5.882324">
        <ele>202.0</ele>
        <time>2012-06-15T08:57:43Z</time>
      </trkpt>
      <trkpt lat="43.295853" lon="-5.882232">
        <ele>201.0</ele>
        <time>2012-06-15T08:57:47Z</time>
      </trkpt>
      <trkpt lat="43.295565" lon="-5.882143">
        <ele>201.0</ele>
        <time>2012-06-15T08:57:51Z</time>
      </trkpt>
      <trkpt lat="43.29528" lon="-5.882053">
        <ele>201.0</ele>
        <time>2012-06-15T08:57:55Z</time>
      </trkpt>
      <trkpt lat="43.295001" lon="-5.881962">
        <ele>201.0</ele>
        <time>2012-06-15T08:57:59Z</time>
      </trkpt>
      <trkpt lat="43.294718" lon="-5.881867">
        <ele>201.0</ele>
        <time>2012-06-15T08:58:03Z</time>
      </trkpt>
      <trkpt lat="43.294433" lon="-5.881769">
        <ele>201.0</ele>
        <time>2012-06-15T08:58:07Z</time>
      </trkpt>
      <trkpt lat="43.29415" lon="-5.881671">
        <ele>201.0</ele>
        <time>2012-06-15T08:58:11Z</time>
      </trkpt>
      <trkpt lat="43.29387" lon="-5.881573">
        <ele>201.0</ele>
        <time>2012-06-15T08:58:15Z</time>
      </trkpt>
      <trkpt lat="43.293588" lon="-5.881482">
        <ele>201.0</ele>
        <time>2012-06-15T08:58:19Z</time>
      </trkpt>
      <trkpt lat="43.293294" lon="-5.881394">
        <ele>201.0</ele>
        <time>2012-06-15T08:58:23Z</time>
      </trkpt>
      <trkpt lat="43.293002" lon="-5.8813">
        <ele>201.0</ele>
        <time>2012-06-15T08:58:27Z</time>
      </trkpt>
      <trkpt lat="43.292785" lon="-5.881234">
        <ele>201.0</ele>
        <time>2012-06-15T08:58:30Z</time>
      </trkpt>
      <trkpt lat="43.292423" lon="-5.881125">
        <ele>201.0</ele>
        <time>2012-06-15T08:58:35Z</time>
      </trkpt>
      <trkpt lat="43.292206" lon="-5.881059">
        <ele>201.0</ele>
        <time>2012-06-15T08:58:38Z</time>
      </trkpt>
      <trkpt lat="43.291561" lon="-5.881005">
        <ele>197.0</ele>
        <time>2012-06-15T08:58:47Z</time>
      </trkpt>
      <trkpt lat="43.291443" lon="-5.881082">
        <ele>197.0</ele>
        <time>2012-06-15T08:58:49Z</time>
      </trkpt>
      <trkpt lat="43.29109" lon="-5.881187">
        <ele>199.0</ele>
        <time>2012-06-15T08:58:55Z</time>
      </trkpt>
      <trkpt lat="43.290836" lon="-5.881251">
        <ele>199.0</ele>
        <time>2012-06-15T08:58:59Z</time>
      </trkpt>
      <trkpt lat="43.290565" lon="-5.881299">
        <ele>199.0</ele>
        <time>2012-06-15T08:59:03Z</time>
      </trkpt>
      <trkpt lat="43.290289" lon="-5.881344">
        <ele>200.0</ele>
        <time>2012-06-15T08:59:07Z</time>
      </trkpt>
      <trkpt lat="43.29002" lon="-5.881356">
        <ele>200.0</ele>
        <time>2012-06-15T08:59:11Z</time>
      </trkpt>
      <trkpt lat="43.289758" lon="-5.881315">
        <ele>200.0</ele>
        <time>2012-06-15T08:59:15Z</time>
      </trkpt>
      <trkpt lat="43.289575" lon="-5.881258">
        <ele>200.0</ele>
        <time>2012-06-15T08:59:18Z</time>
      </trkpt>
      <trkpt lat="43.289343" lon="-5.881154">
        <ele>200.0</ele>
        <time>2012-06-15T08:59:22Z</time>
      </trkpt>
      <trkpt lat="43.289226" lon="-5.881099">
        <ele>200.0</ele>
        <time>2012-06-15T08:59:24Z</time>
      </trkpt>
      <trkpt lat="43.288878" lon="-5.88093">
        <ele>201.0</ele>
        <time>2012-06-15T08:59:30Z</time>
      </trkpt>
      <trkpt lat="43.288414" lon="-5.880715">
        <ele>203.0</ele>
        <time>2012-06-15T08:59:38Z</time>
      </trkpt>
      <trkpt lat="43.288177" lon="-5.880627">
        <ele>204.0</ele>
        <time>2012-06-15T08:59:42Z</time>
      </trkpt>
      <trkpt lat="43.287943" lon="-5.880549">
        <ele>204.0</ele>
        <time>2012-06-15T08:59:46Z</time>
      </trkpt>
      <trkpt lat="43.287708" lon="-5.880468">
        <ele>204.0</ele>
        <time>2012-06-15T08:59:50Z</time>
      </trkpt>
      <trkpt lat="43.28748" lon="-5.880406">
        <ele>200.0</ele>
        <time>2012-06-15T08:59:54Z</time>
      </trkpt>
      <trkpt lat="43.287256" lon="-5.880506">
        <ele>198.0</ele>
        <time>2012-06-15T08:59:58Z</time>
      </trkpt>
      <trkpt lat="43.286987" lon="-5.880689">
        <ele>199.0</ele>
        <time>2012-06-15T09:00:03Z</time>
      </trkpt>
      <trkpt lat="43.286736" lon="-5.880836">
        <ele>200.0</ele>
        <time>2012-06-15T09:00:07Z</time>
      </trkpt>
      <trkpt lat="43.286431" lon="-5.880969">
        <ele>201.0</ele>
        <time>2012-06-15T09:00:11Z</time>
      </trkpt>
      <trkpt lat="43.286105" lon="-5.881047">
        <ele>202.0</ele>
        <time>2012-06-15T09:00:15Z</time>
      </trkpt>
      <trkpt lat="43.285774" lon="-5.880997">
        <ele>202.0</ele>
        <time>2012-06-15T09:00:19Z</time>
      </trkpt>
      <trkpt lat="43.285454" lon="-5.880831">
        <ele>203.0</ele>
        <time>2012-06-15T09:00:23Z</time>
      </trkpt>
      <trkpt lat="43.285167" lon="-5.880568">
        <ele>204.0</ele>
        <time>2012-06-15T09:00:27Z</time>
      </trkpt>
      <trkpt lat="43.28489" lon="-5.880233">
        <ele>205.0</ele>
        <time>2012-06-15T09:00:31Z</time>
      </trkpt>
      <trkpt lat="43.284745" lon="-5.880043">
        <ele>206.0</ele>
        <time>2012-06-15T09:00:33Z</time>
      </trkpt>
      <trkpt lat="43.284343" lon="-5.879455">
        <ele>207.0</ele>
        <time>2012-06-15T09:00:39Z</time>
      </trkpt>
      <trkpt lat="43.284143" lon="-5.879056">
        <ele>207.0</ele>
        <time>2012-06-15T09:00:43Z</time>
      </trkpt>
      <trkpt lat="43.283977" lon="-5.87867">
        <ele>207.0</ele>
        <time>2012-06-15T09:00:47Z</time>
      </trkpt>
      <trkpt lat="43.283826" lon="-5.878318">
        <ele>207.0</ele>
        <time>2012-06-15T09:00:51Z</time>
      </trkpt>
      <trkpt lat="43.28369" lon="-5.877962">
        <ele>208.0</ele>
        <time>2012-06-15T09:00:55Z</time>
      </trkpt>
      <trkpt lat="43.283541" lon="-5.87762">
        <ele>208.0</ele>
        <time>2012-06-15T09:00:59Z</time>
      </trkpt>
      <trkpt lat="43.283389" lon="-5.877273">
        <ele>207.0</ele>
        <time>2012-06-15T09:01:03Z</time>
      </trkpt>
      <trkpt lat="43.283225" lon="-5.876932">
        <ele>206.0</ele>
        <time>2012-06-15T09:01:07Z</time>
      </trkpt>
      <trkpt lat="43.283065" lon="-5.876589">
        <ele>206.0</ele>
        <time>2012-06-15T09:01:11Z</time>
      </trkpt>
      <trkpt lat="43.282905" lon="-5.876249">
        <ele>205.0</ele>
        <time>2012-06-15T09:01:15Z</time>
      </trkpt>
      <trkpt lat="43.282731" lon="-5.875921">
        <ele>206.0</ele>
        <time>2012-06-15T09:01:19Z</time>
      </trkpt>
      <trkpt lat="43.282554" lon="-5.875605">
        <ele>206.0</ele>
        <time>2012-06-15T09:01:23Z</time>
      </trkpt>
      <trkpt lat="43.28239" lon="-5.875287">
        <ele>207.0</ele>
        <time>2012-06-15T09:01:27Z</time>
      </trkpt>
      <trkpt lat="43.28222" lon="-5.874972">
        <ele>207.0</ele>
        <time>2012-06-15T09:01:31Z</time>
      </trkpt>
      <trkpt lat="43.282051" lon="-5.874652">
        <ele>208.0</ele>
        <time>2012-06-15T09:01:35Z</time>
      </trkpt>
      <trkpt lat="43.281885" lon="-5.874337">
        <ele>209.0</ele>
        <time>2012-06-15T09:01:39Z</time>
      </trkpt>
      <trkpt lat="43.281743" lon="-5.873995">
        <ele>209.0</ele>
        <time>2012-06-15T09:01:43Z</time>
      </trkpt>
      <trkpt lat="43.28168" lon="-5.873618">
        <ele>209.0</ele>
        <time>2012-06-15T09:01:47Z</time>
      </trkpt>
      <trkpt lat="43.28166" lon="-5.87323">
        <ele>209.0</ele>
        <time>2012-06-15T09:01:51Z</time>
      </trkpt>
      <trkpt lat="43.281678" lon="-5.872829">
        <ele>209.0</ele>
        <time>2012-06-15T09:01:55Z</time>
      </trkpt>
      <trkpt lat="43.281748" lon="-5.872441">
        <ele>210.0</ele>
        <time>2012-06-15T09:01:59Z</time>
      </trkpt>
      <trkpt lat="43.281863" lon="-5.872074">
        <ele>211.0</ele>
        <time>2012-06-15T09:02:03Z</time>
      </trkpt>
      <trkpt lat="43.282013" lon="-5.871715">
        <ele>212.0</ele>
        <time>2012-06-15T09:02:07Z</time>
      </trkpt>
      <trkpt lat="43.282166" lon="-5.871379">
        <ele>212.0</ele>
        <time>2012-06-15T09:02:11Z</time>
      </trkpt>
      <trkpt lat="43.282327" lon="-5.871071">
        <ele>212.0</ele>
        <time>2012-06-15T09:02:15Z</time>
      </trkpt>
      <trkpt lat="43.282505" lon="-5.870786">
        <ele>213.0</ele>
        <time>2012-06-15T09:02:19Z</time>
      </trkpt>
      <trkpt lat="43.282678" lon="-5.870502">
        <ele>213.0</ele>
        <time>2012-06-15T09:02:23Z</time>
      </trkpt>
      <trkpt lat="43.282855" lon="-5.870234">
        <ele>214.0</ele>
        <time>2012-06-15T09:02:27Z</time>
      </trkpt>
      <trkpt lat="43.28301" lon="-5.869949">
        <ele>214.0</ele>
        <time>2012-06-15T09:02:31Z</time>
      </trkpt>
      <trkpt lat="43.283168" lon="-5.869651">
        <ele>214.0</ele>
        <time>2012-06-15T09:02:35Z</time>
      </trkpt>
      <trkpt lat="43.283346" lon="-5.869367">
        <ele>214.0</ele>
        <time>2012-06-15T09:02:39Z</time>
      </trkpt>
      <trkpt lat="43.283522" lon="-5.869083">
        <ele>214.0</ele>
        <time>2012-06-15T09:02:43Z</time>
      </trkpt>
      <trkpt lat="43.28371" lon="-5.868854">
        <ele>209.0</ele>
        <time>2012-06-15T09:02:47Z</time>
      </trkpt>
      <trkpt lat="43.283864" lon="-5.868577">
        <ele>209.0</ele>
        <time>2012-06-15T09:02:51Z</time>
      </trkpt>
      <trkpt lat="43.284001" lon="-5.868271">
        <ele>208.0</ele>
        <time>2012-06-15T09:02:55Z</time>
      </trkpt>
      <trkpt lat="43.284123" lon="-5.867981">
        <ele>209.0</ele>
        <time>2012-06-15T09:02:59Z</time>
      </trkpt>
      <trkpt lat="43.284247" lon="-5.867678">
        <ele>209.0</ele>
        <time>2012-06-15T09:03:03Z</time>
      </trkpt>
      <trkpt lat="43.284374" lon="-5.867365">
        <ele>210.0</ele>
        <time>2012-06-15T09:03:07Z</time>
      </trkpt>
      <trkpt lat="43.284475" lon="-5.867023">
        <ele>212.0</ele>
        <time>2012-06-15T09:03:11Z</time>
      </trkpt>
      <trkpt lat="43.284474" lon="-5.86665">
        <ele>213.0</ele>
        <time>2012-06-15T09:03:15Z</time>
      </trkpt>
      <trkpt lat="43.284431" lon="-5.866408">
        <ele>215.0</ele>
        <time>2012-06-15T09:03:18Z</time>
      </trkpt>
      <trkpt lat="43.284356" lon="-5.8661">
        <ele>216.0</ele>
        <time>2012-06-15T09:03:22Z</time>
      </trkpt>
      <trkpt lat="43.284304" lon="-5.865787">
        <ele>218.0</ele>
        <time>2012-06-15T09:03:26Z</time>
      </trkpt>
      <trkpt lat="43.284281" lon="-5.865472">
        <ele>218.0</ele>
        <time>2012-06-15T09:03:30Z</time>
      </trkpt>
      <trkpt lat="43.284296" lon="-5.865153">
        <ele>219.0</ele>
        <time>2012-06-15T09:03:34Z</time>
      </trkpt>
      <trkpt lat="43.284307" lon="-5.864993">
        <ele>219.0</ele>
        <time>2012-06-15T09:03:36Z</time>
      </trkpt>
      <trkpt lat="43.284432" lon="-5.864408">
        <ele>204.0</ele>
        <time>2012-06-15T09:03:47Z</time>
      </trkpt>
      <trkpt lat="43.284211" lon="-5.864295">
        <ele>194.0</ele>
        <time>2012-06-15T09:03:50Z</time>
      </trkpt>
      <trkpt lat="43.283819" lon="-5.864014">
        <ele>187.0</ele>
        <time>2012-06-15T09:03:55Z</time>
      </trkpt>
      <trkpt lat="43.283439" lon="-5.863839">
        <ele>185.0</ele>
        <time>2012-06-15T09:03:59Z</time>
      </trkpt>
      <trkpt lat="43.283135" lon="-5.863652">
        <ele>185.0</ele>
        <time>2012-06-15T09:04:03Z</time>
      </trkpt>
      <trkpt lat="43.282888" lon="-5.863467">
        <ele>186.0</ele>
        <time>2012-06-15T09:04:07Z</time>
      </trkpt>
      <trkpt lat="43.282726" lon="-5.863321">
        <ele>188.0</ele>
        <time>2012-06-15T09:04:10Z</time>
      </trkpt>
      <trkpt lat="43.282564" lon="-5.863133">
        <ele>188.0</ele>
        <time>2012-06-15T09:04:14Z</time>
      </trkpt>
      <trkpt lat="43.282402" lon="-5.862944">
        <ele>188.0</ele>
        <time>2012-06-15T09:04:18Z</time>
      </trkpt>
      <trkpt lat="43.282402" lon="-5.862944">
        <time>2012-06-15T09:04:30Z</time>
      </trkpt>
    </trkseg>
    <trkseg>
      <trkpt lat="43.282402" lon="-5.862944">
        <time>2012-06-15T09:04:39Z</time>
      </trkpt>
      <trkpt lat="43.281353" lon="-5.861021">
        <ele>206.0</ele>
        <time>2012-06-15T09:04:45Z</time>
      </trkpt>
      <trkpt lat="43.281284" lon="-5.860436">
        <ele>205.0</ele>
        <time>2012-06-15T09:04:49Z</time>
      </trkpt>
      <trkpt lat="43.28123" lon="-5.85998">
        <ele>206.0</ele>
        <time>2012-06-15T09:04:53Z</time>
      </trkpt>
      <trkpt lat="43.281173" lon="-5.859737">
        <ele>206.0</ele>
        <time>2012-06-15T09:04:56Z</time>
      </trkpt>
      <trkpt lat="43.281037" lon="-5.859508">
        <ele>208.0</ele>
        <time>2012-06-15T09:05:00Z</time>
      </trkpt>
      <trkpt lat="43.280876" lon="-5.85932">
        <ele>209.0</ele>
        <time>2012-06-15T09:05:04Z</time>
      </trkpt>
      <trkpt lat="43.280701" lon="-5.859186">
        <ele>210.0</ele>
        <time>2012-06-15T09:05:08Z</time>
      </trkpt>
      <trkpt lat="43.280421" lon="-5.859066">
        <ele>211.0</ele>
        <time>2012-06-15T09:05:13Z</time>
      </trkpt>
      <trkpt lat="43.280155" lon="-5.858973">
        <ele>212.0</ele>
        <time>2012-06-15T09:05:17Z</time>
      </trkpt>
      <trkpt lat="43.279891" lon="-5.858872">
        <ele>212.0</ele>
        <time>2012-06-15T09:05:21Z</time>
      </trkpt>
      <trkpt lat="43.279638" lon="-5.858756">
        <ele>212.0</ele>
        <time>2012-06-15T09:05:25Z</time>
      </trkpt>
      <trkpt lat="43.279387" lon="-5.858638">
        <ele>212.0</ele>
        <time>2012-06-15T09:05:29Z</time>
      </trkpt>
      <trkpt lat="43.279262" lon="-5.858579">
        <ele>212.0</ele>
        <time>2012-06-15T09:05:31Z</time>
      </trkpt>
      <trkpt lat="43.278873" lon="-5.858402">
        <ele>211.0</ele>
        <time>2012-06-15T09:05:37Z</time>
      </trkpt>
      <trkpt lat="43.278692" lon="-5.85805">
        <ele>209.0</ele>
        <time>2012-06-15T09:05:41Z</time>
      </trkpt>
      <trkpt lat="43.278602" lon="-5.8578">
        <ele>211.0</ele>
        <time>2012-06-15T09:05:45Z</time>
      </trkpt>
      <trkpt lat="43.278535" lon="-5.857543">
        <ele>213.0</ele>
        <time>2012-06-15T09:05:49Z</time>
      </trkpt>
      <trkpt lat="43.278424" lon="-5.857272">
        <ele>213.0</ele>
        <time>2012-06-15T09:05:53Z</time>
      </trkpt>
      <trkpt lat="43.278285" lon="-5.856982">
        <ele>213.0</ele>
        <time>2012-06-15T09:05:57Z</time>
      </trkpt>
      <trkpt lat="43.278142" lon="-5.856669">
        <ele>212.0</ele>
        <time>2012-06-15T09:06:01Z</time>
      </trkpt>
      <trkpt lat="43.27803" lon="-5.856322">
        <ele>214.0</ele>
        <time>2012-06-15T09:06:05Z</time>
      </trkpt>
      <trkpt lat="43.277921" lon="-5.855965">
        <ele>215.0</ele>
        <time>2012-06-15T09:06:09Z</time>
      </trkpt>
      <trkpt lat="43.277758" lon="-5.855631">
        <ele>217.0</ele>
        <time>2012-06-15T09:06:13Z</time>
      </trkpt>
      <trkpt lat="43.277583" lon="-5.855323">
        <ele>218.0</ele>
        <time>2012-06-15T09:06:17Z</time>
      </trkpt>
      <trkpt lat="43.277447" lon="-5.855022">
        <ele>218.0</ele>
        <time>2012-06-15T09:06:21Z</time>
      </trkpt>
      <trkpt lat="43.277345" lon="-5.854796">
        <ele>218.0</ele>
        <time>2012-06-15T09:06:24Z</time>
      </trkpt>
      <trkpt lat="43.277345" lon="-5.854796">
        <time>2012-06-15T09:06:35Z</time>
      </trkpt>
    </trkseg>
    <trkseg>
      <trkpt lat="43.277345" lon="-5.854796">
        <time>2012-06-15T09:06:36Z</time>
      </trkpt>
      <trkpt lat="43.27661" lon="-5.854037">
        <ele>214.0</ele>
        <time>2012-06-15T09:06:38Z</time>
      </trkpt>
      <trkpt lat="43.276616" lon="-5.853712">
        <ele>210.0</ele>
        <time>2012-06-15T09:06:42Z</time>
      </trkpt>
      <trkpt lat="43.276569" lon="-5.853291">
        <ele>216.0</ele>
        <time>2012-06-15T09:06:46Z</time>
      </trkpt>
      <trkpt lat="43.276458" lon="-5.85283">
        <ele>223.0</ele>
        <time>2012-06-15T09:06:50Z</time>
      </trkpt>
      <trkpt lat="43.276239" lon="-5.852428">
        <ele>226.0</ele>
        <time>2012-06-15T09:06:54Z</time>
      </trkpt>
      <trkpt lat="43.276084" lon="-5.852072">
        <ele>227.0</ele>
        <time>2012-06-15T09:06:58Z</time>
      </trkpt>
      <trkpt lat="43.275988" lon="-5.851813">
        <ele>227.0</ele>
        <time>2012-06-15T09:07:01Z</time>
      </trkpt>
      <trkpt lat="43.275705" lon="-5.851348">
        <ele>229.0</ele>
        <time>2012-06-15T09:07:06Z</time>
      </trkpt>
      <trkpt lat="43.275684" lon="-5.85086">
        <ele>231.0</ele>
        <time>2012-06-15T09:07:10Z</time>
      </trkpt>
      <trkpt lat="43.275665" lon="-5.85051">
        <ele>233.0</ele>
        <time>2012-06-15T09:07:13Z</time>
      </trkpt>
      <trkpt lat="43.275662" lon="-5.849919">
        <ele>237.0</ele>
        <time>2012-06-15T09:07:18Z</time>
      </trkpt>
      <trkpt lat="43.275632" lon="-5.849419">
        <ele>238.0</ele>
        <time>2012-06-15T09:07:22Z</time>
      </trkpt>
      <trkpt lat="43.275609" lon="-5.848895">
        <ele>238.0</ele>
        <time>2012-06-15T09:07:26Z</time>
      </trkpt>
      <trkpt lat="43.275618" lon="-5.848405">
        <ele>238.0</ele>
        <time>2012-06-15T09:07:30Z</time>
      </trkpt>
      <trkpt lat="43.275631" lon="-5.848045">
        <ele>238.0</ele>
        <time>2012-06-15T09:07:33Z</time>
      </trkpt>
      <trkpt lat="43.27521" lon="-5.847265">
        <ele>237.0</ele>
        <time>2012-06-15T09:07:38Z</time>
      </trkpt>
      <trkpt lat="43.275105" lon="-5.846772">
        <ele>238.0</ele>
        <time>2012-06-15T09:07:42Z</time>
      </trkpt>
      <trkpt lat="43.274999" lon="-5.846325">
        <ele>237.0</ele>
        <time>2012-06-15T09:07:46Z</time>
      </trkpt>
      <trkpt lat="43.274847" lon="-5.845908">
        <ele>236.0</ele>
        <time>2012-06-15T09:07:50Z</time>
      </trkpt>
      <trkpt lat="43.27468" lon="-5.845507">
        <ele>235.0</ele>
        <time>2012-06-15T09:07:54Z</time>
      </trkpt>
      <trkpt lat="43.274501" lon="-5.845117">
        <ele>234.0</ele>
        <time>2012-06-15T09:07:58Z</time>
      </trkpt>
      <trkpt lat="43.274325" lon="-5.844743">
        <ele>234.0</ele>
        <time>2012-06-15T09:08:02Z</time>
      </trkpt>
      <trkpt lat="43.274148" lon="-5.844375">
        <ele>234.0</ele>
        <time>2012-06-15T09:08:06Z</time>
      </trkpt>
      <trkpt lat="43.27398" lon="-5.843992">
        <ele>234.0</ele>
        <time>2012-06-15T09:08:10Z</time>
      </trkpt>
      <trkpt lat="43.273811" lon="-5.843619">
        <ele>234.0</ele>
        <time>2012-06-15T09:08:14Z</time>
      </trkpt>
      <trkpt lat="43.273648" lon="-5.843243">
        <ele>235.0</ele>
        <time>2012-06-15T09:08:18Z</time>
      </trkpt>
      <trkpt lat="43.273468" lon="-5.84288">
        <ele>235.0</ele>
        <time>2012-06-15T09:08:22Z</time>
      </trkpt>
      <trkpt lat="43.273289" lon="-5.842527">
        <ele>235.0</ele>
        <time>2012-06-15T09:08:26Z</time>
      </trkpt>
      <trkpt lat="43.273102" lon="-5.8422">
        <ele>235.0</ele>
        <time>2012-06-15T09:08:30Z</time>
      </trkpt>
      <trkpt lat="43.272884" lon="-5.841931">
        <ele>237.0</ele>
        <time>2012-06-15T09:08:34Z</time>
      </trkpt>
      <trkpt lat="43.272644" lon="-5.841696">
        <ele>238.0</ele>
        <time>2012-06-15T09:08:38Z</time>
      </trkpt>
      <trkpt lat="43.272404" lon="-5.841451">
        <ele>240.0</ele>
        <time>2012-06-15T09:08:42Z</time>
      </trkpt>
      <trkpt lat="43.272183" lon="-5.84119">
        <ele>240.0</ele>
        <time>2012-06-15T09:08:46Z</time>
      </trkpt>
      <trkpt lat="43.272001" lon="-5.840889">
        <ele>241.0</ele>
        <time>2012-06-15T09:08:50Z</time>
      </trkpt>
      <trkpt lat="43.271844" lon="-5.840566">
        <ele>241.0</ele>
        <time>2012-06-15T09:08:54Z</time>
      </trkpt>
      <trkpt lat="43.271702" lon="-5.84023">
        <ele>242.0</ele>
        <time>2012-06-15T09:08:58Z</time>
      </trkpt>
      <trkpt lat="43.271562" lon="-5.839872">
        <ele>242.0</ele>
        <time>2012-06-15T09:09:02Z</time>
      </trkpt>
      <trkpt lat="43.271422" lon="-5.83951">
        <ele>243.0</ele>
        <time>2012-06-15T09:09:06Z</time>
      </trkpt>
      <trkpt lat="43.27129" lon="-5.839146">
        <ele>243.0</ele>
        <time>2012-06-15T09:09:10Z</time>
      </trkpt>
      <trkpt lat="43.271183" lon="-5.838782">
        <ele>243.0</ele>
        <time>2012-06-15T09:09:14Z</time>
      </trkpt>
      <trkpt lat="43.271115" lon="-5.838404">
        <ele>242.0</ele>
        <time>2012-06-15T09:09:18Z</time>
      </trkpt>
      <trkpt lat="43.271073" lon="-5.838029">
        <ele>240.0</ele>
        <time>2012-06-15T09:09:22Z</time>
      </trkpt>
      <trkpt lat="43.27103" lon="-5.837648">
        <ele>238.0</ele>
        <time>2012-06-15T09:09:26Z</time>
      </trkpt>
      <trkpt lat="43.270969" lon="-5.837263">
        <ele>238.0</ele>
        <time>2012-06-15T09:09:30Z</time>
      </trkpt>
      <trkpt lat="43.270894" lon="-5.836881">
        <ele>238.0</ele>
        <time>2012-06-15T09:09:34Z</time>
      </trkpt>
      <trkpt lat="43.270833" lon="-5.836501">
        <ele>239.0</ele>
        <time>2012-06-15T09:09:38Z</time>
      </trkpt>
      <trkpt lat="43.270789" lon="-5.836122">
        <ele>240.0</ele>
        <time>2012-06-15T09:09:42Z</time>
      </trkpt>
      <trkpt lat="43.270758" lon="-5.835842">
        <ele>241.0</ele>
        <time>2012-06-15T09:09:45Z</time>
      </trkpt>
      <trkpt lat="43.270752" lon="-5.835385">
        <ele>240.0</ele>
        <time>2012-06-15T09:09:50Z</time>
      </trkpt>
      <trkpt lat="43.270766" lon="-5.835019">
        <ele>241.0</ele>
        <time>2012-06-15T09:09:54Z</time>
      </trkpt>
      <trkpt lat="43.27078" lon="-5.834763">
        <ele>241.0</ele>
        <time>2012-06-15T09:09:57Z</time>
      </trkpt>
      <trkpt lat="43.270812" lon="-5.834335">
        <ele>242.0</ele>
        <time>2012-06-15T09:10:02Z</time>
      </trkpt>
      <trkpt lat="43.270803" lon="-5.83398">
        <ele>242.0</ele>
        <time>2012-06-15T09:10:06Z</time>
      </trkpt>
      <trkpt lat="43.270764" lon="-5.833619">
        <ele>241.0</ele>
        <time>2012-06-15T09:10:10Z</time>
      </trkpt>
      <trkpt lat="43.27069" lon="-5.833264">
        <ele>241.0</ele>
        <time>2012-06-15T09:10:14Z</time>
      </trkpt>
      <trkpt lat="43.270608" lon="-5.832909">
        <ele>241.0</ele>
        <time>2012-06-15T09:10:18Z</time>
      </trkpt>
      <trkpt lat="43.270538" lon="-5.832558">
        <ele>241.0</ele>
        <time>2012-06-15T09:10:22Z</time>
      </trkpt>
      <trkpt lat="43.270465" lon="-5.832199">
        <ele>240.0</ele>
        <time>2012-06-15T09:10:26Z</time>
      </trkpt>
      <trkpt lat="43.270407" lon="-5.831828">
        <ele>241.0</ele>
        <time>2012-06-15T09:10:30Z</time>
      </trkpt>
      <trkpt lat="43.270348" lon="-5.831451">
        <ele>242.0</ele>
        <time>2012-06-15T09:10:34Z</time>
      </trkpt>
      <trkpt lat="43.270299" lon="-5.831076">
        <ele>242.0</ele>
        <time>2012-06-15T09:10:38Z</time>
      </trkpt>
      <trkpt lat="43.270215" lon="-5.830899">
        <ele>242.0</ele>
        <time>2012-06-15T09:10:41Z</time>
      </trkpt>
      <trkpt lat="43.270102" lon="-5.830585">
        <ele>245.0</ele>
        <time>2012-06-15T09:10:46Z</time>
      </trkpt>
      <trkpt lat="43.27005" lon="-5.830193">
        <ele>247.0</ele>
        <time>2012-06-15T09:10:50Z</time>
      </trkpt>
      <trkpt lat="43.270061" lon="-5.829792">
        <ele>248.0</ele>
        <time>2012-06-15T09:10:54Z</time>
      </trkpt>
      <trkpt lat="43.270119" lon="-5.829387">
        <ele>250.0</ele>
        <time>2012-06-15T09:10:58Z</time>
      </trkpt>
      <trkpt lat="43.270191" lon="-5.828995">
        <ele>251.0</ele>
        <time>2012-06-15T09:11:02Z</time>
      </trkpt>
      <trkpt lat="43.270273" lon="-5.828616">
        <ele>251.0</ele>
        <time>2012-06-15T09:11:06Z</time>
      </trkpt>
      <trkpt lat="43.270374" lon="-5.828241">
        <ele>251.0</ele>
        <time>2012-06-15T09:11:10Z</time>
      </trkpt>
      <trkpt lat="43.27048" lon="-5.82787">
        <ele>251.0</ele>
        <time>2012-06-15T09:11:14Z</time>
      </trkpt>
      <trkpt lat="43.270592" lon="-5.827504">
        <ele>251.0</ele>
        <time>2012-06-15T09:11:18Z</time>
      </trkpt>
      <trkpt lat="43.270704" lon="-5.827153">
        <ele>251.0</ele>
        <time>2012-06-15T09:11:22Z</time>
      </trkpt>
      <trkpt lat="43.270805" lon="-5.826804">
        <ele>251.0</ele>
        <time>2012-06-15T09:11:26Z</time>
      </trkpt>
      <trkpt lat="43.270894" lon="-5.826453">
        <ele>251.0</ele>
        <time>2012-06-15T09:11:30Z</time>
      </trkpt>
      <trkpt lat="43.270953" lon="-5.826091">
        <ele>252.0</ele>
        <time>2012-06-15T09:11:34Z</time>
      </trkpt>
      <trkpt lat="43.270968" lon="-5.825723">
        <ele>253.0</ele>
        <time>2012-06-15T09:11:38Z</time>
      </trkpt>
      <trkpt lat="43.27103" lon="-5.825345">
        <ele>254.0</ele>
        <time>2012-06-15T09:11:42Z</time>
      </trkpt>
      <trkpt lat="43.271097" lon="-5.824977">
        <ele>254.0</ele>
        <time>2012-06-15T09:11:46Z</time>
      </trkpt>
      <trkpt lat="43.271168" lon="-5.824619">
        <ele>254.0</ele>
        <time>2012-06-15T09:11:50Z</time>
      </trkpt>
      <trkpt lat="43.271248" lon="-5.824266">
        <ele>254.0</ele>
        <time>2012-06-15T09:11:54Z</time>
      </trkpt>
      <trkpt lat="43.271324" lon="-5.823922">
        <ele>254.0</ele>
        <time>2012-06-15T09:11:58Z</time>
      </trkpt>
      <trkpt lat="43.271386" lon="-5.823587">
        <ele>254.0</ele>
        <time>2012-06-15T09:12:02Z</time>
      </trkpt>
      <trkpt lat="43.271453" lon="-5.823245">
        <ele>254.0</ele>
        <time>2012-06-15T09:12:06Z</time>
      </trkpt>
      <trkpt lat="43.271524" lon="-5.822904">
        <ele>254.0</ele>
        <time>2012-06-15T09:12:10Z</time>
      </trkpt>
      <trkpt lat="43.271597" lon="-5.822546">
        <ele>253.0</ele>
        <time>2012-06-15T09:12:14Z</time>
      </trkpt>
      <trkpt lat="43.271662" lon="-5.822177">
        <ele>253.0</ele>
        <time>2012-06-15T09:12:18Z</time>
      </trkpt>
      <trkpt lat="43.271729" lon="-5.82181">
        <ele>253.0</ele>
        <time>2012-06-15T09:12:22Z</time>
      </trkpt>
      <trkpt lat="43.271805" lon="-5.821452">
        <ele>252.0</ele>
        <time>2012-06-15T09:12:26Z</time>
      </trkpt>
      <trkpt lat="43.271886" lon="-5.821102">
        <ele>252.0</ele>
        <time>2012-06-15T09:12:30Z</time>
      </trkpt>
      <trkpt lat="43.271971" lon="-5.820759">
        <ele>253.0</ele>
        <time>2012-06-15T09:12:34Z</time>
      </trkpt>
      <trkpt lat="43.272103" lon="-5.820426">
        <ele>253.0</ele>
        <time>2012-06-15T09:12:38Z</time>
      </trkpt>
      <trkpt lat="43.272275" lon="-5.820106">
        <ele>254.0</ele>
        <time>2012-06-15T09:12:42Z</time>
      </trkpt>
      <trkpt lat="43.272472" lon="-5.819819">
        <ele>254.0</ele>
        <time>2012-06-15T09:12:46Z</time>
      </trkpt>
      <trkpt lat="43.272666" lon="-5.819547">
        <ele>254.0</ele>
        <time>2012-06-15T09:12:50Z</time>
      </trkpt>
      <trkpt lat="43.272862" lon="-5.819285">
        <ele>254.0</ele>
        <time>2012-06-15T09:12:54Z</time>
      </trkpt>
      <trkpt lat="43.273073" lon="-5.819034">
        <ele>254.0</ele>
        <time>2012-06-15T09:12:58Z</time>
      </trkpt>
      <trkpt lat="43.273291" lon="-5.818787">
        <ele>253.0</ele>
        <time>2012-06-15T09:13:02Z</time>
      </trkpt>
      <trkpt lat="43.273511" lon="-5.81854">
        <ele>253.0</ele>
        <time>2012-06-15T09:13:06Z</time>
      </trkpt>
      <trkpt lat="43.273726" lon="-5.818299">
        <ele>253.0</ele>
        <time>2012-06-15T09:13:10Z</time>
      </trkpt>
      <trkpt lat="43.273933" lon="-5.818047">
        <ele>253.0</ele>
        <time>2012-06-15T09:13:14Z</time>
      </trkpt>
      <trkpt lat="43.274142" lon="-5.817801">
        <ele>253.0</ele>
        <time>2012-06-15T09:13:18Z</time>
      </trkpt>
      <trkpt lat="43.274355" lon="-5.817564">
        <ele>253.0</ele>
        <time>2012-06-15T09:13:22Z</time>
      </trkpt>
      <trkpt lat="43.274562" lon="-5.817322">
        <ele>253.0</ele>
        <time>2012-06-15T09:13:26Z</time>
      </trkpt>
      <trkpt lat="43.274772" lon="-5.817086">
        <ele>254.0</ele>
        <time>2012-06-15T09:13:30Z</time>
      </trkpt>
      <trkpt lat="43.274983" lon="-5.816846">
        <ele>254.0</ele>
        <time>2012-06-15T09:13:34Z</time>
      </trkpt>
      <trkpt lat="43.275194" lon="-5.816604">
        <ele>254.0</ele>
        <time>2012-06-15T09:13:38Z</time>
      </trkpt>
      <trkpt lat="43.275402" lon="-5.81636">
        <ele>254.0</ele>
        <time>2012-06-15T09:13:42Z</time>
      </trkpt>
      <trkpt lat="43.275595" lon="-5.816125">
        <ele>253.0</ele>
        <time>2012-06-15T09:13:46Z</time>
      </trkpt>
      <trkpt lat="43.275957" lon="-5.815656">
        <ele>253.0</ele>
        <time>2012-06-15T09:13:54Z</time>
      </trkpt>
      <trkpt lat="43.276106" lon="-5.815361">
        <ele>253.0</ele>
        <time>2012-06-15T09:13:58Z</time>
      </trkpt>
      <trkpt lat="43.2762" lon="-5.815126">
        <ele>253.0</ele>
        <time>2012-06-15T09:14:01Z</time>
      </trkpt>
      <trkpt lat="43.276341" lon="-5.814703">
        <ele>253.0</ele>
        <time>2012-06-15T09:14:06Z</time>
      </trkpt>
      <trkpt lat="43.276414" lon="-5.81436">
        <ele>253.0</ele>
        <time>2012-06-15T09:14:10Z</time>
      </trkpt>
      <trkpt lat="43.276469" lon="-5.814114">
        <ele>253.0</ele>
        <time>2012-06-15T09:14:13Z</time>
      </trkpt>
      <trkpt lat="43.276515" lon="-5.813799">
        <ele>253.0</ele>
        <time>2012-06-15T09:14:17Z</time>
      </trkpt>
      <trkpt lat="43.276527" lon="-5.813641">
        <ele>253.0</ele>
        <time>2012-06-15T09:14:19Z</time>
      </trkpt>
      <trkpt lat="43.27654" lon="-5.813186">
        <ele>253.0</ele>
        <time>2012-06-15T09:14:25Z</time>
      </trkpt>
      <trkpt lat="43.276549" lon="-5.812897">
        <ele>253.0</ele>
        <time>2012-06-15T09:14:29Z</time>
      </trkpt>
      <trkpt lat="43.276552" lon="-5.812755">
        <ele>253.0</ele>
        <time>2012-06-15T09:14:31Z</time>
      </trkpt>
      <trkpt lat="43.276552" lon="-5.812315">
        <ele>253.0</ele>
        <time>2012-06-15T09:14:37Z</time>
      </trkpt>
      <trkpt lat="43.276562" lon="-5.812017">
        <ele>253.0</ele>
        <time>2012-06-15T09:14:41Z</time>
      </trkpt>
      <trkpt lat="43.276571" lon="-5.811716">
        <ele>252.0</ele>
        <time>2012-06-15T09:14:45Z</time>
      </trkpt>
      <trkpt lat="43.27657" lon="-5.81141">
        <ele>253.0</ele>
        <time>2012-06-15T09:14:49Z</time>
      </trkpt>
      <trkpt lat="43.276544" lon="-5.811108">
        <ele>253.0</ele>
        <time>2012-06-15T09:14:53Z</time>
      </trkpt>
      <trkpt lat="43.276506" lon="-5.810811">
        <ele>253.0</ele>
        <time>2012-06-15T09:14:57Z</time>
      </trkpt>
      <trkpt lat="43.276441" lon="-5.810518">
        <ele>253.0</ele>
        <time>2012-06-15T09:15:01Z</time>
      </trkpt>
      <trkpt lat="43.276364" lon="-5.810233">
        <ele>253.0</ele>
        <time>2012-06-15T09:15:05Z</time>
      </trkpt>
      <trkpt lat="43.276275" lon="-5.809947">
        <ele>253.0</ele>
        <time>2012-06-15T09:15:09Z</time>
      </trkpt>
      <trkpt lat="43.276191" lon="-5.80964">
        <ele>254.0</ele>
        <time>2012-06-15T09:15:13Z</time>
      </trkpt>
      <trkpt lat="43.276064" lon="-5.809184">
        <ele>254.0</ele>
        <time>2012-06-15T09:15:18Z</time>
      </trkpt>
      <trkpt lat="43.275957" lon="-5.808917">
        <ele>254.0</ele>
        <time>2012-06-15T09:15:21Z</time>
      </trkpt>
      <trkpt lat="43.275717" lon="-5.808516">
        <ele>254.0</ele>
        <time>2012-06-15T09:15:26Z</time>
      </trkpt>
      <trkpt lat="43.275543" lon="-5.808319">
        <ele>254.0</ele>
        <time>2012-06-15T09:15:29Z</time>
      </trkpt>
      <trkpt lat="43.275251" lon="-5.808036">
        <ele>254.0</ele>
        <time>2012-06-15T09:15:34Z</time>
      </trkpt>
      <trkpt lat="43.27503" lon="-5.807833">
        <ele>254.0</ele>
        <time>2012-06-15T09:15:38Z</time>
      </trkpt>
      <trkpt lat="43.274803" lon="-5.807651">
        <ele>253.0</ele>
        <time>2012-06-15T09:15:42Z</time>
      </trkpt>
      <trkpt lat="43.274578" lon="-5.807452">
        <ele>253.0</ele>
        <time>2012-06-15T09:15:46Z</time>
      </trkpt>
      <trkpt lat="43.274358" lon="-5.807267">
        <ele>252.0</ele>
        <time>2012-06-15T09:15:50Z</time>
      </trkpt>
      <trkpt lat="43.274145" lon="-5.807091">
        <ele>252.0</ele>
        <time>2012-06-15T09:15:54Z</time>
      </trkpt>
      <trkpt lat="43.273929" lon="-5.80694">
        <ele>252.0</ele>
        <time>2012-06-15T09:15:58Z</time>
      </trkpt>
      <trkpt lat="43.27372" lon="-5.806794">
        <ele>253.0</ele>
        <time>2012-06-15T09:16:02Z</time>
      </trkpt>
      <trkpt lat="43.273526" lon="-5.806651">
        <ele>254.0</ele>
        <time>2012-06-15T09:16:06Z</time>
      </trkpt>
      <trkpt lat="43.273358" lon="-5.806504">
        <ele>254.0</ele>
        <time>2012-06-15T09:16:10Z</time>
      </trkpt>
      <trkpt lat="43.273179" lon="-5.806377">
        <ele>254.0</ele>
        <time>2012-06-15T09:16:14Z</time>
      </trkpt>
      <trkpt lat="43.272996" lon="-5.806244">
        <ele>254.0</ele>
        <time>2012-06-15T09:16:18Z</time>
      </trkpt>
      <trkpt lat="43.272815" lon="-5.806113">
        <ele>254.0</ele>
        <time>2012-06-15T09:16:22Z</time>
      </trkpt>
      <trkpt lat="43.272641" lon="-5.805978">
        <ele>254.0</ele>
        <time>2012-06-15T09:16:26Z</time>
      </trkpt>
      <trkpt lat="43.272481" lon="-5.805843">
        <ele>254.0</ele>
        <time>2012-06-15T09:16:30Z</time>
      </trkpt>
      <trkpt lat="43.272321" lon="-5.805706">
        <ele>254.0</ele>
        <time>2012-06-15T09:16:34Z</time>
      </trkpt>
      <trkpt lat="43.272157" lon="-5.805564">
        <ele>255.0</ele>
        <time>2012-06-15T09:16:38Z</time>
      </trkpt>
      <trkpt lat="43.271992" lon="-5.805423">
        <ele>255.0</ele>
        <time>2012-06-15T09:16:42Z</time>
      </trkpt>
      <trkpt lat="43.27183" lon="-5.805294">
        <ele>256.0</ele>
        <time>2012-06-15T09:16:46Z</time>
      </trkpt>
      <trkpt lat="43.271677" lon="-5.805145">
        <ele>256.0</ele>
        <time>2012-06-15T09:16:50Z</time>
      </trkpt>
      <trkpt lat="43.27152" lon="-5.804993">
        <ele>255.0</ele>
        <time>2012-06-15T09:16:54Z</time>
      </trkpt>
      <trkpt lat="43.27134" lon="-5.804856">
        <ele>255.0</ele>
        <time>2012-06-15T09:16:58Z</time>
      </trkpt>
      <trkpt lat="43.271157" lon="-5.804704">
        <ele>255.0</ele>
        <time>2012-06-15T09:17:02Z</time>
      </trkpt>
      <trkpt lat="43.270965" lon="-5.804535">
        <ele>255.0</ele>
        <time>2012-06-15T09:17:06Z</time>
      </trkpt>
      <trkpt lat="43.270777" lon="-5.804355">
        <ele>256.0</ele>
        <time>2012-06-15T09:17:10Z</time>
      </trkpt>
      <trkpt lat="43.270583" lon="-5.804165">
        <ele>256.0</ele>
        <time>2012-06-15T09:17:14Z</time>
      </trkpt>
      <trkpt lat="43.27036" lon="-5.803888">
        <ele>256.0</ele>
        <time>2012-06-15T09:17:18Z</time>
      </trkpt>
      <trkpt lat="43.270122" lon="-5.803531">
        <ele>257.0</ele>
        <time>2012-06-15T09:17:22Z</time>
      </trkpt>
      <trkpt lat="43.269929" lon="-5.803117">
        <ele>257.0</ele>
        <time>2012-06-15T09:17:26Z</time>
      </trkpt>
      <trkpt lat="43.269818" lon="-5.802639">
        <ele>257.0</ele>
        <time>2012-06-15T09:17:30Z</time>
      </trkpt>
      <trkpt lat="43.269794" lon="-5.802099">
        <ele>257.0</ele>
        <time>2012-06-15T09:17:34Z</time>
      </trkpt>
      <trkpt lat="43.269831" lon="-5.801576">
        <ele>257.0</ele>
        <time>2012-06-15T09:17:38Z</time>
      </trkpt>
      <trkpt lat="43.269894" lon="-5.801064">
        <ele>258.0</ele>
        <time>2012-06-15T09:17:42Z</time>
      </trkpt>
      <trkpt lat="43.269963" lon="-5.800568">
        <ele>257.0</ele>
        <time>2012-06-15T09:17:46Z</time>
      </trkpt>
      <trkpt lat="43.270012" lon="-5.800088">
        <ele>257.0</ele>
        <time>2012-06-15T09:17:50Z</time>
      </trkpt>
      <trkpt lat="43.270054" lon="-5.799627">
        <ele>258.0</ele>
        <time>2012-06-15T09:17:54Z</time>
      </trkpt>
      <trkpt lat="43.270073" lon="-5.799191">
        <ele>258.0</ele>
        <time>2012-06-15T09:17:58Z</time>
      </trkpt>
      <trkpt lat="43.270056" lon="-5.798761">
        <ele>258.0</ele>
        <time>2012-06-15T09:18:02Z</time>
      </trkpt>
      <trkpt lat="43.269986" lon="-5.798357">
        <ele>258.0</ele>
        <time>2012-06-15T09:18:06Z</time>
      </trkpt>
      <trkpt lat="43.269838" lon="-5.797996">
        <ele>258.0</ele>
        <time>2012-06-15T09:18:10Z</time>
      </trkpt>
      <trkpt lat="43.26961" lon="-5.797697">
        <ele>258.0</ele>
        <time>2012-06-15T09:18:14Z</time>
      </trkpt>
      <trkpt lat="43.269386" lon="-5.797398">
        <ele>258.0</ele>
        <time>2012-06-15T09:18:18Z</time>
      </trkpt>
      <trkpt lat="43.269164" lon="-5.7971">
        <ele>258.0</ele>
        <time>2012-06-15T09:18:22Z</time>
      </trkpt>
      <trkpt lat="43.268944" lon="-5.796804">
        <ele>258.0</ele>
        <time>2012-06-15T09:18:26Z</time>
      </trkpt>
      <trkpt lat="43.268735" lon="-5.796506">
        <ele>258.0</ele>
        <time>2012-06-15T09:18:30Z</time>
      </trkpt>
      <trkpt lat="43.268503" lon="-5.796242">
        <ele>259.0</ele>
        <time>2012-06-15T09:18:34Z</time>
      </trkpt>
      <trkpt lat="43.268271" lon="-5.795967">
        <ele>260.0</ele>
        <time>2012-06-15T09:18:38Z</time>
      </trkpt>
      <trkpt lat="43.268057" lon="-5.795696">
        <ele>260.0</ele>
        <time>2012-06-15T09:18:42Z</time>
      </trkpt>
      <trkpt lat="43.267873" lon="-5.795419">
        <ele>260.0</ele>
        <time>2012-06-15T09:18:46Z</time>
      </trkpt>
      <trkpt lat="43.267702" lon="-5.79515">
        <ele>260.0</ele>
        <time>2012-06-15T09:18:50Z</time>
      </trkpt>
      <trkpt lat="43.267596" lon="-5.794939">
        <ele>260.0</ele>
        <time>2012-06-15T09:18:53Z</time>
      </trkpt>
      <trkpt lat="43.267457" lon="-5.794668">
        <ele>260.0</ele>
        <time>2012-06-15T09:18:57Z</time>
      </trkpt>
      <trkpt lat="43.267308" lon="-5.794411">
        <ele>260.0</ele>
        <time>2012-06-15T09:19:01Z</time>
      </trkpt>
      <trkpt lat="43.267149" lon="-5.794157">
        <ele>259.0</ele>
        <time>2012-06-15T09:19:05Z</time>
      </trkpt>
      <trkpt lat="43.266971" lon="-5.79379">
        <ele>259.0</ele>
        <time>2012-06-15T09:19:10Z</time>
      </trkpt>
      <trkpt lat="43.266791" lon="-5.793454">
        <ele>259.0</ele>
        <time>2012-06-15T09:19:14Z</time>
      </trkpt>
      <trkpt lat="43.266565" lon="-5.79311">
        <ele>259.0</ele>
        <time>2012-06-15T09:19:18Z</time>
      </trkpt>
      <trkpt lat="43.266328" lon="-5.792748">
        <ele>259.0</ele>
        <time>2012-06-15T09:19:22Z</time>
      </trkpt>
      <trkpt lat="43.266111" lon="-5.792357">
        <ele>259.0</ele>
        <time>2012-06-15T09:19:26Z</time>
      </trkpt>
      <trkpt lat="43.265895" lon="-5.79195">
        <ele>258.0</ele>
        <time>2012-06-15T09:19:30Z</time>
      </trkpt>
      <trkpt lat="43.265725" lon="-5.791633">
        <ele>258.0</ele>
        <time>2012-06-15T09:19:33Z</time>
      </trkpt>
      <trkpt lat="43.26544" lon="-5.79112">
        <ele>259.0</ele>
        <time>2012-06-15T09:19:38Z</time>
      </trkpt>
      <trkpt lat="43.265257" lon="-5.79071">
        <ele>259.0</ele>
        <time>2012-06-15T09:19:42Z</time>
      </trkpt>
      <trkpt lat="43.265089" lon="-5.790314">
        <ele>259.0</ele>
        <time>2012-06-15T09:19:46Z</time>
      </trkpt>
      <trkpt lat="43.264947" lon="-5.789925">
        <ele>260.0</ele>
        <time>2012-06-15T09:19:50Z</time>
      </trkpt>
      <trkpt lat="43.264845" lon="-5.789556">
        <ele>259.0</ele>
        <time>2012-06-15T09:19:54Z</time>
      </trkpt>
      <trkpt lat="43.264752" lon="-5.789221">
        <ele>259.0</ele>
        <time>2012-06-15T09:19:58Z</time>
      </trkpt>
      <trkpt lat="43.264684" lon="-5.78898">
        <ele>260.0</ele>
        <time>2012-06-15T09:20:01Z</time>
      </trkpt>
      <trkpt lat="43.264573" lon="-5.788681">
        <ele>260.0</ele>
        <time>2012-06-15T09:20:05Z</time>
      </trkpt>
      <trkpt lat="43.264453" lon="-5.788399">
        <ele>261.0</ele>
        <time>2012-06-15T09:20:09Z</time>
      </trkpt>
      <trkpt lat="43.264338" lon="-5.788125">
        <ele>261.0</ele>
        <time>2012-06-15T09:20:13Z</time>
      </trkpt>
      <trkpt lat="43.264234" lon="-5.787846">
        <ele>261.0</ele>
        <time>2012-06-15T09:20:17Z</time>
      </trkpt>
      <trkpt lat="43.264134" lon="-5.787553">
        <ele>261.0</ele>
        <time>2012-06-15T09:20:21Z</time>
      </trkpt>
      <trkpt lat="43.264041" lon="-5.78726">
        <ele>262.0</ele>
        <time>2012-06-15T09:20:25Z</time>
      </trkpt>
      <trkpt lat="43.263956" lon="-5.78696">
        <ele>262.0</ele>
        <time>2012-06-15T09:20:29Z</time>
      </trkpt>
      <trkpt lat="43.263885" lon="-5.786647">
        <ele>263.0</ele>
        <time>2012-06-15T09:20:33Z</time>
      </trkpt>
      <trkpt lat="43.263792" lon="-5.786243">
        <ele>264.0</ele>
        <time>2012-06-15T09:20:38Z</time>
      </trkpt>
      <trkpt lat="43.263716" lon="-5.785902">
        <ele>265.0</ele>
        <time>2012-06-15T09:20:42Z</time>
      </trkpt>
      <trkpt lat="43.263636" lon="-5.785548">
        <ele>264.0</ele>
        <time>2012-06-15T09:20:46Z</time>
      </trkpt>
      <trkpt lat="43.263551" lon="-5.785175">
        <ele>264.0</ele>
        <time>2012-06-15T09:20:50Z</time>
      </trkpt>
      <trkpt lat="43.263489" lon="-5.784784">
        <ele>264.0</ele>
        <time>2012-06-15T09:20:54Z</time>
      </trkpt>
      <trkpt lat="43.263418" lon="-5.784395">
        <ele>264.0</ele>
        <time>2012-06-15T09:20:58Z</time>
      </trkpt>
      <trkpt lat="43.263285" lon="-5.78405">
        <ele>264.0</ele>
        <time>2012-06-15T09:21:02Z</time>
      </trkpt>
      <trkpt lat="43.263153" lon="-5.783713">
        <ele>264.0</ele>
        <time>2012-06-15T09:21:06Z</time>
      </trkpt>
      <trkpt lat="43.263166" lon="-5.783354">
        <ele>264.0</ele>
        <time>2012-06-15T09:21:10Z</time>
      </trkpt>
      <trkpt lat="43.263171" lon="-5.782997">
        <ele>264.0</ele>
        <time>2012-06-15T09:21:14Z</time>
      </trkpt>
      <trkpt lat="43.26319" lon="-5.782643">
        <ele>265.0</ele>
        <time>2012-06-15T09:21:18Z</time>
      </trkpt>
      <trkpt lat="43.263197" lon="-5.782297">
        <ele>265.0</ele>
        <time>2012-06-15T09:21:22Z</time>
      </trkpt>
      <trkpt lat="43.263204" lon="-5.781949">
        <ele>265.0</ele>
        <time>2012-06-15T09:21:26Z</time>
      </trkpt>
      <trkpt lat="43.263198" lon="-5.781694">
        <ele>265.0</ele>
        <time>2012-06-15T09:21:29Z</time>
      </trkpt>
      <trkpt lat="43.263066" lon="-5.781302">
        <ele>265.0</ele>
        <time>2012-06-15T09:21:34Z</time>
      </trkpt>
      <trkpt lat="43.262854" lon="-5.781107">
        <ele>265.0</ele>
        <time>2012-06-15T09:21:38Z</time>
      </trkpt>
      <trkpt lat="43.26274" lon="-5.780865">
        <ele>264.0</ele>
        <time>2012-06-15T09:21:42Z</time>
      </trkpt>
      <trkpt lat="43.262753" lon="-5.780563">
        <ele>265.0</ele>
        <time>2012-06-15T09:21:46Z</time>
      </trkpt>
      <trkpt lat="43.262911" lon="-5.780376">
        <ele>265.0</ele>
        <time>2012-06-15T09:21:50Z</time>
      </trkpt>
      <trkpt lat="43.263201" lon="-5.780397">
        <ele>265.0</ele>
        <time>2012-06-15T09:21:54Z</time>
      </trkpt>
      <trkpt lat="43.2635" lon="-5.780482">
        <ele>265.0</ele>
        <time>2012-06-15T09:21:58Z</time>
      </trkpt>
      <trkpt lat="43.263723" lon="-5.780455">
        <ele>265.0</ele>
        <time>2012-06-15T09:22:02Z</time>
      </trkpt>
      <trkpt lat="43.26392" lon="-5.780361">
        <ele>265.0</ele>
        <time>2012-06-15T09:22:06Z</time>
      </trkpt>
      <trkpt lat="43.264105" lon="-5.780229">
        <ele>266.0</ele>
        <time>2012-06-15T09:22:10Z</time>
      </trkpt>
      <trkpt lat="43.26431" lon="-5.78014">
        <ele>266.0</ele>
        <time>2012-06-15T09:22:14Z</time>
      </trkpt>
      <trkpt lat="43.264403" lon="-5.780083">
        <ele>266.0</ele>
        <time>2012-06-15T09:22:16Z</time>
      </trkpt>
      <trkpt lat="43.264619" lon="-5.779756">
        <ele>266.0</ele>
        <time>2012-06-15T09:22:22Z</time>
      </trkpt>
      <trkpt lat="43.264771" lon="-5.779536">
        <ele>266.0</ele>
        <time>2012-06-15T09:22:26Z</time>
      </trkpt>
      <trkpt lat="43.264934" lon="-5.779338">
        <ele>266.0</ele>
        <time>2012-06-15T09:22:30Z</time>
      </trkpt>
      <trkpt lat="43.265095" lon="-5.779149">
        <ele>266.0</ele>
        <time>2012-06-15T09:22:34Z</time>
      </trkpt>
      <trkpt lat="43.265417" lon="-5.778784">
        <ele>266.0</ele>
        <time>2012-06-15T09:22:42Z</time>
      </trkpt>
      <trkpt lat="43.26558" lon="-5.778619">
        <ele>266.0</ele>
        <time>2012-06-15T09:22:46Z</time>
      </trkpt>
      <trkpt lat="43.265755" lon="-5.778488">
        <ele>265.0</ele>
        <time>2012-06-15T09:22:50Z</time>
      </trkpt>
      <trkpt lat="43.265946" lon="-5.778417">
        <ele>265.0</ele>
        <time>2012-06-15T09:22:54Z</time>
      </trkpt>
      <trkpt lat="43.266137" lon="-5.778408">
        <ele>266.0</ele>
        <time>2012-06-15T09:22:58Z</time>
      </trkpt>
      <trkpt lat="43.266284" lon="-5.77841">
        <ele>267.0</ele>
        <time>2012-06-15T09:23:02Z</time>
      </trkpt>
      <trkpt lat="43.266418" lon="-5.778422">
        <ele>267.0</ele>
        <time>2012-06-15T09:23:06Z</time>
      </trkpt>
      <trkpt lat="43.266561" lon="-5.778419">
        <ele>267.0</ele>
        <time>2012-06-15T09:23:10Z</time>
      </trkpt>
      <trkpt lat="43.2667" lon="-5.778354">
        <ele>267.0</ele>
        <time>2012-06-15T09:23:14Z</time>
      </trkpt>
      <trkpt lat="43.266916" lon="-5.778217">
        <ele>268.0</ele>
        <time>2012-06-15T09:23:20Z</time>
      </trkpt>
      <trkpt lat="43.267137" lon="-5.778091">
        <ele>268.0</ele>
        <time>2012-06-15T09:23:26Z</time>
      </trkpt>
      <trkpt lat="43.267286" lon="-5.778008">
        <ele>269.0</ele>
        <time>2012-06-15T09:23:30Z</time>
      </trkpt>
      <trkpt lat="43.267429" lon="-5.777909">
        <ele>269.0</ele>
        <time>2012-06-15T09:23:34Z</time>
      </trkpt>
      <trkpt lat="43.267573" lon="-5.777806">
        <ele>269.0</ele>
        <time>2012-06-15T09:23:38Z</time>
      </trkpt>
      <trkpt lat="43.267858" lon="-5.777596">
        <ele>270.0</ele>
        <time>2012-06-15T09:23:46Z</time>
      </trkpt>
      <trkpt lat="43.267987" lon="-5.77747">
        <ele>270.0</ele>
        <time>2012-06-15T09:23:50Z</time>
      </trkpt>
      <trkpt lat="43.268116" lon="-5.777341">
        <ele>270.0</ele>
        <time>2012-06-15T09:23:54Z</time>
      </trkpt>
      <trkpt lat="43.268258" lon="-5.777239">
        <ele>271.0</ele>
        <time>2012-06-15T09:23:58Z</time>
      </trkpt>
      <trkpt lat="43.268415" lon="-5.777152">
        <ele>271.0</ele>
        <time>2012-06-15T09:24:02Z</time>
      </trkpt>
      <trkpt lat="43.26858" lon="-5.777069">
        <ele>272.0</ele>
        <time>2012-06-15T09:24:06Z</time>
      </trkpt>
      <trkpt lat="43.268753" lon="-5.777">
        <ele>273.0</ele>
        <time>2012-06-15T09:24:10Z</time>
      </trkpt>
      <trkpt lat="43.268842" lon="-5.776974">
        <ele>273.0</ele>
        <time>2012-06-15T09:24:12Z</time>
      </trkpt>
      <trkpt lat="43.269077" lon="-5.77689">
        <ele>273.0</ele>
        <time>2012-06-15T09:24:18Z</time>
      </trkpt>
      <trkpt lat="43.269141" lon="-5.776857">
        <ele>273.0</ele>
        <time>2012-06-15T09:24:20Z</time>
      </trkpt>
      <trkpt lat="43.269284" lon="-5.776781">
        <ele>273.0</ele>
        <time>2012-06-15T09:24:25Z</time>
      </trkpt>
      <trkpt lat="43.269403" lon="-5.776701">
        <ele>273.0</ele>
        <time>2012-06-15T09:24:29Z</time>
      </trkpt>
      <trkpt lat="43.269519" lon="-5.776623">
        <ele>273.0</ele>
        <time>2012-06-15T09:24:33Z</time>
      </trkpt>
      <trkpt lat="43.269652" lon="-5.776552">
        <ele>273.0</ele>
        <time>2012-06-15T09:24:37Z</time>
      </trkpt>
      <trkpt lat="43.269806" lon="-5.776497">
        <ele>274.0</ele>
        <time>2012-06-15T09:24:41Z</time>
      </trkpt>
      <trkpt lat="43.269946" lon="-5.776438">
        <ele>274.0</ele>
        <time>2012-06-15T09:24:45Z</time>
      </trkpt>
      <trkpt lat="43.270088" lon="-5.776375">
        <ele>274.0</ele>
        <time>2012-06-15T09:24:49Z</time>
      </trkpt>
      <trkpt lat="43.270237" lon="-5.776311">
        <ele>274.0</ele>
        <time>2012-06-15T09:24:53Z</time>
      </trkpt>
      <trkpt lat="43.270372" lon="-5.776228">
        <ele>274.0</ele>
        <time>2012-06-15T09:24:57Z</time>
      </trkpt>
      <trkpt lat="43.270473" lon="-5.776103">
        <ele>274.0</ele>
        <time>2012-06-15T09:25:01Z</time>
      </trkpt>
      <trkpt lat="43.27059" lon="-5.77601">
        <ele>274.0</ele>
        <time>2012-06-15T09:25:05Z</time>
      </trkpt>
      <trkpt lat="43.270666" lon="-5.775984">
        <ele>274.0</ele>
        <time>2012-06-15T09:25:07Z</time>
      </trkpt>
      <trkpt lat="43.270932" lon="-5.775899">
        <ele>277.0</ele>
        <time>2012-06-15T09:25:13Z</time>
      </trkpt>
      <trkpt lat="43.271138" lon="-5.775818">
        <ele>277.0</ele>
        <time>2012-06-15T09:25:17Z</time>
      </trkpt>
      <trkpt lat="43.271343" lon="-5.775717">
        <ele>278.0</ele>
        <time>2012-06-15T09:25:21Z</time>
      </trkpt>
      <trkpt lat="43.271535" lon="-5.775607">
        <ele>279.0</ele>
        <time>2012-06-15T09:25:25Z</time>
      </trkpt>
      <trkpt lat="43.271703" lon="-5.775464">
        <ele>280.0</ele>
        <time>2012-06-15T09:25:29Z</time>
      </trkpt>
      <trkpt lat="43.27184" lon="-5.775285">
        <ele>280.0</ele>
        <time>2012-06-15T09:25:33Z</time>
      </trkpt>
      <trkpt lat="43.271968" lon="-5.77511">
        <ele>280.0</ele>
        <time>2012-06-15T09:25:37Z</time>
      </trkpt>
      <trkpt lat="43.272108" lon="-5.774963">
        <ele>280.0</ele>
        <time>2012-06-15T09:25:41Z</time>
      </trkpt>
      <trkpt lat="43.272252" lon="-5.774836">
        <ele>279.0</ele>
        <time>2012-06-15T09:25:45Z</time>
      </trkpt>
      <trkpt lat="43.272398" lon="-5.774725">
        <ele>279.0</ele>
        <time>2012-06-15T09:25:49Z</time>
      </trkpt>
      <trkpt lat="43.272605" lon="-5.774541">
        <ele>278.0</ele>
        <time>2012-06-15T09:25:55Z</time>
      </trkpt>
      <trkpt lat="43.272672" lon="-5.774479">
        <ele>278.0</ele>
        <time>2012-06-15T09:25:57Z</time>
      </trkpt>
      <trkpt lat="43.272824" lon="-5.774367">
        <ele>278.0</ele>
        <time>2012-06-15T09:26:01Z</time>
      </trkpt>
      <trkpt lat="43.273007" lon="-5.774312">
        <ele>279.0</ele>
        <time>2012-06-15T09:26:05Z</time>
      </trkpt>
      <trkpt lat="43.2732" lon="-5.774258">
        <ele>282.0</ele>
        <time>2012-06-15T09:26:09Z</time>
      </trkpt>
      <trkpt lat="43.273408" lon="-5.774181">
        <ele>284.0</ele>
        <time>2012-06-15T09:26:13Z</time>
      </trkpt>
      <trkpt lat="43.27363" lon="-5.774049">
        <ele>285.0</ele>
        <time>2012-06-15T09:26:17Z</time>
      </trkpt>
      <trkpt lat="43.273725" lon="-5.773963">
        <ele>286.0</ele>
        <time>2012-06-15T09:26:19Z</time>
      </trkpt>
      <trkpt lat="43.273989" lon="-5.773703">
        <ele>289.0</ele>
        <time>2012-06-15T09:26:25Z</time>
      </trkpt>
      <trkpt lat="43.274159" lon="-5.773562">
        <ele>290.0</ele>
        <time>2012-06-15T09:26:29Z</time>
      </trkpt>
      <trkpt lat="43.274323" lon="-5.773417">
        <ele>290.0</ele>
        <time>2012-06-15T09:26:33Z</time>
      </trkpt>
      <trkpt lat="43.274488" lon="-5.773274">
        <ele>290.0</ele>
        <time>2012-06-15T09:26:37Z</time>
      </trkpt>
      <trkpt lat="43.274657" lon="-5.773136">
        <ele>290.0</ele>
        <time>2012-06-15T09:26:41Z</time>
      </trkpt>
      <trkpt lat="43.27497" lon="-5.772885">
        <ele>286.0</ele>
        <time>2012-06-15T09:26:49Z</time>
      </trkpt>
      <trkpt lat="43.275111" lon="-5.772836">
        <ele>285.0</ele>
        <time>2012-06-15T09:26:53Z</time>
      </trkpt>
      <trkpt lat="43.275197" lon="-5.772806">
        <ele>285.0</ele>
        <time>2012-06-15T09:26:56Z</time>
      </trkpt>
      <trkpt lat="43.275323" lon="-5.772664">
        <ele>286.0</ele>
        <time>2012-06-15T09:27:02Z</time>
      </trkpt>
      <trkpt lat="43.275434" lon="-5.772476">
        <ele>287.0</ele>
        <time>2012-06-15T09:27:06Z</time>
      </trkpt>
      <trkpt lat="43.275517" lon="-5.77232">
        <ele>289.0</ele>
        <time>2012-06-15T09:27:10Z</time>
      </trkpt>
      <trkpt lat="43.275577" lon="-5.772262">
        <ele>289.0</ele>
        <time>2012-06-15T09:27:12Z</time>
      </trkpt>
      <trkpt lat="43.27578" lon="-5.771996">
        <ele>290.0</ele>
        <time>2012-06-15T09:27:18Z</time>
      </trkpt>
      <trkpt lat="43.275923" lon="-5.771833">
        <ele>291.0</ele>
        <time>2012-06-15T09:27:22Z</time>
      </trkpt>
      <trkpt lat="43.275993" lon="-5.771755">
        <ele>292.0</ele>
        <time>2012-06-15T09:27:24Z</time>
      </trkpt>
      <trkpt lat="43.27613" lon="-5.771595">
        <ele>292.0</ele>
        <time>2012-06-15T09:27:28Z</time>
      </trkpt>
      <trkpt lat="43.27634" lon="-5.771387">
        <ele>292.0</ele>
        <time>2012-06-15T09:27:34Z</time>
      </trkpt>
      <trkpt lat="43.276398" lon="-5.771291">
        <ele>292.0</ele>
        <time>2012-06-15T09:27:36Z</time>
      </trkpt>
      <trkpt lat="43.276586" lon="-5.771027">
        <ele>292.0</ele>
        <time>2012-06-15T09:27:42Z</time>
      </trkpt>
      <trkpt lat="43.276725" lon="-5.770859">
        <ele>293.0</ele>
        <time>2012-06-15T09:27:46Z</time>
      </trkpt>
      <trkpt lat="43.276805" lon="-5.770793">
        <ele>293.0</ele>
        <time>2012-06-15T09:27:48Z</time>
      </trkpt>
      <trkpt lat="43.277057" lon="-5.770615">
        <ele>294.0</ele>
        <time>2012-06-15T09:27:54Z</time>
      </trkpt>
      <trkpt lat="43.277194" lon="-5.770439">
        <ele>295.0</ele>
        <time>2012-06-15T09:27:58Z</time>
      </trkpt>
      <trkpt lat="43.277337" lon="-5.770296">
        <ele>296.0</ele>
        <time>2012-06-15T09:28:02Z</time>
      </trkpt>
      <trkpt lat="43.277478" lon="-5.770152">
        <ele>297.0</ele>
        <time>2012-06-15T09:28:06Z</time>
      </trkpt>
      <trkpt lat="43.27761" lon="-5.769984">
        <ele>299.0</ele>
        <time>2012-06-15T09:28:10Z</time>
      </trkpt>
      <trkpt lat="43.277744" lon="-5.769827">
        <ele>300.0</ele>
        <time>2012-06-15T09:28:14Z</time>
      </trkpt>
      <trkpt lat="43.277883" lon="-5.769685">
        <ele>301.0</ele>
        <time>2012-06-15T09:28:18Z</time>
      </trkpt>
      <trkpt lat="43.278021" lon="-5.769546">
        <ele>301.0</ele>
        <time>2012-06-15T09:28:22Z</time>
      </trkpt>
      <trkpt lat="43.278157" lon="-5.769409">
        <ele>302.0</ele>
        <time>2012-06-15T09:28:26Z</time>
      </trkpt>
      <trkpt lat="43.27829" lon="-5.769275">
        <ele>302.0</ele>
        <time>2012-06-15T09:28:30Z</time>
      </trkpt>
      <trkpt lat="43.278421" lon="-5.769136">
        <ele>302.0</ele>
        <time>2012-06-15T09:28:34Z</time>
      </trkpt>
      <trkpt lat="43.278554" lon="-5.768998">
        <ele>302.0</ele>
        <time>2012-06-15T09:28:38Z</time>
      </trkpt>
      <trkpt lat="43.278691" lon="-5.768861">
        <ele>302.0</ele>
        <time>2012-06-15T09:28:42Z</time>
      </trkpt>
      <trkpt lat="43.278759" lon="-5.768793">
        <ele>302.0</ele>
        <time>2012-06-15T09:28:44Z</time>
      </trkpt>
      <trkpt lat="43.278759" lon="-5.768793">
        <time>2012-06-15T09:28:55Z</time>
      </trkpt>
    </trkseg>
    <trkseg>
      <trkpt lat="43.278759" lon="-5.768793">
        <time>2012-06-15T09:29:01Z</time>
      </trkpt>
      <trkpt lat="43.279232" lon="-5.767501">
        <ele>315.0</ele>
        <time>2012-06-15T09:29:04Z</time>
      </trkpt>
      <trkpt lat="43.279352" lon="-5.767307">
        <ele>327.0</ele>
        <time>2012-06-15T09:29:08Z</time>
      </trkpt>
      <trkpt lat="43.279422" lon="-5.767188">
        <ele>328.0</ele>
        <time>2012-06-15T09:29:10Z</time>
      </trkpt>
      <trkpt lat="43.279624" lon="-5.766898">
        <ele>327.0</ele>
        <time>2012-06-15T09:29:16Z</time>
      </trkpt>
      <trkpt lat="43.279762" lon="-5.766746">
        <ele>328.0</ele>
        <time>2012-06-15T09:29:20Z</time>
      </trkpt>
      <trkpt lat="43.27991" lon="-5.766625">
        <ele>329.0</ele>
        <time>2012-06-15T09:29:24Z</time>
      </trkpt>
      <trkpt lat="43.279982" lon="-5.766575">
        <ele>329.0</ele>
        <time>2012-06-15T09:29:26Z</time>
      </trkpt>
      <trkpt lat="43.280327" lon="-5.766233">
        <ele>329.0</ele>
        <time>2012-06-15T09:29:36Z</time>
      </trkpt>
      <trkpt lat="43.280504" lon="-5.766214">
        <ele>327.0</ele>
        <time>2012-06-15T09:29:40Z</time>
      </trkpt>
      <trkpt lat="43.28065" lon="-5.76617">
        <ele>326.0</ele>
        <time>2012-06-15T09:29:44Z</time>
      </trkpt>
      <trkpt lat="43.280789" lon="-5.766148">
        <ele>326.0</ele>
        <time>2012-06-15T09:29:48Z</time>
      </trkpt>
      <trkpt lat="43.280924" lon="-5.766112">
        <ele>325.0</ele>
        <time>2012-06-15T09:29:52Z</time>
      </trkpt>
      <trkpt lat="43.281062" lon="-5.76603">
        <ele>325.0</ele>
        <time>2012-06-15T09:29:56Z</time>
      </trkpt>
      <trkpt lat="43.2812" lon="-5.765947">
        <ele>325.0</ele>
        <time>2012-06-15T09:30:00Z</time>
      </trkpt>
      <trkpt lat="43.281468" lon="-5.766055">
        <ele>325.0</ele>
        <time>2012-06-15T09:30:08Z</time>
      </trkpt>
      <trkpt lat="43.28159" lon="-5.766169">
        <ele>324.0</ele>
        <time>2012-06-15T09:30:11Z</time>
      </trkpt>
      <trkpt lat="43.281853" lon="-5.766018">
        <ele>326.0</ele>
        <time>2012-06-15T09:30:16Z</time>
      </trkpt>
      <trkpt lat="43.282041" lon="-5.765673">
        <ele>330.0</ele>
        <time>2012-06-15T09:30:20Z</time>
      </trkpt>
      <trkpt lat="43.28216" lon="-5.765432">
        <ele>334.0</ele>
        <time>2012-06-15T09:30:23Z</time>
      </trkpt>
      <trkpt lat="43.282307" lon="-5.765215">
        <ele>337.0</ele>
        <time>2012-06-15T09:30:27Z</time>
      </trkpt>
      <trkpt lat="43.282446" lon="-5.765059">
        <ele>337.0</ele>
        <time>2012-06-15T09:30:31Z</time>
      </trkpt>
      <trkpt lat="43.282562" lon="-5.764867">
        <ele>337.0</ele>
        <time>2012-06-15T09:30:35Z</time>
      </trkpt>
      <trkpt lat="43.282667" lon="-5.764673">
        <ele>338.0</ele>
        <time>2012-06-15T09:30:39Z</time>
      </trkpt>
      <trkpt lat="43.28274" lon="-5.764435">
        <ele>337.0</ele>
        <time>2012-06-15T09:30:43Z</time>
      </trkpt>
      <trkpt lat="43.282792" lon="-5.764141">
        <ele>336.0</ele>
        <time>2012-06-15T09:30:47Z</time>
      </trkpt>
      <trkpt lat="43.282864" lon="-5.763877">
        <ele>335.0</ele>
        <time>2012-06-15T09:30:51Z</time>
      </trkpt>
      <trkpt lat="43.282946" lon="-5.763667">
        <ele>335.0</ele>
        <time>2012-06-15T09:30:55Z</time>
      </trkpt>
      <trkpt lat="43.283055" lon="-5.763529">
        <ele>336.0</ele>
        <time>2012-06-15T09:30:59Z</time>
      </trkpt>
      <trkpt lat="43.283151" lon="-5.763363">
        <ele>338.0</ele>
        <time>2012-06-15T09:31:03Z</time>
      </trkpt>
      <trkpt lat="43.283292" lon="-5.763204">
        <ele>340.0</ele>
        <time>2012-06-15T09:31:07Z</time>
      </trkpt>
      <trkpt lat="43.283401" lon="-5.762962">
        <ele>341.0</ele>
        <time>2012-06-15T09:31:11Z</time>
      </trkpt>
      <trkpt lat="43.283489" lon="-5.762704">
        <ele>341.0</ele>
        <time>2012-06-15T09:31:15Z</time>
      </trkpt>
      <trkpt lat="43.283689" lon="-5.762392">
        <ele>342.0</ele>
        <time>2012-06-15T09:31:21Z</time>
      </trkpt>
      <trkpt lat="43.283968" lon="-5.762242">
        <ele>343.0</ele>
        <time>2012-06-15T09:31:27Z</time>
      </trkpt>
      <trkpt lat="43.284153" lon="-5.762125">
        <ele>343.0</ele>
        <time>2012-06-15T09:31:31Z</time>
      </trkpt>
      <trkpt lat="43.284342" lon="-5.762024">
        <ele>343.0</ele>
        <time>2012-06-15T09:31:35Z</time>
      </trkpt>
      <trkpt lat="43.284538" lon="-5.761948">
        <ele>343.0</ele>
        <time>2012-06-15T09:31:39Z</time>
      </trkpt>
      <trkpt lat="43.284804" lon="-5.762125">
        <ele>343.0</ele>
        <time>2012-06-15T09:31:44Z</time>
      </trkpt>
      <trkpt lat="43.284949" lon="-5.762314">
        <ele>343.0</ele>
        <time>2012-06-15T09:31:47Z</time>
      </trkpt>
      <trkpt lat="43.285131" lon="-5.762534">
        <ele>342.0</ele>
        <time>2012-06-15T09:31:51Z</time>
      </trkpt>
      <trkpt lat="43.285295" lon="-5.762797">
        <ele>342.0</ele>
        <time>2012-06-15T09:31:55Z</time>
      </trkpt>
      <trkpt lat="43.285466" lon="-5.763044">
        <ele>341.0</ele>
        <time>2012-06-15T09:31:59Z</time>
      </trkpt>
      <trkpt lat="43.285558" lon="-5.763101">
        <ele>341.0</ele>
        <time>2012-06-15T09:32:01Z</time>
      </trkpt>
      <trkpt lat="43.285839" lon="-5.762966">
        <ele>342.0</ele>
        <time>2012-06-15T09:32:07Z</time>
      </trkpt>
      <trkpt lat="43.286006" lon="-5.762752">
        <ele>344.0</ele>
        <time>2012-06-15T09:32:11Z</time>
      </trkpt>
      <trkpt lat="43.286149" lon="-5.762475">
        <ele>346.0</ele>
        <time>2012-06-15T09:32:15Z</time>
      </trkpt>
      <trkpt lat="43.286208" lon="-5.762194">
        <ele>347.0</ele>
        <time>2012-06-15T09:32:19Z</time>
      </trkpt>
      <trkpt lat="43.286212" lon="-5.761917">
        <ele>348.0</ele>
        <time>2012-06-15T09:32:23Z</time>
      </trkpt>
      <trkpt lat="43.286202" lon="-5.761655">
        <ele>348.0</ele>
        <time>2012-06-15T09:32:27Z</time>
      </trkpt>
      <trkpt lat="43.286189" lon="-5.761525">
        <ele>349.0</ele>
        <time>2012-06-15T09:32:29Z</time>
      </trkpt>
      <trkpt lat="43.286049" lon="-5.761126">
        <ele>350.0</ele>
        <time>2012-06-15T09:32:35Z</time>
      </trkpt>
      <trkpt lat="43.285905" lon="-5.760886">
        <ele>350.0</ele>
        <time>2012-06-15T09:32:39Z</time>
      </trkpt>
      <trkpt lat="43.28567" lon="-5.760623">
        <ele>350.0</ele>
        <time>2012-06-15T09:32:44Z</time>
      </trkpt>
      <trkpt lat="43.28567" lon="-5.760495">
        <ele>352.0</ele>
        <time>2012-06-15T09:32:47Z</time>
      </trkpt>
      <trkpt lat="43.285785" lon="-5.760317">
        <ele>356.0</ele>
        <time>2012-06-15T09:32:52Z</time>
      </trkpt>
      <trkpt lat="43.285903" lon="-5.760163">
        <ele>357.0</ele>
        <time>2012-06-15T09:32:56Z</time>
      </trkpt>
      <trkpt lat="43.285968" lon="-5.760088">
        <ele>357.0</ele>
        <time>2012-06-15T09:32:58Z</time>
      </trkpt>
      <trkpt lat="43.286209" lon="-5.759989">
        <ele>358.0</ele>
        <time>2012-06-15T09:33:04Z</time>
      </trkpt>
      <trkpt lat="43.286354" lon="-5.759907">
        <ele>357.0</ele>
        <time>2012-06-15T09:33:08Z</time>
      </trkpt>
      <trkpt lat="43.286503" lon="-5.75983">
        <ele>357.0</ele>
        <time>2012-06-15T09:33:12Z</time>
      </trkpt>
      <trkpt lat="43.286658" lon="-5.759769">
        <ele>356.0</ele>
        <time>2012-06-15T09:33:16Z</time>
      </trkpt>
      <trkpt lat="43.286816" lon="-5.759731">
        <ele>356.0</ele>
        <time>2012-06-15T09:33:20Z</time>
      </trkpt>
      <trkpt lat="43.286972" lon="-5.759681">
        <ele>357.0</ele>
        <time>2012-06-15T09:33:24Z</time>
      </trkpt>
      <trkpt lat="43.287117" lon="-5.759583">
        <ele>357.0</ele>
        <time>2012-06-15T09:33:28Z</time>
      </trkpt>
      <trkpt lat="43.287269" lon="-5.759476">
        <ele>357.0</ele>
        <time>2012-06-15T09:33:32Z</time>
      </trkpt>
      <trkpt lat="43.28735" lon="-5.759416">
        <ele>357.0</ele>
        <time>2012-06-15T09:33:34Z</time>
      </trkpt>
      <trkpt lat="43.287551" lon="-5.759163">
        <ele>358.0</ele>
        <time>2012-06-15T09:33:40Z</time>
      </trkpt>
      <trkpt lat="43.287642" lon="-5.758946">
        <ele>359.0</ele>
        <time>2012-06-15T09:33:44Z</time>
      </trkpt>
      <trkpt lat="43.287718" lon="-5.758722">
        <ele>360.0</ele>
        <time>2012-06-15T09:33:48Z</time>
      </trkpt>
      <trkpt lat="43.28778" lon="-5.758495">
        <ele>361.0</ele>
        <time>2012-06-15T09:33:52Z</time>
      </trkpt>
      <trkpt lat="43.287832" lon="-5.758279">
        <ele>363.0</ele>
        <time>2012-06-15T09:33:56Z</time>
      </trkpt>
      <trkpt lat="43.287865" lon="-5.758054">
        <ele>365.0</ele>
        <time>2012-06-15T09:34:00Z</time>
      </trkpt>
      <trkpt lat="43.287887" lon="-5.757828">
        <ele>367.0</ele>
        <time>2012-06-15T09:34:04Z</time>
      </trkpt>
      <trkpt lat="43.287855" lon="-5.757599">
        <ele>372.0</ele>
        <time>2012-06-15T09:34:08Z</time>
      </trkpt>
      <trkpt lat="43.287681" lon="-5.757413">
        <ele>384.0</ele>
        <time>2012-06-15T09:34:12Z</time>
      </trkpt>
      <trkpt lat="43.287497" lon="-5.757105">
        <ele>392.0</ele>
        <time>2012-06-15T09:34:16Z</time>
      </trkpt>
      <trkpt lat="43.28757" lon="-5.756772">
        <ele>396.0</ele>
        <time>2012-06-15T09:34:20Z</time>
      </trkpt>
      <trkpt lat="43.287652" lon="-5.756487">
        <ele>398.0</ele>
        <time>2012-06-15T09:34:24Z</time>
      </trkpt>
      <trkpt lat="43.287718" lon="-5.756225">
        <ele>399.0</ele>
        <time>2012-06-15T09:34:28Z</time>
      </trkpt>
      <trkpt lat="43.287771" lon="-5.75597">
        <ele>400.0</ele>
        <time>2012-06-15T09:34:32Z</time>
      </trkpt>
      <trkpt lat="43.287833" lon="-5.755726">
        <ele>402.0</ele>
        <time>2012-06-15T09:34:36Z</time>
      </trkpt>
      <trkpt lat="43.287901" lon="-5.755492">
        <ele>403.0</ele>
        <time>2012-06-15T09:34:40Z</time>
      </trkpt>
      <trkpt lat="43.287937" lon="-5.755375">
        <ele>403.0</ele>
        <time>2012-06-15T09:34:42Z</time>
      </trkpt>
      <trkpt lat="43.288039" lon="-5.755037">
        <ele>405.0</ele>
        <time>2012-06-15T09:34:48Z</time>
      </trkpt>
      <trkpt lat="43.288106" lon="-5.754826">
        <ele>406.0</ele>
        <time>2012-06-15T09:34:52Z</time>
      </trkpt>
      <trkpt lat="43.288194" lon="-5.754635">
        <ele>406.0</ele>
        <time>2012-06-15T09:34:56Z</time>
      </trkpt>
      <trkpt lat="43.288309" lon="-5.754481">
        <ele>406.0</ele>
        <time>2012-06-15T09:35:00Z</time>
      </trkpt>
      <trkpt lat="43.288414" lon="-5.754297">
        <ele>407.0</ele>
        <time>2012-06-15T09:35:04Z</time>
      </trkpt>
      <trkpt lat="43.288504" lon="-5.75406">
        <ele>407.0</ele>
        <time>2012-06-15T09:35:08Z</time>
      </trkpt>
      <trkpt lat="43.288624" lon="-5.753842">
        <ele>409.0</ele>
        <time>2012-06-15T09:35:12Z</time>
      </trkpt>
      <trkpt lat="43.288805" lon="-5.753727">
        <ele>411.0</ele>
        <time>2012-06-15T09:35:16Z</time>
      </trkpt>
      <trkpt lat="43.288996" lon="-5.753645">
        <ele>414.0</ele>
        <time>2012-06-15T09:35:20Z</time>
      </trkpt>
      <trkpt lat="43.289164" lon="-5.753468">
        <ele>416.0</ele>
        <time>2012-06-15T09:35:24Z</time>
      </trkpt>
      <trkpt lat="43.289308" lon="-5.753245">
        <ele>417.0</ele>
        <time>2012-06-15T09:35:28Z</time>
      </trkpt>
      <trkpt lat="43.289565" lon="-5.752829">
        <ele>417.0</ele>
        <time>2012-06-15T09:35:36Z</time>
      </trkpt>
      <trkpt lat="43.289695" lon="-5.752655">
        <ele>417.0</ele>
        <time>2012-06-15T09:35:40Z</time>
      </trkpt>
      <trkpt lat="43.289959" lon="-5.75232">
        <ele>417.0</ele>
        <time>2012-06-15T09:35:48Z</time>
      </trkpt>
      <trkpt lat="43.290143" lon="-5.75207">
        <ele>418.0</ele>
        <time>2012-06-15T09:35:54Z</time>
      </trkpt>
      <trkpt lat="43.290251" lon="-5.751752">
        <ele>419.0</ele>
        <time>2012-06-15T09:36:00Z</time>
      </trkpt>
      <trkpt lat="43.290307" lon="-5.751535">
        <ele>420.0</ele>
        <time>2012-06-15T09:36:04Z</time>
      </trkpt>
      <trkpt lat="43.290384" lon="-5.751328">
        <ele>421.0</ele>
        <time>2012-06-15T09:36:08Z</time>
      </trkpt>
      <trkpt lat="43.290523" lon="-5.751189">
        <ele>422.0</ele>
        <time>2012-06-15T09:36:12Z</time>
      </trkpt>
      <trkpt lat="43.290731" lon="-5.751176">
        <ele>423.0</ele>
        <time>2012-06-15T09:36:16Z</time>
      </trkpt>
      <trkpt lat="43.2909" lon="-5.751111">
        <ele>425.0</ele>
        <time>2012-06-15T09:36:20Z</time>
      </trkpt>
      <trkpt lat="43.291034" lon="-5.750953">
        <ele>426.0</ele>
        <time>2012-06-15T09:36:24Z</time>
      </trkpt>
      <trkpt lat="43.291175" lon="-5.750462">
        <ele>428.0</ele>
        <time>2012-06-15T09:36:32Z</time>
      </trkpt>
      <trkpt lat="43.291224" lon="-5.75019">
        <ele>429.0</ele>
        <time>2012-06-15T09:36:36Z</time>
      </trkpt>
      <trkpt lat="43.29126" lon="-5.74992">
        <ele>430.0</ele>
        <time>2012-06-15T09:36:40Z</time>
      </trkpt>
      <trkpt lat="43.291325" lon="-5.749664">
        <ele>431.0</ele>
        <time>2012-06-15T09:36:44Z</time>
      </trkpt>
      <trkpt lat="43.291416" lon="-5.74942">
        <ele>432.0</ele>
        <time>2012-06-15T09:36:48Z</time>
      </trkpt>
      <trkpt lat="43.291468" lon="-5.749303">
        <ele>432.0</ele>
        <time>2012-06-15T09:36:50Z</time>
      </trkpt>
      <trkpt lat="43.291649" lon="-5.748953">
        <ele>434.0</ele>
        <time>2012-06-15T09:36:56Z</time>
      </trkpt>
      <trkpt lat="43.291744" lon="-5.748876">
        <ele>435.0</ele>
        <time>2012-06-15T09:36:58Z</time>
      </trkpt>
      <trkpt lat="43.292082" lon="-5.748752">
        <ele>438.0</ele>
        <time>2012-06-15T09:37:04Z</time>
      </trkpt>
      <trkpt lat="43.292251" lon="-5.748549">
        <ele>439.0</ele>
        <time>2012-06-15T09:37:08Z</time>
      </trkpt>
      <trkpt lat="43.292538" lon="-5.748057">
        <ele>439.0</ele>
        <time>2012-06-15T09:37:16Z</time>
      </trkpt>
      <trkpt lat="43.292757" lon="-5.747937">
        <ele>440.0</ele>
        <time>2012-06-15T09:37:20Z</time>
      </trkpt>
      <trkpt lat="43.293228" lon="-5.747906">
        <ele>442.0</ele>
        <time>2012-06-15T09:37:28Z</time>
      </trkpt>
      <trkpt lat="43.293462" lon="-5.747926">
        <ele>443.0</ele>
        <time>2012-06-15T09:37:32Z</time>
      </trkpt>
      <trkpt lat="43.293914" lon="-5.747886">
        <ele>445.0</ele>
        <time>2012-06-15T09:37:40Z</time>
      </trkpt>
      <trkpt lat="43.29413" lon="-5.747746">
        <ele>445.0</ele>
        <time>2012-06-15T09:37:44Z</time>
      </trkpt>
      <trkpt lat="43.294333" lon="-5.747573">
        <ele>444.0</ele>
        <time>2012-06-15T09:37:48Z</time>
      </trkpt>
      <trkpt lat="43.29453" lon="-5.747377">
        <ele>445.0</ele>
        <time>2012-06-15T09:37:52Z</time>
      </trkpt>
      <trkpt lat="43.294825" lon="-5.747076">
        <ele>448.0</ele>
        <time>2012-06-15T09:37:58Z</time>
      </trkpt>
      <trkpt lat="43.295101" lon="-5.746762">
        <ele>450.0</ele>
        <time>2012-06-15T09:38:04Z</time>
      </trkpt>
      <trkpt lat="43.295224" lon="-5.746484">
        <ele>451.0</ele>
        <time>2012-06-15T09:38:08Z</time>
      </trkpt>
      <trkpt lat="43.295303" lon="-5.746175">
        <ele>451.0</ele>
        <time>2012-06-15T09:38:12Z</time>
      </trkpt>
      <trkpt lat="43.295308" lon="-5.745783">
        <ele>452.0</ele>
        <time>2012-06-15T09:38:16Z</time>
      </trkpt>
      <trkpt lat="43.295098" lon="-5.745435">
        <ele>452.0</ele>
        <time>2012-06-15T09:38:20Z</time>
      </trkpt>
      <trkpt lat="43.294811" lon="-5.745147">
        <ele>454.0</ele>
        <time>2012-06-15T09:38:24Z</time>
      </trkpt>
      <trkpt lat="43.29465" lon="-5.744874">
        <ele>455.0</ele>
        <time>2012-06-15T09:38:27Z</time>
      </trkpt>
      <trkpt lat="43.294406" lon="-5.744398">
        <ele>455.0</ele>
        <time>2012-06-15T09:38:32Z</time>
      </trkpt>
      <trkpt lat="43.294203" lon="-5.744027">
        <ele>455.0</ele>
        <time>2012-06-15T09:38:36Z</time>
      </trkpt>
      <trkpt lat="43.294296" lon="-5.743529">
        <ele>455.0</ele>
        <time>2012-06-15T09:38:40Z</time>
      </trkpt>
      <trkpt lat="43.294733" lon="-5.743189">
        <ele>455.0</ele>
        <time>2012-06-15T09:38:44Z</time>
      </trkpt>
      <trkpt lat="43.295526" lon="-5.743256">
        <ele>454.0</ele>
        <time>2012-06-15T09:38:48Z</time>
      </trkpt>
      <trkpt lat="43.296114" lon="-5.74327">
        <ele>455.0</ele>
        <time>2012-06-15T09:38:52Z</time>
      </trkpt>
      <trkpt lat="43.296582" lon="-5.743176">
        <ele>456.0</ele>
        <time>2012-06-15T09:38:56Z</time>
      </trkpt>
      <trkpt lat="43.296989" lon="-5.743006">
        <ele>457.0</ele>
        <time>2012-06-15T09:39:00Z</time>
      </trkpt>
      <trkpt lat="43.297367" lon="-5.742775">
        <ele>457.0</ele>
        <time>2012-06-15T09:39:04Z</time>
      </trkpt>
      <trkpt lat="43.29764" lon="-5.742376">
        <ele>458.0</ele>
        <time>2012-06-15T09:39:08Z</time>
      </trkpt>
      <trkpt lat="43.297805" lon="-5.741904">
        <ele>459.0</ele>
        <time>2012-06-15T09:39:12Z</time>
      </trkpt>
      <trkpt lat="43.297937" lon="-5.741413">
        <ele>459.0</ele>
        <time>2012-06-15T09:39:16Z</time>
      </trkpt>
      <trkpt lat="43.298163" lon="-5.740973">
        <ele>459.0</ele>
        <time>2012-06-15T09:39:20Z</time>
      </trkpt>
      <trkpt lat="43.29852" lon="-5.740816">
        <ele>460.0</ele>
        <time>2012-06-15T09:39:24Z</time>
      </trkpt>
      <trkpt lat="43.298803" lon="-5.740812">
        <ele>460.0</ele>
        <time>2012-06-15T09:39:27Z</time>
      </trkpt>
      <trkpt lat="43.299296" lon="-5.740782">
        <ele>461.0</ele>
        <time>2012-06-15T09:39:32Z</time>
      </trkpt>
      <trkpt lat="43.299527" lon="-5.740323">
        <ele>463.0</ele>
        <time>2012-06-15T09:39:36Z</time>
      </trkpt>
      <trkpt lat="43.299584" lon="-5.739742">
        <ele>464.0</ele>
        <time>2012-06-15T09:39:40Z</time>
      </trkpt>
      <trkpt lat="43.299631" lon="-5.739173">
        <ele>464.0</ele>
        <time>2012-06-15T09:39:44Z</time>
      </trkpt>
      <trkpt lat="43.299665" lon="-5.738602">
        <ele>463.0</ele>
        <time>2012-06-15T09:39:48Z</time>
      </trkpt>
      <trkpt lat="43.299731" lon="-5.738022">
        <ele>456.0</ele>
        <time>2012-06-15T09:39:52Z</time>
      </trkpt>
      <trkpt lat="43.299783" lon="-5.737436">
        <ele>451.0</ele>
        <time>2012-06-15T09:39:56Z</time>
      </trkpt>
      <trkpt lat="43.299789" lon="-5.736829">
        <ele>448.0</ele>
        <time>2012-06-15T09:40:00Z</time>
      </trkpt>
      <trkpt lat="43.299679" lon="-5.73618">
        <ele>445.0</ele>
        <time>2012-06-15T09:40:04Z</time>
      </trkpt>
      <trkpt lat="43.299637" lon="-5.735519">
        <ele>443.0</ele>
        <time>2012-06-15T09:40:08Z</time>
      </trkpt>
      <trkpt lat="43.299875" lon="-5.735033">
        <ele>443.0</ele>
        <time>2012-06-15T09:40:12Z</time>
      </trkpt>
      <trkpt lat="43.300347" lon="-5.735123">
        <ele>443.0</ele>
        <time>2012-06-15T09:40:16Z</time>
      </trkpt>
      <trkpt lat="43.300761" lon="-5.735169">
        <ele>443.0</ele>
        <time>2012-06-15T09:40:20Z</time>
      </trkpt>
      <trkpt lat="43.301008" lon="-5.734825">
        <ele>443.0</ele>
        <time>2012-06-15T09:40:24Z</time>
      </trkpt>
      <trkpt lat="43.301129" lon="-5.734328">
        <ele>443.0</ele>
        <time>2012-06-15T09:40:28Z</time>
      </trkpt>
      <trkpt lat="43.301261" lon="-5.733855">
        <ele>444.0</ele>
        <time>2012-06-15T09:40:32Z</time>
      </trkpt>
      <trkpt lat="43.301415" lon="-5.733404">
        <ele>444.0</ele>
        <time>2012-06-15T09:40:36Z</time>
      </trkpt>
      <trkpt lat="43.301492" lon="-5.733178">
        <ele>444.0</ele>
        <time>2012-06-15T09:40:38Z</time>
      </trkpt>
      <trkpt lat="43.299306" lon="-5.732049">
        <ele>434.0</ele>
        <time>2012-06-15T09:40:52Z</time>
      </trkpt>
      <trkpt lat="43.298861" lon="-5.73203">
        <ele>429.0</ele>
        <time>2012-06-15T09:40:56Z</time>
      </trkpt>
      <trkpt lat="43.298745" lon="-5.731617">
        <ele>428.0</ele>
        <time>2012-06-15T09:41:00Z</time>
      </trkpt>
      <trkpt lat="43.298799" lon="-5.731064">
        <ele>428.0</ele>
        <time>2012-06-15T09:41:04Z</time>
      </trkpt>
      <trkpt lat="43.298813" lon="-5.730537">
        <ele>427.0</ele>
        <time>2012-06-15T09:41:08Z</time>
      </trkpt>
      <trkpt lat="43.298718" lon="-5.730071">
        <ele>427.0</ele>
        <time>2012-06-15T09:41:12Z</time>
      </trkpt>
      <trkpt lat="43.298493" lon="-5.729645">
        <ele>427.0</ele>
        <time>2012-06-15T09:41:16Z</time>
      </trkpt>
      <trkpt lat="43.298125" lon="-5.729205">
        <ele>426.0</ele>
        <time>2012-06-15T09:41:20Z</time>
      </trkpt>
      <trkpt lat="43.298038" lon="-5.728676">
        <ele>429.0</ele>
        <time>2012-06-15T09:41:24Z</time>
      </trkpt>
      <trkpt lat="43.298133" lon="-5.728124">
        <ele>430.0</ele>
        <time>2012-06-15T09:41:28Z</time>
      </trkpt>
      <trkpt lat="43.298177" lon="-5.727528">
        <ele>430.0</ele>
        <time>2012-06-15T09:41:32Z</time>
      </trkpt>
      <trkpt lat="43.298275" lon="-5.726909">
        <ele>430.0</ele>
        <time>2012-06-15T09:41:36Z</time>
      </trkpt>
      <trkpt lat="43.2983" lon="-5.726754">
        <ele>430.0</ele>
        <time>2012-06-15T09:41:37Z</time>
      </trkpt>
      <trkpt lat="43.298261" lon="-5.725736">
        <ele>428.0</ele>
        <time>2012-06-15T09:41:44Z</time>
      </trkpt>
      <trkpt lat="43.298417" lon="-5.725255">
        <ele>427.0</ele>
        <time>2012-06-15T09:41:48Z</time>
      </trkpt>
      <trkpt lat="43.298549" lon="-5.724833">
        <ele>427.0</ele>
        <time>2012-06-15T09:41:52Z</time>
      </trkpt>
      <trkpt lat="43.298769" lon="-5.724637">
        <ele>428.0</ele>
        <time>2012-06-15T09:41:56Z</time>
      </trkpt>
      <trkpt lat="43.299179" lon="-5.72427">
        <ele>430.0</ele>
        <time>2012-06-15T09:42:00Z</time>
      </trkpt>
      <trkpt lat="43.299568" lon="-5.723921">
        <ele>432.0</ele>
        <time>2012-06-15T09:42:04Z</time>
      </trkpt>
      <trkpt lat="43.299702" lon="-5.723575">
        <ele>432.0</ele>
        <time>2012-06-15T09:42:08Z</time>
      </trkpt>
      <trkpt lat="43.299753" lon="-5.723224">
        <ele>432.0</ele>
        <time>2012-06-15T09:42:12Z</time>
      </trkpt>
      <trkpt lat="43.299746" lon="-5.722956">
        <ele>433.0</ele>
        <time>2012-06-15T09:42:15Z</time>
      </trkpt>
      <trkpt lat="43.29974" lon="-5.722713">
        <ele>434.0</ele>
        <time>2012-06-15T09:42:19Z</time>
      </trkpt>
      <trkpt lat="43.299677" lon="-5.722464">
        <ele>431.0</ele>
        <time>2012-06-15T09:42:23Z</time>
      </trkpt>
      <trkpt lat="43.299248" lon="-5.722111">
        <ele>427.0</ele>
        <time>2012-06-15T09:42:28Z</time>
      </trkpt>
      <trkpt lat="43.299031" lon="-5.721547">
        <ele>427.0</ele>
        <time>2012-06-15T09:42:32Z</time>
      </trkpt>
      <trkpt lat="43.298934" lon="-5.720954">
        <ele>427.0</ele>
        <time>2012-06-15T09:42:36Z</time>
      </trkpt>
      <trkpt lat="43.299091" lon="-5.720435">
        <ele>427.0</ele>
        <time>2012-06-15T09:42:40Z</time>
      </trkpt>
      <trkpt lat="43.299358" lon="-5.719898">
        <ele>426.0</ele>
        <time>2012-06-15T09:42:44Z</time>
      </trkpt>
      <trkpt lat="43.299633" lon="-5.719378">
        <ele>424.0</ele>
        <time>2012-06-15T09:42:48Z</time>
      </trkpt>
      <trkpt lat="43.299932" lon="-5.718869">
        <ele>424.0</ele>
        <time>2012-06-15T09:42:52Z</time>
      </trkpt>
      <trkpt lat="43.300201" lon="-5.718381">
        <ele>420.0</ele>
        <time>2012-06-15T09:42:56Z</time>
      </trkpt>
      <trkpt lat="43.300267" lon="-5.717791">
        <ele>416.0</ele>
        <time>2012-06-15T09:43:00Z</time>
      </trkpt>
      <trkpt lat="43.300365" lon="-5.717166">
        <ele>413.0</ele>
        <time>2012-06-15T09:43:04Z</time>
      </trkpt>
      <trkpt lat="43.300469" lon="-5.716529">
        <ele>412.0</ele>
        <time>2012-06-15T09:43:08Z</time>
      </trkpt>
      <trkpt lat="43.30056" lon="-5.715898">
        <ele>409.0</ele>
        <time>2012-06-15T09:43:12Z</time>
      </trkpt>
      <trkpt lat="43.300602" lon="-5.715257">
        <ele>406.0</ele>
        <time>2012-06-15T09:43:16Z</time>
      </trkpt>
      <trkpt lat="43.300561" lon="-5.714628">
        <ele>403.0</ele>
        <time>2012-06-15T09:43:20Z</time>
      </trkpt>
      <trkpt lat="43.300613" lon="-5.714087">
        <ele>401.0</ele>
        <time>2012-06-15T09:43:24Z</time>
      </trkpt>
      <trkpt lat="43.300662" lon="-5.713537">
        <ele>399.0</ele>
        <time>2012-06-15T09:43:28Z</time>
      </trkpt>
      <trkpt lat="43.300761" lon="-5.712989">
        <ele>399.0</ele>
        <time>2012-06-15T09:43:32Z</time>
      </trkpt>
      <trkpt lat="43.300837" lon="-5.712433">
        <ele>399.0</ele>
        <time>2012-06-15T09:43:36Z</time>
      </trkpt>
      <trkpt lat="43.300884" lon="-5.71185">
        <ele>398.0</ele>
        <time>2012-06-15T09:43:40Z</time>
      </trkpt>
      <trkpt lat="43.300979" lon="-5.71127">
        <ele>393.0</ele>
        <time>2012-06-15T09:43:44Z</time>
      </trkpt>
      <trkpt lat="43.300967" lon="-5.710708">
        <ele>387.0</ele>
        <time>2012-06-15T09:43:48Z</time>
      </trkpt>
      <trkpt lat="43.301092" lon="-5.71019">
        <ele>382.0</ele>
        <time>2012-06-15T09:43:52Z</time>
      </trkpt>
      <trkpt lat="43.30125" lon="-5.709794">
        <ele>374.0</ele>
        <time>2012-06-15T09:43:56Z</time>
      </trkpt>
      <trkpt lat="43.301404" lon="-5.709486">
        <ele>362.0</ele>
        <time>2012-06-15T09:44:00Z</time>
      </trkpt>
      <trkpt lat="43.301549" lon="-5.709159">
        <ele>350.0</ele>
        <time>2012-06-15T09:44:04Z</time>
      </trkpt>
      <trkpt lat="43.301688" lon="-5.708833">
        <ele>341.0</ele>
        <time>2012-06-15T09:44:08Z</time>
      </trkpt>
      <trkpt lat="43.301838" lon="-5.708503">
        <ele>334.0</ele>
        <time>2012-06-15T09:44:12Z</time>
      </trkpt>
      <trkpt lat="43.301976" lon="-5.708166">
        <ele>329.0</ele>
        <time>2012-06-15T09:44:16Z</time>
      </trkpt>
      <trkpt lat="43.302099" lon="-5.707833">
        <ele>327.0</ele>
        <time>2012-06-15T09:44:20Z</time>
      </trkpt>
      <trkpt lat="43.302221" lon="-5.707514">
        <ele>326.0</ele>
        <time>2012-06-15T09:44:24Z</time>
      </trkpt>
      <trkpt lat="43.302344" lon="-5.707206">
        <ele>325.0</ele>
        <time>2012-06-15T09:44:28Z</time>
      </trkpt>
      <trkpt lat="43.302481" lon="-5.706905">
        <ele>325.0</ele>
        <time>2012-06-15T09:44:32Z</time>
      </trkpt>
      <trkpt lat="43.302643" lon="-5.706616">
        <ele>323.0</ele>
        <time>2012-06-15T09:44:36Z</time>
      </trkpt>
      <trkpt lat="43.302826" lon="-5.706277">
        <ele>322.0</ele>
        <time>2012-06-15T09:44:40Z</time>
      </trkpt>
      <trkpt lat="43.302975" lon="-5.705986">
        <ele>320.0</ele>
        <time>2012-06-15T09:44:44Z</time>
      </trkpt>
      <trkpt lat="43.303086" lon="-5.705789">
        <ele>318.0</ele>
        <time>2012-06-15T09:44:48Z</time>
      </trkpt>
      <trkpt lat="43.303201" lon="-5.705577">
        <ele>315.0</ele>
        <time>2012-06-15T09:44:52Z</time>
      </trkpt>
      <trkpt lat="43.30334" lon="-5.705306">
        <ele>314.0</ele>
        <time>2012-06-15T09:44:56Z</time>
      </trkpt>
      <trkpt lat="43.30351" lon="-5.704985">
        <ele>312.0</ele>
        <time>2012-06-15T09:45:00Z</time>
      </trkpt>
      <trkpt lat="43.303698" lon="-5.704619">
        <ele>311.0</ele>
        <time>2012-06-15T09:45:04Z</time>
      </trkpt>
      <trkpt lat="43.303909" lon="-5.704241">
        <ele>309.0</ele>
        <time>2012-06-15T09:45:08Z</time>
      </trkpt>
      <trkpt lat="43.304128" lon="-5.703846">
        <ele>307.0</ele>
        <time>2012-06-15T09:45:12Z</time>
      </trkpt>
      <trkpt lat="43.304342" lon="-5.703448">
        <ele>304.0</ele>
        <time>2012-06-15T09:45:16Z</time>
      </trkpt>
      <trkpt lat="43.30453" lon="-5.703047">
        <ele>301.0</ele>
        <time>2012-06-15T09:45:20Z</time>
      </trkpt>
      <trkpt lat="43.304666" lon="-5.70276">
        <ele>300.0</ele>
        <time>2012-06-15T09:45:23Z</time>
      </trkpt>
      <trkpt lat="43.304898" lon="-5.702325">
        <ele>298.0</ele>
        <time>2012-06-15T09:45:28Z</time>
      </trkpt>
      <trkpt lat="43.305077" lon="-5.701998">
        <ele>298.0</ele>
        <time>2012-06-15T09:45:32Z</time>
      </trkpt>
      <trkpt lat="43.305244" lon="-5.701678">
        <ele>298.0</ele>
        <time>2012-06-15T09:45:36Z</time>
      </trkpt>
      <trkpt lat="43.305416" lon="-5.701355">
        <ele>298.0</ele>
        <time>2012-06-15T09:45:40Z</time>
      </trkpt>
      <trkpt lat="43.305438" lon="-5.700981">
        <ele>297.0</ele>
        <time>2012-06-15T09:45:44Z</time>
      </trkpt>
      <trkpt lat="43.305387" lon="-5.700623">
        <ele>296.0</ele>
        <time>2012-06-15T09:45:48Z</time>
      </trkpt>
      <trkpt lat="43.305526" lon="-5.700298">
        <ele>297.0</ele>
        <time>2012-06-15T09:45:52Z</time>
      </trkpt>
      <trkpt lat="43.305781" lon="-5.700164">
        <ele>298.0</ele>
        <time>2012-06-15T09:45:56Z</time>
      </trkpt>
      <trkpt lat="43.306075" lon="-5.700099">
        <ele>298.0</ele>
        <time>2012-06-15T09:46:00Z</time>
      </trkpt>
      <trkpt lat="43.306216" lon="-5.699701">
        <ele>296.0</ele>
        <time>2012-06-15T09:46:04Z</time>
      </trkpt>
      <trkpt lat="43.306301" lon="-5.699299">
        <ele>295.0</ele>
        <time>2012-06-15T09:46:08Z</time>
      </trkpt>
      <trkpt lat="43.306396" lon="-5.698923">
        <ele>295.0</ele>
        <time>2012-06-15T09:46:12Z</time>
      </trkpt>
      <trkpt lat="43.306505" lon="-5.698553">
        <ele>296.0</ele>
        <time>2012-06-15T09:46:16Z</time>
      </trkpt>
      <trkpt lat="43.306623" lon="-5.698182">
        <ele>295.0</ele>
        <time>2012-06-15T09:46:20Z</time>
      </trkpt>
      <trkpt lat="43.306736" lon="-5.697829">
        <ele>295.0</ele>
        <time>2012-06-15T09:46:24Z</time>
      </trkpt>
      <trkpt lat="43.30677" lon="-5.697493">
        <ele>294.0</ele>
        <time>2012-06-15T09:46:28Z</time>
      </trkpt>
      <trkpt lat="43.306755" lon="-5.697145">
        <ele>294.0</ele>
        <time>2012-06-15T09:46:32Z</time>
      </trkpt>
      <trkpt lat="43.306747" lon="-5.696786">
        <ele>294.0</ele>
        <time>2012-06-15T09:46:36Z</time>
      </trkpt>
      <trkpt lat="43.306902" lon="-5.696473">
        <ele>295.0</ele>
        <time>2012-06-15T09:46:40Z</time>
      </trkpt>
      <trkpt lat="43.307155" lon="-5.696409">
        <ele>295.0</ele>
        <time>2012-06-15T09:46:44Z</time>
      </trkpt>
      <trkpt lat="43.307425" lon="-5.696623">
        <ele>297.0</ele>
        <time>2012-06-15T09:46:48Z</time>
      </trkpt>
      <trkpt lat="43.307554" lon="-5.696776">
        <ele>297.0</ele>
        <time>2012-06-15T09:46:50Z</time>
      </trkpt>
      <trkpt lat="43.307991" lon="-5.696932">
        <ele>298.0</ele>
        <time>2012-06-15T09:46:56Z</time>
      </trkpt>
      <trkpt lat="43.308038" lon="-5.6967">
        <ele>297.0</ele>
        <time>2012-06-15T09:46:58Z</time>
      </trkpt>
      <trkpt lat="43.308015" lon="-5.696096">
        <ele>297.0</ele>
        <time>2012-06-15T09:47:03Z</time>
      </trkpt>
      <trkpt lat="43.308155" lon="-5.695843">
        <ele>298.0</ele>
        <time>2012-06-15T09:47:07Z</time>
      </trkpt>
      <trkpt lat="43.308274" lon="-5.695857">
        <ele>298.0</ele>
        <time>2012-06-15T09:47:09Z</time>
      </trkpt>
      <trkpt lat="43.308584" lon="-5.695917">
        <ele>299.0</ele>
        <time>2012-06-15T09:47:15Z</time>
      </trkpt>
      <trkpt lat="43.308774" lon="-5.695855">
        <ele>299.0</ele>
        <time>2012-06-15T09:47:19Z</time>
      </trkpt>
      <trkpt lat="43.309079" lon="-5.695693">
        <ele>299.0</ele>
        <time>2012-06-15T09:47:25Z</time>
      </trkpt>
      <trkpt lat="43.309181" lon="-5.695631">
        <ele>299.0</ele>
        <time>2012-06-15T09:47:27Z</time>
      </trkpt>
      <trkpt lat="43.309383" lon="-5.695496">
        <ele>299.0</ele>
        <time>2012-06-15T09:47:31Z</time>
      </trkpt>
      <trkpt lat="43.309582" lon="-5.695358">
        <ele>299.0</ele>
        <time>2012-06-15T09:47:35Z</time>
      </trkpt>
      <trkpt lat="43.309779" lon="-5.695218">
        <ele>299.0</ele>
        <time>2012-06-15T09:47:39Z</time>
      </trkpt>
      <trkpt lat="43.309972" lon="-5.695072">
        <ele>299.0</ele>
        <time>2012-06-15T09:47:43Z</time>
      </trkpt>
      <trkpt lat="43.310162" lon="-5.694902">
        <ele>299.0</ele>
        <time>2012-06-15T09:47:47Z</time>
      </trkpt>
      <trkpt lat="43.310191" lon="-5.695079">
        <ele>300.0</ele>
        <time>2012-06-15T09:47:58Z</time>
      </trkpt>
      <trkpt lat="43.310472" lon="-5.694623">
        <ele>300.0</ele>
        <time>2012-06-15T09:48:04Z</time>
      </trkpt>
      <trkpt lat="43.31063" lon="-5.694389">
        <ele>301.0</ele>
        <time>2012-06-15T09:48:07Z</time>
      </trkpt>
      <trkpt lat="43.310775" lon="-5.69423">
        <ele>301.0</ele>
        <time>2012-06-15T09:48:11Z</time>
      </trkpt>
      <trkpt lat="43.310887" lon="-5.694087">
        <ele>301.0</ele>
        <time>2012-06-15T09:48:16Z</time>
      </trkpt>
      <trkpt lat="43.310887" lon="-5.694087">
        <time>2012-06-15T09:48:28Z</time>
      </trkpt>
    </trkseg>
    <trkseg>
      <trkpt lat="43.310887" lon="-5.694087">
        <time>2012-06-15T09:48:30Z</time>
      </trkpt>
      <trkpt lat="43.310887" lon="-5.694087">
        <time>2012-06-15T09:48:41Z</time>
      </trkpt>
    </trkseg>
    <trkseg>
      <trkpt lat="43.310887" lon="-5.694087">
        <time>2012-06-15T09:49:21Z</time>
      </trkpt>
      <trkpt lat="43.311004" lon="-5.693742">
        <ele>299.0</ele>
        <time>2012-06-15T09:49:25Z</time>
      </trkpt>
      <trkpt lat="43.311255" lon="-5.693491">
        <ele>299.0</ele>
        <time>2012-06-15T09:49:30Z</time>
      </trkpt>
      <trkpt lat="43.311488" lon="-5.693304">
        <ele>299.0</ele>
        <time>2012-06-15T09:49:34Z</time>
      </trkpt>
      <trkpt lat="43.311698" lon="-5.693133">
        <ele>299.0</ele>
        <time>2012-06-15T09:49:38Z</time>
      </trkpt>
      <trkpt lat="43.311907" lon="-5.69298">
        <ele>299.0</ele>
        <time>2012-06-15T09:49:42Z</time>
      </trkpt>
      <trkpt lat="43.312102" lon="-5.69276">
        <ele>298.0</ele>
        <time>2012-06-15T09:49:46Z</time>
      </trkpt>
      <trkpt lat="43.312293" lon="-5.69256">
        <ele>298.0</ele>
        <time>2012-06-15T09:49:50Z</time>
      </trkpt>
      <trkpt lat="43.31248" lon="-5.692391">
        <ele>298.0</ele>
        <time>2012-06-15T09:49:54Z</time>
      </trkpt>
      <trkpt lat="43.31265" lon="-5.692246">
        <ele>299.0</ele>
        <time>2012-06-15T09:49:58Z</time>
      </trkpt>
      <trkpt lat="43.312784" lon="-5.692142">
        <ele>299.0</ele>
        <time>2012-06-15T09:50:02Z</time>
      </trkpt>
      <trkpt lat="43.312905" lon="-5.692022">
        <ele>300.0</ele>
        <time>2012-06-15T09:50:06Z</time>
      </trkpt>
      <trkpt lat="43.313024" lon="-5.691892">
        <ele>300.0</ele>
        <time>2012-06-15T09:50:10Z</time>
      </trkpt>
      <trkpt lat="43.313075" lon="-5.691838">
        <ele>300.0</ele>
        <time>2012-06-15T09:50:12Z</time>
      </trkpt>
      <trkpt lat="43.313191" lon="-5.691648">
        <ele>300.0</ele>
        <time>2012-06-15T09:50:18Z</time>
      </trkpt>
      <trkpt lat="43.313228" lon="-5.691447">
        <ele>301.0</ele>
        <time>2012-06-15T09:50:22Z</time>
      </trkpt>
      <trkpt lat="43.313234" lon="-5.691149">
        <ele>302.0</ele>
        <time>2012-06-15T09:50:26Z</time>
      </trkpt>
      <trkpt lat="43.313192" lon="-5.690887">
        <ele>303.0</ele>
        <time>2012-06-15T09:50:30Z</time>
      </trkpt>
      <trkpt lat="43.313181" lon="-5.690654">
        <ele>303.0</ele>
        <time>2012-06-15T09:50:34Z</time>
      </trkpt>
      <trkpt lat="43.313216" lon="-5.690356">
        <ele>303.0</ele>
        <time>2012-06-15T09:50:40Z</time>
      </trkpt>
      <trkpt lat="43.31322" lon="-5.690268">
        <ele>304.0</ele>
        <time>2012-06-15T09:50:43Z</time>
      </trkpt>
      <trkpt lat="43.313294" lon="-5.690273">
        <ele>304.0</ele>
        <time>2012-06-15T09:50:48Z</time>
      </trkpt>
      <trkpt lat="43.313127" lon="-5.690347">
        <ele>304.0</ele>
        <time>2012-06-15T09:50:54Z</time>
      </trkpt>
      <trkpt lat="43.312557" lon="-5.691096">
        <ele>305.0</ele>
        <time>2012-06-15T09:50:58Z</time>
      </trkpt>
      <trkpt lat="43.312141" lon="-5.691861">
        <ele>303.0</ele>
        <time>2012-06-15T09:51:02Z</time>
      </trkpt>
      <trkpt lat="43.311848" lon="-5.692308">
        <ele>301.0</ele>
        <time>2012-06-15T09:51:06Z</time>
      </trkpt>
      <trkpt lat="43.311635" lon="-5.692597">
        <ele>298.0</ele>
        <time>2012-06-15T09:51:10Z</time>
      </trkpt>
      <trkpt lat="43.311446" lon="-5.692855">
        <ele>296.0</ele>
        <time>2012-06-15T09:51:14Z</time>
      </trkpt>
      <trkpt lat="43.311311" lon="-5.693024">
        <ele>294.0</ele>
        <time>2012-06-15T09:51:17Z</time>
      </trkpt>
      <trkpt lat="43.311129" lon="-5.693211">
        <ele>294.0</ele>
        <time>2012-06-15T09:51:21Z</time>
      </trkpt>
      <trkpt lat="43.310945" lon="-5.693372">
        <ele>293.0</ele>
        <time>2012-06-15T09:51:25Z</time>
      </trkpt>
      <trkpt lat="43.310854" lon="-5.693454">
        <ele>293.0</ele>
        <time>2012-06-15T09:51:27Z</time>
      </trkpt>
      <trkpt lat="43.310617" lon="-5.693728">
        <ele>293.0</ele>
        <time>2012-06-15T09:51:33Z</time>
      </trkpt>
      <trkpt lat="43.310495" lon="-5.693945">
        <ele>294.0</ele>
        <time>2012-06-15T09:51:37Z</time>
      </trkpt>
      <trkpt lat="43.310332" lon="-5.694512">
        <ele>295.0</ele>
        <time>2012-06-15T09:51:46Z</time>
      </trkpt>
      <trkpt lat="43.310463" lon="-5.695018">
        <ele>296.0</ele>
        <time>2012-06-15T09:51:50Z</time>
      </trkpt>
      <trkpt lat="43.310365" lon="-5.695324">
        <ele>296.0</ele>
        <time>2012-06-15T09:51:54Z</time>
      </trkpt>
      <trkpt lat="43.310878" lon="-5.696245">
        <ele>298.0</ele>
        <time>2012-06-15T09:52:02Z</time>
      </trkpt>
      <trkpt lat="43.311163" lon="-5.696482">
        <ele>299.0</ele>
        <time>2012-06-15T09:52:06Z</time>
      </trkpt>
      <trkpt lat="43.31131" lon="-5.696556">
        <ele>299.0</ele>
        <time>2012-06-15T09:52:08Z</time>
      </trkpt>
      <trkpt lat="43.311386" lon="-5.696468">
        <ele>299.0</ele>
        <time>2012-06-15T09:52:12Z</time>
      </trkpt>
      <trkpt lat="43.311428" lon="-5.696326">
        <ele>299.0</ele>
        <time>2012-06-15T09:52:17Z</time>
      </trkpt>
      <trkpt lat="43.311474" lon="-5.696207">
        <ele>299.0</ele>
        <time>2012-06-15T09:52:22Z</time>
      </trkpt>
      <trkpt lat="43.311474" lon="-5.696207">
        <time>2012-06-15T09:52:33Z</time>
      </trkpt>
    </trkseg>
    <trkseg>
      <trkpt lat="43.311474" lon="-5.696207">
        <time>2012-06-15T09:52:34Z</time>
      </trkpt>
      <trkpt lat="43.311632" lon="-5.696094">
        <ele>299.0</ele>
        <time>2012-06-15T09:52:40Z</time>
      </trkpt>
      <trkpt lat="43.311727" lon="-5.696123">
        <ele>299.0</ele>
        <time>2012-06-15T09:52:45Z</time>
      </trkpt>
      <trkpt lat="43.311783" lon="-5.695886">
        <ele>299.0</ele>
        <time>2012-06-15T09:52:50Z</time>
      </trkpt>
      <trkpt lat="43.311749" lon="-5.695543">
        <ele>298.0</ele>
        <time>2012-06-15T09:52:54Z</time>
      </trkpt>
      <trkpt lat="43.311683" lon="-5.695233">
        <ele>298.0</ele>
        <time>2012-06-15T09:52:58Z</time>
      </trkpt>
      <trkpt lat="43.311619" lon="-5.694994">
        <ele>297.0</ele>
        <time>2012-06-15T09:53:02Z</time>
      </trkpt>
      <trkpt lat="43.311541" lon="-5.694783">
        <ele>296.0</ele>
        <time>2012-06-15T09:53:06Z</time>
      </trkpt>
      <trkpt lat="43.311442" lon="-5.694599">
        <ele>296.0</ele>
        <time>2012-06-15T09:53:10Z</time>
      </trkpt>
      <trkpt lat="43.311388" lon="-5.694522">
        <ele>296.0</ele>
        <time>2012-06-15T09:53:12Z</time>
      </trkpt>
      <trkpt lat="43.31125" lon="-5.694277">
        <ele>295.0</ele>
        <time>2012-06-15T09:53:19Z</time>
      </trkpt>
      <trkpt lat="43.31118" lon="-5.694116">
        <ele>295.0</ele>
        <time>2012-06-15T09:53:23Z</time>
      </trkpt>
      <trkpt lat="43.311139" lon="-5.694005">
        <ele>295.0</ele>
        <time>2012-06-15T09:53:26Z</time>
      </trkpt>
      <trkpt lat="43.311111" lon="-5.693795">
        <ele>295.0</ele>
        <time>2012-06-15T09:53:31Z</time>
      </trkpt>
      <trkpt lat="43.311093" lon="-5.693673">
        <ele>295.0</ele>
        <time>2012-06-15T09:53:34Z</time>
      </trkpt>
      <trkpt lat="43.311043" lon="-5.693486">
        <ele>295.0</ele>
        <time>2012-06-15T09:53:38Z</time>
      </trkpt>
      <trkpt lat="43.310976" lon="-5.693275">
        <ele>294.0</ele>
        <time>2012-06-15T09:53:42Z</time>
      </trkpt>
      <trkpt lat="43.310845" lon="-5.692878">
        <ele>294.0</ele>
        <time>2012-06-15T09:53:47Z</time>
      </trkpt>
      <trkpt lat="43.31073" lon="-5.69256">
        <ele>295.0</ele>
        <time>2012-06-15T09:53:51Z</time>
      </trkpt>
      <trkpt lat="43.310588" lon="-5.692255">
        <ele>295.0</ele>
        <time>2012-06-15T09:53:55Z</time>
      </trkpt>
      <trkpt lat="43.310429" lon="-5.691964">
        <ele>296.0</ele>
        <time>2012-06-15T09:53:59Z</time>
      </trkpt>
      <trkpt lat="43.310271" lon="-5.691679">
        <ele>295.0</ele>
        <time>2012-06-15T09:54:03Z</time>
      </trkpt>
      <trkpt lat="43.310153" lon="-5.691484">
        <ele>294.0</ele>
        <time>2012-06-15T09:54:06Z</time>
      </trkpt>
      <trkpt lat="43.310025" lon="-5.69129">
        <ele>294.0</ele>
        <time>2012-06-15T09:54:10Z</time>
      </trkpt>
      <trkpt lat="43.309946" lon="-5.691112">
        <ele>294.0</ele>
        <time>2012-06-15T09:54:15Z</time>
      </trkpt>
      <trkpt lat="43.30987" lon="-5.690891">
        <ele>295.0</ele>
        <time>2012-06-15T09:54:19Z</time>
      </trkpt>
      <trkpt lat="43.309798" lon="-5.690638">
        <ele>295.0</ele>
        <time>2012-06-15T09:54:23Z</time>
      </trkpt>
      <trkpt lat="43.309738" lon="-5.690378">
        <ele>296.0</ele>
        <time>2012-06-15T09:54:27Z</time>
      </trkpt>
      <trkpt lat="43.309687" lon="-5.690123">
        <ele>297.0</ele>
        <time>2012-06-15T09:54:31Z</time>
      </trkpt>
      <trkpt lat="43.30963" lon="-5.689873">
        <ele>297.0</ele>
        <time>2012-06-15T09:54:35Z</time>
      </trkpt>
      <trkpt lat="43.309573" lon="-5.689624">
        <ele>297.0</ele>
        <time>2012-06-15T09:54:39Z</time>
      </trkpt>
      <trkpt lat="43.309522" lon="-5.689368">
        <ele>298.0</ele>
        <time>2012-06-15T09:54:43Z</time>
      </trkpt>
      <trkpt lat="43.30943" lon="-5.689135">
        <ele>299.0</ele>
        <time>2012-06-15T09:54:47Z</time>
      </trkpt>
      <trkpt lat="43.309295" lon="-5.68893">
        <ele>299.0</ele>
        <time>2012-06-15T09:54:51Z</time>
      </trkpt>
      <trkpt lat="43.309145" lon="-5.688785">
        <ele>299.0</ele>
        <time>2012-06-15T09:54:55Z</time>
      </trkpt>
      <trkpt lat="43.309048" lon="-5.688748">
        <ele>299.0</ele>
        <time>2012-06-15T09:54:57Z</time>
      </trkpt>
      <trkpt lat="43.309065" lon="-5.688637">
        <ele>299.0</ele>
        <time>2012-06-15T09:55:02Z</time>
      </trkpt>
      <trkpt lat="43.309308" lon="-5.688636">
        <ele>300.0</ele>
        <time>2012-06-15T09:55:06Z</time>
      </trkpt>
      <trkpt lat="43.309532" lon="-5.688627">
        <ele>299.0</ele>
        <time>2012-06-15T09:55:10Z</time>
      </trkpt>
      <trkpt lat="43.309741" lon="-5.688616">
        <ele>299.0</ele>
        <time>2012-06-15T09:55:14Z</time>
      </trkpt>
      <trkpt lat="43.309973" lon="-5.688682">
        <ele>299.0</ele>
        <time>2012-06-15T09:55:18Z</time>
      </trkpt>
      <trkpt lat="43.3102" lon="-5.688643">
        <ele>299.0</ele>
        <time>2012-06-15T09:55:22Z</time>
      </trkpt>
      <trkpt lat="43.310437" lon="-5.688429">
        <ele>299.0</ele>
        <time>2012-06-15T09:55:27Z</time>
      </trkpt>
      <trkpt lat="43.310588" lon="-5.688117">
        <ele>299.0</ele>
        <time>2012-06-15T09:55:31Z</time>
      </trkpt>
      <trkpt lat="43.310676" lon="-5.687775">
        <ele>300.0</ele>
        <time>2012-06-15T09:55:35Z</time>
      </trkpt>
      <trkpt lat="43.310769" lon="-5.687473">
        <ele>300.0</ele>
        <time>2012-06-15T09:55:39Z</time>
      </trkpt>
      <trkpt lat="43.310852" lon="-5.687175">
        <ele>300.0</ele>
        <time>2012-06-15T09:55:43Z</time>
      </trkpt>
      <trkpt lat="43.310861" lon="-5.686923">
        <ele>300.0</ele>
        <time>2012-06-15T09:55:46Z</time>
      </trkpt>
      <trkpt lat="43.31085" lon="-5.686591">
        <ele>300.0</ele>
        <time>2012-06-15T09:55:50Z</time>
      </trkpt>
      <trkpt lat="43.31085" lon="-5.686279">
        <ele>300.0</ele>
        <time>2012-06-15T09:55:54Z</time>
      </trkpt>
      <trkpt lat="43.310855" lon="-5.685997">
        <ele>299.0</ele>
        <time>2012-06-15T09:55:58Z</time>
      </trkpt>
      <trkpt lat="43.310844" lon="-5.685727">
        <ele>300.0</ele>
        <time>2012-06-15T09:56:02Z</time>
      </trkpt>
      <trkpt lat="43.310816" lon="-5.685462">
        <ele>300.0</ele>
        <time>2012-06-15T09:56:06Z</time>
      </trkpt>
      <trkpt lat="43.310794" lon="-5.685205">
        <ele>300.0</ele>
        <time>2012-06-15T09:56:10Z</time>
      </trkpt>
      <trkpt lat="43.31077" lon="-5.684943">
        <ele>300.0</ele>
        <time>2012-06-15T09:56:14Z</time>
      </trkpt>
      <trkpt lat="43.310771" lon="-5.684676">
        <ele>300.0</ele>
        <time>2012-06-15T09:56:18Z</time>
      </trkpt>
      <trkpt lat="43.310787" lon="-5.684422">
        <ele>301.0</ele>
        <time>2012-06-15T09:56:22Z</time>
      </trkpt>
      <trkpt lat="43.3108" lon="-5.684295">
        <ele>301.0</ele>
        <time>2012-06-15T09:56:24Z</time>
      </trkpt>
      <trkpt lat="43.310854" lon="-5.683905">
        <ele>301.0</ele>
        <time>2012-06-15T09:56:30Z</time>
      </trkpt>
      <trkpt lat="43.310954" lon="-5.683381">
        <ele>301.0</ele>
        <time>2012-06-15T09:56:38Z</time>
      </trkpt>
      <trkpt lat="43.311004" lon="-5.683121">
        <ele>302.0</ele>
        <time>2012-06-15T09:56:42Z</time>
      </trkpt>
      <trkpt lat="43.311056" lon="-5.682863">
        <ele>302.0</ele>
        <time>2012-06-15T09:56:46Z</time>
      </trkpt>
      <trkpt lat="43.31111" lon="-5.682609">
        <ele>302.0</ele>
        <time>2012-06-15T09:56:50Z</time>
      </trkpt>
      <trkpt lat="43.311169" lon="-5.68236">
        <ele>302.0</ele>
        <time>2012-06-15T09:56:54Z</time>
      </trkpt>
      <trkpt lat="43.311237" lon="-5.682106">
        <ele>301.0</ele>
        <time>2012-06-15T09:56:58Z</time>
      </trkpt>
      <trkpt lat="43.311267" lon="-5.681978">
        <ele>301.0</ele>
        <time>2012-06-15T09:57:00Z</time>
      </trkpt>
      <trkpt lat="43.311345" lon="-5.681586">
        <ele>301.0</ele>
        <time>2012-06-15T09:57:06Z</time>
      </trkpt>
      <trkpt lat="43.311386" lon="-5.681324">
        <ele>301.0</ele>
        <time>2012-06-15T09:57:10Z</time>
      </trkpt>
      <trkpt lat="43.311425" lon="-5.681068">
        <ele>301.0</ele>
        <time>2012-06-15T09:57:14Z</time>
      </trkpt>
      <trkpt lat="43.311518" lon="-5.680559">
        <ele>302.0</ele>
        <time>2012-06-15T09:57:22Z</time>
      </trkpt>
      <trkpt lat="43.31159" lon="-5.680311">
        <ele>303.0</ele>
        <time>2012-06-15T09:57:26Z</time>
      </trkpt>
      <trkpt lat="43.311657" lon="-5.68006">
        <ele>304.0</ele>
        <time>2012-06-15T09:57:30Z</time>
      </trkpt>
      <trkpt lat="43.311732" lon="-5.679669">
        <ele>305.0</ele>
        <time>2012-06-15T09:57:36Z</time>
      </trkpt>
      <trkpt lat="43.311779" lon="-5.679258">
        <ele>304.0</ele>
        <time>2012-06-15T09:57:42Z</time>
      </trkpt>
      <trkpt lat="43.311876" lon="-5.678807">
        <ele>305.0</ele>
        <time>2012-06-15T09:57:50Z</time>
      </trkpt>
      <trkpt lat="43.311987" lon="-5.67865">
        <ele>305.0</ele>
        <time>2012-06-15T09:57:54Z</time>
      </trkpt>
      <trkpt lat="43.312109" lon="-5.678494">
        <ele>306.0</ele>
        <time>2012-06-15T09:57:58Z</time>
      </trkpt>
      <trkpt lat="43.312243" lon="-5.678351">
        <ele>306.0</ele>
        <time>2012-06-15T09:58:02Z</time>
      </trkpt>
      <trkpt lat="43.312397" lon="-5.678211">
        <ele>307.0</ele>
        <time>2012-06-15T09:58:06Z</time>
      </trkpt>
      <trkpt lat="43.312567" lon="-5.67806">
        <ele>307.0</ele>
        <time>2012-06-15T09:58:10Z</time>
      </trkpt>
      <trkpt lat="43.31265" lon="-5.677976">
        <ele>307.0</ele>
        <time>2012-06-15T09:58:12Z</time>
      </trkpt>
      <trkpt lat="43.312911" lon="-5.677739">
        <ele>307.0</ele>
        <time>2012-06-15T09:58:18Z</time>
      </trkpt>
      <trkpt lat="43.313218" lon="-5.677401">
        <ele>308.0</ele>
        <time>2012-06-15T09:58:26Z</time>
      </trkpt>
      <trkpt lat="43.313494" lon="-5.677037">
        <ele>309.0</ele>
        <time>2012-06-15T09:58:34Z</time>
      </trkpt>
      <trkpt lat="43.313621" lon="-5.676825">
        <ele>310.0</ele>
        <time>2012-06-15T09:58:38Z</time>
      </trkpt>
      <trkpt lat="43.313758" lon="-5.676623">
        <ele>311.0</ele>
        <time>2012-06-15T09:58:42Z</time>
      </trkpt>
      <trkpt lat="43.314063" lon="-5.676256">
        <ele>312.0</ele>
        <time>2012-06-15T09:58:50Z</time>
      </trkpt>
      <trkpt lat="43.314191" lon="-5.676043">
        <ele>312.0</ele>
        <time>2012-06-15T09:58:54Z</time>
      </trkpt>
      <trkpt lat="43.314245" lon="-5.675763">
        <ele>312.0</ele>
        <time>2012-06-15T09:58:58Z</time>
      </trkpt>
      <trkpt lat="43.314256" lon="-5.675622">
        <ele>312.0</ele>
        <time>2012-06-15T09:59:00Z</time>
      </trkpt>
      <trkpt lat="43.314289" lon="-5.675207">
        <ele>312.0</ele>
        <time>2012-06-15T09:59:06Z</time>
      </trkpt>
      <trkpt lat="43.314266" lon="-5.674819">
        <ele>313.0</ele>
        <time>2012-06-15T09:59:12Z</time>
      </trkpt>
      <trkpt lat="43.314257" lon="-5.674453">
        <ele>313.0</ele>
        <time>2012-06-15T09:59:18Z</time>
      </trkpt>
      <trkpt lat="43.314277" lon="-5.674207">
        <ele>314.0</ele>
        <time>2012-06-15T09:59:22Z</time>
      </trkpt>
      <trkpt lat="43.314341" lon="-5.67398">
        <ele>314.0</ele>
        <time>2012-06-15T09:59:26Z</time>
      </trkpt>
      <trkpt lat="43.314433" lon="-5.67377">
        <ele>314.0</ele>
        <time>2012-06-15T09:59:30Z</time>
      </trkpt>
      <trkpt lat="43.31453" lon="-5.673553">
        <ele>315.0</ele>
        <time>2012-06-15T09:59:34Z</time>
      </trkpt>
      <trkpt lat="43.31467" lon="-5.673388">
        <ele>316.0</ele>
        <time>2012-06-15T09:59:38Z</time>
      </trkpt>
      <trkpt lat="43.314805" lon="-5.673218">
        <ele>316.0</ele>
        <time>2012-06-15T09:59:42Z</time>
      </trkpt>
      <trkpt lat="43.315091" lon="-5.67288">
        <ele>316.0</ele>
        <time>2012-06-15T09:59:50Z</time>
      </trkpt>
      <trkpt lat="43.315464" lon="-5.672814">
        <ele>317.0</ele>
        <time>2012-06-15T09:59:58Z</time>
      </trkpt>
      <trkpt lat="43.315651" lon="-5.672802">
        <ele>318.0</ele>
        <time>2012-06-15T10:00:02Z</time>
      </trkpt>
      <trkpt lat="43.315835" lon="-5.672772">
        <ele>318.0</ele>
        <time>2012-06-15T10:00:06Z</time>
      </trkpt>
      <trkpt lat="43.316029" lon="-5.672748">
        <ele>319.0</ele>
        <time>2012-06-15T10:00:10Z</time>
      </trkpt>
      <trkpt lat="43.31621" lon="-5.672654">
        <ele>319.0</ele>
        <time>2012-06-15T10:00:14Z</time>
      </trkpt>
      <trkpt lat="43.316366" lon="-5.672461">
        <ele>320.0</ele>
        <time>2012-06-15T10:00:18Z</time>
      </trkpt>
      <trkpt lat="43.31639" lon="-5.672312">
        <ele>320.0</ele>
        <time>2012-06-15T10:00:20Z</time>
      </trkpt>
      <trkpt lat="43.316438" lon="-5.671879">
        <ele>320.0</ele>
        <time>2012-06-15T10:00:26Z</time>
      </trkpt>
      <trkpt lat="43.316485" lon="-5.671614">
        <ele>321.0</ele>
        <time>2012-06-15T10:00:30Z</time>
      </trkpt>
      <trkpt lat="43.31653" lon="-5.671357">
        <ele>321.0</ele>
        <time>2012-06-15T10:00:34Z</time>
      </trkpt>
      <trkpt lat="43.316592" lon="-5.671093">
        <ele>321.0</ele>
        <time>2012-06-15T10:00:38Z</time>
      </trkpt>
      <trkpt lat="43.31668" lon="-5.670835">
        <ele>320.0</ele>
        <time>2012-06-15T10:00:42Z</time>
      </trkpt>
      <trkpt lat="43.316817" lon="-5.670598">
        <ele>320.0</ele>
        <time>2012-06-15T10:00:46Z</time>
      </trkpt>
      <trkpt lat="43.316967" lon="-5.670404">
        <ele>320.0</ele>
        <time>2012-06-15T10:00:50Z</time>
      </trkpt>
      <trkpt lat="43.317112" lon="-5.670217">
        <ele>320.0</ele>
        <time>2012-06-15T10:00:54Z</time>
      </trkpt>
      <trkpt lat="43.317257" lon="-5.67004">
        <ele>320.0</ele>
        <time>2012-06-15T10:00:58Z</time>
      </trkpt>
      <trkpt lat="43.317419" lon="-5.669889">
        <ele>321.0</ele>
        <time>2012-06-15T10:01:02Z</time>
      </trkpt>
      <trkpt lat="43.317577" lon="-5.669743">
        <ele>321.0</ele>
        <time>2012-06-15T10:01:06Z</time>
      </trkpt>
      <trkpt lat="43.317757" lon="-5.669651">
        <ele>322.0</ele>
        <time>2012-06-15T10:01:10Z</time>
      </trkpt>
      <trkpt lat="43.317978" lon="-5.66967">
        <ele>322.0</ele>
        <time>2012-06-15T10:01:14Z</time>
      </trkpt>
      <trkpt lat="43.318185" lon="-5.669687">
        <ele>322.0</ele>
        <time>2012-06-15T10:01:18Z</time>
      </trkpt>
      <trkpt lat="43.318376" lon="-5.669676">
        <ele>322.0</ele>
        <time>2012-06-15T10:01:22Z</time>
      </trkpt>
      <trkpt lat="43.318561" lon="-5.669665">
        <ele>322.0</ele>
        <time>2012-06-15T10:01:26Z</time>
      </trkpt>
      <trkpt lat="43.318741" lon="-5.669649">
        <ele>322.0</ele>
        <time>2012-06-15T10:01:30Z</time>
      </trkpt>
      <trkpt lat="43.31892" lon="-5.669621">
        <ele>322.0</ele>
        <time>2012-06-15T10:01:34Z</time>
      </trkpt>
      <trkpt lat="43.319104" lon="-5.669608">
        <ele>322.0</ele>
        <time>2012-06-15T10:01:38Z</time>
      </trkpt>
      <trkpt lat="43.319267" lon="-5.669601">
        <ele>322.0</ele>
        <time>2012-06-15T10:01:42Z</time>
      </trkpt>
      <trkpt lat="43.319423" lon="-5.669595">
        <ele>321.0</ele>
        <time>2012-06-15T10:01:46Z</time>
      </trkpt>
      <trkpt lat="43.319564" lon="-5.669607">
        <ele>321.0</ele>
        <time>2012-06-15T10:01:50Z</time>
      </trkpt>
      <trkpt lat="43.319634" lon="-5.66958">
        <ele>321.0</ele>
        <time>2012-06-15T10:01:52Z</time>
      </trkpt>
      <trkpt lat="43.319808" lon="-5.669258">
        <ele>321.0</ele>
        <time>2012-06-15T10:01:58Z</time>
      </trkpt>
      <trkpt lat="43.319936" lon="-5.669016">
        <ele>322.0</ele>
        <time>2012-06-15T10:02:02Z</time>
      </trkpt>
      <trkpt lat="43.320107" lon="-5.668868">
        <ele>325.0</ele>
        <time>2012-06-15T10:02:06Z</time>
      </trkpt>
      <trkpt lat="43.320294" lon="-5.668813">
        <ele>327.0</ele>
        <time>2012-06-15T10:02:10Z</time>
      </trkpt>
      <trkpt lat="43.320496" lon="-5.668952">
        <ele>330.0</ele>
        <time>2012-06-15T10:02:14Z</time>
      </trkpt>
      <trkpt lat="43.32061" lon="-5.669152">
        <ele>332.0</ele>
        <time>2012-06-15T10:02:18Z</time>
      </trkpt>
      <trkpt lat="43.320728" lon="-5.669264">
        <ele>333.0</ele>
        <time>2012-06-15T10:02:22Z</time>
      </trkpt>
      <trkpt lat="43.320801" lon="-5.669313">
        <ele>333.0</ele>
        <time>2012-06-15T10:02:24Z</time>
      </trkpt>
      <trkpt lat="43.321211" lon="-5.669574">
        <ele>333.0</ele>
        <time>2012-06-15T10:02:34Z</time>
      </trkpt>
      <trkpt lat="43.321386" lon="-5.669651">
        <ele>334.0</ele>
        <time>2012-06-15T10:02:38Z</time>
      </trkpt>
      <trkpt lat="43.321557" lon="-5.669749">
        <ele>334.0</ele>
        <time>2012-06-15T10:02:42Z</time>
      </trkpt>
      <trkpt lat="43.321781" lon="-5.6696">
        <ele>333.0</ele>
        <time>2012-06-15T10:02:46Z</time>
      </trkpt>
      <trkpt lat="43.322078" lon="-5.669146">
        <ele>330.0</ele>
        <time>2012-06-15T10:02:51Z</time>
      </trkpt>
      <trkpt lat="43.322218" lon="-5.668757">
        <ele>329.0</ele>
        <time>2012-06-15T10:02:55Z</time>
      </trkpt>
      <trkpt lat="43.322224" lon="-5.668331">
        <ele>332.0</ele>
        <time>2012-06-15T10:02:59Z</time>
      </trkpt>
      <trkpt lat="43.322245" lon="-5.667957">
        <ele>335.0</ele>
        <time>2012-06-15T10:03:03Z</time>
      </trkpt>
      <trkpt lat="43.322271" lon="-5.667599">
        <ele>337.0</ele>
        <time>2012-06-15T10:03:07Z</time>
      </trkpt>
      <trkpt lat="43.322302" lon="-5.667276">
        <ele>338.0</ele>
        <time>2012-06-15T10:03:11Z</time>
      </trkpt>
      <trkpt lat="43.322335" lon="-5.666959">
        <ele>339.0</ele>
        <time>2012-06-15T10:03:15Z</time>
      </trkpt>
      <trkpt lat="43.322379" lon="-5.666664">
        <ele>339.0</ele>
        <time>2012-06-15T10:03:19Z</time>
      </trkpt>
      <trkpt lat="43.322433" lon="-5.666391">
        <ele>339.0</ele>
        <time>2012-06-15T10:03:23Z</time>
      </trkpt>
      <trkpt lat="43.322499" lon="-5.666131">
        <ele>339.0</ele>
        <time>2012-06-15T10:03:27Z</time>
      </trkpt>
      <trkpt lat="43.32259" lon="-5.665882">
        <ele>340.0</ele>
        <time>2012-06-15T10:03:31Z</time>
      </trkpt>
      <trkpt lat="43.322719" lon="-5.665675">
        <ele>342.0</ele>
        <time>2012-06-15T10:03:35Z</time>
      </trkpt>
      <trkpt lat="43.32279" lon="-5.665582">
        <ele>342.0</ele>
        <time>2012-06-15T10:03:37Z</time>
      </trkpt>
      <trkpt lat="43.322951" lon="-5.665452">
        <ele>343.0</ele>
        <time>2012-06-15T10:03:41Z</time>
      </trkpt>
      <trkpt lat="43.323266" lon="-5.665453">
        <ele>342.0</ele>
        <time>2012-06-15T10:03:47Z</time>
      </trkpt>
      <trkpt lat="43.323478" lon="-5.665527">
        <ele>341.0</ele>
        <time>2012-06-15T10:03:51Z</time>
      </trkpt>
      <trkpt lat="43.323675" lon="-5.66565">
        <ele>341.0</ele>
        <time>2012-06-15T10:03:55Z</time>
      </trkpt>
      <trkpt lat="43.323836" lon="-5.666076">
        <ele>342.0</ele>
        <time>2012-06-15T10:03:59Z</time>
      </trkpt>
      <trkpt lat="43.323965" lon="-5.666474">
        <ele>343.0</ele>
        <time>2012-06-15T10:04:03Z</time>
      </trkpt>
      <trkpt lat="43.324103" lon="-5.666767">
        <ele>343.0</ele>
        <time>2012-06-15T10:04:07Z</time>
      </trkpt>
      <trkpt lat="43.324273" lon="-5.666885">
        <ele>343.0</ele>
        <time>2012-06-15T10:04:11Z</time>
      </trkpt>
      <trkpt lat="43.324455" lon="-5.66688">
        <ele>344.0</ele>
        <time>2012-06-15T10:04:15Z</time>
      </trkpt>
      <trkpt lat="43.324643" lon="-5.666847">
        <ele>345.0</ele>
        <time>2012-06-15T10:04:19Z</time>
      </trkpt>
      <trkpt lat="43.324743" lon="-5.666845">
        <ele>345.0</ele>
        <time>2012-06-15T10:04:21Z</time>
      </trkpt>
      <trkpt lat="43.325039" lon="-5.666893">
        <ele>345.0</ele>
        <time>2012-06-15T10:04:27Z</time>
      </trkpt>
      <trkpt lat="43.325135" lon="-5.666905">
        <ele>345.0</ele>
        <time>2012-06-15T10:04:29Z</time>
      </trkpt>
      <trkpt lat="43.325603" lon="-5.666959">
        <ele>345.0</ele>
        <time>2012-06-15T10:04:39Z</time>
      </trkpt>
      <trkpt lat="43.325775" lon="-5.667088">
        <ele>345.0</ele>
        <time>2012-06-15T10:04:43Z</time>
      </trkpt>
      <trkpt lat="43.325936" lon="-5.66723">
        <ele>345.0</ele>
        <time>2012-06-15T10:04:47Z</time>
      </trkpt>
      <trkpt lat="43.326104" lon="-5.667309">
        <ele>345.0</ele>
        <time>2012-06-15T10:04:51Z</time>
      </trkpt>
      <trkpt lat="43.326257" lon="-5.667209">
        <ele>346.0</ele>
        <time>2012-06-15T10:04:55Z</time>
      </trkpt>
      <trkpt lat="43.326365" lon="-5.666969">
        <ele>348.0</ele>
        <time>2012-06-15T10:04:59Z</time>
      </trkpt>
      <trkpt lat="43.326447" lon="-5.666716">
        <ele>348.0</ele>
        <time>2012-06-15T10:05:03Z</time>
      </trkpt>
      <trkpt lat="43.326537" lon="-5.666468">
        <ele>349.0</ele>
        <time>2012-06-15T10:05:07Z</time>
      </trkpt>
      <trkpt lat="43.326642" lon="-5.666234">
        <ele>348.0</ele>
        <time>2012-06-15T10:05:11Z</time>
      </trkpt>
      <trkpt lat="43.32677" lon="-5.666021">
        <ele>348.0</ele>
        <time>2012-06-15T10:05:15Z</time>
      </trkpt>
      <trkpt lat="43.326928" lon="-5.665862">
        <ele>349.0</ele>
        <time>2012-06-15T10:05:19Z</time>
      </trkpt>
      <trkpt lat="43.327092" lon="-5.66573">
        <ele>350.0</ele>
        <time>2012-06-15T10:05:23Z</time>
      </trkpt>
      <trkpt lat="43.327272" lon="-5.665633">
        <ele>351.0</ele>
        <time>2012-06-15T10:05:27Z</time>
      </trkpt>
      <trkpt lat="43.327482" lon="-5.665634">
        <ele>351.0</ele>
        <time>2012-06-15T10:05:31Z</time>
      </trkpt>
      <trkpt lat="43.327715" lon="-5.665713">
        <ele>351.0</ele>
        <time>2012-06-15T10:05:35Z</time>
      </trkpt>
      <trkpt lat="43.327932" lon="-5.665799">
        <ele>350.0</ele>
        <time>2012-06-15T10:05:39Z</time>
      </trkpt>
      <trkpt lat="43.32811" lon="-5.665959">
        <ele>349.0</ele>
        <time>2012-06-15T10:05:43Z</time>
      </trkpt>
      <trkpt lat="43.328238" lon="-5.666211">
        <ele>348.0</ele>
        <time>2012-06-15T10:05:47Z</time>
      </trkpt>
      <trkpt lat="43.328365" lon="-5.666468">
        <ele>349.0</ele>
        <time>2012-06-15T10:05:51Z</time>
      </trkpt>
      <trkpt lat="43.328523" lon="-5.666682">
        <ele>350.0</ele>
        <time>2012-06-15T10:05:55Z</time>
      </trkpt>
      <trkpt lat="43.328697" lon="-5.666824">
        <ele>352.0</ele>
        <time>2012-06-15T10:05:59Z</time>
      </trkpt>
      <trkpt lat="43.328874" lon="-5.666935">
        <ele>352.0</ele>
        <time>2012-06-15T10:06:03Z</time>
      </trkpt>
      <trkpt lat="43.329055" lon="-5.667054">
        <ele>352.0</ele>
        <time>2012-06-15T10:06:07Z</time>
      </trkpt>
      <trkpt lat="43.329256" lon="-5.667161">
        <ele>352.0</ele>
        <time>2012-06-15T10:06:11Z</time>
      </trkpt>
      <trkpt lat="43.32945" lon="-5.667267">
        <ele>353.0</ele>
        <time>2012-06-15T10:06:15Z</time>
      </trkpt>
      <trkpt lat="43.329647" lon="-5.667354">
        <ele>353.0</ele>
        <time>2012-06-15T10:06:19Z</time>
      </trkpt>
      <trkpt lat="43.329844" lon="-5.667429">
        <ele>353.0</ele>
        <time>2012-06-15T10:06:23Z</time>
      </trkpt>
      <trkpt lat="43.33002" lon="-5.667516">
        <ele>353.0</ele>
        <time>2012-06-15T10:06:27Z</time>
      </trkpt>
      <trkpt lat="43.330192" lon="-5.667592">
        <ele>353.0</ele>
        <time>2012-06-15T10:06:31Z</time>
      </trkpt>
      <trkpt lat="43.33028" lon="-5.667626">
        <ele>353.0</ele>
        <time>2012-06-15T10:06:33Z</time>
      </trkpt>
      <trkpt lat="43.330541" lon="-5.667708">
        <ele>353.0</ele>
        <time>2012-06-15T10:06:39Z</time>
      </trkpt>
      <trkpt lat="43.330714" lon="-5.667737">
        <ele>354.0</ele>
        <time>2012-06-15T10:06:43Z</time>
      </trkpt>
      <trkpt lat="43.330902" lon="-5.667645">
        <ele>355.0</ele>
        <time>2012-06-15T10:06:47Z</time>
      </trkpt>
      <trkpt lat="43.331063" lon="-5.667325">
        <ele>357.0</ele>
        <time>2012-06-15T10:06:51Z</time>
      </trkpt>
      <trkpt lat="43.331139" lon="-5.666907">
        <ele>360.0</ele>
        <time>2012-06-15T10:06:55Z</time>
      </trkpt>
      <trkpt lat="43.331185" lon="-5.666691">
        <ele>364.0</ele>
        <time>2012-06-15T10:06:58Z</time>
      </trkpt>
      <trkpt lat="43.331216" lon="-5.666564">
        <ele>365.0</ele>
        <time>2012-06-15T10:07:00Z</time>
      </trkpt>
      <trkpt lat="43.331326" lon="-5.666199">
        <ele>367.0</ele>
        <time>2012-06-15T10:07:06Z</time>
      </trkpt>
      <trkpt lat="43.331409" lon="-5.665684">
        <ele>371.0</ele>
        <time>2012-06-15T10:07:14Z</time>
      </trkpt>
      <trkpt lat="43.331434" lon="-5.665403">
        <ele>375.0</ele>
        <time>2012-06-15T10:07:18Z</time>
      </trkpt>
      <trkpt lat="43.331475" lon="-5.665147">
        <ele>377.0</ele>
        <time>2012-06-15T10:07:22Z</time>
      </trkpt>
      <trkpt lat="43.331527" lon="-5.664918">
        <ele>379.0</ele>
        <time>2012-06-15T10:07:26Z</time>
      </trkpt>
      <trkpt lat="43.331697" lon="-5.664536">
        <ele>380.0</ele>
        <time>2012-06-15T10:07:35Z</time>
      </trkpt>
      <trkpt lat="43.33178" lon="-5.664374">
        <ele>382.0</ele>
        <time>2012-06-15T10:07:39Z</time>
      </trkpt>
      <trkpt lat="43.331867" lon="-5.664194">
        <ele>384.0</ele>
        <time>2012-06-15T10:07:43Z</time>
      </trkpt>
      <trkpt lat="43.331951" lon="-5.663994">
        <ele>385.0</ele>
        <time>2012-06-15T10:07:47Z</time>
      </trkpt>
      <trkpt lat="43.332031" lon="-5.663776">
        <ele>387.0</ele>
        <time>2012-06-15T10:07:51Z</time>
      </trkpt>
      <trkpt lat="43.332117" lon="-5.663552">
        <ele>387.0</ele>
        <time>2012-06-15T10:07:55Z</time>
      </trkpt>
      <trkpt lat="43.332188" lon="-5.663326">
        <ele>387.0</ele>
        <time>2012-06-15T10:07:59Z</time>
      </trkpt>
      <trkpt lat="43.332213" lon="-5.663134">
        <ele>388.0</ele>
        <time>2012-06-15T10:08:03Z</time>
      </trkpt>
      <trkpt lat="43.332219" lon="-5.66296">
        <ele>390.0</ele>
        <time>2012-06-15T10:08:07Z</time>
      </trkpt>
      <trkpt lat="43.332238" lon="-5.662771">
        <ele>393.0</ele>
        <time>2012-06-15T10:08:11Z</time>
      </trkpt>
      <trkpt lat="43.332308" lon="-5.662535">
        <ele>394.0</ele>
        <time>2012-06-15T10:08:15Z</time>
      </trkpt>
      <trkpt lat="43.332388" lon="-5.662275">
        <ele>395.0</ele>
        <time>2012-06-15T10:08:19Z</time>
      </trkpt>
      <trkpt lat="43.332474" lon="-5.661982">
        <ele>398.0</ele>
        <time>2012-06-15T10:08:23Z</time>
      </trkpt>
      <trkpt lat="43.332531" lon="-5.66174">
        <ele>399.0</ele>
        <time>2012-06-15T10:08:26Z</time>
      </trkpt>
      <trkpt lat="43.332647" lon="-5.661292">
        <ele>401.0</ele>
        <time>2012-06-15T10:08:31Z</time>
      </trkpt>
      <trkpt lat="43.332754" lon="-5.660943">
        <ele>403.0</ele>
        <time>2012-06-15T10:08:35Z</time>
      </trkpt>
      <trkpt lat="43.332988" lon="-5.660508">
        <ele>405.0</ele>
        <time>2012-06-15T10:08:39Z</time>
      </trkpt>
      <trkpt lat="43.333306" lon="-5.660121">
        <ele>407.0</ele>
        <time>2012-06-15T10:08:43Z</time>
      </trkpt>
      <trkpt lat="43.333609" lon="-5.659754">
        <ele>408.0</ele>
        <time>2012-06-15T10:08:47Z</time>
      </trkpt>
      <trkpt lat="43.333894" lon="-5.659401">
        <ele>411.0</ele>
        <time>2012-06-15T10:08:51Z</time>
      </trkpt>
      <trkpt lat="43.334232" lon="-5.659196">
        <ele>413.0</ele>
        <time>2012-06-15T10:08:55Z</time>
      </trkpt>
      <trkpt lat="43.33462" lon="-5.659332">
        <ele>416.0</ele>
        <time>2012-06-15T10:08:59Z</time>
      </trkpt>
      <trkpt lat="43.33494" lon="-5.659456">
        <ele>418.0</ele>
        <time>2012-06-15T10:09:03Z</time>
      </trkpt>
      <trkpt lat="43.335259" lon="-5.659669">
        <ele>418.0</ele>
        <time>2012-06-15T10:09:07Z</time>
      </trkpt>
      <trkpt lat="43.335495" lon="-5.660016">
        <ele>418.0</ele>
        <time>2012-06-15T10:09:11Z</time>
      </trkpt>
      <trkpt lat="43.335785" lon="-5.660232">
        <ele>418.0</ele>
        <time>2012-06-15T10:09:15Z</time>
      </trkpt>
      <trkpt lat="43.336183" lon="-5.660218">
        <ele>417.0</ele>
        <time>2012-06-15T10:09:19Z</time>
      </trkpt>
      <trkpt lat="43.336464" lon="-5.659895">
        <ele>417.0</ele>
        <time>2012-06-15T10:09:23Z</time>
      </trkpt>
      <trkpt lat="43.336519" lon="-5.659632">
        <ele>416.0</ele>
        <time>2012-06-15T10:09:25Z</time>
      </trkpt>
      <trkpt lat="43.336649" lon="-5.658769">
        <ele>415.0</ele>
        <time>2012-06-15T10:09:31Z</time>
      </trkpt>
      <trkpt lat="43.336894" lon="-5.65831">
        <ele>416.0</ele>
        <time>2012-06-15T10:09:35Z</time>
      </trkpt>
      <trkpt lat="43.337135" lon="-5.657853">
        <ele>416.0</ele>
        <time>2012-06-15T10:09:39Z</time>
      </trkpt>
      <trkpt lat="43.337481" lon="-5.657596">
        <ele>418.0</ele>
        <time>2012-06-15T10:09:43Z</time>
      </trkpt>
      <trkpt lat="43.337898" lon="-5.65778">
        <ele>419.0</ele>
        <time>2012-06-15T10:09:47Z</time>
      </trkpt>
      <trkpt lat="43.338208" lon="-5.658112">
        <ele>419.0</ele>
        <time>2012-06-15T10:09:51Z</time>
      </trkpt>
      <trkpt lat="43.338524" lon="-5.658355">
        <ele>422.0</ele>
        <time>2012-06-15T10:09:55Z</time>
      </trkpt>
      <trkpt lat="43.338834" lon="-5.658672">
        <ele>422.0</ele>
        <time>2012-06-15T10:09:59Z</time>
      </trkpt>
      <trkpt lat="43.338917" lon="-5.659239">
        <ele>423.0</ele>
        <time>2012-06-15T10:10:03Z</time>
      </trkpt>
      <trkpt lat="43.338843" lon="-5.659811">
        <ele>423.0</ele>
        <time>2012-06-15T10:10:07Z</time>
      </trkpt>
      <trkpt lat="43.338797" lon="-5.660328">
        <ele>423.0</ele>
        <time>2012-06-15T10:10:11Z</time>
      </trkpt>
      <trkpt lat="43.338701" lon="-5.660916">
        <ele>426.0</ele>
        <time>2012-06-15T10:10:15Z</time>
      </trkpt>
      <trkpt lat="43.338669" lon="-5.661527">
        <ele>429.0</ele>
        <time>2012-06-15T10:10:19Z</time>
      </trkpt>
      <trkpt lat="43.338662" lon="-5.662107">
        <ele>432.0</ele>
        <time>2012-06-15T10:10:23Z</time>
      </trkpt>
      <trkpt lat="43.3389" lon="-5.662442">
        <ele>432.0</ele>
        <time>2012-06-15T10:10:27Z</time>
      </trkpt>
      <trkpt lat="43.339241" lon="-5.662617">
        <ele>429.0</ele>
        <time>2012-06-15T10:10:31Z</time>
      </trkpt>
      <trkpt lat="43.339592" lon="-5.662885">
        <ele>429.0</ele>
        <time>2012-06-15T10:10:35Z</time>
      </trkpt>
      <trkpt lat="43.339788" lon="-5.663345">
        <ele>430.0</ele>
        <time>2012-06-15T10:10:39Z</time>
      </trkpt>
      <trkpt lat="43.339886" lon="-5.6639">
        <ele>432.0</ele>
        <time>2012-06-15T10:10:43Z</time>
      </trkpt>
      <trkpt lat="43.340163" lon="-5.664224">
        <ele>431.0</ele>
        <time>2012-06-15T10:10:47Z</time>
      </trkpt>
      <trkpt lat="43.340585" lon="-5.664307">
        <ele>431.0</ele>
        <time>2012-06-15T10:10:51Z</time>
      </trkpt>
      <trkpt lat="43.340778" lon="-5.664834">
        <ele>432.0</ele>
        <time>2012-06-15T10:10:55Z</time>
      </trkpt>
      <trkpt lat="43.340781" lon="-5.665449">
        <ele>432.0</ele>
        <time>2012-06-15T10:10:59Z</time>
      </trkpt>
      <trkpt lat="43.340971" lon="-5.665907">
        <ele>432.0</ele>
        <time>2012-06-15T10:11:03Z</time>
      </trkpt>
      <trkpt lat="43.341427" lon="-5.665824">
        <ele>432.0</ele>
        <time>2012-06-15T10:11:07Z</time>
      </trkpt>
      <trkpt lat="43.341755" lon="-5.665346">
        <ele>430.0</ele>
        <time>2012-06-15T10:11:11Z</time>
      </trkpt>
      <trkpt lat="43.34204" lon="-5.664903">
        <ele>425.0</ele>
        <time>2012-06-15T10:11:15Z</time>
      </trkpt>
      <trkpt lat="43.342371" lon="-5.664528">
        <ele>422.0</ele>
        <time>2012-06-15T10:11:19Z</time>
      </trkpt>
      <trkpt lat="43.342712" lon="-5.664156">
        <ele>416.0</ele>
        <time>2012-06-15T10:11:23Z</time>
      </trkpt>
      <trkpt lat="43.343064" lon="-5.663905">
        <ele>411.0</ele>
        <time>2012-06-15T10:11:27Z</time>
      </trkpt>
      <trkpt lat="43.343317" lon="-5.66385">
        <ele>410.0</ele>
        <time>2012-06-15T10:11:31Z</time>
      </trkpt>
      <trkpt lat="43.343429" lon="-5.663847">
        <ele>410.0</ele>
        <time>2012-06-15T10:11:33Z</time>
      </trkpt>
      <trkpt lat="43.343429" lon="-5.663847">
        <time>2012-06-15T10:11:45Z</time>
      </trkpt>
    </trkseg>
    <trkseg>
      <trkpt lat="43.343429" lon="-5.663847">
        <time>2012-06-15T10:11:50Z</time>
      </trkpt>
      <trkpt lat="43.342699" lon="-5.665971">
        <ele>405.0</ele>
        <time>2012-06-15T10:11:53Z</time>
      </trkpt>
      <trkpt lat="43.34235" lon="-5.666525">
        <ele>403.0</ele>
        <time>2012-06-15T10:11:57Z</time>
      </trkpt>
      <trkpt lat="43.342127" lon="-5.667">
        <ele>397.0</ele>
        <time>2012-06-15T10:12:01Z</time>
      </trkpt>
      <trkpt lat="43.341951" lon="-5.66741">
        <ele>392.0</ele>
        <time>2012-06-15T10:12:05Z</time>
      </trkpt>
      <trkpt lat="43.341924" lon="-5.667956">
        <ele>391.0</ele>
        <time>2012-06-15T10:12:09Z</time>
      </trkpt>
      <trkpt lat="43.342024" lon="-5.668737">
        <ele>390.0</ele>
        <time>2012-06-15T10:12:13Z</time>
      </trkpt>
      <trkpt lat="43.34204" lon="-5.669341">
        <ele>390.0</ele>
        <time>2012-06-15T10:12:17Z</time>
      </trkpt>
      <trkpt lat="43.342114" lon="-5.66992">
        <ele>390.0</ele>
        <time>2012-06-15T10:12:21Z</time>
      </trkpt>
      <trkpt lat="43.342496" lon="-5.670242">
        <ele>391.0</ele>
        <time>2012-06-15T10:12:25Z</time>
      </trkpt>
      <trkpt lat="43.342939" lon="-5.670239">
        <ele>391.0</ele>
        <time>2012-06-15T10:12:29Z</time>
      </trkpt>
      <trkpt lat="43.343378" lon="-5.670412">
        <ele>390.0</ele>
        <time>2012-06-15T10:12:33Z</time>
      </trkpt>
      <trkpt lat="43.343744" lon="-5.670734">
        <ele>389.0</ele>
        <time>2012-06-15T10:12:37Z</time>
      </trkpt>
      <trkpt lat="43.343835" lon="-5.671364">
        <ele>390.0</ele>
        <time>2012-06-15T10:12:41Z</time>
      </trkpt>
      <trkpt lat="43.34402" lon="-5.671851">
        <ele>390.0</ele>
        <time>2012-06-15T10:12:45Z</time>
      </trkpt>
      <trkpt lat="43.344355" lon="-5.672146">
        <ele>390.0</ele>
        <time>2012-06-15T10:12:49Z</time>
      </trkpt>
      <trkpt lat="43.344721" lon="-5.6724">
        <ele>391.0</ele>
        <time>2012-06-15T10:12:53Z</time>
      </trkpt>
      <trkpt lat="43.345065" lon="-5.672679">
        <ele>391.0</ele>
        <time>2012-06-15T10:12:57Z</time>
      </trkpt>
      <trkpt lat="43.345443" lon="-5.672975">
        <ele>390.0</ele>
        <time>2012-06-15T10:13:01Z</time>
      </trkpt>
      <trkpt lat="43.345866" lon="-5.673166">
        <ele>389.0</ele>
        <time>2012-06-15T10:13:05Z</time>
      </trkpt>
      <trkpt lat="43.346324" lon="-5.673082">
        <ele>389.0</ele>
        <time>2012-06-15T10:13:09Z</time>
      </trkpt>
      <trkpt lat="43.346807" lon="-5.673013">
        <ele>389.0</ele>
        <time>2012-06-15T10:13:13Z</time>
      </trkpt>
      <trkpt lat="43.347261" lon="-5.673191">
        <ele>389.0</ele>
        <time>2012-06-15T10:13:17Z</time>
      </trkpt>
      <trkpt lat="43.347634" lon="-5.67356">
        <ele>389.0</ele>
        <time>2012-06-15T10:13:21Z</time>
      </trkpt>
      <trkpt lat="43.347998" lon="-5.673949">
        <ele>389.0</ele>
        <time>2012-06-15T10:13:25Z</time>
      </trkpt>
      <trkpt lat="43.348344" lon="-5.674371">
        <ele>389.0</ele>
        <time>2012-06-15T10:13:29Z</time>
      </trkpt>
      <trkpt lat="43.348677" lon="-5.674808">
        <ele>390.0</ele>
        <time>2012-06-15T10:13:33Z</time>
      </trkpt>
      <trkpt lat="43.349056" lon="-5.675278">
        <ele>390.0</ele>
        <time>2012-06-15T10:13:37Z</time>
      </trkpt>
      <trkpt lat="43.349318" lon="-5.675598">
        <ele>390.0</ele>
        <time>2012-06-15T10:13:41Z</time>
      </trkpt>
      <trkpt lat="43.349652" lon="-5.675859">
        <ele>389.0</ele>
        <time>2012-06-15T10:13:45Z</time>
      </trkpt>
      <trkpt lat="43.35003" lon="-5.676106">
        <ele>389.0</ele>
        <time>2012-06-15T10:13:49Z</time>
      </trkpt>
      <trkpt lat="43.350436" lon="-5.676345">
        <ele>388.0</ele>
        <time>2012-06-15T10:13:53Z</time>
      </trkpt>
      <trkpt lat="43.350866" lon="-5.676532">
        <ele>387.0</ele>
        <time>2012-06-15T10:13:57Z</time>
      </trkpt>
      <trkpt lat="43.351223" lon="-5.676634">
        <ele>387.0</ele>
        <time>2012-06-15T10:14:00Z</time>
      </trkpt>
      <trkpt lat="43.351866" lon="-5.676632">
        <ele>386.0</ele>
        <time>2012-06-15T10:14:05Z</time>
      </trkpt>
      <trkpt lat="43.352349" lon="-5.676788">
        <ele>387.0</ele>
        <time>2012-06-15T10:14:09Z</time>
      </trkpt>
      <trkpt lat="43.352791" lon="-5.67705">
        <ele>387.0</ele>
        <time>2012-06-15T10:14:13Z</time>
      </trkpt>
      <trkpt lat="43.35321" lon="-5.677389">
        <ele>386.0</ele>
        <time>2012-06-15T10:14:17Z</time>
      </trkpt>
      <trkpt lat="43.353627" lon="-5.67769">
        <ele>385.0</ele>
        <time>2012-06-15T10:14:21Z</time>
      </trkpt>
      <trkpt lat="43.35407" lon="-5.677828">
        <ele>385.0</ele>
        <time>2012-06-15T10:14:25Z</time>
      </trkpt>
      <trkpt lat="43.354553" lon="-5.677901">
        <ele>384.0</ele>
        <time>2012-06-15T10:14:29Z</time>
      </trkpt>
      <trkpt lat="43.355052" lon="-5.678007">
        <ele>381.0</ele>
        <time>2012-06-15T10:14:33Z</time>
      </trkpt>
      <trkpt lat="43.355431" lon="-5.678068">
        <ele>378.0</ele>
        <time>2012-06-15T10:14:36Z</time>
      </trkpt>
      <trkpt lat="43.356085" lon="-5.678152">
        <ele>374.0</ele>
        <time>2012-06-15T10:14:41Z</time>
      </trkpt>
      <trkpt lat="43.356608" lon="-5.678245">
        <ele>372.0</ele>
        <time>2012-06-15T10:14:45Z</time>
      </trkpt>
      <trkpt lat="43.3571" lon="-5.678369">
        <ele>372.0</ele>
        <time>2012-06-15T10:14:49Z</time>
      </trkpt>
      <trkpt lat="43.357571" lon="-5.678439">
        <ele>370.0</ele>
        <time>2012-06-15T10:14:53Z</time>
      </trkpt>
      <trkpt lat="43.358038" lon="-5.678521">
        <ele>369.0</ele>
        <time>2012-06-15T10:14:57Z</time>
      </trkpt>
      <trkpt lat="43.358494" lon="-5.678635">
        <ele>369.0</ele>
        <time>2012-06-15T10:15:01Z</time>
      </trkpt>
      <trkpt lat="43.358885" lon="-5.678849">
        <ele>368.0</ele>
        <time>2012-06-15T10:15:05Z</time>
      </trkpt>
      <trkpt lat="43.359229" lon="-5.678987">
        <ele>368.0</ele>
        <time>2012-06-15T10:15:09Z</time>
      </trkpt>
      <trkpt lat="43.35949" lon="-5.679252">
        <ele>368.0</ele>
        <time>2012-06-15T10:15:13Z</time>
      </trkpt>
      <trkpt lat="43.35977" lon="-5.679533">
        <ele>368.0</ele>
        <time>2012-06-15T10:15:17Z</time>
      </trkpt>
      <trkpt lat="43.360064" lon="-5.679816">
        <ele>367.0</ele>
        <time>2012-06-15T10:15:21Z</time>
      </trkpt>
      <trkpt lat="43.360326" lon="-5.680184">
        <ele>365.0</ele>
        <time>2012-06-15T10:15:25Z</time>
      </trkpt>
      <trkpt lat="43.360543" lon="-5.68062">
        <ele>363.0</ele>
        <time>2012-06-15T10:15:29Z</time>
      </trkpt>
      <trkpt lat="43.360737" lon="-5.681058">
        <ele>362.0</ele>
        <time>2012-06-15T10:15:33Z</time>
      </trkpt>
      <trkpt lat="43.360983" lon="-5.681487">
        <ele>362.0</ele>
        <time>2012-06-15T10:15:37Z</time>
      </trkpt>
      <trkpt lat="43.361236" lon="-5.681895">
        <ele>361.0</ele>
        <time>2012-06-15T10:15:41Z</time>
      </trkpt>
      <trkpt lat="43.361492" lon="-5.682313">
        <ele>360.0</ele>
        <time>2012-06-15T10:15:45Z</time>
      </trkpt>
      <trkpt lat="43.361725" lon="-5.682745">
        <ele>359.0</ele>
        <time>2012-06-15T10:15:49Z</time>
      </trkpt>
      <trkpt lat="43.361951" lon="-5.683197">
        <ele>358.0</ele>
        <time>2012-06-15T10:15:53Z</time>
      </trkpt>
      <trkpt lat="43.362207" lon="-5.683633">
        <ele>358.0</ele>
        <time>2012-06-15T10:15:57Z</time>
      </trkpt>
      <trkpt lat="43.362532" lon="-5.684104">
        <ele>358.0</ele>
        <time>2012-06-15T10:16:01Z</time>
      </trkpt>
      <trkpt lat="43.362842" lon="-5.684561">
        <ele>357.0</ele>
        <time>2012-06-15T10:16:05Z</time>
      </trkpt>
      <trkpt lat="43.363139" lon="-5.684993">
        <ele>357.0</ele>
        <time>2012-06-15T10:16:09Z</time>
      </trkpt>
      <trkpt lat="43.363418" lon="-5.685398">
        <ele>357.0</ele>
        <time>2012-06-15T10:16:13Z</time>
      </trkpt>
      <trkpt lat="43.363691" lon="-5.685789">
        <ele>357.0</ele>
        <time>2012-06-15T10:16:17Z</time>
      </trkpt>
      <trkpt lat="43.363969" lon="-5.686174">
        <ele>355.0</ele>
        <time>2012-06-15T10:16:21Z</time>
      </trkpt>
      <trkpt lat="43.364269" lon="-5.686548">
        <ele>354.0</ele>
        <time>2012-06-15T10:16:25Z</time>
      </trkpt>
      <trkpt lat="43.364571" lon="-5.68693">
        <ele>353.0</ele>
        <time>2012-06-15T10:16:29Z</time>
      </trkpt>
      <trkpt lat="43.36486" lon="-5.687309">
        <ele>353.0</ele>
        <time>2012-06-15T10:16:33Z</time>
      </trkpt>
      <trkpt lat="43.365136" lon="-5.687707">
        <ele>353.0</ele>
        <time>2012-06-15T10:16:37Z</time>
      </trkpt>
      <trkpt lat="43.365274" lon="-5.687907">
        <ele>353.0</ele>
        <time>2012-06-15T10:16:39Z</time>
      </trkpt>
      <trkpt lat="43.366614" lon="-5.688861">
        <ele>346.0</ele>
        <time>2012-06-15T10:16:53Z</time>
      </trkpt>
      <trkpt lat="43.366736" lon="-5.689313">
        <ele>345.0</ele>
        <time>2012-06-15T10:16:57Z</time>
      </trkpt>
      <trkpt lat="43.366942" lon="-5.68977">
        <ele>345.0</ele>
        <time>2012-06-15T10:17:01Z</time>
      </trkpt>
      <trkpt lat="43.367186" lon="-5.690179">
        <ele>345.0</ele>
        <time>2012-06-15T10:17:05Z</time>
      </trkpt>
      <trkpt lat="43.367388" lon="-5.690452">
        <ele>344.0</ele>
        <time>2012-06-15T10:17:08Z</time>
      </trkpt>
      <trkpt lat="43.36777" lon="-5.690872">
        <ele>342.0</ele>
        <time>2012-06-15T10:17:13Z</time>
      </trkpt>
      <trkpt lat="43.368099" lon="-5.691181">
        <ele>341.0</ele>
        <time>2012-06-15T10:17:17Z</time>
      </trkpt>
      <trkpt lat="43.368433" lon="-5.691474">
        <ele>340.0</ele>
        <time>2012-06-15T10:17:21Z</time>
      </trkpt>
      <trkpt lat="43.36875" lon="-5.691776">
        <ele>339.0</ele>
        <time>2012-06-15T10:17:25Z</time>
      </trkpt>
      <trkpt lat="43.369071" lon="-5.692079">
        <ele>338.0</ele>
        <time>2012-06-15T10:17:29Z</time>
      </trkpt>
      <trkpt lat="43.369407" lon="-5.692366">
        <ele>338.0</ele>
        <time>2012-06-15T10:17:33Z</time>
      </trkpt>
      <trkpt lat="43.369735" lon="-5.692626">
        <ele>338.0</ele>
        <time>2012-06-15T10:17:37Z</time>
      </trkpt>
      <trkpt lat="43.370043" lon="-5.692882">
        <ele>336.0</ele>
        <time>2012-06-15T10:17:41Z</time>
      </trkpt>
      <trkpt lat="43.370334" lon="-5.69313">
        <ele>331.0</ele>
        <time>2012-06-15T10:17:45Z</time>
      </trkpt>
      <trkpt lat="43.370602" lon="-5.693386">
        <ele>325.0</ele>
        <time>2012-06-15T10:17:49Z</time>
      </trkpt>
      <trkpt lat="43.370893" lon="-5.693697">
        <ele>323.0</ele>
        <time>2012-06-15T10:17:53Z</time>
      </trkpt>
      <trkpt lat="43.371206" lon="-5.694051">
        <ele>322.0</ele>
        <time>2012-06-15T10:17:57Z</time>
      </trkpt>
      <trkpt lat="43.371531" lon="-5.694399">
        <ele>322.0</ele>
        <time>2012-06-15T10:18:01Z</time>
      </trkpt>
      <trkpt lat="43.371867" lon="-5.69459">
        <ele>323.0</ele>
        <time>2012-06-15T10:18:05Z</time>
      </trkpt>
      <trkpt lat="43.37218" lon="-5.694674">
        <ele>323.0</ele>
        <time>2012-06-15T10:18:09Z</time>
      </trkpt>
      <trkpt lat="43.372453" lon="-5.694748">
        <ele>322.0</ele>
        <time>2012-06-15T10:18:13Z</time>
      </trkpt>
      <trkpt lat="43.37272" lon="-5.694814">
        <ele>320.0</ele>
        <time>2012-06-15T10:18:17Z</time>
      </trkpt>
      <trkpt lat="43.372991" lon="-5.69488">
        <ele>318.0</ele>
        <time>2012-06-15T10:18:21Z</time>
      </trkpt>
      <trkpt lat="43.373284" lon="-5.694937">
        <ele>316.0</ele>
        <time>2012-06-15T10:18:25Z</time>
      </trkpt>
      <trkpt lat="43.373589" lon="-5.695001">
        <ele>316.0</ele>
        <time>2012-06-15T10:18:29Z</time>
      </trkpt>
      <trkpt lat="43.373814" lon="-5.695059">
        <ele>315.0</ele>
        <time>2012-06-15T10:18:32Z</time>
      </trkpt>
      <trkpt lat="43.374142" lon="-5.695267">
        <ele>315.0</ele>
        <time>2012-06-15T10:18:37Z</time>
      </trkpt>
      <trkpt lat="43.37438" lon="-5.695467">
        <ele>314.0</ele>
        <time>2012-06-15T10:18:41Z</time>
      </trkpt>
      <trkpt lat="43.37461" lon="-5.695667">
        <ele>314.0</ele>
        <time>2012-06-15T10:18:45Z</time>
      </trkpt>
      <trkpt lat="43.374825" lon="-5.695876">
        <ele>313.0</ele>
        <time>2012-06-15T10:18:49Z</time>
      </trkpt>
      <trkpt lat="43.375015" lon="-5.696106">
        <ele>313.0</ele>
        <time>2012-06-15T10:18:53Z</time>
      </trkpt>
      <trkpt lat="43.375194" lon="-5.696396">
        <ele>313.0</ele>
        <time>2012-06-15T10:18:57Z</time>
      </trkpt>
      <trkpt lat="43.375402" lon="-5.696651">
        <ele>312.0</ele>
        <time>2012-06-15T10:19:01Z</time>
      </trkpt>
      <trkpt lat="43.375653" lon="-5.696867">
        <ele>311.0</ele>
        <time>2012-06-15T10:19:05Z</time>
      </trkpt>
      <trkpt lat="43.37578" lon="-5.696957">
        <ele>311.0</ele>
        <time>2012-06-15T10:19:07Z</time>
      </trkpt>
      <trkpt lat="43.376146" lon="-5.697192">
        <ele>311.0</ele>
        <time>2012-06-15T10:19:13Z</time>
      </trkpt>
      <trkpt lat="43.376393" lon="-5.697333">
        <ele>311.0</ele>
        <time>2012-06-15T10:19:17Z</time>
      </trkpt>
      <trkpt lat="43.376576" lon="-5.697438">
        <ele>311.0</ele>
        <time>2012-06-15T10:19:20Z</time>
      </trkpt>
      <trkpt lat="43.376874" lon="-5.697631">
        <ele>310.0</ele>
        <time>2012-06-15T10:19:25Z</time>
      </trkpt>
      <trkpt lat="43.37699" lon="-5.697709">
        <ele>310.0</ele>
        <time>2012-06-15T10:19:27Z</time>
      </trkpt>
      <trkpt lat="43.377241" lon="-5.697871">
        <ele>311.0</ele>
        <time>2012-06-15T10:19:32Z</time>
      </trkpt>
      <trkpt lat="43.377439" lon="-5.697987">
        <ele>311.0</ele>
        <time>2012-06-15T10:19:41Z</time>
      </trkpt>
      <trkpt lat="43.377497" lon="-5.69805">
        <ele>311.0</ele>
        <time>2012-06-15T10:19:45Z</time>
      </trkpt>
      <trkpt lat="43.377497" lon="-5.69805">
        <time>2012-06-15T10:19:56Z</time>
      </trkpt>
    </trkseg>
    <trkseg>
      <trkpt lat="43.377497" lon="-5.69805">
        <time>2012-06-15T10:20:48Z</time>
      </trkpt>
      <trkpt lat="43.37772" lon="-5.69819">
        <ele>310.0</ele>
        <time>2012-06-15T10:20:52Z</time>
      </trkpt>
      <trkpt lat="43.378036" lon="-5.698324">
        <ele>309.0</ele>
        <time>2012-06-15T10:20:57Z</time>
      </trkpt>
      <trkpt lat="43.378321" lon="-5.698429">
        <ele>309.0</ele>
        <time>2012-06-15T10:21:01Z</time>
      </trkpt>
      <trkpt lat="43.378544" lon="-5.698498">
        <ele>309.0</ele>
        <time>2012-06-15T10:21:04Z</time>
      </trkpt>
      <trkpt lat="43.378922" lon="-5.698613">
        <ele>308.0</ele>
        <time>2012-06-15T10:21:09Z</time>
      </trkpt>
      <trkpt lat="43.379157" lon="-5.698699">
        <ele>308.0</ele>
        <time>2012-06-15T10:21:12Z</time>
      </trkpt>
      <trkpt lat="43.379573" lon="-5.698907">
        <ele>308.0</ele>
        <time>2012-06-15T10:21:17Z</time>
      </trkpt>
      <trkpt lat="43.37991" lon="-5.699078">
        <ele>308.0</ele>
        <time>2012-06-15T10:21:21Z</time>
      </trkpt>
      <trkpt lat="43.380247" lon="-5.699236">
        <ele>307.0</ele>
        <time>2012-06-15T10:21:25Z</time>
      </trkpt>
      <trkpt lat="43.38058" lon="-5.699388">
        <ele>306.0</ele>
        <time>2012-06-15T10:21:29Z</time>
      </trkpt>
      <trkpt lat="43.380915" lon="-5.699526">
        <ele>304.0</ele>
        <time>2012-06-15T10:21:33Z</time>
      </trkpt>
      <trkpt lat="43.381246" lon="-5.699645">
        <ele>303.0</ele>
        <time>2012-06-15T10:21:37Z</time>
      </trkpt>
      <trkpt lat="43.381498" lon="-5.699771">
        <ele>304.0</ele>
        <time>2012-06-15T10:21:41Z</time>
      </trkpt>
      <trkpt lat="43.381665" lon="-5.700002">
        <ele>304.0</ele>
        <time>2012-06-15T10:21:45Z</time>
      </trkpt>
      <trkpt lat="43.381876" lon="-5.700105">
        <ele>304.0</ele>
        <time>2012-06-15T10:21:49Z</time>
      </trkpt>
      <trkpt lat="43.38209" lon="-5.700181">
        <ele>304.0</ele>
        <time>2012-06-15T10:21:53Z</time>
      </trkpt>
      <trkpt lat="43.382301" lon="-5.700246">
        <ele>304.0</ele>
        <time>2012-06-15T10:21:57Z</time>
      </trkpt>
      <trkpt lat="43.382411" lon="-5.700279">
        <ele>304.0</ele>
        <time>2012-06-15T10:21:59Z</time>
      </trkpt>
      <trkpt lat="43.382764" lon="-5.700422">
        <ele>303.0</ele>
        <time>2012-06-15T10:22:05Z</time>
      </trkpt>
      <trkpt lat="43.38305" lon="-5.700545">
        <ele>302.0</ele>
        <time>2012-06-15T10:22:09Z</time>
      </trkpt>
      <trkpt lat="43.383369" lon="-5.70065">
        <ele>301.0</ele>
        <time>2012-06-15T10:22:13Z</time>
      </trkpt>
      <trkpt lat="43.383646" lon="-5.700712">
        <ele>300.0</ele>
        <time>2012-06-15T10:22:17Z</time>
      </trkpt>
      <trkpt lat="43.383831" lon="-5.700761">
        <ele>300.0</ele>
        <time>2012-06-15T10:22:20Z</time>
      </trkpt>
      <trkpt lat="43.383947" lon="-5.7008">
        <ele>299.0</ele>
        <time>2012-06-15T10:22:22Z</time>
      </trkpt>
      <trkpt lat="43.384163" lon="-5.700887">
        <ele>299.0</ele>
        <time>2012-06-15T10:22:26Z</time>
      </trkpt>
      <trkpt lat="43.384463" lon="-5.70098">
        <ele>299.0</ele>
        <time>2012-06-15T10:22:32Z</time>
      </trkpt>
      <trkpt lat="43.384656" lon="-5.701011">
        <ele>299.0</ele>
        <time>2012-06-15T10:22:36Z</time>
      </trkpt>
      <trkpt lat="43.384893" lon="-5.701066">
        <ele>299.0</ele>
        <time>2012-06-15T10:22:43Z</time>
      </trkpt>
      <trkpt lat="43.384893" lon="-5.701066">
        <time>2012-06-15T10:22:54Z</time>
      </trkpt>
    </trkseg>
    <trkseg>
      <trkpt lat="43.384893" lon="-5.701066">
        <time>2012-06-15T10:23:10Z</time>
      </trkpt>
      <trkpt lat="43.385059" lon="-5.701143">
        <ele>299.0</ele>
        <time>2012-06-15T10:23:13Z</time>
      </trkpt>
      <trkpt lat="43.385428" lon="-5.701413">
        <ele>301.0</ele>
        <time>2012-06-15T10:23:20Z</time>
      </trkpt>
      <trkpt lat="43.385611" lon="-5.701525">
        <ele>301.0</ele>
        <time>2012-06-15T10:23:23Z</time>
      </trkpt>
      <trkpt lat="43.385841" lon="-5.701806">
        <ele>302.0</ele>
        <time>2012-06-15T10:23:28Z</time>
      </trkpt>
      <trkpt lat="43.38587" lon="-5.702159">
        <ele>301.0</ele>
        <time>2012-06-15T10:23:32Z</time>
      </trkpt>
      <trkpt lat="43.385836" lon="-5.702505">
        <ele>301.0</ele>
        <time>2012-06-15T10:23:36Z</time>
      </trkpt>
      <trkpt lat="43.385766" lon="-5.703158">
        <ele>302.0</ele>
        <time>2012-06-15T10:23:44Z</time>
      </trkpt>
      <trkpt lat="43.385692" lon="-5.703496">
        <ele>301.0</ele>
        <time>2012-06-15T10:23:48Z</time>
      </trkpt>
      <trkpt lat="43.385626" lon="-5.703865">
        <ele>299.0</ele>
        <time>2012-06-15T10:23:52Z</time>
      </trkpt>
      <trkpt lat="43.385586" lon="-5.704215">
        <ele>295.0</ele>
        <time>2012-06-15T10:23:56Z</time>
      </trkpt>
      <trkpt lat="43.385483" lon="-5.704499">
        <ele>292.0</ele>
        <time>2012-06-15T10:24:00Z</time>
      </trkpt>
      <trkpt lat="43.385357" lon="-5.704765">
        <ele>290.0</ele>
        <time>2012-06-15T10:24:04Z</time>
      </trkpt>
      <trkpt lat="43.385257" lon="-5.705059">
        <ele>289.0</ele>
        <time>2012-06-15T10:24:08Z</time>
      </trkpt>
      <trkpt lat="43.385158" lon="-5.705367">
        <ele>288.0</ele>
        <time>2012-06-15T10:24:12Z</time>
      </trkpt>
      <trkpt lat="43.385098" lon="-5.705727">
        <ele>287.0</ele>
        <time>2012-06-15T10:24:16Z</time>
      </trkpt>
      <trkpt lat="43.384974" lon="-5.706138">
        <ele>286.0</ele>
        <time>2012-06-15T10:24:20Z</time>
      </trkpt>
      <trkpt lat="43.384867" lon="-5.706768">
        <ele>285.0</ele>
        <time>2012-06-15T10:24:25Z</time>
      </trkpt>
      <trkpt lat="43.384839" lon="-5.707166">
        <ele>284.0</ele>
        <time>2012-06-15T10:24:28Z</time>
      </trkpt>
      <trkpt lat="43.384863" lon="-5.707709">
        <ele>284.0</ele>
        <time>2012-06-15T10:24:32Z</time>
      </trkpt>
      <trkpt lat="43.384942" lon="-5.708228">
        <ele>283.0</ele>
        <time>2012-06-15T10:24:36Z</time>
      </trkpt>
      <trkpt lat="43.385021" lon="-5.708849">
        <ele>282.0</ele>
        <time>2012-06-15T10:24:41Z</time>
      </trkpt>
      <trkpt lat="43.385098" lon="-5.709326">
        <ele>282.0</ele>
        <time>2012-06-15T10:24:45Z</time>
      </trkpt>
      <trkpt lat="43.385173" lon="-5.709806">
        <ele>281.0</ele>
        <time>2012-06-15T10:24:49Z</time>
      </trkpt>
      <trkpt lat="43.38525" lon="-5.710275">
        <ele>281.0</ele>
        <time>2012-06-15T10:24:53Z</time>
      </trkpt>
      <trkpt lat="43.385326" lon="-5.710743">
        <ele>281.0</ele>
        <time>2012-06-15T10:24:57Z</time>
      </trkpt>
      <trkpt lat="43.385408" lon="-5.711213">
        <ele>281.0</ele>
        <time>2012-06-15T10:25:01Z</time>
      </trkpt>
      <trkpt lat="43.385491" lon="-5.711682">
        <ele>281.0</ele>
        <time>2012-06-15T10:25:05Z</time>
      </trkpt>
      <trkpt lat="43.385566" lon="-5.712155">
        <ele>281.0</ele>
        <time>2012-06-15T10:25:09Z</time>
      </trkpt>
      <trkpt lat="43.385601" lon="-5.712391">
        <ele>281.0</ele>
        <time>2012-06-15T10:25:11Z</time>
      </trkpt>
      <trkpt lat="43.385644" lon="-5.713125">
        <ele>281.0</ele>
        <time>2012-06-15T10:25:17Z</time>
      </trkpt>
      <trkpt lat="43.385666" lon="-5.713646">
        <ele>282.0</ele>
        <time>2012-06-15T10:25:21Z</time>
      </trkpt>
      <trkpt lat="43.385688" lon="-5.71418">
        <ele>282.0</ele>
        <time>2012-06-15T10:25:25Z</time>
      </trkpt>
      <trkpt lat="43.38571" lon="-5.71474">
        <ele>282.0</ele>
        <time>2012-06-15T10:25:29Z</time>
      </trkpt>
      <trkpt lat="43.385737" lon="-5.715312">
        <ele>282.0</ele>
        <time>2012-06-15T10:25:33Z</time>
      </trkpt>
      <trkpt lat="43.385758" lon="-5.715598">
        <ele>282.0</ele>
        <time>2012-06-15T10:25:35Z</time>
      </trkpt>
      <trkpt lat="43.385819" lon="-5.716422">
        <ele>282.0</ele>
        <time>2012-06-15T10:25:41Z</time>
      </trkpt>
      <trkpt lat="43.385842" lon="-5.7168">
        <ele>282.0</ele>
        <time>2012-06-15T10:25:44Z</time>
      </trkpt>
      <trkpt lat="43.385888" lon="-5.717438">
        <ele>282.0</ele>
        <time>2012-06-15T10:25:49Z</time>
      </trkpt>
      <trkpt lat="43.385927" lon="-5.717969">
        <ele>282.0</ele>
        <time>2012-06-15T10:25:53Z</time>
      </trkpt>
      <trkpt lat="43.38597" lon="-5.718515">
        <ele>281.0</ele>
        <time>2012-06-15T10:25:57Z</time>
      </trkpt>
      <trkpt lat="43.385996" lon="-5.718927">
        <ele>281.0</ele>
        <time>2012-06-15T10:26:00Z</time>
      </trkpt>
      <trkpt lat="43.386044" lon="-5.719649">
        <ele>281.0</ele>
        <time>2012-06-15T10:26:05Z</time>
      </trkpt>
      <trkpt lat="43.386087" lon="-5.720223">
        <ele>280.0</ele>
        <time>2012-06-15T10:26:09Z</time>
      </trkpt>
      <trkpt lat="43.386136" lon="-5.720769">
        <ele>280.0</ele>
        <time>2012-06-15T10:26:13Z</time>
      </trkpt>
      <trkpt lat="43.386182" lon="-5.721299">
        <ele>280.0</ele>
        <time>2012-06-15T10:26:17Z</time>
      </trkpt>
      <trkpt lat="43.386202" lon="-5.721555">
        <ele>281.0</ele>
        <time>2012-06-15T10:26:19Z</time>
      </trkpt>
      <trkpt lat="43.386253" lon="-5.722069">
        <ele>281.0</ele>
        <time>2012-06-15T10:26:23Z</time>
      </trkpt>
      <trkpt lat="43.386294" lon="-5.722878">
        <ele>280.0</ele>
        <time>2012-06-15T10:26:29Z</time>
      </trkpt>
      <trkpt lat="43.386296" lon="-5.723408">
        <ele>280.0</ele>
        <time>2012-06-15T10:26:33Z</time>
      </trkpt>
      <trkpt lat="43.386258" lon="-5.723914">
        <ele>280.0</ele>
        <time>2012-06-15T10:26:37Z</time>
      </trkpt>
      <trkpt lat="43.386231" lon="-5.724408">
        <ele>280.0</ele>
        <time>2012-06-15T10:26:41Z</time>
      </trkpt>
      <trkpt lat="43.386377" lon="-5.724851">
        <ele>280.0</ele>
        <time>2012-06-15T10:26:45Z</time>
      </trkpt>
      <trkpt lat="43.386428" lon="-5.72531">
        <ele>280.0</ele>
        <time>2012-06-15T10:26:49Z</time>
      </trkpt>
      <trkpt lat="43.386262" lon="-5.725685">
        <ele>281.0</ele>
        <time>2012-06-15T10:26:53Z</time>
      </trkpt>
      <trkpt lat="43.386108" lon="-5.726046">
        <ele>281.0</ele>
        <time>2012-06-15T10:26:57Z</time>
      </trkpt>
      <trkpt lat="43.385809" lon="-5.726197">
        <ele>280.0</ele>
        <time>2012-06-15T10:27:01Z</time>
      </trkpt>
      <trkpt lat="43.385453" lon="-5.726316">
        <ele>279.0</ele>
        <time>2012-06-15T10:27:05Z</time>
      </trkpt>
      <trkpt lat="43.385108" lon="-5.726468">
        <ele>276.0</ele>
        <time>2012-06-15T10:27:09Z</time>
      </trkpt>
      <trkpt lat="43.384794" lon="-5.726674">
        <ele>274.0</ele>
        <time>2012-06-15T10:27:13Z</time>
      </trkpt>
      <trkpt lat="43.384477" lon="-5.726906">
        <ele>272.0</ele>
        <time>2012-06-15T10:27:17Z</time>
      </trkpt>
      <trkpt lat="43.384163" lon="-5.727155">
        <ele>271.0</ele>
        <time>2012-06-15T10:27:21Z</time>
      </trkpt>
      <trkpt lat="43.383834" lon="-5.727411">
        <ele>270.0</ele>
        <time>2012-06-15T10:27:25Z</time>
      </trkpt>
      <trkpt lat="43.38351" lon="-5.727682">
        <ele>269.0</ele>
        <time>2012-06-15T10:27:29Z</time>
      </trkpt>
      <trkpt lat="43.383202" lon="-5.727979">
        <ele>268.0</ele>
        <time>2012-06-15T10:27:33Z</time>
      </trkpt>
      <trkpt lat="43.382867" lon="-5.728279">
        <ele>267.0</ele>
        <time>2012-06-15T10:27:37Z</time>
      </trkpt>
      <trkpt lat="43.382537" lon="-5.728608">
        <ele>267.0</ele>
        <time>2012-06-15T10:27:41Z</time>
      </trkpt>
      <trkpt lat="43.38225" lon="-5.729024">
        <ele>266.0</ele>
        <time>2012-06-15T10:27:45Z</time>
      </trkpt>
      <trkpt lat="43.382097" lon="-5.729567">
        <ele>265.0</ele>
        <time>2012-06-15T10:27:49Z</time>
      </trkpt>
      <trkpt lat="43.382063" lon="-5.730154">
        <ele>264.0</ele>
        <time>2012-06-15T10:27:53Z</time>
      </trkpt>
      <trkpt lat="43.382068" lon="-5.730737">
        <ele>263.0</ele>
        <time>2012-06-15T10:27:57Z</time>
      </trkpt>
      <trkpt lat="43.382089" lon="-5.731311">
        <ele>262.0</ele>
        <time>2012-06-15T10:28:01Z</time>
      </trkpt>
      <trkpt lat="43.38209" lon="-5.731877">
        <ele>262.0</ele>
        <time>2012-06-15T10:28:05Z</time>
      </trkpt>
      <trkpt lat="43.382069" lon="-5.732445">
        <ele>262.0</ele>
        <time>2012-06-15T10:28:09Z</time>
      </trkpt>
      <trkpt lat="43.382053" lon="-5.73287">
        <ele>262.0</ele>
        <time>2012-06-15T10:28:12Z</time>
      </trkpt>
      <trkpt lat="43.382008" lon="-5.733571">
        <ele>262.0</ele>
        <time>2012-06-15T10:28:17Z</time>
      </trkpt>
      <trkpt lat="43.381947" lon="-5.734099">
        <ele>262.0</ele>
        <time>2012-06-15T10:28:21Z</time>
      </trkpt>
      <trkpt lat="43.381913" lon="-5.734649">
        <ele>262.0</ele>
        <time>2012-06-15T10:28:25Z</time>
      </trkpt>
      <trkpt lat="43.381891" lon="-5.73521">
        <ele>262.0</ele>
        <time>2012-06-15T10:28:29Z</time>
      </trkpt>
      <trkpt lat="43.381877" lon="-5.735768">
        <ele>262.0</ele>
        <time>2012-06-15T10:28:33Z</time>
      </trkpt>
      <trkpt lat="43.381854" lon="-5.736334">
        <ele>261.0</ele>
        <time>2012-06-15T10:28:37Z</time>
      </trkpt>
      <trkpt lat="43.381836" lon="-5.736754">
        <ele>261.0</ele>
        <time>2012-06-15T10:28:40Z</time>
      </trkpt>
      <trkpt lat="43.381826" lon="-5.737398">
        <ele>259.0</ele>
        <time>2012-06-15T10:28:45Z</time>
      </trkpt>
      <trkpt lat="43.381807" lon="-5.737894">
        <ele>258.0</ele>
        <time>2012-06-15T10:28:49Z</time>
      </trkpt>
      <trkpt lat="43.381781" lon="-5.738379">
        <ele>258.0</ele>
        <time>2012-06-15T10:28:53Z</time>
      </trkpt>
      <trkpt lat="43.381731" lon="-5.738861">
        <ele>257.0</ele>
        <time>2012-06-15T10:28:57Z</time>
      </trkpt>
      <trkpt lat="43.381695" lon="-5.739419">
        <ele>256.0</ele>
        <time>2012-06-15T10:29:01Z</time>
      </trkpt>
      <trkpt lat="43.381654" lon="-5.740015">
        <ele>255.0</ele>
        <time>2012-06-15T10:29:05Z</time>
      </trkpt>
      <trkpt lat="43.381613" lon="-5.740616">
        <ele>255.0</ele>
        <time>2012-06-15T10:29:09Z</time>
      </trkpt>
      <trkpt lat="43.381585" lon="-5.741206">
        <ele>254.0</ele>
        <time>2012-06-15T10:29:13Z</time>
      </trkpt>
      <trkpt lat="43.381559" lon="-5.741785">
        <ele>252.0</ele>
        <time>2012-06-15T10:29:17Z</time>
      </trkpt>
      <trkpt lat="43.38152" lon="-5.742362">
        <ele>252.0</ele>
        <time>2012-06-15T10:29:21Z</time>
      </trkpt>
      <trkpt lat="43.381478" lon="-5.742944">
        <ele>252.0</ele>
        <time>2012-06-15T10:29:25Z</time>
      </trkpt>
      <trkpt lat="43.381439" lon="-5.743232">
        <ele>252.0</ele>
        <time>2012-06-15T10:29:27Z</time>
      </trkpt>
      <trkpt lat="43.381466" lon="-5.7441">
        <ele>252.0</ele>
        <time>2012-06-15T10:29:33Z</time>
      </trkpt>
      <trkpt lat="43.381702" lon="-5.744546">
        <ele>252.0</ele>
        <time>2012-06-15T10:29:37Z</time>
      </trkpt>
      <trkpt lat="43.381867" lon="-5.744705">
        <ele>252.0</ele>
        <time>2012-06-15T10:29:39Z</time>
      </trkpt>
      <trkpt lat="43.382326" lon="-5.745156">
        <ele>252.0</ele>
        <time>2012-06-15T10:29:45Z</time>
      </trkpt>
      <trkpt lat="43.38253" lon="-5.745374">
        <ele>252.0</ele>
        <time>2012-06-15T10:29:49Z</time>
      </trkpt>
      <trkpt lat="43.38265" lon="-5.745471">
        <ele>252.0</ele>
        <time>2012-06-15T10:29:53Z</time>
      </trkpt>
      <trkpt lat="43.382802" lon="-5.74562">
        <ele>252.0</ele>
        <time>2012-06-15T10:29:57Z</time>
      </trkpt>
      <trkpt lat="43.382845" lon="-5.745969">
        <ele>252.0</ele>
        <time>2012-06-15T10:30:01Z</time>
      </trkpt>
      <trkpt lat="43.382838" lon="-5.746373">
        <ele>254.0</ele>
        <time>2012-06-15T10:30:05Z</time>
      </trkpt>
      <trkpt lat="43.38283" lon="-5.746799">
        <ele>256.0</ele>
        <time>2012-06-15T10:30:09Z</time>
      </trkpt>
      <trkpt lat="43.382835" lon="-5.747245">
        <ele>257.0</ele>
        <time>2012-06-15T10:30:13Z</time>
      </trkpt>
      <trkpt lat="43.382853" lon="-5.747696">
        <ele>258.0</ele>
        <time>2012-06-15T10:30:17Z</time>
      </trkpt>
      <trkpt lat="43.382885" lon="-5.74816">
        <ele>258.0</ele>
        <time>2012-06-15T10:30:21Z</time>
      </trkpt>
      <trkpt lat="43.382921" lon="-5.74864">
        <ele>258.0</ele>
        <time>2012-06-15T10:30:25Z</time>
      </trkpt>
      <trkpt lat="43.38296" lon="-5.749005">
        <ele>258.0</ele>
        <time>2012-06-15T10:30:28Z</time>
      </trkpt>
      <trkpt lat="43.383012" lon="-5.749618">
        <ele>257.0</ele>
        <time>2012-06-15T10:30:33Z</time>
      </trkpt>
      <trkpt lat="43.383061" lon="-5.750109">
        <ele>257.0</ele>
        <time>2012-06-15T10:30:37Z</time>
      </trkpt>
      <trkpt lat="43.383106" lon="-5.75064">
        <ele>257.0</ele>
        <time>2012-06-15T10:30:41Z</time>
      </trkpt>
      <trkpt lat="43.383133" lon="-5.751051">
        <ele>257.0</ele>
        <time>2012-06-15T10:30:44Z</time>
      </trkpt>
      <trkpt lat="43.383169" lon="-5.751727">
        <ele>257.0</ele>
        <time>2012-06-15T10:30:49Z</time>
      </trkpt>
      <trkpt lat="43.383199" lon="-5.752257">
        <ele>257.0</ele>
        <time>2012-06-15T10:30:53Z</time>
      </trkpt>
      <trkpt lat="43.383216" lon="-5.752814">
        <ele>257.0</ele>
        <time>2012-06-15T10:30:57Z</time>
      </trkpt>
      <trkpt lat="43.383235" lon="-5.753384">
        <ele>256.0</ele>
        <time>2012-06-15T10:31:01Z</time>
      </trkpt>
      <trkpt lat="43.383247" lon="-5.753954">
        <ele>255.0</ele>
        <time>2012-06-15T10:31:05Z</time>
      </trkpt>
      <trkpt lat="43.38327" lon="-5.754369">
        <ele>255.0</ele>
        <time>2012-06-15T10:31:08Z</time>
      </trkpt>
      <trkpt lat="43.383302" lon="-5.755043">
        <ele>254.0</ele>
        <time>2012-06-15T10:31:13Z</time>
      </trkpt>
      <trkpt lat="43.383315" lon="-5.755292">
        <ele>254.0</ele>
        <time>2012-06-15T10:31:15Z</time>
      </trkpt>
      <trkpt lat="43.383376" lon="-5.756022">
        <ele>254.0</ele>
        <time>2012-06-15T10:31:21Z</time>
      </trkpt>
      <trkpt lat="43.383398" lon="-5.756552">
        <ele>254.0</ele>
        <time>2012-06-15T10:31:25Z</time>
      </trkpt>
      <trkpt lat="43.383463" lon="-5.757103">
        <ele>254.0</ele>
        <time>2012-06-15T10:31:29Z</time>
      </trkpt>
      <trkpt lat="43.383615" lon="-5.757566">
        <ele>254.0</ele>
        <time>2012-06-15T10:31:33Z</time>
      </trkpt>
      <trkpt lat="43.383599" lon="-5.757998">
        <ele>255.0</ele>
        <time>2012-06-15T10:31:37Z</time>
      </trkpt>
      <trkpt lat="43.383513" lon="-5.758348">
        <ele>256.0</ele>
        <time>2012-06-15T10:31:40Z</time>
      </trkpt>
      <trkpt lat="43.383492" lon="-5.758971">
        <ele>257.0</ele>
        <time>2012-06-15T10:31:45Z</time>
      </trkpt>
      <trkpt lat="43.383504" lon="-5.759493">
        <ele>257.0</ele>
        <time>2012-06-15T10:31:49Z</time>
      </trkpt>
      <trkpt lat="43.383526" lon="-5.76">
        <ele>257.0</ele>
        <time>2012-06-15T10:31:53Z</time>
      </trkpt>
      <trkpt lat="43.383548" lon="-5.760493">
        <ele>256.0</ele>
        <time>2012-06-15T10:31:57Z</time>
      </trkpt>
      <trkpt lat="43.38357" lon="-5.76099">
        <ele>255.0</ele>
        <time>2012-06-15T10:32:01Z</time>
      </trkpt>
      <trkpt lat="43.383598" lon="-5.761477">
        <ele>254.0</ele>
        <time>2012-06-15T10:32:05Z</time>
      </trkpt>
      <trkpt lat="43.383625" lon="-5.761952">
        <ele>254.0</ele>
        <time>2012-06-15T10:32:09Z</time>
      </trkpt>
      <trkpt lat="43.38365" lon="-5.76242">
        <ele>254.0</ele>
        <time>2012-06-15T10:32:13Z</time>
      </trkpt>
      <trkpt lat="43.383676" lon="-5.762883">
        <ele>254.0</ele>
        <time>2012-06-15T10:32:17Z</time>
      </trkpt>
      <trkpt lat="43.383702" lon="-5.76334">
        <ele>254.0</ele>
        <time>2012-06-15T10:32:21Z</time>
      </trkpt>
      <trkpt lat="43.383718" lon="-5.763686">
        <ele>254.0</ele>
        <time>2012-06-15T10:32:24Z</time>
      </trkpt>
      <trkpt lat="43.383737" lon="-5.764259">
        <ele>254.0</ele>
        <time>2012-06-15T10:32:29Z</time>
      </trkpt>
      <trkpt lat="43.383756" lon="-5.764607">
        <ele>254.0</ele>
        <time>2012-06-15T10:32:32Z</time>
      </trkpt>
      <trkpt lat="43.383781" lon="-5.765194">
        <ele>255.0</ele>
        <time>2012-06-15T10:32:37Z</time>
      </trkpt>
      <trkpt lat="43.383803" lon="-5.765655">
        <ele>254.0</ele>
        <time>2012-06-15T10:32:41Z</time>
      </trkpt>
      <trkpt lat="43.38382" lon="-5.766101">
        <ele>254.0</ele>
        <time>2012-06-15T10:32:45Z</time>
      </trkpt>
      <trkpt lat="43.383838" lon="-5.766524">
        <ele>254.0</ele>
        <time>2012-06-15T10:32:49Z</time>
      </trkpt>
      <trkpt lat="43.383858" lon="-5.766938">
        <ele>254.0</ele>
        <time>2012-06-15T10:32:53Z</time>
      </trkpt>
      <trkpt lat="43.383864" lon="-5.767363">
        <ele>255.0</ele>
        <time>2012-06-15T10:32:57Z</time>
      </trkpt>
      <trkpt lat="43.383869" lon="-5.7678">
        <ele>255.0</ele>
        <time>2012-06-15T10:33:01Z</time>
      </trkpt>
      <trkpt lat="43.383879" lon="-5.768251">
        <ele>255.0</ele>
        <time>2012-06-15T10:33:05Z</time>
      </trkpt>
      <trkpt lat="43.383889" lon="-5.768697">
        <ele>256.0</ele>
        <time>2012-06-15T10:33:09Z</time>
      </trkpt>
      <trkpt lat="43.383908" lon="-5.769155">
        <ele>256.0</ele>
        <time>2012-06-15T10:33:13Z</time>
      </trkpt>
      <trkpt lat="43.383916" lon="-5.769654">
        <ele>256.0</ele>
        <time>2012-06-15T10:33:17Z</time>
      </trkpt>
      <trkpt lat="43.383914" lon="-5.770189">
        <ele>256.0</ele>
        <time>2012-06-15T10:33:21Z</time>
      </trkpt>
      <trkpt lat="43.383905" lon="-5.770731">
        <ele>256.0</ele>
        <time>2012-06-15T10:33:25Z</time>
      </trkpt>
      <trkpt lat="43.383883" lon="-5.771126">
        <ele>256.0</ele>
        <time>2012-06-15T10:33:28Z</time>
      </trkpt>
      <trkpt lat="43.383866" lon="-5.771738">
        <ele>255.0</ele>
        <time>2012-06-15T10:33:33Z</time>
      </trkpt>
      <trkpt lat="43.383834" lon="-5.772189">
        <ele>255.0</ele>
        <time>2012-06-15T10:33:37Z</time>
      </trkpt>
      <trkpt lat="43.383813" lon="-5.772623">
        <ele>255.0</ele>
        <time>2012-06-15T10:33:41Z</time>
      </trkpt>
      <trkpt lat="43.383782" lon="-5.773035">
        <ele>256.0</ele>
        <time>2012-06-15T10:33:45Z</time>
      </trkpt>
      <trkpt lat="43.383734" lon="-5.773465">
        <ele>256.0</ele>
        <time>2012-06-15T10:33:49Z</time>
      </trkpt>
      <trkpt lat="43.383674" lon="-5.773898">
        <ele>256.0</ele>
        <time>2012-06-15T10:33:53Z</time>
      </trkpt>
      <trkpt lat="43.383608" lon="-5.774346">
        <ele>256.0</ele>
        <time>2012-06-15T10:33:57Z</time>
      </trkpt>
      <trkpt lat="43.383531" lon="-5.774796">
        <ele>256.0</ele>
        <time>2012-06-15T10:34:01Z</time>
      </trkpt>
      <trkpt lat="43.383434" lon="-5.775247">
        <ele>256.0</ele>
        <time>2012-06-15T10:34:05Z</time>
      </trkpt>
      <trkpt lat="43.383313" lon="-5.775716">
        <ele>256.0</ele>
        <time>2012-06-15T10:34:09Z</time>
      </trkpt>
      <trkpt lat="43.383199" lon="-5.776192">
        <ele>256.0</ele>
        <time>2012-06-15T10:34:13Z</time>
      </trkpt>
      <trkpt lat="43.383084" lon="-5.776668">
        <ele>256.0</ele>
        <time>2012-06-15T10:34:17Z</time>
      </trkpt>
      <trkpt lat="43.382994" lon="-5.777019">
        <ele>256.0</ele>
        <time>2012-06-15T10:34:20Z</time>
      </trkpt>
      <trkpt lat="43.382864" lon="-5.777608">
        <ele>256.0</ele>
        <time>2012-06-15T10:34:25Z</time>
      </trkpt>
      <trkpt lat="43.382771" lon="-5.778055">
        <ele>255.0</ele>
        <time>2012-06-15T10:34:29Z</time>
      </trkpt>
      <trkpt lat="43.38267" lon="-5.778506">
        <ele>255.0</ele>
        <time>2012-06-15T10:34:33Z</time>
      </trkpt>
      <trkpt lat="43.382573" lon="-5.778962">
        <ele>255.0</ele>
        <time>2012-06-15T10:34:37Z</time>
      </trkpt>
      <trkpt lat="43.382474" lon="-5.779426">
        <ele>256.0</ele>
        <time>2012-06-15T10:34:41Z</time>
      </trkpt>
      <trkpt lat="43.382351" lon="-5.779911">
        <ele>256.0</ele>
        <time>2012-06-15T10:34:45Z</time>
      </trkpt>
      <trkpt lat="43.382235" lon="-5.78041">
        <ele>256.0</ele>
        <time>2012-06-15T10:34:49Z</time>
      </trkpt>
      <trkpt lat="43.382128" lon="-5.780912">
        <ele>256.0</ele>
        <time>2012-06-15T10:34:53Z</time>
      </trkpt>
      <trkpt lat="43.381984" lon="-5.781404">
        <ele>256.0</ele>
        <time>2012-06-15T10:34:57Z</time>
      </trkpt>
      <trkpt lat="43.381823" lon="-5.781889">
        <ele>256.0</ele>
        <time>2012-06-15T10:35:01Z</time>
      </trkpt>
      <trkpt lat="43.381665" lon="-5.782354">
        <ele>256.0</ele>
        <time>2012-06-15T10:35:05Z</time>
      </trkpt>
      <trkpt lat="43.381507" lon="-5.782805">
        <ele>256.0</ele>
        <time>2012-06-15T10:35:09Z</time>
      </trkpt>
      <trkpt lat="43.381681" lon="-5.783208">
        <ele>255.0</ele>
        <time>2012-06-15T10:35:16Z</time>
      </trkpt>
      <trkpt lat="43.381883" lon="-5.783299">
        <ele>254.0</ele>
        <time>2012-06-15T10:35:20Z</time>
      </trkpt>
      <trkpt lat="43.382185" lon="-5.783398">
        <ele>254.0</ele>
        <time>2012-06-15T10:35:25Z</time>
      </trkpt>
      <trkpt lat="43.382462" lon="-5.783496">
        <ele>254.0</ele>
        <time>2012-06-15T10:35:29Z</time>
      </trkpt>
      <trkpt lat="43.382775" lon="-5.783625">
        <ele>254.0</ele>
        <time>2012-06-15T10:35:33Z</time>
      </trkpt>
      <trkpt lat="43.383135" lon="-5.783756">
        <ele>254.0</ele>
        <time>2012-06-15T10:35:37Z</time>
      </trkpt>
      <trkpt lat="43.383508" lon="-5.783881">
        <ele>255.0</ele>
        <time>2012-06-15T10:35:41Z</time>
      </trkpt>
      <trkpt lat="43.38388" lon="-5.784014">
        <ele>255.0</ele>
        <time>2012-06-15T10:35:45Z</time>
      </trkpt>
      <trkpt lat="43.384242" lon="-5.78413">
        <ele>255.0</ele>
        <time>2012-06-15T10:35:49Z</time>
      </trkpt>
      <trkpt lat="43.384587" lon="-5.78424">
        <ele>255.0</ele>
        <time>2012-06-15T10:35:53Z</time>
      </trkpt>
      <trkpt lat="43.384913" lon="-5.784346">
        <ele>255.0</ele>
        <time>2012-06-15T10:35:57Z</time>
      </trkpt>
      <trkpt lat="43.385218" lon="-5.784449">
        <ele>255.0</ele>
        <time>2012-06-15T10:36:01Z</time>
      </trkpt>
      <trkpt lat="43.385441" lon="-5.784515">
        <ele>255.0</ele>
        <time>2012-06-15T10:36:04Z</time>
      </trkpt>
      <trkpt lat="43.385799" lon="-5.784624">
        <ele>256.0</ele>
        <time>2012-06-15T10:36:09Z</time>
      </trkpt>
      <trkpt lat="43.386065" lon="-5.784707">
        <ele>256.0</ele>
        <time>2012-06-15T10:36:13Z</time>
      </trkpt>
      <trkpt lat="43.386271" lon="-5.784777">
        <ele>256.0</ele>
        <time>2012-06-15T10:36:16Z</time>
      </trkpt>
      <trkpt lat="43.3865" lon="-5.784854">
        <ele>256.0</ele>
        <time>2012-06-15T10:36:19Z</time>
      </trkpt>
      <trkpt lat="43.387043" lon="-5.785019">
        <ele>256.0</ele>
        <time>2012-06-15T10:36:25Z</time>
      </trkpt>
      <trkpt lat="43.387404" lon="-5.785178">
        <ele>256.0</ele>
        <time>2012-06-15T10:36:29Z</time>
      </trkpt>
      <trkpt lat="43.387749" lon="-5.785392">
        <ele>255.0</ele>
        <time>2012-06-15T10:36:33Z</time>
      </trkpt>
      <trkpt lat="43.388088" lon="-5.785612">
        <ele>255.0</ele>
        <time>2012-06-15T10:36:37Z</time>
      </trkpt>
      <trkpt lat="43.388348" lon="-5.785969">
        <ele>255.0</ele>
        <time>2012-06-15T10:36:41Z</time>
      </trkpt>
      <trkpt lat="43.38853" lon="-5.786236">
        <ele>256.0</ele>
        <time>2012-06-15T10:36:44Z</time>
      </trkpt>
      <trkpt lat="43.388887" lon="-5.786566">
        <ele>256.0</ele>
        <time>2012-06-15T10:36:49Z</time>
      </trkpt>
      <trkpt lat="43.389199" lon="-5.786761">
        <ele>256.0</ele>
        <time>2012-06-15T10:36:53Z</time>
      </trkpt>
      <trkpt lat="43.389519" lon="-5.786928">
        <ele>256.0</ele>
        <time>2012-06-15T10:36:57Z</time>
      </trkpt>
      <trkpt lat="43.389682" lon="-5.787013">
        <ele>256.0</ele>
        <time>2012-06-15T10:36:59Z</time>
      </trkpt>
      <trkpt lat="43.390197" lon="-5.787162">
        <ele>255.0</ele>
        <time>2012-06-15T10:37:05Z</time>
      </trkpt>
      <trkpt lat="43.390561" lon="-5.787231">
        <ele>255.0</ele>
        <time>2012-06-15T10:37:09Z</time>
      </trkpt>
      <trkpt lat="43.390935" lon="-5.787313">
        <ele>255.0</ele>
        <time>2012-06-15T10:37:13Z</time>
      </trkpt>
      <trkpt lat="43.391116" lon="-5.787363">
        <ele>255.0</ele>
        <time>2012-06-15T10:37:15Z</time>
      </trkpt>
      <trkpt lat="43.391559" lon="-5.787534">
        <ele>256.0</ele>
        <time>2012-06-15T10:37:20Z</time>
      </trkpt>
      <trkpt lat="43.391971" lon="-5.787754">
        <ele>256.0</ele>
        <time>2012-06-15T10:37:25Z</time>
      </trkpt>
      <trkpt lat="43.392127" lon="-5.787862">
        <ele>256.0</ele>
        <time>2012-06-15T10:37:27Z</time>
      </trkpt>
      <trkpt lat="43.392625" lon="-5.78814">
        <ele>256.0</ele>
        <time>2012-06-15T10:37:33Z</time>
      </trkpt>
      <trkpt lat="43.392956" lon="-5.788326">
        <ele>256.0</ele>
        <time>2012-06-15T10:37:37Z</time>
      </trkpt>
      <trkpt lat="43.393293" lon="-5.788506">
        <ele>256.0</ele>
        <time>2012-06-15T10:37:41Z</time>
      </trkpt>
      <trkpt lat="43.393622" lon="-5.788714">
        <ele>257.0</ele>
        <time>2012-06-15T10:37:45Z</time>
      </trkpt>
      <trkpt lat="43.393942" lon="-5.788922">
        <ele>257.0</ele>
        <time>2012-06-15T10:37:49Z</time>
      </trkpt>
      <trkpt lat="43.394253" lon="-5.789117">
        <ele>257.0</ele>
        <time>2012-06-15T10:37:53Z</time>
      </trkpt>
      <trkpt lat="43.39458" lon="-5.789254">
        <ele>257.0</ele>
        <time>2012-06-15T10:37:57Z</time>
      </trkpt>
      <trkpt lat="43.39491" lon="-5.789355">
        <ele>256.0</ele>
        <time>2012-06-15T10:38:01Z</time>
      </trkpt>
      <trkpt lat="43.395229" lon="-5.789446">
        <ele>256.0</ele>
        <time>2012-06-15T10:38:05Z</time>
      </trkpt>
      <trkpt lat="43.395539" lon="-5.789556">
        <ele>256.0</ele>
        <time>2012-06-15T10:38:09Z</time>
      </trkpt>
      <trkpt lat="43.39577" lon="-5.789635">
        <ele>256.0</ele>
        <time>2012-06-15T10:38:12Z</time>
      </trkpt>
      <trkpt lat="43.396146" lon="-5.789774">
        <ele>256.0</ele>
        <time>2012-06-15T10:38:17Z</time>
      </trkpt>
      <trkpt lat="43.39645" lon="-5.78988">
        <ele>255.0</ele>
        <time>2012-06-15T10:38:21Z</time>
      </trkpt>
      <trkpt lat="43.396602" lon="-5.789933">
        <ele>255.0</ele>
        <time>2012-06-15T10:38:23Z</time>
      </trkpt>
      <trkpt lat="43.397059" lon="-5.790109">
        <ele>256.0</ele>
        <time>2012-06-15T10:38:29Z</time>
      </trkpt>
      <trkpt lat="43.397215" lon="-5.790179">
        <ele>256.0</ele>
        <time>2012-06-15T10:38:31Z</time>
      </trkpt>
      <trkpt lat="43.397707" lon="-5.790388">
        <ele>257.0</ele>
        <time>2012-06-15T10:38:37Z</time>
      </trkpt>
      <trkpt lat="43.398063" lon="-5.790505">
        <ele>257.0</ele>
        <time>2012-06-15T10:38:41Z</time>
      </trkpt>
      <trkpt lat="43.398435" lon="-5.790659">
        <ele>257.0</ele>
        <time>2012-06-15T10:38:45Z</time>
      </trkpt>
      <trkpt lat="43.39882" lon="-5.790822">
        <ele>257.0</ele>
        <time>2012-06-15T10:38:49Z</time>
      </trkpt>
      <trkpt lat="43.399211" lon="-5.791">
        <ele>256.0</ele>
        <time>2012-06-15T10:38:53Z</time>
      </trkpt>
      <trkpt lat="43.399596" lon="-5.791202">
        <ele>256.0</ele>
        <time>2012-06-15T10:38:57Z</time>
      </trkpt>
      <trkpt lat="43.399779" lon="-5.791277">
        <ele>256.0</ele>
        <time>2012-06-15T10:38:59Z</time>
      </trkpt>
      <trkpt lat="43.400226" lon="-5.791427">
        <ele>256.0</ele>
        <time>2012-06-15T10:39:05Z</time>
      </trkpt>
      <trkpt lat="43.400476" lon="-5.791633">
        <ele>255.0</ele>
        <time>2012-06-15T10:39:09Z</time>
      </trkpt>
      <trkpt lat="43.400668" lon="-5.791796">
        <ele>255.0</ele>
        <time>2012-06-15T10:39:12Z</time>
      </trkpt>
      <trkpt lat="43.401019" lon="-5.792058">
        <ele>254.0</ele>
        <time>2012-06-15T10:39:17Z</time>
      </trkpt>
      <trkpt lat="43.401323" lon="-5.792281">
        <ele>253.0</ele>
        <time>2012-06-15T10:39:21Z</time>
      </trkpt>
      <trkpt lat="43.401546" lon="-5.792457">
        <ele>253.0</ele>
        <time>2012-06-15T10:39:24Z</time>
      </trkpt>
      <trkpt lat="43.401915" lon="-5.792752">
        <ele>253.0</ele>
        <time>2012-06-15T10:39:29Z</time>
      </trkpt>
      <trkpt lat="43.402187" lon="-5.792989">
        <ele>252.0</ele>
        <time>2012-06-15T10:39:33Z</time>
      </trkpt>
      <trkpt lat="43.402429" lon="-5.793206">
        <ele>252.0</ele>
        <time>2012-06-15T10:39:37Z</time>
      </trkpt>
      <trkpt lat="43.402655" lon="-5.793413">
        <ele>251.0</ele>
        <time>2012-06-15T10:39:41Z</time>
      </trkpt>
      <trkpt lat="43.402877" lon="-5.7936">
        <ele>251.0</ele>
        <time>2012-06-15T10:39:45Z</time>
      </trkpt>
      <trkpt lat="43.403074" lon="-5.793805">
        <ele>251.0</ele>
        <time>2012-06-15T10:39:49Z</time>
      </trkpt>
      <trkpt lat="43.403271" lon="-5.793999">
        <ele>250.0</ele>
        <time>2012-06-15T10:39:53Z</time>
      </trkpt>
      <trkpt lat="43.403457" lon="-5.794182">
        <ele>250.0</ele>
        <time>2012-06-15T10:39:57Z</time>
      </trkpt>
      <trkpt lat="43.403553" lon="-5.794271">
        <ele>251.0</ele>
        <time>2012-06-15T10:39:59Z</time>
      </trkpt>
      <trkpt lat="43.403855" lon="-5.794465">
        <ele>251.0</ele>
        <time>2012-06-15T10:40:05Z</time>
      </trkpt>
      <trkpt lat="43.404091" lon="-5.79447">
        <ele>251.0</ele>
        <time>2012-06-15T10:40:09Z</time>
      </trkpt>
      <trkpt lat="43.40422" lon="-5.794485">
        <ele>251.0</ele>
        <time>2012-06-15T10:40:11Z</time>
      </trkpt>
      <trkpt lat="43.404619" lon="-5.794453">
        <ele>251.0</ele>
        <time>2012-06-15T10:40:17Z</time>
      </trkpt>
      <trkpt lat="43.404828" lon="-5.794344">
        <ele>250.0</ele>
        <time>2012-06-15T10:40:20Z</time>
      </trkpt>
      <trkpt lat="43.405057" lon="-5.794202">
        <ele>250.0</ele>
        <time>2012-06-15T10:40:23Z</time>
      </trkpt>
      <trkpt lat="43.405391" lon="-5.793952">
        <ele>250.0</ele>
        <time>2012-06-15T10:40:27Z</time>
      </trkpt>
      <trkpt lat="43.405792" lon="-5.794128">
        <ele>249.0</ele>
        <time>2012-06-15T10:40:31Z</time>
      </trkpt>
      <trkpt lat="43.406278" lon="-5.794615">
        <ele>247.0</ele>
        <time>2012-06-15T10:40:37Z</time>
      </trkpt>
      <trkpt lat="43.40661" lon="-5.794812">
        <ele>247.0</ele>
        <time>2012-06-15T10:40:41Z</time>
      </trkpt>
      <trkpt lat="43.406907" lon="-5.795049">
        <ele>247.0</ele>
        <time>2012-06-15T10:40:45Z</time>
      </trkpt>
      <trkpt lat="43.407101" lon="-5.795443">
        <ele>248.0</ele>
        <time>2012-06-15T10:40:49Z</time>
      </trkpt>
      <trkpt lat="43.407261" lon="-5.79586">
        <ele>248.0</ele>
        <time>2012-06-15T10:40:53Z</time>
      </trkpt>
      <trkpt lat="43.407379" lon="-5.796215">
        <ele>249.0</ele>
        <time>2012-06-15T10:40:56Z</time>
      </trkpt>
      <trkpt lat="43.407608" lon="-5.796895">
        <ele>249.0</ele>
        <time>2012-06-15T10:41:01Z</time>
      </trkpt>
      <trkpt lat="43.407776" lon="-5.797486">
        <ele>249.0</ele>
        <time>2012-06-15T10:41:05Z</time>
      </trkpt>
      <trkpt lat="43.407848" lon="-5.79794">
        <ele>249.0</ele>
        <time>2012-06-15T10:41:08Z</time>
      </trkpt>
      <trkpt lat="43.407962" lon="-5.798692">
        <ele>249.0</ele>
        <time>2012-06-15T10:41:13Z</time>
      </trkpt>
      <trkpt lat="43.407867" lon="-5.799242">
        <ele>248.0</ele>
        <time>2012-06-15T10:41:17Z</time>
      </trkpt>
      <trkpt lat="43.407682" lon="-5.799695">
        <ele>247.0</ele>
        <time>2012-06-15T10:41:21Z</time>
      </trkpt>
      <trkpt lat="43.407516" lon="-5.800124">
        <ele>245.0</ele>
        <time>2012-06-15T10:41:25Z</time>
      </trkpt>
      <trkpt lat="43.407357" lon="-5.800551">
        <ele>245.0</ele>
        <time>2012-06-15T10:41:29Z</time>
      </trkpt>
      <trkpt lat="43.407294" lon="-5.801031">
        <ele>245.0</ele>
        <time>2012-06-15T10:41:33Z</time>
      </trkpt>
      <trkpt lat="43.407387" lon="-5.801451">
        <ele>245.0</ele>
        <time>2012-06-15T10:41:37Z</time>
      </trkpt>
      <trkpt lat="43.407478" lon="-5.80184">
        <ele>245.0</ele>
        <time>2012-06-15T10:41:41Z</time>
      </trkpt>
      <trkpt lat="43.407576" lon="-5.802218">
        <ele>245.0</ele>
        <time>2012-06-15T10:41:45Z</time>
      </trkpt>
      <trkpt lat="43.407615" lon="-5.802601">
        <ele>245.0</ele>
        <time>2012-06-15T10:41:49Z</time>
      </trkpt>
      <trkpt lat="43.407632" lon="-5.802975">
        <ele>245.0</ele>
        <time>2012-06-15T10:41:53Z</time>
      </trkpt>
      <trkpt lat="43.407636" lon="-5.803307">
        <ele>244.0</ele>
        <time>2012-06-15T10:41:57Z</time>
      </trkpt>
      <trkpt lat="43.407633" lon="-5.803623">
        <ele>243.0</ele>
        <time>2012-06-15T10:42:01Z</time>
      </trkpt>
      <trkpt lat="43.407627" lon="-5.803942">
        <ele>243.0</ele>
        <time>2012-06-15T10:42:05Z</time>
      </trkpt>
      <trkpt lat="43.407594" lon="-5.804452">
        <ele>242.0</ele>
        <time>2012-06-15T10:42:13Z</time>
      </trkpt>
      <trkpt lat="43.407598" lon="-5.80464">
        <ele>242.0</ele>
        <time>2012-06-15T10:42:22Z</time>
      </trkpt>
      <trkpt lat="43.407568" lon="-5.804793">
        <ele>242.0</ele>
        <time>2012-06-15T10:42:31Z</time>
      </trkpt>
      <trkpt lat="43.407379" lon="-5.804952">
        <ele>244.0</ele>
        <time>2012-06-15T10:42:36Z</time>
      </trkpt>
      <trkpt lat="43.407172" lon="-5.805082">
        <ele>244.0</ele>
        <time>2012-06-15T10:42:40Z</time>
      </trkpt>
      <trkpt lat="43.406891" lon="-5.805295">
        <ele>245.0</ele>
        <time>2012-06-15T10:42:45Z</time>
      </trkpt>
      <trkpt lat="43.406662" lon="-5.805484">
        <ele>245.0</ele>
        <time>2012-06-15T10:42:49Z</time>
      </trkpt>
      <trkpt lat="43.406429" lon="-5.805704">
        <ele>244.0</ele>
        <time>2012-06-15T10:42:53Z</time>
      </trkpt>
      <trkpt lat="43.406308" lon="-5.805807">
        <ele>244.0</ele>
        <time>2012-06-15T10:42:55Z</time>
      </trkpt>
      <trkpt lat="43.405938" lon="-5.806101">
        <ele>244.0</ele>
        <time>2012-06-15T10:43:01Z</time>
      </trkpt>
      <trkpt lat="43.405687" lon="-5.806316">
        <ele>244.0</ele>
        <time>2012-06-15T10:43:05Z</time>
      </trkpt>
      <trkpt lat="43.405435" lon="-5.80654">
        <ele>244.0</ele>
        <time>2012-06-15T10:43:09Z</time>
      </trkpt>
      <trkpt lat="43.40518" lon="-5.806762">
        <ele>245.0</ele>
        <time>2012-06-15T10:43:13Z</time>
      </trkpt>
      <trkpt lat="43.404921" lon="-5.806975">
        <ele>245.0</ele>
        <time>2012-06-15T10:43:17Z</time>
      </trkpt>
      <trkpt lat="43.404801" lon="-5.807071">
        <ele>245.0</ele>
        <time>2012-06-15T10:43:19Z</time>
      </trkpt>
      <trkpt lat="43.404675" lon="-5.807187">
        <ele>246.0</ele>
        <time>2012-06-15T10:43:27Z</time>
      </trkpt>
      <trkpt lat="43.404443" lon="-5.807302">
        <ele>246.0</ele>
        <time>2012-06-15T10:43:36Z</time>
      </trkpt>
      <trkpt lat="43.404357" lon="-5.807377">
        <ele>247.0</ele>
        <time>2012-06-15T10:43:38Z</time>
      </trkpt>
      <trkpt lat="43.404119" lon="-5.807857">
        <ele>248.0</ele>
        <time>2012-06-15T10:43:45Z</time>
      </trkpt>
      <trkpt lat="43.404212" lon="-5.808201">
        <ele>249.0</ele>
        <time>2012-06-15T10:43:49Z</time>
      </trkpt>
      <trkpt lat="43.404328" lon="-5.808514">
        <ele>249.0</ele>
        <time>2012-06-15T10:43:53Z</time>
      </trkpt>
      <trkpt lat="43.404473" lon="-5.808873">
        <ele>250.0</ele>
        <time>2012-06-15T10:43:57Z</time>
      </trkpt>
      <trkpt lat="43.404633" lon="-5.80919">
        <ele>250.0</ele>
        <time>2012-06-15T10:44:01Z</time>
      </trkpt>
      <trkpt lat="43.404742" lon="-5.80941">
        <ele>250.0</ele>
        <time>2012-06-15T10:44:04Z</time>
      </trkpt>
      <trkpt lat="43.404869" lon="-5.809689">
        <ele>250.0</ele>
        <time>2012-06-15T10:44:08Z</time>
      </trkpt>
      <trkpt lat="43.404987" lon="-5.809938">
        <ele>250.0</ele>
        <time>2012-06-15T10:44:12Z</time>
      </trkpt>
      <trkpt lat="43.405101" lon="-5.810171">
        <ele>250.0</ele>
        <time>2012-06-15T10:44:16Z</time>
      </trkpt>
      <trkpt lat="43.405215" lon="-5.810405">
        <ele>251.0</ele>
        <time>2012-06-15T10:44:20Z</time>
      </trkpt>
      <trkpt lat="43.405336" lon="-5.810645">
        <ele>251.0</ele>
        <time>2012-06-15T10:44:24Z</time>
      </trkpt>
      <trkpt lat="43.405442" lon="-5.810886">
        <ele>252.0</ele>
        <time>2012-06-15T10:44:28Z</time>
      </trkpt>
      <trkpt lat="43.405565" lon="-5.811128">
        <ele>252.0</ele>
        <time>2012-06-15T10:44:32Z</time>
      </trkpt>
      <trkpt lat="43.405699" lon="-5.81137">
        <ele>252.0</ele>
        <time>2012-06-15T10:44:36Z</time>
      </trkpt>
      <trkpt lat="43.405874" lon="-5.811577">
        <ele>252.0</ele>
        <time>2012-06-15T10:44:40Z</time>
      </trkpt>
      <trkpt lat="43.406151" lon="-5.811766">
        <ele>251.0</ele>
        <time>2012-06-15T10:44:45Z</time>
      </trkpt>
      <trkpt lat="43.406364" lon="-5.81196">
        <ele>251.0</ele>
        <time>2012-06-15T10:44:49Z</time>
      </trkpt>
      <trkpt lat="43.406516" lon="-5.812116">
        <ele>251.0</ele>
        <time>2012-06-15T10:44:52Z</time>
      </trkpt>
      <trkpt lat="43.406717" lon="-5.8123">
        <ele>251.0</ele>
        <time>2012-06-15T10:44:56Z</time>
      </trkpt>
      <trkpt lat="43.407201" lon="-5.812662">
        <ele>251.0</ele>
        <time>2012-06-15T10:45:05Z</time>
      </trkpt>
      <trkpt lat="43.407427" lon="-5.812849">
        <ele>252.0</ele>
        <time>2012-06-15T10:45:09Z</time>
      </trkpt>
      <trkpt lat="43.407714" lon="-5.813051">
        <ele>252.0</ele>
        <time>2012-06-15T10:45:13Z</time>
      </trkpt>
      <trkpt lat="43.407934" lon="-5.813211">
        <ele>252.0</ele>
        <time>2012-06-15T10:45:16Z</time>
      </trkpt>
      <trkpt lat="43.408314" lon="-5.813495">
        <ele>253.0</ele>
        <time>2012-06-15T10:45:21Z</time>
      </trkpt>
      <trkpt lat="43.408616" lon="-5.813728">
        <ele>253.0</ele>
        <time>2012-06-15T10:45:25Z</time>
      </trkpt>
      <trkpt lat="43.408841" lon="-5.813884">
        <ele>253.0</ele>
        <time>2012-06-15T10:45:28Z</time>
      </trkpt>
      <trkpt lat="43.409238" lon="-5.814061">
        <ele>253.0</ele>
        <time>2012-06-15T10:45:33Z</time>
      </trkpt>
      <trkpt lat="43.409582" lon="-5.814172">
        <ele>253.0</ele>
        <time>2012-06-15T10:45:37Z</time>
      </trkpt>
      <trkpt lat="43.40992" lon="-5.814242">
        <ele>253.0</ele>
        <time>2012-06-15T10:45:41Z</time>
      </trkpt>
      <trkpt lat="43.410263" lon="-5.814283">
        <ele>253.0</ele>
        <time>2012-06-15T10:45:45Z</time>
      </trkpt>
      <trkpt lat="43.410599" lon="-5.814309">
        <ele>253.0</ele>
        <time>2012-06-15T10:45:49Z</time>
      </trkpt>
      <trkpt lat="43.41093" lon="-5.814318">
        <ele>253.0</ele>
        <time>2012-06-15T10:45:53Z</time>
      </trkpt>
      <trkpt lat="43.411097" lon="-5.814322">
        <ele>253.0</ele>
        <time>2012-06-15T10:45:55Z</time>
      </trkpt>
      <trkpt lat="43.411594" lon="-5.814286">
        <ele>252.0</ele>
        <time>2012-06-15T10:46:01Z</time>
      </trkpt>
      <trkpt lat="43.411928" lon="-5.814328">
        <ele>252.0</ele>
        <time>2012-06-15T10:46:05Z</time>
      </trkpt>
      <trkpt lat="43.412244" lon="-5.814614">
        <ele>253.0</ele>
        <time>2012-06-15T10:46:09Z</time>
      </trkpt>
      <trkpt lat="43.412506" lon="-5.815026">
        <ele>253.0</ele>
        <time>2012-06-15T10:46:13Z</time>
      </trkpt>
      <trkpt lat="43.412782" lon="-5.815429">
        <ele>252.0</ele>
        <time>2012-06-15T10:46:17Z</time>
      </trkpt>
      <trkpt lat="43.413063" lon="-5.815663">
        <ele>251.0</ele>
        <time>2012-06-15T10:46:21Z</time>
      </trkpt>
      <trkpt lat="43.413339" lon="-5.81561">
        <ele>250.0</ele>
        <time>2012-06-15T10:46:25Z</time>
      </trkpt>
      <trkpt lat="43.413609" lon="-5.815702">
        <ele>250.0</ele>
        <time>2012-06-15T10:46:29Z</time>
      </trkpt>
      <trkpt lat="43.413748" lon="-5.816163">
        <ele>249.0</ele>
        <time>2012-06-15T10:46:33Z</time>
      </trkpt>
      <trkpt lat="43.413924" lon="-5.816603">
        <ele>249.0</ele>
        <time>2012-06-15T10:46:37Z</time>
      </trkpt>
      <trkpt lat="43.414148" lon="-5.816987">
        <ele>250.0</ele>
        <time>2012-06-15T10:46:41Z</time>
      </trkpt>
      <trkpt lat="43.414373" lon="-5.817364">
        <ele>251.0</ele>
        <time>2012-06-15T10:46:45Z</time>
      </trkpt>
      <trkpt lat="43.414587" lon="-5.817724">
        <ele>252.0</ele>
        <time>2012-06-15T10:46:49Z</time>
      </trkpt>
      <trkpt lat="43.414799" lon="-5.818061">
        <ele>253.0</ele>
        <time>2012-06-15T10:46:53Z</time>
      </trkpt>
      <trkpt lat="43.415041" lon="-5.818369">
        <ele>253.0</ele>
        <time>2012-06-15T10:46:57Z</time>
      </trkpt>
      <trkpt lat="43.415251" lon="-5.8187">
        <ele>253.0</ele>
        <time>2012-06-15T10:47:01Z</time>
      </trkpt>
      <trkpt lat="43.415447" lon="-5.818979">
        <ele>252.0</ele>
        <time>2012-06-15T10:47:05Z</time>
      </trkpt>
      <trkpt lat="43.415637" lon="-5.819297">
        <ele>251.0</ele>
        <time>2012-06-15T10:47:09Z</time>
      </trkpt>
      <trkpt lat="43.415825" lon="-5.819573">
        <ele>250.0</ele>
        <time>2012-06-15T10:47:13Z</time>
      </trkpt>
      <trkpt lat="43.41591" lon="-5.819691">
        <ele>250.0</ele>
        <time>2012-06-15T10:47:15Z</time>
      </trkpt>
      <trkpt lat="43.416158" lon="-5.820014">
        <ele>249.0</ele>
        <time>2012-06-15T10:47:21Z</time>
      </trkpt>
      <trkpt lat="43.41632" lon="-5.820224">
        <ele>249.0</ele>
        <time>2012-06-15T10:47:25Z</time>
      </trkpt>
      <trkpt lat="43.416643" lon="-5.820655">
        <ele>249.0</ele>
        <time>2012-06-15T10:47:33Z</time>
      </trkpt>
      <trkpt lat="43.416801" lon="-5.820897">
        <ele>249.0</ele>
        <time>2012-06-15T10:47:37Z</time>
      </trkpt>
      <trkpt lat="43.416961" lon="-5.821144">
        <ele>249.0</ele>
        <time>2012-06-15T10:47:41Z</time>
      </trkpt>
      <trkpt lat="43.417098" lon="-5.821403">
        <ele>249.0</ele>
        <time>2012-06-15T10:47:45Z</time>
      </trkpt>
      <trkpt lat="43.417219" lon="-5.82166">
        <ele>249.0</ele>
        <time>2012-06-15T10:47:49Z</time>
      </trkpt>
      <trkpt lat="43.417345" lon="-5.821913">
        <ele>250.0</ele>
        <time>2012-06-15T10:47:53Z</time>
      </trkpt>
      <trkpt lat="43.417465" lon="-5.822143">
        <ele>250.0</ele>
        <time>2012-06-15T10:47:57Z</time>
      </trkpt>
      <trkpt lat="43.417584" lon="-5.822325">
        <ele>250.0</ele>
        <time>2012-06-15T10:48:01Z</time>
      </trkpt>
      <trkpt lat="43.417727" lon="-5.82249">
        <ele>251.0</ele>
        <time>2012-06-15T10:48:05Z</time>
      </trkpt>
      <trkpt lat="43.417902" lon="-5.822658">
        <ele>251.0</ele>
        <time>2012-06-15T10:48:09Z</time>
      </trkpt>
      <trkpt lat="43.417999" lon="-5.822759">
        <ele>252.0</ele>
        <time>2012-06-15T10:48:11Z</time>
      </trkpt>
      <trkpt lat="43.418274" lon="-5.82312">
        <ele>251.0</ele>
        <time>2012-06-15T10:48:17Z</time>
      </trkpt>
      <trkpt lat="43.418465" lon="-5.823367">
        <ele>251.0</ele>
        <time>2012-06-15T10:48:21Z</time>
      </trkpt>
      <trkpt lat="43.41866" lon="-5.823624">
        <ele>251.0</ele>
        <time>2012-06-15T10:48:25Z</time>
      </trkpt>
      <trkpt lat="43.418862" lon="-5.82389">
        <ele>251.0</ele>
        <time>2012-06-15T10:48:29Z</time>
      </trkpt>
      <trkpt lat="43.419071" lon="-5.82415">
        <ele>251.0</ele>
        <time>2012-06-15T10:48:33Z</time>
      </trkpt>
      <trkpt lat="43.419227" lon="-5.824349">
        <ele>251.0</ele>
        <time>2012-06-15T10:48:36Z</time>
      </trkpt>
      <trkpt lat="43.419483" lon="-5.824674">
        <ele>251.0</ele>
        <time>2012-06-15T10:48:41Z</time>
      </trkpt>
      <trkpt lat="43.419689" lon="-5.824919">
        <ele>251.0</ele>
        <time>2012-06-15T10:48:45Z</time>
      </trkpt>
      <trkpt lat="43.419892" lon="-5.825169">
        <ele>251.0</ele>
        <time>2012-06-15T10:48:49Z</time>
      </trkpt>
      <trkpt lat="43.420039" lon="-5.825371">
        <ele>252.0</ele>
        <time>2012-06-15T10:48:52Z</time>
      </trkpt>
      <trkpt lat="43.420285" lon="-5.8257">
        <ele>252.0</ele>
        <time>2012-06-15T10:48:57Z</time>
      </trkpt>
      <trkpt lat="43.420477" lon="-5.825975">
        <ele>252.0</ele>
        <time>2012-06-15T10:49:01Z</time>
      </trkpt>
      <trkpt lat="43.420685" lon="-5.826259">
        <ele>251.0</ele>
        <time>2012-06-15T10:49:05Z</time>
      </trkpt>
      <trkpt lat="43.420913" lon="-5.826578">
        <ele>251.0</ele>
        <time>2012-06-15T10:49:09Z</time>
      </trkpt>
      <trkpt lat="43.42103" lon="-5.826748">
        <ele>250.0</ele>
        <time>2012-06-15T10:49:11Z</time>
      </trkpt>
      <trkpt lat="43.421395" lon="-5.827255">
        <ele>249.0</ele>
        <time>2012-06-15T10:49:17Z</time>
      </trkpt>
      <trkpt lat="43.421528" lon="-5.82744">
        <ele>248.0</ele>
        <time>2012-06-15T10:49:19Z</time>
      </trkpt>
      <trkpt lat="43.421934" lon="-5.827986">
        <ele>248.0</ele>
        <time>2012-06-15T10:49:25Z</time>
      </trkpt>
      <trkpt lat="43.422196" lon="-5.828328">
        <ele>248.0</ele>
        <time>2012-06-15T10:49:29Z</time>
      </trkpt>
      <trkpt lat="43.422443" lon="-5.828653">
        <ele>249.0</ele>
        <time>2012-06-15T10:49:33Z</time>
      </trkpt>
      <trkpt lat="43.422681" lon="-5.82899">
        <ele>249.0</ele>
        <time>2012-06-15T10:49:37Z</time>
      </trkpt>
      <trkpt lat="43.422923" lon="-5.829316">
        <ele>249.0</ele>
        <time>2012-06-15T10:49:41Z</time>
      </trkpt>
      <trkpt lat="43.423157" lon="-5.829643">
        <ele>250.0</ele>
        <time>2012-06-15T10:49:45Z</time>
      </trkpt>
      <trkpt lat="43.423388" lon="-5.829964">
        <ele>250.0</ele>
        <time>2012-06-15T10:49:49Z</time>
      </trkpt>
      <trkpt lat="43.423622" lon="-5.830259">
        <ele>249.0</ele>
        <time>2012-06-15T10:49:53Z</time>
      </trkpt>
      <trkpt lat="43.423854" lon="-5.83055">
        <ele>248.0</ele>
        <time>2012-06-15T10:49:57Z</time>
      </trkpt>
      <trkpt lat="43.424073" lon="-5.830849">
        <ele>247.0</ele>
        <time>2012-06-15T10:50:01Z</time>
      </trkpt>
      <trkpt lat="43.424272" lon="-5.831155">
        <ele>245.0</ele>
        <time>2012-06-15T10:50:05Z</time>
      </trkpt>
      <trkpt lat="43.424464" lon="-5.831455">
        <ele>245.0</ele>
        <time>2012-06-15T10:50:09Z</time>
      </trkpt>
      <trkpt lat="43.424643" lon="-5.831781">
        <ele>245.0</ele>
        <time>2012-06-15T10:50:13Z</time>
      </trkpt>
      <trkpt lat="43.424755" lon="-5.832157">
        <ele>245.0</ele>
        <time>2012-06-15T10:50:17Z</time>
      </trkpt>
      <trkpt lat="43.424734" lon="-5.832563">
        <ele>245.0</ele>
        <time>2012-06-15T10:50:21Z</time>
      </trkpt>
      <trkpt lat="43.424726" lon="-5.832954">
        <ele>244.0</ele>
        <time>2012-06-15T10:50:25Z</time>
      </trkpt>
      <trkpt lat="43.424718" lon="-5.833253">
        <ele>244.0</ele>
        <time>2012-06-15T10:50:29Z</time>
      </trkpt>
      <trkpt lat="43.425061" lon="-5.832858">
        <ele>242.0</ele>
        <time>2012-06-15T10:50:37Z</time>
      </trkpt>
      <trkpt lat="43.42528" lon="-5.83255">
        <ele>242.0</ele>
        <time>2012-06-15T10:50:41Z</time>
      </trkpt>
      <trkpt lat="43.425505" lon="-5.832251">
        <ele>243.0</ele>
        <time>2012-06-15T10:50:45Z</time>
      </trkpt>
      <trkpt lat="43.425824" lon="-5.832252">
        <ele>244.0</ele>
        <time>2012-06-15T10:50:49Z</time>
      </trkpt>
      <trkpt lat="43.42602" lon="-5.832662">
        <ele>244.0</ele>
        <time>2012-06-15T10:50:53Z</time>
      </trkpt>
      <trkpt lat="43.426237" lon="-5.833125">
        <ele>245.0</ele>
        <time>2012-06-15T10:50:57Z</time>
      </trkpt>
      <trkpt lat="43.42644" lon="-5.833479">
        <ele>245.0</ele>
        <time>2012-06-15T10:51:00Z</time>
      </trkpt>
      <trkpt lat="43.426803" lon="-5.834019">
        <ele>245.0</ele>
        <time>2012-06-15T10:51:05Z</time>
      </trkpt>
      <trkpt lat="43.42709" lon="-5.83442">
        <ele>245.0</ele>
        <time>2012-06-15T10:51:09Z</time>
      </trkpt>
      <trkpt lat="43.427353" lon="-5.834828">
        <ele>245.0</ele>
        <time>2012-06-15T10:51:13Z</time>
      </trkpt>
      <trkpt lat="43.427483" lon="-5.835033">
        <ele>246.0</ele>
        <time>2012-06-15T10:51:15Z</time>
      </trkpt>
      <trkpt lat="43.427881" lon="-5.835656">
        <ele>246.0</ele>
        <time>2012-06-15T10:51:21Z</time>
      </trkpt>
      <trkpt lat="43.428148" lon="-5.836056">
        <ele>246.0</ele>
        <time>2012-06-15T10:51:25Z</time>
      </trkpt>
      <trkpt lat="43.428422" lon="-5.836463">
        <ele>245.0</ele>
        <time>2012-06-15T10:51:29Z</time>
      </trkpt>
      <trkpt lat="43.428695" lon="-5.836859">
        <ele>246.0</ele>
        <time>2012-06-15T10:51:33Z</time>
      </trkpt>
      <trkpt lat="43.42897" lon="-5.837258">
        <ele>246.0</ele>
        <time>2012-06-15T10:51:37Z</time>
      </trkpt>
      <trkpt lat="43.429246" lon="-5.837633">
        <ele>246.0</ele>
        <time>2012-06-15T10:51:41Z</time>
      </trkpt>
      <trkpt lat="43.429524" lon="-5.837998">
        <ele>245.0</ele>
        <time>2012-06-15T10:51:45Z</time>
      </trkpt>
      <trkpt lat="43.429799" lon="-5.838355">
        <ele>245.0</ele>
        <time>2012-06-15T10:51:49Z</time>
      </trkpt>
      <trkpt lat="43.430071" lon="-5.838715">
        <ele>244.0</ele>
        <time>2012-06-15T10:51:53Z</time>
      </trkpt>
      <trkpt lat="43.430341" lon="-5.839076">
        <ele>244.0</ele>
        <time>2012-06-15T10:51:57Z</time>
      </trkpt>
      <trkpt lat="43.430474" lon="-5.839251">
        <ele>243.0</ele>
        <time>2012-06-15T10:51:59Z</time>
      </trkpt>
      <trkpt lat="43.430846" lon="-5.839778">
        <ele>242.0</ele>
        <time>2012-06-15T10:52:05Z</time>
      </trkpt>
      <trkpt lat="43.431094" lon="-5.840114">
        <ele>241.0</ele>
        <time>2012-06-15T10:52:09Z</time>
      </trkpt>
      <trkpt lat="43.431217" lon="-5.840283">
        <ele>241.0</ele>
        <time>2012-06-15T10:52:11Z</time>
      </trkpt>
      <trkpt lat="43.431579" lon="-5.840812">
        <ele>240.0</ele>
        <time>2012-06-15T10:52:17Z</time>
      </trkpt>
      <trkpt lat="43.431831" lon="-5.841129">
        <ele>241.0</ele>
        <time>2012-06-15T10:52:21Z</time>
      </trkpt>
      <trkpt lat="43.432078" lon="-5.841427">
        <ele>241.0</ele>
        <time>2012-06-15T10:52:25Z</time>
      </trkpt>
      <trkpt lat="43.432315" lon="-5.84173">
        <ele>241.0</ele>
        <time>2012-06-15T10:52:29Z</time>
      </trkpt>
      <trkpt lat="43.432548" lon="-5.842047">
        <ele>240.0</ele>
        <time>2012-06-15T10:52:33Z</time>
      </trkpt>
      <trkpt lat="43.432783" lon="-5.842343">
        <ele>239.0</ele>
        <time>2012-06-15T10:52:37Z</time>
      </trkpt>
      <trkpt lat="43.432987" lon="-5.842614">
        <ele>239.0</ele>
        <time>2012-06-15T10:52:41Z</time>
      </trkpt>
      <trkpt lat="43.433187" lon="-5.842896">
        <ele>239.0</ele>
        <time>2012-06-15T10:52:45Z</time>
      </trkpt>
      <trkpt lat="43.433395" lon="-5.843185">
        <ele>239.0</ele>
        <time>2012-06-15T10:52:49Z</time>
      </trkpt>
      <trkpt lat="43.433594" lon="-5.843473">
        <ele>239.0</ele>
        <time>2012-06-15T10:52:53Z</time>
      </trkpt>
      <trkpt lat="43.433794" lon="-5.843759">
        <ele>239.0</ele>
        <time>2012-06-15T10:52:57Z</time>
      </trkpt>
      <trkpt lat="43.433953" lon="-5.843971">
        <ele>239.0</ele>
        <time>2012-06-15T10:53:00Z</time>
      </trkpt>
      <trkpt lat="43.434216" lon="-5.844336">
        <ele>238.0</ele>
        <time>2012-06-15T10:53:05Z</time>
      </trkpt>
      <trkpt lat="43.434432" lon="-5.844623">
        <ele>238.0</ele>
        <time>2012-06-15T10:53:09Z</time>
      </trkpt>
      <trkpt lat="43.434651" lon="-5.844892">
        <ele>237.0</ele>
        <time>2012-06-15T10:53:13Z</time>
      </trkpt>
      <trkpt lat="43.434875" lon="-5.845166">
        <ele>237.0</ele>
        <time>2012-06-15T10:53:17Z</time>
      </trkpt>
      <trkpt lat="43.435092" lon="-5.845455">
        <ele>238.0</ele>
        <time>2012-06-15T10:53:21Z</time>
      </trkpt>
      <trkpt lat="43.43526" lon="-5.845667">
        <ele>238.0</ele>
        <time>2012-06-15T10:53:24Z</time>
      </trkpt>
      <trkpt lat="43.435541" lon="-5.846009">
        <ele>238.0</ele>
        <time>2012-06-15T10:53:29Z</time>
      </trkpt>
      <trkpt lat="43.435778" lon="-5.846172">
        <ele>239.0</ele>
        <time>2012-06-15T10:53:33Z</time>
      </trkpt>
      <trkpt lat="43.435947" lon="-5.846291">
        <ele>240.0</ele>
        <time>2012-06-15T10:53:36Z</time>
      </trkpt>
      <trkpt lat="43.436087" lon="-5.846601">
        <ele>240.0</ele>
        <time>2012-06-15T10:53:40Z</time>
      </trkpt>
      <trkpt lat="43.436294" lon="-5.846991">
        <ele>239.0</ele>
        <time>2012-06-15T10:53:45Z</time>
      </trkpt>
      <trkpt lat="43.436384" lon="-5.847302">
        <ele>239.0</ele>
        <time>2012-06-15T10:53:49Z</time>
      </trkpt>
      <trkpt lat="43.436273" lon="-5.847524">
        <ele>239.0</ele>
        <time>2012-06-15T10:53:52Z</time>
      </trkpt>
      <trkpt lat="43.436026" lon="-5.8478">
        <ele>239.0</ele>
        <time>2012-06-15T10:53:57Z</time>
      </trkpt>
      <trkpt lat="43.435772" lon="-5.847994">
        <ele>239.0</ele>
        <time>2012-06-15T10:54:01Z</time>
      </trkpt>
      <trkpt lat="43.435614" lon="-5.848218">
        <ele>239.0</ele>
        <time>2012-06-15T10:54:04Z</time>
      </trkpt>
      <trkpt lat="43.43535" lon="-5.848624">
        <ele>238.0</ele>
        <time>2012-06-15T10:54:09Z</time>
      </trkpt>
      <trkpt lat="43.435179" lon="-5.848932">
        <ele>238.0</ele>
        <time>2012-06-15T10:54:13Z</time>
      </trkpt>
      <trkpt lat="43.435108" lon="-5.849314">
        <ele>238.0</ele>
        <time>2012-06-15T10:54:17Z</time>
      </trkpt>
      <trkpt lat="43.435086" lon="-5.849621">
        <ele>237.0</ele>
        <time>2012-06-15T10:54:20Z</time>
      </trkpt>
      <trkpt lat="43.435047" lon="-5.850067">
        <ele>237.0</ele>
        <time>2012-06-15T10:54:24Z</time>
      </trkpt>
      <trkpt lat="43.434983" lon="-5.850506">
        <ele>236.0</ele>
        <time>2012-06-15T10:54:28Z</time>
      </trkpt>
      <trkpt lat="43.434928" lon="-5.850924">
        <ele>236.0</ele>
        <time>2012-06-15T10:54:32Z</time>
      </trkpt>
      <trkpt lat="43.435021" lon="-5.85128">
        <ele>236.0</ele>
        <time>2012-06-15T10:54:36Z</time>
      </trkpt>
      <trkpt lat="43.435119" lon="-5.851641">
        <ele>236.0</ele>
        <time>2012-06-15T10:54:40Z</time>
      </trkpt>
      <trkpt lat="43.435546" lon="-5.851778">
        <ele>233.0</ele>
        <time>2012-06-15T10:54:44Z</time>
      </trkpt>
      <trkpt lat="43.435681" lon="-5.852041">
        <ele>230.0</ele>
        <time>2012-06-15T10:54:48Z</time>
      </trkpt>
      <trkpt lat="43.435654" lon="-5.852353">
        <ele>229.0</ele>
        <time>2012-06-15T10:54:52Z</time>
      </trkpt>
      <trkpt lat="43.435616" lon="-5.852651">
        <ele>227.0</ele>
        <time>2012-06-15T10:54:56Z</time>
      </trkpt>
      <trkpt lat="43.435707" lon="-5.852891">
        <ele>226.0</ele>
        <time>2012-06-15T10:55:00Z</time>
      </trkpt>
      <trkpt lat="43.435881" lon="-5.853064">
        <ele>226.0</ele>
        <time>2012-06-15T10:55:04Z</time>
      </trkpt>
      <trkpt lat="43.436036" lon="-5.853239">
        <ele>227.0</ele>
        <time>2012-06-15T10:55:08Z</time>
      </trkpt>
      <trkpt lat="43.436113" lon="-5.853327">
        <ele>227.0</ele>
        <time>2012-06-15T10:55:10Z</time>
      </trkpt>
      <trkpt lat="43.436308" lon="-5.853634">
        <ele>228.0</ele>
        <time>2012-06-15T10:55:16Z</time>
      </trkpt>
      <trkpt lat="43.436408" lon="-5.853834">
        <ele>228.0</ele>
        <time>2012-06-15T10:55:20Z</time>
      </trkpt>
      <trkpt lat="43.436528" lon="-5.853981">
        <ele>228.0</ele>
        <time>2012-06-15T10:55:25Z</time>
      </trkpt>
      <trkpt lat="43.4367" lon="-5.854372">
        <ele>229.0</ele>
        <time>2012-06-15T10:55:36Z</time>
      </trkpt>
      <trkpt lat="43.436667" lon="-5.854661">
        <ele>230.0</ele>
        <time>2012-06-15T10:55:40Z</time>
      </trkpt>
      <trkpt lat="43.43666" lon="-5.854943">
        <ele>230.0</ele>
        <time>2012-06-15T10:55:44Z</time>
      </trkpt>
      <trkpt lat="43.436652" lon="-5.855229">
        <ele>231.0</ele>
        <time>2012-06-15T10:55:48Z</time>
      </trkpt>
      <trkpt lat="43.43665" lon="-5.85538">
        <ele>231.0</ele>
        <time>2012-06-15T10:55:50Z</time>
      </trkpt>
      <trkpt lat="43.436705" lon="-5.855864">
        <ele>232.0</ele>
        <time>2012-06-15T10:55:56Z</time>
      </trkpt>
      <trkpt lat="43.436727" lon="-5.856215">
        <ele>231.0</ele>
        <time>2012-06-15T10:56:00Z</time>
      </trkpt>
      <trkpt lat="43.436734" lon="-5.856593">
        <ele>231.0</ele>
        <time>2012-06-15T10:56:04Z</time>
      </trkpt>
      <trkpt lat="43.436683" lon="-5.856993">
        <ele>231.0</ele>
        <time>2012-06-15T10:56:08Z</time>
      </trkpt>
      <trkpt lat="43.436567" lon="-5.85741">
        <ele>230.0</ele>
        <time>2012-06-15T10:56:12Z</time>
      </trkpt>
      <trkpt lat="43.436485" lon="-5.857722">
        <ele>230.0</ele>
        <time>2012-06-15T10:56:15Z</time>
      </trkpt>
      <trkpt lat="43.436358" lon="-5.858234">
        <ele>230.0</ele>
        <time>2012-06-15T10:56:20Z</time>
      </trkpt>
      <trkpt lat="43.436237" lon="-5.858741">
        <ele>230.0</ele>
        <time>2012-06-15T10:56:25Z</time>
      </trkpt>
      <trkpt lat="43.436167" lon="-5.859035">
        <ele>230.0</ele>
        <time>2012-06-15T10:56:28Z</time>
      </trkpt>
      <trkpt lat="43.436051" lon="-5.85951">
        <ele>230.0</ele>
        <time>2012-06-15T10:56:33Z</time>
      </trkpt>
      <trkpt lat="43.435994" lon="-5.859786">
        <ele>231.0</ele>
        <time>2012-06-15T10:56:36Z</time>
      </trkpt>
      <trkpt lat="43.435923" lon="-5.860137">
        <ele>231.0</ele>
        <time>2012-06-15T10:56:40Z</time>
      </trkpt>
      <trkpt lat="43.435838" lon="-5.860576">
        <ele>231.0</ele>
        <time>2012-06-15T10:56:45Z</time>
      </trkpt>
      <trkpt lat="43.435787" lon="-5.860838">
        <ele>232.0</ele>
        <time>2012-06-15T10:56:48Z</time>
      </trkpt>
      <trkpt lat="43.435754" lon="-5.861011">
        <ele>232.0</ele>
        <time>2012-06-15T10:56:50Z</time>
      </trkpt>
      <trkpt lat="43.435632" lon="-5.861614">
        <ele>234.0</ele>
        <time>2012-06-15T10:56:57Z</time>
      </trkpt>
      <trkpt lat="43.435561" lon="-5.86196">
        <ele>236.0</ele>
        <time>2012-06-15T10:57:01Z</time>
      </trkpt>
      <trkpt lat="43.435497" lon="-5.862324">
        <ele>238.0</ele>
        <time>2012-06-15T10:57:05Z</time>
      </trkpt>
      <trkpt lat="43.435432" lon="-5.862688">
        <ele>239.0</ele>
        <time>2012-06-15T10:57:09Z</time>
      </trkpt>
      <trkpt lat="43.435358" lon="-5.863041">
        <ele>240.0</ele>
        <time>2012-06-15T10:57:13Z</time>
      </trkpt>
      <trkpt lat="43.435284" lon="-5.863395">
        <ele>239.0</ele>
        <time>2012-06-15T10:57:17Z</time>
      </trkpt>
      <trkpt lat="43.435208" lon="-5.863745">
        <ele>239.0</ele>
        <time>2012-06-15T10:57:21Z</time>
      </trkpt>
      <trkpt lat="43.435133" lon="-5.864092">
        <ele>239.0</ele>
        <time>2012-06-15T10:57:25Z</time>
      </trkpt>
      <trkpt lat="43.435063" lon="-5.864452">
        <ele>240.0</ele>
        <time>2012-06-15T10:57:29Z</time>
      </trkpt>
      <trkpt lat="43.435009" lon="-5.864811">
        <ele>240.0</ele>
        <time>2012-06-15T10:57:33Z</time>
      </trkpt>
      <trkpt lat="43.434942" lon="-5.865158">
        <ele>240.0</ele>
        <time>2012-06-15T10:57:37Z</time>
      </trkpt>
      <trkpt lat="43.434878" lon="-5.865499">
        <ele>240.0</ele>
        <time>2012-06-15T10:57:41Z</time>
      </trkpt>
      <trkpt lat="43.434819" lon="-5.865853">
        <ele>240.0</ele>
        <time>2012-06-15T10:57:45Z</time>
      </trkpt>
      <trkpt lat="43.434783" lon="-5.866231">
        <ele>240.0</ele>
        <time>2012-06-15T10:57:49Z</time>
      </trkpt>
      <trkpt lat="43.434731" lon="-5.866636">
        <ele>240.0</ele>
        <time>2012-06-15T10:57:53Z</time>
      </trkpt>
      <trkpt lat="43.434645" lon="-5.867083">
        <ele>242.0</ele>
        <time>2012-06-15T10:57:57Z</time>
      </trkpt>
      <trkpt lat="43.434597" lon="-5.867305">
        <ele>242.0</ele>
        <time>2012-06-15T10:57:59Z</time>
      </trkpt>
      <trkpt lat="43.434506" lon="-5.86774">
        <ele>242.0</ele>
        <time>2012-06-15T10:58:03Z</time>
      </trkpt>
      <trkpt lat="43.434375" lon="-5.868398">
        <ele>242.0</ele>
        <time>2012-06-15T10:58:09Z</time>
      </trkpt>
      <trkpt lat="43.434295" lon="-5.868823">
        <ele>241.0</ele>
        <time>2012-06-15T10:58:13Z</time>
      </trkpt>
      <trkpt lat="43.434222" lon="-5.869255">
        <ele>241.0</ele>
        <time>2012-06-15T10:58:17Z</time>
      </trkpt>
      <trkpt lat="43.434157" lon="-5.869693">
        <ele>241.0</ele>
        <time>2012-06-15T10:58:21Z</time>
      </trkpt>
      <trkpt lat="43.434087" lon="-5.87013">
        <ele>239.0</ele>
        <time>2012-06-15T10:58:25Z</time>
      </trkpt>
      <trkpt lat="43.434004" lon="-5.87058">
        <ele>239.0</ele>
        <time>2012-06-15T10:58:29Z</time>
      </trkpt>
      <trkpt lat="43.43393" lon="-5.870918">
        <ele>238.0</ele>
        <time>2012-06-15T10:58:32Z</time>
      </trkpt>
      <trkpt lat="43.433812" lon="-5.871462">
        <ele>238.0</ele>
        <time>2012-06-15T10:58:37Z</time>
      </trkpt>
      <trkpt lat="43.433717" lon="-5.871919">
        <ele>238.0</ele>
        <time>2012-06-15T10:58:41Z</time>
      </trkpt>
      <trkpt lat="43.433664" lon="-5.872398">
        <ele>238.0</ele>
        <time>2012-06-15T10:58:45Z</time>
      </trkpt>
      <trkpt lat="43.433655" lon="-5.872851">
        <ele>239.0</ele>
        <time>2012-06-15T10:58:49Z</time>
      </trkpt>
      <trkpt lat="43.433664" lon="-5.873283">
        <ele>238.0</ele>
        <time>2012-06-15T10:58:53Z</time>
      </trkpt>
      <trkpt lat="43.433684" lon="-5.873716">
        <ele>238.0</ele>
        <time>2012-06-15T10:58:57Z</time>
      </trkpt>
      <trkpt lat="43.433709" lon="-5.874143">
        <ele>237.0</ele>
        <time>2012-06-15T10:59:01Z</time>
      </trkpt>
      <trkpt lat="43.433718" lon="-5.874356">
        <ele>237.0</ele>
        <time>2012-06-15T10:59:03Z</time>
      </trkpt>
      <trkpt lat="43.433732" lon="-5.87487">
        <ele>237.0</ele>
        <time>2012-06-15T10:59:08Z</time>
      </trkpt>
      <trkpt lat="43.43374" lon="-5.875257">
        <ele>237.0</ele>
        <time>2012-06-15T10:59:12Z</time>
      </trkpt>
      <trkpt lat="43.433752" lon="-5.875642">
        <ele>237.0</ele>
        <time>2012-06-15T10:59:16Z</time>
      </trkpt>
      <trkpt lat="43.433761" lon="-5.875932">
        <ele>238.0</ele>
        <time>2012-06-15T10:59:19Z</time>
      </trkpt>
      <trkpt lat="43.433768" lon="-5.876542">
        <ele>240.0</ele>
        <time>2012-06-15T10:59:25Z</time>
      </trkpt>
      <trkpt lat="43.433807" lon="-5.876851">
        <ele>241.0</ele>
        <time>2012-06-15T10:59:28Z</time>
      </trkpt>
      <trkpt lat="43.433907" lon="-5.877354">
        <ele>241.0</ele>
        <time>2012-06-15T10:59:33Z</time>
      </trkpt>
      <trkpt lat="43.433987" lon="-5.877753">
        <ele>241.0</ele>
        <time>2012-06-15T10:59:37Z</time>
      </trkpt>
      <trkpt lat="43.434033" lon="-5.878155">
        <ele>241.0</ele>
        <time>2012-06-15T10:59:41Z</time>
      </trkpt>
      <trkpt lat="43.434068" lon="-5.878555">
        <ele>240.0</ele>
        <time>2012-06-15T10:59:45Z</time>
      </trkpt>
      <trkpt lat="43.434121" lon="-5.878949">
        <ele>240.0</ele>
        <time>2012-06-15T10:59:49Z</time>
      </trkpt>
      <trkpt lat="43.434147" lon="-5.879142">
        <ele>241.0</ele>
        <time>2012-06-15T10:59:51Z</time>
      </trkpt>
      <trkpt lat="43.43415" lon="-5.879759">
        <ele>241.0</ele>
        <time>2012-06-15T10:59:57Z</time>
      </trkpt>
      <trkpt lat="43.434055" lon="-5.8802">
        <ele>241.0</ele>
        <time>2012-06-15T11:00:01Z</time>
      </trkpt>
      <trkpt lat="43.433877" lon="-5.880644">
        <ele>241.0</ele>
        <time>2012-06-15T11:00:05Z</time>
      </trkpt>
      <trkpt lat="43.433764" lon="-5.880868">
        <ele>241.0</ele>
        <time>2012-06-15T11:00:07Z</time>
      </trkpt>
      <trkpt lat="43.433354" lon="-5.881469">
        <ele>240.0</ele>
        <time>2012-06-15T11:00:13Z</time>
      </trkpt>
      <trkpt lat="43.432952" lon="-5.881741">
        <ele>240.0</ele>
        <time>2012-06-15T11:00:17Z</time>
      </trkpt>
      <trkpt lat="43.43256" lon="-5.881981">
        <ele>240.0</ele>
        <time>2012-06-15T11:00:21Z</time>
      </trkpt>
      <trkpt lat="43.432214" lon="-5.882201">
        <ele>240.0</ele>
        <time>2012-06-15T11:00:25Z</time>
      </trkpt>
      <trkpt lat="43.432055" lon="-5.882291">
        <ele>241.0</ele>
        <time>2012-06-15T11:00:27Z</time>
      </trkpt>
      <trkpt lat="43.431646" lon="-5.882502">
        <ele>241.0</ele>
        <time>2012-06-15T11:00:33Z</time>
      </trkpt>
      <trkpt lat="43.431376" lon="-5.882671">
        <ele>242.0</ele>
        <time>2012-06-15T11:00:37Z</time>
      </trkpt>
      <trkpt lat="43.431173" lon="-5.882827">
        <ele>242.0</ele>
        <time>2012-06-15T11:00:40Z</time>
      </trkpt>
      <trkpt lat="43.430825" lon="-5.883083">
        <ele>243.0</ele>
        <time>2012-06-15T11:00:45Z</time>
      </trkpt>
      <trkpt lat="43.430541" lon="-5.883289">
        <ele>243.0</ele>
        <time>2012-06-15T11:00:49Z</time>
      </trkpt>
      <trkpt lat="43.430242" lon="-5.883495">
        <ele>244.0</ele>
        <time>2012-06-15T11:00:53Z</time>
      </trkpt>
      <trkpt lat="43.429892" lon="-5.883724">
        <ele>244.0</ele>
        <time>2012-06-15T11:00:57Z</time>
      </trkpt>
      <trkpt lat="43.429718" lon="-5.88386">
        <ele>245.0</ele>
        <time>2012-06-15T11:00:59Z</time>
      </trkpt>
      <trkpt lat="43.429319" lon="-5.884511">
        <ele>246.0</ele>
        <time>2012-06-15T11:01:05Z</time>
      </trkpt>
      <trkpt lat="43.42922" lon="-5.885045">
        <ele>244.0</ele>
        <time>2012-06-15T11:01:09Z</time>
      </trkpt>
      <trkpt lat="43.429139" lon="-5.885617">
        <ele>240.0</ele>
        <time>2012-06-15T11:01:13Z</time>
      </trkpt>
      <trkpt lat="43.429101" lon="-5.886298">
        <ele>236.0</ele>
        <time>2012-06-15T11:01:17Z</time>
      </trkpt>
      <trkpt lat="43.429105" lon="-5.88701">
        <ele>233.0</ele>
        <time>2012-06-15T11:01:21Z</time>
      </trkpt>
      <trkpt lat="43.429122" lon="-5.887728">
        <ele>229.0</ele>
        <time>2012-06-15T11:01:25Z</time>
      </trkpt>
      <trkpt lat="43.429016" lon="-5.888424">
        <ele>226.0</ele>
        <time>2012-06-15T11:01:29Z</time>
      </trkpt>
      <trkpt lat="43.428719" lon="-5.889069">
        <ele>225.0</ele>
        <time>2012-06-15T11:01:33Z</time>
      </trkpt>
      <trkpt lat="43.428416" lon="-5.889761">
        <ele>224.0</ele>
        <time>2012-06-15T11:01:37Z</time>
      </trkpt>
      <trkpt lat="43.428347" lon="-5.890543">
        <ele>223.0</ele>
        <time>2012-06-15T11:01:41Z</time>
      </trkpt>
      <trkpt lat="43.428356" lon="-5.891084">
        <ele>222.0</ele>
        <time>2012-06-15T11:01:44Z</time>
      </trkpt>
      <trkpt lat="43.428414" lon="-5.891883">
        <ele>223.0</ele>
        <time>2012-06-15T11:01:49Z</time>
      </trkpt>
      <trkpt lat="43.428469" lon="-5.892464">
        <ele>222.0</ele>
        <time>2012-06-15T11:01:53Z</time>
      </trkpt>
      <trkpt lat="43.428505" lon="-5.892967">
        <ele>221.0</ele>
        <time>2012-06-15T11:01:57Z</time>
      </trkpt>
      <trkpt lat="43.428538" lon="-5.893417">
        <ele>219.0</ele>
        <time>2012-06-15T11:02:01Z</time>
      </trkpt>
      <trkpt lat="43.428555" lon="-5.893741">
        <ele>219.0</ele>
        <time>2012-06-15T11:02:04Z</time>
      </trkpt>
      <trkpt lat="43.428583" lon="-5.894285">
        <ele>219.0</ele>
        <time>2012-06-15T11:02:09Z</time>
      </trkpt>
      <trkpt lat="43.428562" lon="-5.894737">
        <ele>219.0</ele>
        <time>2012-06-15T11:02:13Z</time>
      </trkpt>
      <trkpt lat="43.428491" lon="-5.895189">
        <ele>218.0</ele>
        <time>2012-06-15T11:02:17Z</time>
      </trkpt>
      <trkpt lat="43.428423" lon="-5.895639">
        <ele>218.0</ele>
        <time>2012-06-15T11:02:21Z</time>
      </trkpt>
      <trkpt lat="43.428382" lon="-5.896079">
        <ele>218.0</ele>
        <time>2012-06-15T11:02:25Z</time>
      </trkpt>
      <trkpt lat="43.428388" lon="-5.896516">
        <ele>217.0</ele>
        <time>2012-06-15T11:02:29Z</time>
      </trkpt>
      <trkpt lat="43.42847" lon="-5.89696">
        <ele>217.0</ele>
        <time>2012-06-15T11:02:33Z</time>
      </trkpt>
      <trkpt lat="43.428643" lon="-5.897392">
        <ele>216.0</ele>
        <time>2012-06-15T11:02:37Z</time>
      </trkpt>
      <trkpt lat="43.428753" lon="-5.897598">
        <ele>216.0</ele>
        <time>2012-06-15T11:02:39Z</time>
      </trkpt>
      <trkpt lat="43.429116" lon="-5.898287">
        <ele>216.0</ele>
        <time>2012-06-15T11:02:45Z</time>
      </trkpt>
      <trkpt lat="43.429345" lon="-5.898801">
        <ele>216.0</ele>
        <time>2012-06-15T11:02:49Z</time>
      </trkpt>
      <trkpt lat="43.429595" lon="-5.899317">
        <ele>216.0</ele>
        <time>2012-06-15T11:02:53Z</time>
      </trkpt>
      <trkpt lat="43.429656" lon="-5.899446">
        <ele>216.0</ele>
        <time>2012-06-15T11:02:54Z</time>
      </trkpt>
      <trkpt lat="43.429868" lon="-5.900278">
        <ele>217.0</ele>
        <time>2012-06-15T11:03:00Z</time>
      </trkpt>
      <trkpt lat="43.429997" lon="-5.900479">
        <ele>221.0</ele>
        <time>2012-06-15T11:03:05Z</time>
      </trkpt>
      <trkpt lat="43.430081" lon="-5.900748">
        <ele>222.0</ele>
        <time>2012-06-15T11:03:09Z</time>
      </trkpt>
      <trkpt lat="43.43008" lon="-5.901232">
        <ele>221.0</ele>
        <time>2012-06-15T11:03:13Z</time>
      </trkpt>
      <trkpt lat="43.430092" lon="-5.901538">
        <ele>220.0</ele>
        <time>2012-06-15T11:03:16Z</time>
      </trkpt>
      <trkpt lat="43.430278" lon="-5.901933">
        <ele>215.0</ele>
        <time>2012-06-15T11:03:21Z</time>
      </trkpt>
      <trkpt lat="43.430238" lon="-5.902367">
        <ele>214.0</ele>
        <time>2012-06-15T11:03:25Z</time>
      </trkpt>
      <trkpt lat="43.430249" lon="-5.902892">
        <ele>213.0</ele>
        <time>2012-06-15T11:03:29Z</time>
      </trkpt>
      <trkpt lat="43.430221" lon="-5.903445">
        <ele>212.0</ele>
        <time>2012-06-15T11:03:33Z</time>
      </trkpt>
      <trkpt lat="43.430054" lon="-5.903935">
        <ele>212.0</ele>
        <time>2012-06-15T11:03:37Z</time>
      </trkpt>
      <trkpt lat="43.429795" lon="-5.904299">
        <ele>212.0</ele>
        <time>2012-06-15T11:03:41Z</time>
      </trkpt>
      <trkpt lat="43.429627" lon="-5.904679">
        <ele>212.0</ele>
        <time>2012-06-15T11:03:45Z</time>
      </trkpt>
      <trkpt lat="43.42953" lon="-5.905101">
        <ele>212.0</ele>
        <time>2012-06-15T11:03:49Z</time>
      </trkpt>
      <trkpt lat="43.429455" lon="-5.905444">
        <ele>212.0</ele>
        <time>2012-06-15T11:03:52Z</time>
      </trkpt>
      <trkpt lat="43.429321" lon="-5.906059">
        <ele>211.0</ele>
        <time>2012-06-15T11:03:57Z</time>
      </trkpt>
      <trkpt lat="43.429207" lon="-5.906582">
        <ele>211.0</ele>
        <time>2012-06-15T11:04:01Z</time>
      </trkpt>
      <trkpt lat="43.429014" lon="-5.907048">
        <ele>210.0</ele>
        <time>2012-06-15T11:04:05Z</time>
      </trkpt>
      <trkpt lat="43.428649" lon="-5.907136">
        <ele>210.0</ele>
        <time>2012-06-15T11:04:09Z</time>
      </trkpt>
      <trkpt lat="43.428278" lon="-5.907093">
        <ele>211.0</ele>
        <time>2012-06-15T11:04:13Z</time>
      </trkpt>
      <trkpt lat="43.428107" lon="-5.907121">
        <ele>211.0</ele>
        <time>2012-06-15T11:04:15Z</time>
      </trkpt>
      <trkpt lat="43.427692" lon="-5.907374">
        <ele>213.0</ele>
        <time>2012-06-15T11:04:21Z</time>
      </trkpt>
      <trkpt lat="43.427484" lon="-5.907509">
        <ele>213.0</ele>
        <time>2012-06-15T11:04:25Z</time>
      </trkpt>
      <trkpt lat="43.427272" lon="-5.907603">
        <ele>214.0</ele>
        <time>2012-06-15T11:04:29Z</time>
      </trkpt>
      <trkpt lat="43.427055" lon="-5.907705">
        <ele>214.0</ele>
        <time>2012-06-15T11:04:33Z</time>
      </trkpt>
      <trkpt lat="43.426951" lon="-5.907786">
        <ele>214.0</ele>
        <time>2012-06-15T11:04:35Z</time>
      </trkpt>
      <trkpt lat="43.426653" lon="-5.908093">
        <ele>214.0</ele>
        <time>2012-06-15T11:04:41Z</time>
      </trkpt>
      <trkpt lat="43.426446" lon="-5.90827">
        <ele>215.0</ele>
        <time>2012-06-15T11:04:45Z</time>
      </trkpt>
      <trkpt lat="43.426224" lon="-5.908287">
        <ele>215.0</ele>
        <time>2012-06-15T11:04:49Z</time>
      </trkpt>
      <trkpt lat="43.426038" lon="-5.908192">
        <ele>216.0</ele>
        <time>2012-06-15T11:04:53Z</time>
      </trkpt>
      <trkpt lat="43.425871" lon="-5.908084">
        <ele>216.0</ele>
        <time>2012-06-15T11:04:57Z</time>
      </trkpt>
      <trkpt lat="43.425714" lon="-5.908003">
        <ele>217.0</ele>
        <time>2012-06-15T11:05:01Z</time>
      </trkpt>
      <trkpt lat="43.425634" lon="-5.907976">
        <ele>217.0</ele>
        <time>2012-06-15T11:05:03Z</time>
      </trkpt>
      <trkpt lat="43.425478" lon="-5.907948">
        <ele>217.0</ele>
        <time>2012-06-15T11:05:07Z</time>
      </trkpt>
      <trkpt lat="43.425339" lon="-5.90796">
        <ele>217.0</ele>
        <time>2012-06-15T11:05:11Z</time>
      </trkpt>
      <trkpt lat="43.425254" lon="-5.907982">
        <ele>217.0</ele>
        <time>2012-06-15T11:05:14Z</time>
      </trkpt>
      <trkpt lat="43.425" lon="-5.90803">
        <ele>217.0</ele>
        <time>2012-06-15T11:05:23Z</time>
      </trkpt>
      <trkpt lat="43.42485" lon="-5.908095">
        <ele>217.0</ele>
        <time>2012-06-15T11:05:29Z</time>
      </trkpt>
      <trkpt lat="43.424778" lon="-5.908135">
        <ele>217.0</ele>
        <time>2012-06-15T11:05:32Z</time>
      </trkpt>
      <trkpt lat="43.424705" lon="-5.908173">
        <ele>217.0</ele>
        <time>2012-06-15T11:05:35Z</time>
      </trkpt>
      <trkpt lat="43.424552" lon="-5.908238">
        <ele>218.0</ele>
        <time>2012-06-15T11:05:41Z</time>
      </trkpt>
      <trkpt lat="43.424474" lon="-5.908278">
        <ele>218.0</ele>
        <time>2012-06-15T11:05:44Z</time>
      </trkpt>
      <trkpt lat="43.424315" lon="-5.908367">
        <ele>218.0</ele>
        <time>2012-06-15T11:05:50Z</time>
      </trkpt>
      <trkpt lat="43.424149" lon="-5.908431">
        <ele>218.0</ele>
        <time>2012-06-15T11:05:56Z</time>
      </trkpt>
      <trkpt lat="43.423914" lon="-5.908525">
        <ele>219.0</ele>
        <time>2012-06-15T11:06:05Z</time>
      </trkpt>
      <trkpt lat="43.423747" lon="-5.908822">
        <ele>220.0</ele>
        <time>2012-06-15T11:06:16Z</time>
      </trkpt>
      <trkpt lat="43.423712" lon="-5.909006">
        <ele>220.0</ele>
        <time>2012-06-15T11:06:20Z</time>
      </trkpt>
      <trkpt lat="43.42368" lon="-5.909199">
        <ele>220.0</ele>
        <time>2012-06-15T11:06:24Z</time>
      </trkpt>
      <trkpt lat="43.423652" lon="-5.909396">
        <ele>220.0</ele>
        <time>2012-06-15T11:06:28Z</time>
      </trkpt>
      <trkpt lat="43.423642" lon="-5.909496">
        <ele>221.0</ele>
        <time>2012-06-15T11:06:30Z</time>
      </trkpt>
      <trkpt lat="43.423645" lon="-5.909811">
        <ele>221.0</ele>
        <time>2012-06-15T11:06:36Z</time>
      </trkpt>
      <trkpt lat="43.423728" lon="-5.910001">
        <ele>221.0</ele>
        <time>2012-06-15T11:06:40Z</time>
      </trkpt>
      <trkpt lat="43.423841" lon="-5.910169">
        <ele>221.0</ele>
        <time>2012-06-15T11:06:44Z</time>
      </trkpt>
      <trkpt lat="43.423964" lon="-5.910313">
        <ele>221.0</ele>
        <time>2012-06-15T11:06:48Z</time>
      </trkpt>
      <trkpt lat="43.424135" lon="-5.910428">
        <ele>222.0</ele>
        <time>2012-06-15T11:06:52Z</time>
      </trkpt>
      <trkpt lat="43.424302" lon="-5.910576">
        <ele>222.0</ele>
        <time>2012-06-15T11:06:56Z</time>
      </trkpt>
      <trkpt lat="43.424568" lon="-5.910764">
        <ele>223.0</ele>
        <time>2012-06-15T11:07:04Z</time>
      </trkpt>
      <trkpt lat="43.42463" lon="-5.910844">
        <ele>223.0</ele>
        <time>2012-06-15T11:07:07Z</time>
      </trkpt>
      <trkpt lat="43.424674" lon="-5.910927">
        <ele>223.0</ele>
        <time>2012-06-15T11:07:10Z</time>
      </trkpt>
      <trkpt lat="43.424799" lon="-5.911192">
        <ele>224.0</ele>
        <time>2012-06-15T11:07:19Z</time>
      </trkpt>
      <trkpt lat="43.424854" lon="-5.911408">
        <ele>225.0</ele>
        <time>2012-06-15T11:07:25Z</time>
      </trkpt>
      <trkpt lat="43.424875" lon="-5.911528">
        <ele>225.0</ele>
        <time>2012-06-15T11:07:28Z</time>
      </trkpt>
      <trkpt lat="43.424909" lon="-5.911873">
        <ele>226.0</ele>
        <time>2012-06-15T11:07:37Z</time>
      </trkpt>
      <trkpt lat="43.42491" lon="-5.911981">
        <ele>226.0</ele>
        <time>2012-06-15T11:07:40Z</time>
      </trkpt>
      <trkpt lat="43.424871" lon="-5.912317">
        <ele>227.0</ele>
        <time>2012-06-15T11:07:49Z</time>
      </trkpt>
      <trkpt lat="43.424766" lon="-5.912576">
        <ele>228.0</ele>
        <time>2012-06-15T11:07:56Z</time>
      </trkpt>
      <trkpt lat="43.424669" lon="-5.912699">
        <ele>228.0</ele>
        <time>2012-06-15T11:08:00Z</time>
      </trkpt>
      <trkpt lat="43.424615" lon="-5.912755">
        <ele>229.0</ele>
        <time>2012-06-15T11:08:02Z</time>
      </trkpt>
      <trkpt lat="43.424506" lon="-5.912856">
        <ele>229.0</ele>
        <time>2012-06-15T11:08:06Z</time>
      </trkpt>
      <trkpt lat="43.424335" lon="-5.913008">
        <ele>230.0</ele>
        <time>2012-06-15T11:08:12Z</time>
      </trkpt>
      <trkpt lat="43.424201" lon="-5.913088">
        <ele>230.0</ele>
        <time>2012-06-15T11:08:16Z</time>
      </trkpt>
      <trkpt lat="43.424064" lon="-5.913165">
        <ele>231.0</ele>
        <time>2012-06-15T11:08:20Z</time>
      </trkpt>
      <trkpt lat="43.423938" lon="-5.913258">
        <ele>231.0</ele>
        <time>2012-06-15T11:08:24Z</time>
      </trkpt>
      <trkpt lat="43.423825" lon="-5.913364">
        <ele>231.0</ele>
        <time>2012-06-15T11:08:28Z</time>
      </trkpt>
      <trkpt lat="43.423769" lon="-5.913431">
        <ele>232.0</ele>
        <time>2012-06-15T11:08:31Z</time>
      </trkpt>
      <trkpt lat="43.423709" lon="-5.913515">
        <ele>232.0</ele>
        <time>2012-06-15T11:08:34Z</time>
      </trkpt>
      <trkpt lat="43.423542" lon="-5.9138">
        <ele>233.0</ele>
        <time>2012-06-15T11:08:43Z</time>
      </trkpt>
      <trkpt lat="43.423433" lon="-5.913984">
        <ele>233.0</ele>
        <time>2012-06-15T11:08:49Z</time>
      </trkpt>
      <trkpt lat="43.42338" lon="-5.914079">
        <ele>234.0</ele>
        <time>2012-06-15T11:08:52Z</time>
      </trkpt>
      <trkpt lat="43.423328" lon="-5.914177">
        <ele>234.0</ele>
        <time>2012-06-15T11:08:55Z</time>
      </trkpt>
      <trkpt lat="43.423281" lon="-5.914283">
        <ele>234.0</ele>
        <time>2012-06-15T11:08:58Z</time>
      </trkpt>
      <trkpt lat="43.423182" lon="-5.914496">
        <ele>235.0</ele>
        <time>2012-06-15T11:09:04Z</time>
      </trkpt>
      <trkpt lat="43.423134" lon="-5.914605">
        <ele>235.0</ele>
        <time>2012-06-15T11:09:07Z</time>
      </trkpt>
      <trkpt lat="43.423054" lon="-5.914831">
        <ele>236.0</ele>
        <time>2012-06-15T11:09:13Z</time>
      </trkpt>
      <trkpt lat="43.42302" lon="-5.914944">
        <ele>236.0</ele>
        <time>2012-06-15T11:09:16Z</time>
      </trkpt>
      <trkpt lat="43.422982" lon="-5.915054">
        <ele>237.0</ele>
        <time>2012-06-15T11:09:19Z</time>
      </trkpt>
      <trkpt lat="43.422908" lon="-5.91527">
        <ele>237.0</ele>
        <time>2012-06-15T11:09:25Z</time>
      </trkpt>
      <trkpt lat="43.422877" lon="-5.915381">
        <ele>237.0</ele>
        <time>2012-06-15T11:09:28Z</time>
      </trkpt>
      <trkpt lat="43.42279" lon="-5.915709">
        <ele>238.0</ele>
        <time>2012-06-15T11:09:37Z</time>
      </trkpt>
      <trkpt lat="43.422667" lon="-5.916121">
        <ele>240.0</ele>
        <time>2012-06-15T11:09:49Z</time>
      </trkpt>
      <trkpt lat="43.422629" lon="-5.916221">
        <ele>240.0</ele>
        <time>2012-06-15T11:09:52Z</time>
      </trkpt>
      <trkpt lat="43.422562" lon="-5.916432">
        <ele>241.0</ele>
        <time>2012-06-15T11:09:58Z</time>
      </trkpt>
      <trkpt lat="43.422516" lon="-5.916648">
        <ele>242.0</ele>
        <time>2012-06-15T11:10:04Z</time>
      </trkpt>
      <trkpt lat="43.422432" lon="-5.916975">
        <ele>244.0</ele>
        <time>2012-06-15T11:10:13Z</time>
      </trkpt>
      <trkpt lat="43.422297" lon="-5.917425">
        <ele>246.0</ele>
        <time>2012-06-15T11:10:25Z</time>
      </trkpt>
      <trkpt lat="43.422277" lon="-5.917541">
        <ele>246.0</ele>
        <time>2012-06-15T11:10:28Z</time>
      </trkpt>
      <trkpt lat="43.422254" lon="-5.917653">
        <ele>247.0</ele>
        <time>2012-06-15T11:10:31Z</time>
      </trkpt>
      <trkpt lat="43.422209" lon="-5.917865">
        <ele>248.0</ele>
        <time>2012-06-15T11:10:37Z</time>
      </trkpt>
      <trkpt lat="43.422188" lon="-5.917969">
        <ele>249.0</ele>
        <time>2012-06-15T11:10:40Z</time>
      </trkpt>
      <trkpt lat="43.422114" lon="-5.918282">
        <ele>250.0</ele>
        <time>2012-06-15T11:10:48Z</time>
      </trkpt>
      <trkpt lat="43.422068" lon="-5.918459">
        <ele>251.0</ele>
        <time>2012-06-15T11:10:52Z</time>
      </trkpt>
      <trkpt lat="43.422" lon="-5.918671">
        <ele>256.0</ele>
        <time>2012-06-15T11:10:55Z</time>
      </trkpt>
      <trkpt lat="43.421879" lon="-5.919029">
        <ele>259.0</ele>
        <time>2012-06-15T11:11:01Z</time>
      </trkpt>
      <trkpt lat="43.421789" lon="-5.919301">
        <ele>260.0</ele>
        <time>2012-06-15T11:11:05Z</time>
      </trkpt>
      <trkpt lat="43.42169" lon="-5.919569">
        <ele>261.0</ele>
        <time>2012-06-15T11:11:09Z</time>
      </trkpt>
      <trkpt lat="43.421601" lon="-5.919822">
        <ele>262.0</ele>
        <time>2012-06-15T11:11:13Z</time>
      </trkpt>
      <trkpt lat="43.421507" lon="-5.920084">
        <ele>262.0</ele>
        <time>2012-06-15T11:11:17Z</time>
      </trkpt>
      <trkpt lat="43.421402" lon="-5.920348">
        <ele>263.0</ele>
        <time>2012-06-15T11:11:21Z</time>
      </trkpt>
      <trkpt lat="43.421143" lon="-5.920847">
        <ele>265.0</ele>
        <time>2012-06-15T11:11:29Z</time>
      </trkpt>
      <trkpt lat="43.421022" lon="-5.921112">
        <ele>266.0</ele>
        <time>2012-06-15T11:11:33Z</time>
      </trkpt>
      <trkpt lat="43.420995" lon="-5.921267">
        <ele>266.0</ele>
        <time>2012-06-15T11:11:35Z</time>
      </trkpt>
      <trkpt lat="43.42093" lon="-5.921754">
        <ele>266.0</ele>
        <time>2012-06-15T11:11:41Z</time>
      </trkpt>
      <trkpt lat="43.420884" lon="-5.922083">
        <ele>266.0</ele>
        <time>2012-06-15T11:11:45Z</time>
      </trkpt>
      <trkpt lat="43.420817" lon="-5.922409">
        <ele>267.0</ele>
        <time>2012-06-15T11:11:49Z</time>
      </trkpt>
      <trkpt lat="43.420761" lon="-5.922596">
        <ele>268.0</ele>
        <time>2012-06-15T11:11:51Z</time>
      </trkpt>
      <trkpt lat="43.420595" lon="-5.923199">
        <ele>270.0</ele>
        <time>2012-06-15T11:11:57Z</time>
      </trkpt>
      <trkpt lat="43.420498" lon="-5.923614">
        <ele>270.0</ele>
        <time>2012-06-15T11:12:01Z</time>
      </trkpt>
      <trkpt lat="43.420418" lon="-5.924032">
        <ele>271.0</ele>
        <time>2012-06-15T11:12:05Z</time>
      </trkpt>
      <trkpt lat="43.420457" lon="-5.924498">
        <ele>273.0</ele>
        <time>2012-06-15T11:12:09Z</time>
      </trkpt>
      <trkpt lat="43.420473" lon="-5.924969">
        <ele>273.0</ele>
        <time>2012-06-15T11:12:13Z</time>
      </trkpt>
      <trkpt lat="43.420453" lon="-5.925424">
        <ele>273.0</ele>
        <time>2012-06-15T11:12:17Z</time>
      </trkpt>
      <trkpt lat="43.420472" lon="-5.925888">
        <ele>273.0</ele>
        <time>2012-06-15T11:12:21Z</time>
      </trkpt>
      <trkpt lat="43.420409" lon="-5.926371">
        <ele>272.0</ele>
        <time>2012-06-15T11:12:25Z</time>
      </trkpt>
      <trkpt lat="43.420247" lon="-5.926893">
        <ele>272.0</ele>
        <time>2012-06-15T11:12:29Z</time>
      </trkpt>
      <trkpt lat="43.419992" lon="-5.927429">
        <ele>272.0</ele>
        <time>2012-06-15T11:12:33Z</time>
      </trkpt>
      <trkpt lat="43.419948" lon="-5.928016">
        <ele>272.0</ele>
        <time>2012-06-15T11:12:37Z</time>
      </trkpt>
      <trkpt lat="43.419917" lon="-5.928488">
        <ele>272.0</ele>
        <time>2012-06-15T11:12:41Z</time>
      </trkpt>
      <trkpt lat="43.41984" lon="-5.92884">
        <ele>273.0</ele>
        <time>2012-06-15T11:12:45Z</time>
      </trkpt>
      <trkpt lat="43.419731" lon="-5.92913">
        <ele>274.0</ele>
        <time>2012-06-15T11:12:49Z</time>
      </trkpt>
      <trkpt lat="43.419608" lon="-5.929417">
        <ele>275.0</ele>
        <time>2012-06-15T11:12:53Z</time>
      </trkpt>
      <trkpt lat="43.419509" lon="-5.92975">
        <ele>275.0</ele>
        <time>2012-06-15T11:12:57Z</time>
      </trkpt>
      <trkpt lat="43.41946" lon="-5.930019">
        <ele>275.0</ele>
        <time>2012-06-15T11:13:00Z</time>
      </trkpt>
      <trkpt lat="43.419364" lon="-5.930478">
        <ele>276.0</ele>
        <time>2012-06-15T11:13:05Z</time>
      </trkpt>
      <trkpt lat="43.4193" lon="-5.930867">
        <ele>276.0</ele>
        <time>2012-06-15T11:13:09Z</time>
      </trkpt>
      <trkpt lat="43.4192" lon="-5.931323">
        <ele>276.0</ele>
        <time>2012-06-15T11:13:13Z</time>
      </trkpt>
      <trkpt lat="43.419031" lon="-5.931772">
        <ele>278.0</ele>
        <time>2012-06-15T11:13:17Z</time>
      </trkpt>
      <trkpt lat="43.418837" lon="-5.932205">
        <ele>278.0</ele>
        <time>2012-06-15T11:13:21Z</time>
      </trkpt>
      <trkpt lat="43.418637" lon="-5.932653">
        <ele>279.0</ele>
        <time>2012-06-15T11:13:25Z</time>
      </trkpt>
      <trkpt lat="43.418441" lon="-5.933088">
        <ele>280.0</ele>
        <time>2012-06-15T11:13:29Z</time>
      </trkpt>
      <trkpt lat="43.418323" lon="-5.933336">
        <ele>280.0</ele>
        <time>2012-06-15T11:13:32Z</time>
      </trkpt>
      <trkpt lat="43.418187" lon="-5.933546">
        <ele>280.0</ele>
        <time>2012-06-15T11:13:36Z</time>
      </trkpt>
      <trkpt lat="43.418014" lon="-5.933545">
        <ele>281.0</ele>
        <time>2012-06-15T11:13:40Z</time>
      </trkpt>
      <trkpt lat="43.417673" lon="-5.933476">
        <ele>280.0</ele>
        <time>2012-06-15T11:13:45Z</time>
      </trkpt>
      <trkpt lat="43.417394" lon="-5.933551">
        <ele>280.0</ele>
        <time>2012-06-15T11:13:49Z</time>
      </trkpt>
      <trkpt lat="43.417117" lon="-5.933676">
        <ele>280.0</ele>
        <time>2012-06-15T11:13:53Z</time>
      </trkpt>
      <trkpt lat="43.416829" lon="-5.933782">
        <ele>280.0</ele>
        <time>2012-06-15T11:13:57Z</time>
      </trkpt>
      <trkpt lat="43.416605" lon="-5.933815">
        <ele>280.0</ele>
        <time>2012-06-15T11:14:00Z</time>
      </trkpt>
      <trkpt lat="43.416207" lon="-5.933804">
        <ele>279.0</ele>
        <time>2012-06-15T11:14:05Z</time>
      </trkpt>
      <trkpt lat="43.415948" lon="-5.933794">
        <ele>279.0</ele>
        <time>2012-06-15T11:14:08Z</time>
      </trkpt>
      <trkpt lat="43.415544" lon="-5.933916">
        <ele>280.0</ele>
        <time>2012-06-15T11:14:13Z</time>
      </trkpt>
      <trkpt lat="43.41524" lon="-5.934105">
        <ele>281.0</ele>
        <time>2012-06-15T11:14:17Z</time>
      </trkpt>
      <trkpt lat="43.414942" lon="-5.934353">
        <ele>281.0</ele>
        <time>2012-06-15T11:14:21Z</time>
      </trkpt>
      <trkpt lat="43.414715" lon="-5.934725">
        <ele>281.0</ele>
        <time>2012-06-15T11:14:25Z</time>
      </trkpt>
      <trkpt lat="43.414563" lon="-5.935023">
        <ele>280.0</ele>
        <time>2012-06-15T11:14:28Z</time>
      </trkpt>
      <trkpt lat="43.41431" lon="-5.935533">
        <ele>279.0</ele>
        <time>2012-06-15T11:14:33Z</time>
      </trkpt>
      <trkpt lat="43.414164" lon="-5.935978">
        <ele>278.0</ele>
        <time>2012-06-15T11:14:37Z</time>
      </trkpt>
      <trkpt lat="43.4142" lon="-5.936451">
        <ele>278.0</ele>
        <time>2012-06-15T11:14:41Z</time>
      </trkpt>
      <trkpt lat="43.414248" lon="-5.936938">
        <ele>276.0</ele>
        <time>2012-06-15T11:14:45Z</time>
      </trkpt>
      <trkpt lat="43.414222" lon="-5.93743">
        <ele>275.0</ele>
        <time>2012-06-15T11:14:49Z</time>
      </trkpt>
      <trkpt lat="43.414181" lon="-5.937904">
        <ele>274.0</ele>
        <time>2012-06-15T11:14:53Z</time>
      </trkpt>
      <trkpt lat="43.414126" lon="-5.938322">
        <ele>273.0</ele>
        <time>2012-06-15T11:14:57Z</time>
      </trkpt>
      <trkpt lat="43.41408" lon="-5.938512">
        <ele>273.0</ele>
        <time>2012-06-15T11:14:59Z</time>
      </trkpt>
      <trkpt lat="43.413816" lon="-5.939">
        <ele>272.0</ele>
        <time>2012-06-15T11:15:05Z</time>
      </trkpt>
      <trkpt lat="43.413624" lon="-5.939321">
        <ele>272.0</ele>
        <time>2012-06-15T11:15:09Z</time>
      </trkpt>
      <trkpt lat="43.413495" lon="-5.939726">
        <ele>272.0</ele>
        <time>2012-06-15T11:15:13Z</time>
      </trkpt>
      <trkpt lat="43.413382" lon="-5.940181">
        <ele>271.0</ele>
        <time>2012-06-15T11:15:17Z</time>
      </trkpt>
      <trkpt lat="43.413328" lon="-5.940417">
        <ele>271.0</ele>
        <time>2012-06-15T11:15:19Z</time>
      </trkpt>
      <trkpt lat="43.413134" lon="-5.941222">
        <ele>268.0</ele>
        <time>2012-06-15T11:15:25Z</time>
      </trkpt>
      <trkpt lat="43.413213" lon="-5.941846">
        <ele>266.0</ele>
        <time>2012-06-15T11:15:29Z</time>
      </trkpt>
      <trkpt lat="43.413481" lon="-5.942516">
        <ele>264.0</ele>
        <time>2012-06-15T11:15:33Z</time>
      </trkpt>
      <trkpt lat="43.413592" lon="-5.943109">
        <ele>261.0</ele>
        <time>2012-06-15T11:15:36Z</time>
      </trkpt>
      <trkpt lat="43.413665" lon="-5.944141">
        <ele>260.0</ele>
        <time>2012-06-15T11:15:41Z</time>
      </trkpt>
      <trkpt lat="43.413622" lon="-5.944946">
        <ele>259.0</ele>
        <time>2012-06-15T11:15:45Z</time>
      </trkpt>
      <trkpt lat="43.413529" lon="-5.945725">
        <ele>257.0</ele>
        <time>2012-06-15T11:15:49Z</time>
      </trkpt>
      <trkpt lat="43.413421" lon="-5.946497">
        <ele>256.0</ele>
        <time>2012-06-15T11:15:53Z</time>
      </trkpt>
      <trkpt lat="43.413311" lon="-5.94727">
        <ele>254.0</ele>
        <time>2012-06-15T11:15:57Z</time>
      </trkpt>
      <trkpt lat="43.413134" lon="-5.947996">
        <ele>252.0</ele>
        <time>2012-06-15T11:16:01Z</time>
      </trkpt>
      <trkpt lat="43.412856" lon="-5.948579">
        <ele>246.0</ele>
        <time>2012-06-15T11:16:05Z</time>
      </trkpt>
      <trkpt lat="43.412623" lon="-5.949163">
        <ele>241.0</ele>
        <time>2012-06-15T11:16:09Z</time>
      </trkpt>
      <trkpt lat="43.412625" lon="-5.949822">
        <ele>238.0</ele>
        <time>2012-06-15T11:16:13Z</time>
      </trkpt>
      <trkpt lat="43.412754" lon="-5.950442">
        <ele>235.0</ele>
        <time>2012-06-15T11:16:17Z</time>
      </trkpt>
      <trkpt lat="43.412954" lon="-5.951027">
        <ele>234.0</ele>
        <time>2012-06-15T11:16:21Z</time>
      </trkpt>
      <trkpt lat="43.413179" lon="-5.951582">
        <ele>232.0</ele>
        <time>2012-06-15T11:16:25Z</time>
      </trkpt>
      <trkpt lat="43.413388" lon="-5.952132">
        <ele>230.0</ele>
        <time>2012-06-15T11:16:29Z</time>
      </trkpt>
      <trkpt lat="43.413563" lon="-5.952667">
        <ele>227.0</ele>
        <time>2012-06-15T11:16:33Z</time>
      </trkpt>
      <trkpt lat="43.413728" lon="-5.953202">
        <ele>226.0</ele>
        <time>2012-06-15T11:16:37Z</time>
      </trkpt>
      <trkpt lat="43.413824" lon="-5.953782">
        <ele>225.0</ele>
        <time>2012-06-15T11:16:41Z</time>
      </trkpt>
      <trkpt lat="43.413686" lon="-5.954351">
        <ele>224.0</ele>
        <time>2012-06-15T11:16:45Z</time>
      </trkpt>
      <trkpt lat="43.41346" lon="-5.954827">
        <ele>222.0</ele>
        <time>2012-06-15T11:16:49Z</time>
      </trkpt>
      <trkpt lat="43.413277" lon="-5.955345">
        <ele>220.0</ele>
        <time>2012-06-15T11:16:53Z</time>
      </trkpt>
      <trkpt lat="43.413178" lon="-5.955949">
        <ele>218.0</ele>
        <time>2012-06-15T11:16:57Z</time>
      </trkpt>
      <trkpt lat="43.412994" lon="-5.956495">
        <ele>215.0</ele>
        <time>2012-06-15T11:17:01Z</time>
      </trkpt>
      <trkpt lat="43.412681" lon="-5.956909">
        <ele>214.0</ele>
        <time>2012-06-15T11:17:05Z</time>
      </trkpt>
      <trkpt lat="43.412316" lon="-5.957179">
        <ele>212.0</ele>
        <time>2012-06-15T11:17:09Z</time>
      </trkpt>
      <trkpt lat="43.412028" lon="-5.957499">
        <ele>211.0</ele>
        <time>2012-06-15T11:17:13Z</time>
      </trkpt>
      <trkpt lat="43.411813" lon="-5.95784">
        <ele>211.0</ele>
        <time>2012-06-15T11:17:17Z</time>
      </trkpt>
      <trkpt lat="43.411626" lon="-5.95818">
        <ele>211.0</ele>
        <time>2012-06-15T11:17:21Z</time>
      </trkpt>
      <trkpt lat="43.411451" lon="-5.958588">
        <ele>210.0</ele>
        <time>2012-06-15T11:17:25Z</time>
      </trkpt>
      <trkpt lat="43.411296" lon="-5.959084">
        <ele>209.0</ele>
        <time>2012-06-15T11:17:29Z</time>
      </trkpt>
      <trkpt lat="43.410959" lon="-5.959443">
        <ele>209.0</ele>
        <time>2012-06-15T11:17:33Z</time>
      </trkpt>
      <trkpt lat="43.41051" lon="-5.95954">
        <ele>209.0</ele>
        <time>2012-06-15T11:17:37Z</time>
      </trkpt>
      <trkpt lat="43.410243" lon="-5.959621">
        <ele>207.0</ele>
        <time>2012-06-15T11:17:41Z</time>
      </trkpt>
      <trkpt lat="43.410179" lon="-5.95998">
        <ele>205.0</ele>
        <time>2012-06-15T11:17:45Z</time>
      </trkpt>
      <trkpt lat="43.410171" lon="-5.960265">
        <ele>204.0</ele>
        <time>2012-06-15T11:17:48Z</time>
      </trkpt>
      <trkpt lat="43.4102" lon="-5.960549">
        <ele>201.0</ele>
        <time>2012-06-15T11:17:52Z</time>
      </trkpt>
      <trkpt lat="43.410249" lon="-5.960738">
        <ele>201.0</ele>
        <time>2012-06-15T11:17:56Z</time>
      </trkpt>
      <trkpt lat="43.410274" lon="-5.96083">
        <ele>201.0</ele>
        <time>2012-06-15T11:17:58Z</time>
      </trkpt>
      <trkpt lat="43.410343" lon="-5.961089">
        <ele>201.0</ele>
        <time>2012-06-15T11:18:04Z</time>
      </trkpt>
      <trkpt lat="43.410378" lon="-5.961201">
        <ele>201.0</ele>
        <time>2012-06-15T11:18:07Z</time>
      </trkpt>
      <trkpt lat="43.410483" lon="-5.961369">
        <ele>200.0</ele>
        <time>2012-06-15T11:18:12Z</time>
      </trkpt>
      <trkpt lat="43.410581" lon="-5.961491">
        <ele>200.0</ele>
        <time>2012-06-15T11:18:16Z</time>
      </trkpt>
      <trkpt lat="43.410636" lon="-5.961543">
        <ele>200.0</ele>
        <time>2012-06-15T11:18:18Z</time>
      </trkpt>
      <trkpt lat="43.410775" lon="-5.96164">
        <ele>200.0</ele>
        <time>2012-06-15T11:18:23Z</time>
      </trkpt>
      <trkpt lat="43.410954" lon="-5.961682">
        <ele>199.0</ele>
        <time>2012-06-15T11:18:29Z</time>
      </trkpt>
      <trkpt lat="43.411179" lon="-5.961812">
        <ele>199.0</ele>
        <time>2012-06-15T11:18:37Z</time>
      </trkpt>
      <trkpt lat="43.411251" lon="-5.961882">
        <ele>199.0</ele>
        <time>2012-06-15T11:18:40Z</time>
      </trkpt>
      <trkpt lat="43.411326" lon="-5.961943">
        <ele>199.0</ele>
        <time>2012-06-15T11:18:43Z</time>
      </trkpt>
      <trkpt lat="43.411486" lon="-5.962022">
        <ele>199.0</ele>
        <time>2012-06-15T11:18:49Z</time>
      </trkpt>
      <trkpt lat="43.411566" lon="-5.962079">
        <ele>199.0</ele>
        <time>2012-06-15T11:18:52Z</time>
      </trkpt>
      <trkpt lat="43.41163" lon="-5.96214">
        <ele>199.0</ele>
        <time>2012-06-15T11:18:55Z</time>
      </trkpt>
      <trkpt lat="43.411847" lon="-5.962281">
        <ele>199.0</ele>
        <time>2012-06-15T11:19:04Z</time>
      </trkpt>
      <trkpt lat="43.411914" lon="-5.962361">
        <ele>199.0</ele>
        <time>2012-06-15T11:19:07Z</time>
      </trkpt>
      <trkpt lat="43.412042" lon="-5.962522">
        <ele>199.0</ele>
        <time>2012-06-15T11:19:13Z</time>
      </trkpt>
      <trkpt lat="43.412095" lon="-5.96261">
        <ele>199.0</ele>
        <time>2012-06-15T11:19:16Z</time>
      </trkpt>
      <trkpt lat="43.412142" lon="-5.962694">
        <ele>199.0</ele>
        <time>2012-06-15T11:19:19Z</time>
      </trkpt>
      <trkpt lat="43.412202" lon="-5.962882">
        <ele>199.0</ele>
        <time>2012-06-15T11:19:25Z</time>
      </trkpt>
      <trkpt lat="43.412213" lon="-5.962976">
        <ele>199.0</ele>
        <time>2012-06-15T11:19:28Z</time>
      </trkpt>
      <trkpt lat="43.412253" lon="-5.963057">
        <ele>200.0</ele>
        <time>2012-06-15T11:19:31Z</time>
      </trkpt>
      <trkpt lat="43.412391" lon="-5.963175">
        <ele>200.0</ele>
        <time>2012-06-15T11:19:37Z</time>
      </trkpt>
      <trkpt lat="43.412466" lon="-5.963235">
        <ele>200.0</ele>
        <time>2012-06-15T11:19:40Z</time>
      </trkpt>
      <trkpt lat="43.412538" lon="-5.963308">
        <ele>200.0</ele>
        <time>2012-06-15T11:19:43Z</time>
      </trkpt>
      <trkpt lat="43.412672" lon="-5.963473">
        <ele>201.0</ele>
        <time>2012-06-15T11:19:49Z</time>
      </trkpt>
      <trkpt lat="43.412722" lon="-5.963573">
        <ele>201.0</ele>
        <time>2012-06-15T11:19:52Z</time>
      </trkpt>
      <trkpt lat="43.412743" lon="-5.96369">
        <ele>201.0</ele>
        <time>2012-06-15T11:19:55Z</time>
      </trkpt>
      <trkpt lat="43.412749" lon="-5.963917">
        <ele>201.0</ele>
        <time>2012-06-15T11:20:01Z</time>
      </trkpt>
      <trkpt lat="43.412765" lon="-5.964016">
        <ele>201.0</ele>
        <time>2012-06-15T11:20:04Z</time>
      </trkpt>
      <trkpt lat="43.412788" lon="-5.964099">
        <ele>201.0</ele>
        <time>2012-06-15T11:20:07Z</time>
      </trkpt>
      <trkpt lat="43.412799" lon="-5.964279">
        <ele>201.0</ele>
        <time>2012-06-15T11:20:13Z</time>
      </trkpt>
      <trkpt lat="43.412853" lon="-5.96437">
        <ele>201.0</ele>
        <time>2012-06-15T11:20:17Z</time>
      </trkpt>
      <trkpt lat="43.4129" lon="-5.964443">
        <ele>201.0</ele>
        <time>2012-06-15T11:20:20Z</time>
      </trkpt>
      <trkpt lat="43.41295" lon="-5.964523">
        <ele>201.0</ele>
        <time>2012-06-15T11:20:23Z</time>
      </trkpt>
      <trkpt lat="43.413005" lon="-5.964608">
        <ele>202.0</ele>
        <time>2012-06-15T11:20:26Z</time>
      </trkpt>
      <trkpt lat="43.413129" lon="-5.964756">
        <ele>202.0</ele>
        <time>2012-06-15T11:20:32Z</time>
      </trkpt>
      <trkpt lat="43.413191" lon="-5.964835">
        <ele>202.0</ele>
        <time>2012-06-15T11:20:35Z</time>
      </trkpt>
      <trkpt lat="43.413299" lon="-5.965011">
        <ele>202.0</ele>
        <time>2012-06-15T11:20:41Z</time>
      </trkpt>
      <trkpt lat="43.413349" lon="-5.96511">
        <ele>203.0</ele>
        <time>2012-06-15T11:20:44Z</time>
      </trkpt>
      <trkpt lat="43.413395" lon="-5.965212">
        <ele>203.0</ele>
        <time>2012-06-15T11:20:47Z</time>
      </trkpt>
      <trkpt lat="43.413481" lon="-5.96543">
        <ele>203.0</ele>
        <time>2012-06-15T11:20:53Z</time>
      </trkpt>
      <trkpt lat="43.413478" lon="-5.965623">
        <ele>204.0</ele>
        <time>2012-06-15T11:20:57Z</time>
      </trkpt>
      <trkpt lat="43.413453" lon="-5.965726">
        <ele>204.0</ele>
        <time>2012-06-15T11:20:59Z</time>
      </trkpt>
      <trkpt lat="43.413375" lon="-5.966022">
        <ele>204.0</ele>
        <time>2012-06-15T11:21:05Z</time>
      </trkpt>
      <trkpt lat="43.413335" lon="-5.966204">
        <ele>205.0</ele>
        <time>2012-06-15T11:21:09Z</time>
      </trkpt>
      <trkpt lat="43.413266" lon="-5.966387">
        <ele>205.0</ele>
        <time>2012-06-15T11:21:13Z</time>
      </trkpt>
      <trkpt lat="43.413198" lon="-5.966577">
        <ele>205.0</ele>
        <time>2012-06-15T11:21:17Z</time>
      </trkpt>
      <trkpt lat="43.413178" lon="-5.966675">
        <ele>205.0</ele>
        <time>2012-06-15T11:21:19Z</time>
      </trkpt>
      <trkpt lat="43.413251" lon="-5.96695">
        <ele>206.0</ele>
        <time>2012-06-15T11:21:25Z</time>
      </trkpt>
      <trkpt lat="43.413433" lon="-5.967258">
        <ele>206.0</ele>
        <time>2012-06-15T11:21:33Z</time>
      </trkpt>
      <trkpt lat="43.413627" lon="-5.967535">
        <ele>207.0</ele>
        <time>2012-06-15T11:21:41Z</time>
      </trkpt>
      <trkpt lat="43.41382" lon="-5.967809">
        <ele>208.0</ele>
        <time>2012-06-15T11:21:49Z</time>
      </trkpt>
      <trkpt lat="43.413867" lon="-5.967872">
        <ele>208.0</ele>
        <time>2012-06-15T11:21:51Z</time>
      </trkpt>
      <trkpt lat="43.414063" lon="-5.968074">
        <ele>209.0</ele>
        <time>2012-06-15T11:21:59Z</time>
      </trkpt>
      <trkpt lat="43.414211" lon="-5.968216">
        <ele>209.0</ele>
        <time>2012-06-15T11:22:05Z</time>
      </trkpt>
      <trkpt lat="43.414273" lon="-5.968305">
        <ele>210.0</ele>
        <time>2012-06-15T11:22:08Z</time>
      </trkpt>
      <trkpt lat="43.414327" lon="-5.968405">
        <ele>210.0</ele>
        <time>2012-06-15T11:22:11Z</time>
      </trkpt>
      <trkpt lat="43.414416" lon="-5.968612">
        <ele>211.0</ele>
        <time>2012-06-15T11:22:17Z</time>
      </trkpt>
      <trkpt lat="43.414454" lon="-5.968718">
        <ele>211.0</ele>
        <time>2012-06-15T11:22:20Z</time>
      </trkpt>
      <trkpt lat="43.414541" lon="-5.969031">
        <ele>212.0</ele>
        <time>2012-06-15T11:22:29Z</time>
      </trkpt>
      <trkpt lat="43.414543" lon="-5.969119">
        <ele>213.0</ele>
        <time>2012-06-15T11:22:32Z</time>
      </trkpt>
      <trkpt lat="43.414544" lon="-5.969229">
        <ele>214.0</ele>
        <time>2012-06-15T11:22:36Z</time>
      </trkpt>
      <trkpt lat="43.41456" lon="-5.969329">
        <ele>214.0</ele>
        <time>2012-06-15T11:22:39Z</time>
      </trkpt>
      <trkpt lat="43.414576" lon="-5.969544">
        <ele>215.0</ele>
        <time>2012-06-15T11:22:44Z</time>
      </trkpt>
      <trkpt lat="43.414587" lon="-5.969667">
        <ele>215.0</ele>
        <time>2012-06-15T11:22:47Z</time>
      </trkpt>
      <trkpt lat="43.414603" lon="-5.969912">
        <ele>216.0</ele>
        <time>2012-06-15T11:22:53Z</time>
      </trkpt>
      <trkpt lat="43.414631" lon="-5.970022">
        <ele>217.0</ele>
        <time>2012-06-15T11:22:56Z</time>
      </trkpt>
      <trkpt lat="43.41466" lon="-5.970124">
        <ele>217.0</ele>
        <time>2012-06-15T11:22:59Z</time>
      </trkpt>
      <trkpt lat="43.41472" lon="-5.970326">
        <ele>218.0</ele>
        <time>2012-06-15T11:23:05Z</time>
      </trkpt>
      <trkpt lat="43.41475" lon="-5.970434">
        <ele>218.0</ele>
        <time>2012-06-15T11:23:08Z</time>
      </trkpt>
      <trkpt lat="43.41478" lon="-5.970645">
        <ele>219.0</ele>
        <time>2012-06-15T11:23:13Z</time>
      </trkpt>
      <trkpt lat="43.414788" lon="-5.970838">
        <ele>220.0</ele>
        <time>2012-06-15T11:23:17Z</time>
      </trkpt>
      <trkpt lat="43.414792" lon="-5.971029">
        <ele>220.0</ele>
        <time>2012-06-15T11:23:21Z</time>
      </trkpt>
      <trkpt lat="43.414798" lon="-5.971214">
        <ele>221.0</ele>
        <time>2012-06-15T11:23:25Z</time>
      </trkpt>
      <trkpt lat="43.414811" lon="-5.971394">
        <ele>222.0</ele>
        <time>2012-06-15T11:23:29Z</time>
      </trkpt>
      <trkpt lat="43.41494" lon="-5.971876">
        <ele>224.0</ele>
        <time>2012-06-15T11:23:41Z</time>
      </trkpt>
      <trkpt lat="43.414984" lon="-5.971989">
        <ele>225.0</ele>
        <time>2012-06-15T11:23:44Z</time>
      </trkpt>
      <trkpt lat="43.415029" lon="-5.972101">
        <ele>225.0</ele>
        <time>2012-06-15T11:23:47Z</time>
      </trkpt>
      <trkpt lat="43.41511" lon="-5.972334">
        <ele>226.0</ele>
        <time>2012-06-15T11:23:53Z</time>
      </trkpt>
      <trkpt lat="43.415144" lon="-5.972452">
        <ele>227.0</ele>
        <time>2012-06-15T11:23:56Z</time>
      </trkpt>
      <trkpt lat="43.415168" lon="-5.972576">
        <ele>227.0</ele>
        <time>2012-06-15T11:23:59Z</time>
      </trkpt>
      <trkpt lat="43.415168" lon="-5.972703">
        <ele>227.0</ele>
        <time>2012-06-15T11:24:02Z</time>
      </trkpt>
      <trkpt lat="43.4151" lon="-5.972957">
        <ele>228.0</ele>
        <time>2012-06-15T11:24:08Z</time>
      </trkpt>
      <trkpt lat="43.415055" lon="-5.973127">
        <ele>229.0</ele>
        <time>2012-06-15T11:24:12Z</time>
      </trkpt>
      <trkpt lat="43.415007" lon="-5.973482">
        <ele>230.0</ele>
        <time>2012-06-15T11:24:20Z</time>
      </trkpt>
      <trkpt lat="43.414989" lon="-5.973663">
        <ele>230.0</ele>
        <time>2012-06-15T11:24:24Z</time>
      </trkpt>
      <trkpt lat="43.414954" lon="-5.973849">
        <ele>230.0</ele>
        <time>2012-06-15T11:24:28Z</time>
      </trkpt>
      <trkpt lat="43.414919" lon="-5.974219">
        <ele>231.0</ele>
        <time>2012-06-15T11:24:36Z</time>
      </trkpt>
      <trkpt lat="43.414898" lon="-5.974415">
        <ele>232.0</ele>
        <time>2012-06-15T11:24:40Z</time>
      </trkpt>
      <trkpt lat="43.414883" lon="-5.974616">
        <ele>232.0</ele>
        <time>2012-06-15T11:24:44Z</time>
      </trkpt>
      <trkpt lat="43.414867" lon="-5.974833">
        <ele>233.0</ele>
        <time>2012-06-15T11:24:48Z</time>
      </trkpt>
      <trkpt lat="43.414858" lon="-5.975075">
        <ele>233.0</ele>
        <time>2012-06-15T11:24:52Z</time>
      </trkpt>
      <trkpt lat="43.414841" lon="-5.975316">
        <ele>236.0</ele>
        <time>2012-06-15T11:24:56Z</time>
      </trkpt>
      <trkpt lat="43.41483" lon="-5.975544">
        <ele>240.0</ele>
        <time>2012-06-15T11:25:00Z</time>
      </trkpt>
      <trkpt lat="43.41485" lon="-5.975767">
        <ele>242.0</ele>
        <time>2012-06-15T11:25:04Z</time>
      </trkpt>
      <trkpt lat="43.414917" lon="-5.975975">
        <ele>244.0</ele>
        <time>2012-06-15T11:25:08Z</time>
      </trkpt>
      <trkpt lat="43.41499" lon="-5.976169">
        <ele>245.0</ele>
        <time>2012-06-15T11:25:12Z</time>
      </trkpt>
      <trkpt lat="43.415083" lon="-5.976337">
        <ele>247.0</ele>
        <time>2012-06-15T11:25:16Z</time>
      </trkpt>
      <trkpt lat="43.415134" lon="-5.97642">
        <ele>248.0</ele>
        <time>2012-06-15T11:25:18Z</time>
      </trkpt>
      <trkpt lat="43.415266" lon="-5.976677">
        <ele>250.0</ele>
        <time>2012-06-15T11:25:24Z</time>
      </trkpt>
      <trkpt lat="43.415345" lon="-5.976852">
        <ele>252.0</ele>
        <time>2012-06-15T11:25:28Z</time>
      </trkpt>
      <trkpt lat="43.415421" lon="-5.977038">
        <ele>253.0</ele>
        <time>2012-06-15T11:25:32Z</time>
      </trkpt>
      <trkpt lat="43.415493" lon="-5.977249">
        <ele>254.0</ele>
        <time>2012-06-15T11:25:36Z</time>
      </trkpt>
      <trkpt lat="43.415553" lon="-5.977628">
        <ele>255.0</ele>
        <time>2012-06-15T11:25:41Z</time>
      </trkpt>
      <trkpt lat="43.415583" lon="-5.977992">
        <ele>255.0</ele>
        <time>2012-06-15T11:25:45Z</time>
      </trkpt>
      <trkpt lat="43.415413" lon="-5.978381">
        <ele>256.0</ele>
        <time>2012-06-15T11:25:49Z</time>
      </trkpt>
      <trkpt lat="43.415264" lon="-5.978829">
        <ele>256.0</ele>
        <time>2012-06-15T11:25:53Z</time>
      </trkpt>
      <trkpt lat="43.415231" lon="-5.979359">
        <ele>256.0</ele>
        <time>2012-06-15T11:25:57Z</time>
      </trkpt>
      <trkpt lat="43.415329" lon="-5.979885">
        <ele>256.0</ele>
        <time>2012-06-15T11:26:01Z</time>
      </trkpt>
      <trkpt lat="43.415204" lon="-5.98035">
        <ele>256.0</ele>
        <time>2012-06-15T11:26:05Z</time>
      </trkpt>
      <trkpt lat="43.4151" lon="-5.980685">
        <ele>256.0</ele>
        <time>2012-06-15T11:26:08Z</time>
      </trkpt>
      <trkpt lat="43.415112" lon="-5.980896">
        <ele>256.0</ele>
        <time>2012-06-15T11:26:10Z</time>
      </trkpt>
      <trkpt lat="43.415546" lon="-5.980738">
        <ele>256.0</ele>
        <time>2012-06-15T11:26:16Z</time>
      </trkpt>
      <trkpt lat="43.415874" lon="-5.980809">
        <ele>256.0</ele>
        <time>2012-06-15T11:26:20Z</time>
      </trkpt>
      <trkpt lat="43.415917" lon="-5.981221">
        <ele>255.0</ele>
        <time>2012-06-15T11:26:24Z</time>
      </trkpt>
      <trkpt lat="43.415712" lon="-5.981587">
        <ele>254.0</ele>
        <time>2012-06-15T11:26:28Z</time>
      </trkpt>
      <trkpt lat="43.415729" lon="-5.982054">
        <ele>253.0</ele>
        <time>2012-06-15T11:26:32Z</time>
      </trkpt>
      <trkpt lat="43.415868" lon="-5.982497">
        <ele>251.0</ele>
        <time>2012-06-15T11:26:36Z</time>
      </trkpt>
      <trkpt lat="43.416099" lon="-5.982939">
        <ele>248.0</ele>
        <time>2012-06-15T11:26:40Z</time>
      </trkpt>
      <trkpt lat="43.416208" lon="-5.983463">
        <ele>246.0</ele>
        <time>2012-06-15T11:26:44Z</time>
      </trkpt>
      <trkpt lat="43.416293" lon="-5.984">
        <ele>242.0</ele>
        <time>2012-06-15T11:26:48Z</time>
      </trkpt>
      <trkpt lat="43.416352" lon="-5.984559">
        <ele>238.0</ele>
        <time>2012-06-15T11:26:52Z</time>
      </trkpt>
      <trkpt lat="43.416383" lon="-5.985146">
        <ele>234.0</ele>
        <time>2012-06-15T11:26:56Z</time>
      </trkpt>
      <trkpt lat="43.416382" lon="-5.985719">
        <ele>233.0</ele>
        <time>2012-06-15T11:27:00Z</time>
      </trkpt>
      <trkpt lat="43.416402" lon="-5.986254">
        <ele>231.0</ele>
        <time>2012-06-15T11:27:04Z</time>
      </trkpt>
      <trkpt lat="43.416513" lon="-5.986843">
        <ele>230.0</ele>
        <time>2012-06-15T11:27:09Z</time>
      </trkpt>
      <trkpt lat="43.416588" lon="-5.98719">
        <ele>230.0</ele>
        <time>2012-06-15T11:27:12Z</time>
      </trkpt>
      <trkpt lat="43.416678" lon="-5.987671">
        <ele>230.0</ele>
        <time>2012-06-15T11:27:16Z</time>
      </trkpt>
      <trkpt lat="43.416779" lon="-5.988107">
        <ele>228.0</ele>
        <time>2012-06-15T11:27:20Z</time>
      </trkpt>
      <trkpt lat="43.416782" lon="-5.9886">
        <ele>224.0</ele>
        <time>2012-06-15T11:27:25Z</time>
      </trkpt>
      <trkpt lat="43.416753" lon="-5.988997">
        <ele>220.0</ele>
        <time>2012-06-15T11:27:29Z</time>
      </trkpt>
      <trkpt lat="43.416748" lon="-5.989313">
        <ele>218.0</ele>
        <time>2012-06-15T11:27:32Z</time>
      </trkpt>
      <trkpt lat="43.41678" lon="-5.989735">
        <ele>216.0</ele>
        <time>2012-06-15T11:27:36Z</time>
      </trkpt>
      <trkpt lat="43.41696" lon="-5.99019">
        <ele>215.0</ele>
        <time>2012-06-15T11:27:41Z</time>
      </trkpt>
      <trkpt lat="43.417252" lon="-5.990196">
        <ele>214.0</ele>
        <time>2012-06-15T11:27:45Z</time>
      </trkpt>
      <trkpt lat="43.417514" lon="-5.990076">
        <ele>214.0</ele>
        <time>2012-06-15T11:27:49Z</time>
      </trkpt>
      <trkpt lat="43.417812" lon="-5.989968">
        <ele>214.0</ele>
        <time>2012-06-15T11:27:53Z</time>
      </trkpt>
      <trkpt lat="43.418142" lon="-5.989869">
        <ele>214.0</ele>
        <time>2012-06-15T11:27:57Z</time>
      </trkpt>
      <trkpt lat="43.418429" lon="-5.989594">
        <ele>213.0</ele>
        <time>2012-06-15T11:28:01Z</time>
      </trkpt>
      <trkpt lat="43.418682" lon="-5.989248">
        <ele>213.0</ele>
        <time>2012-06-15T11:28:05Z</time>
      </trkpt>
      <trkpt lat="43.418895" lon="-5.988785">
        <ele>212.0</ele>
        <time>2012-06-15T11:28:09Z</time>
      </trkpt>
      <trkpt lat="43.419096" lon="-5.988301">
        <ele>212.0</ele>
        <time>2012-06-15T11:28:13Z</time>
      </trkpt>
      <trkpt lat="43.419328" lon="-5.987824">
        <ele>212.0</ele>
        <time>2012-06-15T11:28:17Z</time>
      </trkpt>
      <trkpt lat="43.419573" lon="-5.987585">
        <ele>213.0</ele>
        <time>2012-06-15T11:28:20Z</time>
      </trkpt>
      <trkpt lat="43.420036" lon="-5.987425">
        <ele>213.0</ele>
        <time>2012-06-15T11:28:25Z</time>
      </trkpt>
      <trkpt lat="43.420355" lon="-5.987473">
        <ele>213.0</ele>
        <time>2012-06-15T11:28:29Z</time>
      </trkpt>
      <trkpt lat="43.420803" lon="-5.987545">
        <ele>214.0</ele>
        <time>2012-06-15T11:28:37Z</time>
      </trkpt>
      <trkpt lat="43.42096" lon="-5.987615">
        <ele>214.0</ele>
        <time>2012-06-15T11:28:41Z</time>
      </trkpt>
      <trkpt lat="43.421002" lon="-5.987847">
        <ele>213.0</ele>
        <time>2012-06-15T11:28:45Z</time>
      </trkpt>
      <trkpt lat="43.420899" lon="-5.98807">
        <ele>213.0</ele>
        <time>2012-06-15T11:28:49Z</time>
      </trkpt>
      <trkpt lat="43.420784" lon="-5.988281">
        <ele>212.0</ele>
        <time>2012-06-15T11:28:53Z</time>
      </trkpt>
      <trkpt lat="43.420659" lon="-5.988478">
        <ele>210.0</ele>
        <time>2012-06-15T11:28:57Z</time>
      </trkpt>
      <trkpt lat="43.420537" lon="-5.988656">
        <ele>207.0</ele>
        <time>2012-06-15T11:29:01Z</time>
      </trkpt>
      <trkpt lat="43.420418" lon="-5.988845">
        <ele>206.0</ele>
        <time>2012-06-15T11:29:05Z</time>
      </trkpt>
      <trkpt lat="43.420273" lon="-5.989048">
        <ele>205.0</ele>
        <time>2012-06-15T11:29:09Z</time>
      </trkpt>
      <trkpt lat="43.420077" lon="-5.989258">
        <ele>205.0</ele>
        <time>2012-06-15T11:29:13Z</time>
      </trkpt>
      <trkpt lat="43.419859" lon="-5.989448">
        <ele>205.0</ele>
        <time>2012-06-15T11:29:17Z</time>
      </trkpt>
      <trkpt lat="43.419627" lon="-5.989624">
        <ele>206.0</ele>
        <time>2012-06-15T11:29:21Z</time>
      </trkpt>
      <trkpt lat="43.419394" lon="-5.989804">
        <ele>207.0</ele>
        <time>2012-06-15T11:29:25Z</time>
      </trkpt>
      <trkpt lat="43.419211" lon="-5.989942">
        <ele>207.0</ele>
        <time>2012-06-15T11:29:29Z</time>
      </trkpt>
      <trkpt lat="43.418909" lon="-5.990185">
        <ele>206.0</ele>
        <time>2012-06-15T11:29:33Z</time>
      </trkpt>
      <trkpt lat="43.418664" lon="-5.990378">
        <ele>206.0</ele>
        <time>2012-06-15T11:29:37Z</time>
      </trkpt>
      <trkpt lat="43.418423" lon="-5.990602">
        <ele>206.0</ele>
        <time>2012-06-15T11:29:41Z</time>
      </trkpt>
      <trkpt lat="43.418171" lon="-5.990821">
        <ele>206.0</ele>
        <time>2012-06-15T11:29:45Z</time>
      </trkpt>
      <trkpt lat="43.417907" lon="-5.99101">
        <ele>206.0</ele>
        <time>2012-06-15T11:29:49Z</time>
      </trkpt>
      <trkpt lat="43.417628" lon="-5.991205">
        <ele>206.0</ele>
        <time>2012-06-15T11:29:53Z</time>
      </trkpt>
      <trkpt lat="43.417491" lon="-5.991316">
        <ele>206.0</ele>
        <time>2012-06-15T11:29:55Z</time>
      </trkpt>
      <trkpt lat="43.417086" lon="-5.991678">
        <ele>207.0</ele>
        <time>2012-06-15T11:30:01Z</time>
      </trkpt>
      <trkpt lat="43.416829" lon="-5.991924">
        <ele>207.0</ele>
        <time>2012-06-15T11:30:05Z</time>
      </trkpt>
      <trkpt lat="43.416616" lon="-5.992202">
        <ele>207.0</ele>
        <time>2012-06-15T11:30:09Z</time>
      </trkpt>
      <trkpt lat="43.416493" lon="-5.992584">
        <ele>207.0</ele>
        <time>2012-06-15T11:30:13Z</time>
      </trkpt>
      <trkpt lat="43.416467" lon="-5.993032">
        <ele>205.0</ele>
        <time>2012-06-15T11:30:17Z</time>
      </trkpt>
      <trkpt lat="43.416446" lon="-5.993462">
        <ele>204.0</ele>
        <time>2012-06-15T11:30:21Z</time>
      </trkpt>
      <trkpt lat="43.41642" lon="-5.993882">
        <ele>202.0</ele>
        <time>2012-06-15T11:30:25Z</time>
      </trkpt>
      <trkpt lat="43.416317" lon="-5.994298">
        <ele>201.0</ele>
        <time>2012-06-15T11:30:29Z</time>
      </trkpt>
      <trkpt lat="43.416091" lon="-5.994566">
        <ele>201.0</ele>
        <time>2012-06-15T11:30:33Z</time>
      </trkpt>
      <trkpt lat="43.415903" lon="-5.994735">
        <ele>200.0</ele>
        <time>2012-06-15T11:30:36Z</time>
      </trkpt>
      <trkpt lat="43.415676" lon="-5.995149">
        <ele>200.0</ele>
        <time>2012-06-15T11:30:41Z</time>
      </trkpt>
      <trkpt lat="43.415615" lon="-5.995581">
        <ele>200.0</ele>
        <time>2012-06-15T11:30:45Z</time>
      </trkpt>
      <trkpt lat="43.415562" lon="-5.996006">
        <ele>200.0</ele>
        <time>2012-06-15T11:30:49Z</time>
      </trkpt>
      <trkpt lat="43.415525" lon="-5.996421">
        <ele>199.0</ele>
        <time>2012-06-15T11:30:53Z</time>
      </trkpt>
      <trkpt lat="43.415488" lon="-5.996828">
        <ele>199.0</ele>
        <time>2012-06-15T11:30:57Z</time>
      </trkpt>
      <trkpt lat="43.415475" lon="-5.997135">
        <ele>199.0</ele>
        <time>2012-06-15T11:31:00Z</time>
      </trkpt>
      <trkpt lat="43.415341" lon="-5.997608">
        <ele>199.0</ele>
        <time>2012-06-15T11:31:05Z</time>
      </trkpt>
      <trkpt lat="43.415092" lon="-5.997869">
        <ele>198.0</ele>
        <time>2012-06-15T11:31:09Z</time>
      </trkpt>
      <trkpt lat="43.414925" lon="-5.99793">
        <ele>198.0</ele>
        <time>2012-06-15T11:31:11Z</time>
      </trkpt>
      <trkpt lat="43.414422" lon="-5.99802">
        <ele>198.0</ele>
        <time>2012-06-15T11:31:17Z</time>
      </trkpt>
      <trkpt lat="43.414194" lon="-5.998272">
        <ele>198.0</ele>
        <time>2012-06-15T11:31:21Z</time>
      </trkpt>
      <trkpt lat="43.413976" lon="-5.998524">
        <ele>198.0</ele>
        <time>2012-06-15T11:31:25Z</time>
      </trkpt>
      <trkpt lat="43.413701" lon="-5.998667">
        <ele>198.0</ele>
        <time>2012-06-15T11:31:29Z</time>
      </trkpt>
      <trkpt lat="43.413421" lon="-5.998832">
        <ele>198.0</ele>
        <time>2012-06-15T11:31:33Z</time>
      </trkpt>
      <trkpt lat="43.413154" lon="-5.999055">
        <ele>198.0</ele>
        <time>2012-06-15T11:31:37Z</time>
      </trkpt>
      <trkpt lat="43.412928" lon="-5.999367">
        <ele>198.0</ele>
        <time>2012-06-15T11:31:41Z</time>
      </trkpt>
      <trkpt lat="43.412757" lon="-5.999755">
        <ele>198.0</ele>
        <time>2012-06-15T11:31:45Z</time>
      </trkpt>
      <trkpt lat="43.412657" lon="-6.000191">
        <ele>198.0</ele>
        <time>2012-06-15T11:31:49Z</time>
      </trkpt>
      <trkpt lat="43.41259" lon="-6.000642">
        <ele>197.0</ele>
        <time>2012-06-15T11:31:53Z</time>
      </trkpt>
      <trkpt lat="43.412569" lon="-6.001106">
        <ele>197.0</ele>
        <time>2012-06-15T11:31:57Z</time>
      </trkpt>
      <trkpt lat="43.41257" lon="-6.001558">
        <ele>196.0</ele>
        <time>2012-06-15T11:32:01Z</time>
      </trkpt>
      <trkpt lat="43.412584" lon="-6.002001">
        <ele>195.0</ele>
        <time>2012-06-15T11:32:05Z</time>
      </trkpt>
      <trkpt lat="43.412576" lon="-6.002447">
        <ele>194.0</ele>
        <time>2012-06-15T11:32:09Z</time>
      </trkpt>
      <trkpt lat="43.412503" lon="-6.002893">
        <ele>192.0</ele>
        <time>2012-06-15T11:32:13Z</time>
      </trkpt>
      <trkpt lat="43.412363" lon="-6.00333">
        <ele>191.0</ele>
        <time>2012-06-15T11:32:17Z</time>
      </trkpt>
      <trkpt lat="43.412194" lon="-6.003723">
        <ele>190.0</ele>
        <time>2012-06-15T11:32:21Z</time>
      </trkpt>
      <trkpt lat="43.411985" lon="-6.00406">
        <ele>189.0</ele>
        <time>2012-06-15T11:32:25Z</time>
      </trkpt>
      <trkpt lat="43.41176" lon="-6.004376">
        <ele>188.0</ele>
        <time>2012-06-15T11:32:29Z</time>
      </trkpt>
      <trkpt lat="43.411535" lon="-6.004692">
        <ele>187.0</ele>
        <time>2012-06-15T11:32:33Z</time>
      </trkpt>
      <trkpt lat="43.411308" lon="-6.004998">
        <ele>187.0</ele>
        <time>2012-06-15T11:32:37Z</time>
      </trkpt>
      <trkpt lat="43.411084" lon="-6.005305">
        <ele>186.0</ele>
        <time>2012-06-15T11:32:41Z</time>
      </trkpt>
      <trkpt lat="43.410854" lon="-6.005614">
        <ele>185.0</ele>
        <time>2012-06-15T11:32:45Z</time>
      </trkpt>
      <trkpt lat="43.410617" lon="-6.005911">
        <ele>185.0</ele>
        <time>2012-06-15T11:32:49Z</time>
      </trkpt>
      <trkpt lat="43.410366" lon="-6.006195">
        <ele>184.0</ele>
        <time>2012-06-15T11:32:53Z</time>
      </trkpt>
      <trkpt lat="43.41011" lon="-6.006476">
        <ele>183.0</ele>
        <time>2012-06-15T11:32:57Z</time>
      </trkpt>
      <trkpt lat="43.409981" lon="-6.006615">
        <ele>183.0</ele>
        <time>2012-06-15T11:32:59Z</time>
      </trkpt>
      <trkpt lat="43.409592" lon="-6.007025">
        <ele>181.0</ele>
        <time>2012-06-15T11:33:05Z</time>
      </trkpt>
      <trkpt lat="43.409336" lon="-6.007293">
        <ele>181.0</ele>
        <time>2012-06-15T11:33:09Z</time>
      </trkpt>
      <trkpt lat="43.409076" lon="-6.007568">
        <ele>181.0</ele>
        <time>2012-06-15T11:33:13Z</time>
      </trkpt>
      <trkpt lat="43.408879" lon="-6.007776">
        <ele>181.0</ele>
        <time>2012-06-15T11:33:16Z</time>
      </trkpt>
      <trkpt lat="43.408545" lon="-6.00813">
        <ele>180.0</ele>
        <time>2012-06-15T11:33:21Z</time>
      </trkpt>
      <trkpt lat="43.408266" lon="-6.008423">
        <ele>180.0</ele>
        <time>2012-06-15T11:33:25Z</time>
      </trkpt>
      <trkpt lat="43.407958" lon="-6.008726">
        <ele>178.0</ele>
        <time>2012-06-15T11:33:29Z</time>
      </trkpt>
      <trkpt lat="43.407625" lon="-6.00906">
        <ele>177.0</ele>
        <time>2012-06-15T11:33:33Z</time>
      </trkpt>
      <trkpt lat="43.407296" lon="-6.00941">
        <ele>176.0</ele>
        <time>2012-06-15T11:33:37Z</time>
      </trkpt>
      <trkpt lat="43.40697" lon="-6.009759">
        <ele>174.0</ele>
        <time>2012-06-15T11:33:41Z</time>
      </trkpt>
      <trkpt lat="43.406643" lon="-6.0101">
        <ele>173.0</ele>
        <time>2012-06-15T11:33:45Z</time>
      </trkpt>
      <trkpt lat="43.406323" lon="-6.010441">
        <ele>173.0</ele>
        <time>2012-06-15T11:33:49Z</time>
      </trkpt>
      <trkpt lat="43.405985" lon="-6.010761">
        <ele>173.0</ele>
        <time>2012-06-15T11:33:53Z</time>
      </trkpt>
      <trkpt lat="43.40564" lon="-6.011036">
        <ele>173.0</ele>
        <time>2012-06-15T11:33:57Z</time>
      </trkpt>
      <trkpt lat="43.405275" lon="-6.011281">
        <ele>172.0</ele>
        <time>2012-06-15T11:34:01Z</time>
      </trkpt>
      <trkpt lat="43.404925" lon="-6.011533">
        <ele>171.0</ele>
        <time>2012-06-15T11:34:05Z</time>
      </trkpt>
      <trkpt lat="43.404584" lon="-6.011787">
        <ele>170.0</ele>
        <time>2012-06-15T11:34:09Z</time>
      </trkpt>
      <trkpt lat="43.404253" lon="-6.012046">
        <ele>169.0</ele>
        <time>2012-06-15T11:34:13Z</time>
      </trkpt>
      <trkpt lat="43.403959" lon="-6.012344">
        <ele>167.0</ele>
        <time>2012-06-15T11:34:17Z</time>
      </trkpt>
      <trkpt lat="43.403685" lon="-6.012672">
        <ele>164.0</ele>
        <time>2012-06-15T11:34:21Z</time>
      </trkpt>
      <trkpt lat="43.403414" lon="-6.012989">
        <ele>162.0</ele>
        <time>2012-06-15T11:34:25Z</time>
      </trkpt>
      <trkpt lat="43.403149" lon="-6.013297">
        <ele>160.0</ele>
        <time>2012-06-15T11:34:29Z</time>
      </trkpt>
      <trkpt lat="43.402891" lon="-6.013591">
        <ele>158.0</ele>
        <time>2012-06-15T11:34:33Z</time>
      </trkpt>
      <trkpt lat="43.402646" lon="-6.013879">
        <ele>157.0</ele>
        <time>2012-06-15T11:34:37Z</time>
      </trkpt>
      <trkpt lat="43.40253" lon="-6.014019">
        <ele>156.0</ele>
        <time>2012-06-15T11:34:39Z</time>
      </trkpt>
      <trkpt lat="43.402191" lon="-6.014404">
        <ele>155.0</ele>
        <time>2012-06-15T11:34:45Z</time>
      </trkpt>
      <trkpt lat="43.401977" lon="-6.014642">
        <ele>154.0</ele>
        <time>2012-06-15T11:34:49Z</time>
      </trkpt>
      <trkpt lat="43.401881" lon="-6.014756">
        <ele>154.0</ele>
        <time>2012-06-15T11:34:51Z</time>
      </trkpt>
      <trkpt lat="43.401606" lon="-6.015079">
        <ele>153.0</ele>
        <time>2012-06-15T11:34:57Z</time>
      </trkpt>
      <trkpt lat="43.401433" lon="-6.015279">
        <ele>153.0</ele>
        <time>2012-06-15T11:35:01Z</time>
      </trkpt>
      <trkpt lat="43.401086" lon="-6.015673">
        <ele>152.0</ele>
        <time>2012-06-15T11:35:09Z</time>
      </trkpt>
      <trkpt lat="43.401" lon="-6.015775">
        <ele>152.0</ele>
        <time>2012-06-15T11:35:11Z</time>
      </trkpt>
      <trkpt lat="43.400747" lon="-6.0161">
        <ele>152.0</ele>
        <time>2012-06-15T11:35:17Z</time>
      </trkpt>
      <trkpt lat="43.400667" lon="-6.016212">
        <ele>152.0</ele>
        <time>2012-06-15T11:35:19Z</time>
      </trkpt>
      <trkpt lat="43.400516" lon="-6.016434">
        <ele>152.0</ele>
        <time>2012-06-15T11:35:23Z</time>
      </trkpt>
      <trkpt lat="43.400297" lon="-6.016763">
        <ele>152.0</ele>
        <time>2012-06-15T11:35:29Z</time>
      </trkpt>
      <trkpt lat="43.400223" lon="-6.016872">
        <ele>152.0</ele>
        <time>2012-06-15T11:35:31Z</time>
      </trkpt>
      <trkpt lat="43.400077" lon="-6.017093">
        <ele>152.0</ele>
        <time>2012-06-15T11:35:35Z</time>
      </trkpt>
      <trkpt lat="43.399852" lon="-6.017416">
        <ele>153.0</ele>
        <time>2012-06-15T11:35:41Z</time>
      </trkpt>
      <trkpt lat="43.39969" lon="-6.017637">
        <ele>154.0</ele>
        <time>2012-06-15T11:35:45Z</time>
      </trkpt>
      <trkpt lat="43.399524" lon="-6.017855">
        <ele>154.0</ele>
        <time>2012-06-15T11:35:49Z</time>
      </trkpt>
      <trkpt lat="43.399364" lon="-6.01808">
        <ele>154.0</ele>
        <time>2012-06-15T11:35:53Z</time>
      </trkpt>
      <trkpt lat="43.399216" lon="-6.018315">
        <ele>154.0</ele>
        <time>2012-06-15T11:35:57Z</time>
      </trkpt>
      <trkpt lat="43.39909" lon="-6.018577">
        <ele>154.0</ele>
        <time>2012-06-15T11:36:01Z</time>
      </trkpt>
      <trkpt lat="43.399005" lon="-6.018868">
        <ele>153.0</ele>
        <time>2012-06-15T11:36:05Z</time>
      </trkpt>
      <trkpt lat="43.398969" lon="-6.019164">
        <ele>153.0</ele>
        <time>2012-06-15T11:36:09Z</time>
      </trkpt>
      <trkpt lat="43.398973" lon="-6.01946">
        <ele>153.0</ele>
        <time>2012-06-15T11:36:13Z</time>
      </trkpt>
      <trkpt lat="43.399034" lon="-6.019744">
        <ele>153.0</ele>
        <time>2012-06-15T11:36:17Z</time>
      </trkpt>
      <trkpt lat="43.399129" lon="-6.020033">
        <ele>153.0</ele>
        <time>2012-06-15T11:36:21Z</time>
      </trkpt>
      <trkpt lat="43.399235" lon="-6.020385">
        <ele>153.0</ele>
        <time>2012-06-15T11:36:25Z</time>
      </trkpt>
      <trkpt lat="43.399244" lon="-6.02082">
        <ele>152.0</ele>
        <time>2012-06-15T11:36:29Z</time>
      </trkpt>
      <trkpt lat="43.399184" lon="-6.021042">
        <ele>152.0</ele>
        <time>2012-06-15T11:36:31Z</time>
      </trkpt>
      <trkpt lat="43.398844" lon="-6.021647">
        <ele>152.0</ele>
        <time>2012-06-15T11:36:37Z</time>
      </trkpt>
      <trkpt lat="43.39857" lon="-6.022056">
        <ele>152.0</ele>
        <time>2012-06-15T11:36:41Z</time>
      </trkpt>
      <trkpt lat="43.398285" lon="-6.02248">
        <ele>152.0</ele>
        <time>2012-06-15T11:36:45Z</time>
      </trkpt>
      <trkpt lat="43.398029" lon="-6.022945">
        <ele>152.0</ele>
        <time>2012-06-15T11:36:49Z</time>
      </trkpt>
      <trkpt lat="43.398093" lon="-6.023517">
        <ele>153.0</ele>
        <time>2012-06-15T11:36:53Z</time>
      </trkpt>
      <trkpt lat="43.398321" lon="-6.024002">
        <ele>151.0</ele>
        <time>2012-06-15T11:36:57Z</time>
      </trkpt>
      <trkpt lat="43.398584" lon="-6.024357">
        <ele>150.0</ele>
        <time>2012-06-15T11:37:01Z</time>
      </trkpt>
      <trkpt lat="43.399014" lon="-6.024507">
        <ele>150.0</ele>
        <time>2012-06-15T11:37:05Z</time>
      </trkpt>
      <trkpt lat="43.399407" lon="-6.024676">
        <ele>149.0</ele>
        <time>2012-06-15T11:37:09Z</time>
      </trkpt>
      <trkpt lat="43.399603" lon="-6.024761">
        <ele>149.0</ele>
        <time>2012-06-15T11:37:11Z</time>
      </trkpt>
      <trkpt lat="43.40009" lon="-6.024982">
        <ele>148.0</ele>
        <time>2012-06-15T11:37:16Z</time>
      </trkpt>
      <trkpt lat="43.400548" lon="-6.025191">
        <ele>148.0</ele>
        <time>2012-06-15T11:37:21Z</time>
      </trkpt>
      <trkpt lat="43.40089" lon="-6.025343">
        <ele>147.0</ele>
        <time>2012-06-15T11:37:25Z</time>
      </trkpt>
      <trkpt lat="43.401218" lon="-6.025489">
        <ele>147.0</ele>
        <time>2012-06-15T11:37:29Z</time>
      </trkpt>
      <trkpt lat="43.401536" lon="-6.025634">
        <ele>147.0</ele>
        <time>2012-06-15T11:37:33Z</time>
      </trkpt>
      <trkpt lat="43.40184" lon="-6.025777">
        <ele>148.0</ele>
        <time>2012-06-15T11:37:37Z</time>
      </trkpt>
      <trkpt lat="43.40213" lon="-6.025972">
        <ele>148.0</ele>
        <time>2012-06-15T11:37:41Z</time>
      </trkpt>
      <trkpt lat="43.402394" lon="-6.026213">
        <ele>148.0</ele>
        <time>2012-06-15T11:37:45Z</time>
      </trkpt>
      <trkpt lat="43.402632" lon="-6.026499">
        <ele>148.0</ele>
        <time>2012-06-15T11:37:49Z</time>
      </trkpt>
      <trkpt lat="43.402828" lon="-6.026843">
        <ele>148.0</ele>
        <time>2012-06-15T11:37:53Z</time>
      </trkpt>
      <trkpt lat="43.402983" lon="-6.027221">
        <ele>148.0</ele>
        <time>2012-06-15T11:37:57Z</time>
      </trkpt>
      <trkpt lat="43.403095" lon="-6.027609">
        <ele>148.0</ele>
        <time>2012-06-15T11:38:01Z</time>
      </trkpt>
      <trkpt lat="43.403161" lon="-6.027986">
        <ele>146.0</ele>
        <time>2012-06-15T11:38:05Z</time>
      </trkpt>
      <trkpt lat="43.403226" lon="-6.028372">
        <ele>144.0</ele>
        <time>2012-06-15T11:38:09Z</time>
      </trkpt>
      <trkpt lat="43.403328" lon="-6.028749">
        <ele>142.0</ele>
        <time>2012-06-15T11:38:13Z</time>
      </trkpt>
      <trkpt lat="43.403397" lon="-6.028927">
        <ele>142.0</ele>
        <time>2012-06-15T11:38:15Z</time>
      </trkpt>
      <trkpt lat="43.40365" lon="-6.029423">
        <ele>142.0</ele>
        <time>2012-06-15T11:38:21Z</time>
      </trkpt>
      <trkpt lat="43.403789" lon="-6.02975">
        <ele>143.0</ele>
        <time>2012-06-15T11:38:25Z</time>
      </trkpt>
      <trkpt lat="43.403925" lon="-6.030079">
        <ele>143.0</ele>
        <time>2012-06-15T11:38:29Z</time>
      </trkpt>
      <trkpt lat="43.404041" lon="-6.030424">
        <ele>143.0</ele>
        <time>2012-06-15T11:38:33Z</time>
      </trkpt>
      <trkpt lat="43.404105" lon="-6.030789">
        <ele>143.0</ele>
        <time>2012-06-15T11:38:37Z</time>
      </trkpt>
      <trkpt lat="43.404128" lon="-6.031139">
        <ele>143.0</ele>
        <time>2012-06-15T11:38:41Z</time>
      </trkpt>
      <trkpt lat="43.40402" lon="-6.031461">
        <ele>142.0</ele>
        <time>2012-06-15T11:38:45Z</time>
      </trkpt>
      <trkpt lat="43.403897" lon="-6.031778">
        <ele>141.0</ele>
        <time>2012-06-15T11:38:49Z</time>
      </trkpt>
      <trkpt lat="43.403793" lon="-6.032129">
        <ele>139.0</ele>
        <time>2012-06-15T11:38:53Z</time>
      </trkpt>
      <trkpt lat="43.403742" lon="-6.032521">
        <ele>138.0</ele>
        <time>2012-06-15T11:38:57Z</time>
      </trkpt>
      <trkpt lat="43.403753" lon="-6.03293">
        <ele>137.0</ele>
        <time>2012-06-15T11:39:01Z</time>
      </trkpt>
      <trkpt lat="43.403834" lon="-6.033329">
        <ele>136.0</ele>
        <time>2012-06-15T11:39:05Z</time>
      </trkpt>
      <trkpt lat="43.403927" lon="-6.03373">
        <ele>136.0</ele>
        <time>2012-06-15T11:39:09Z</time>
      </trkpt>
      <trkpt lat="43.403971" lon="-6.03415">
        <ele>135.0</ele>
        <time>2012-06-15T11:39:13Z</time>
      </trkpt>
      <trkpt lat="43.403945" lon="-6.034575">
        <ele>134.0</ele>
        <time>2012-06-15T11:39:17Z</time>
      </trkpt>
      <trkpt lat="43.403918" lon="-6.034991">
        <ele>133.0</ele>
        <time>2012-06-15T11:39:21Z</time>
      </trkpt>
      <trkpt lat="43.403915" lon="-6.0353">
        <ele>132.0</ele>
        <time>2012-06-15T11:39:24Z</time>
      </trkpt>
      <trkpt lat="43.403932" lon="-6.035824">
        <ele>130.0</ele>
        <time>2012-06-15T11:39:29Z</time>
      </trkpt>
      <trkpt lat="43.403936" lon="-6.03626">
        <ele>128.0</ele>
        <time>2012-06-15T11:39:33Z</time>
      </trkpt>
      <trkpt lat="43.403969" lon="-6.03668">
        <ele>127.0</ele>
        <time>2012-06-15T11:39:37Z</time>
      </trkpt>
      <trkpt lat="43.40412" lon="-6.037053">
        <ele>127.0</ele>
        <time>2012-06-15T11:39:41Z</time>
      </trkpt>
      <trkpt lat="43.404236" lon="-6.037434">
        <ele>126.0</ele>
        <time>2012-06-15T11:39:45Z</time>
      </trkpt>
      <trkpt lat="43.404199" lon="-6.037847">
        <ele>125.0</ele>
        <time>2012-06-15T11:39:49Z</time>
      </trkpt>
      <trkpt lat="43.404141" lon="-6.038233">
        <ele>125.0</ele>
        <time>2012-06-15T11:39:53Z</time>
      </trkpt>
      <trkpt lat="43.404111" lon="-6.03862">
        <ele>125.0</ele>
        <time>2012-06-15T11:39:57Z</time>
      </trkpt>
      <trkpt lat="43.404109" lon="-6.039006">
        <ele>124.0</ele>
        <time>2012-06-15T11:40:01Z</time>
      </trkpt>
      <trkpt lat="43.404105" lon="-6.039389">
        <ele>124.0</ele>
        <time>2012-06-15T11:40:05Z</time>
      </trkpt>
      <trkpt lat="43.40409" lon="-6.039766">
        <ele>124.0</ele>
        <time>2012-06-15T11:40:09Z</time>
      </trkpt>
      <trkpt lat="43.404071" lon="-6.040131">
        <ele>124.0</ele>
        <time>2012-06-15T11:40:13Z</time>
      </trkpt>
      <trkpt lat="43.404066" lon="-6.0405">
        <ele>124.0</ele>
        <time>2012-06-15T11:40:17Z</time>
      </trkpt>
      <trkpt lat="43.40406" lon="-6.04068">
        <ele>124.0</ele>
        <time>2012-06-15T11:40:19Z</time>
      </trkpt>
      <trkpt lat="43.403992" lon="-6.041098">
        <ele>124.0</ele>
        <time>2012-06-15T11:40:25Z</time>
      </trkpt>
      <trkpt lat="43.403859" lon="-6.041114">
        <ele>124.0</ele>
        <time>2012-06-15T11:40:27Z</time>
      </trkpt>
      <trkpt lat="43.40352" lon="-6.041013">
        <ele>125.0</ele>
        <time>2012-06-15T11:40:33Z</time>
      </trkpt>
      <trkpt lat="43.403449" lon="-6.040995">
        <ele>125.0</ele>
        <time>2012-06-15T11:40:35Z</time>
      </trkpt>
      <trkpt lat="43.403282" lon="-6.041002">
        <ele>125.0</ele>
        <time>2012-06-15T11:40:41Z</time>
      </trkpt>
      <trkpt lat="43.40321" lon="-6.04102">
        <ele>125.0</ele>
        <time>2012-06-15T11:40:43Z</time>
      </trkpt>
      <trkpt lat="43.403153" lon="-6.041326">
        <ele>126.0</ele>
        <time>2012-06-15T11:40:49Z</time>
      </trkpt>
      <trkpt lat="43.403158" lon="-6.041483">
        <ele>127.0</ele>
        <time>2012-06-15T11:40:51Z</time>
      </trkpt>
      <trkpt lat="43.403191" lon="-6.041957">
        <ele>128.0</ele>
        <time>2012-06-15T11:40:56Z</time>
      </trkpt>
      <trkpt lat="43.403234" lon="-6.042509">
        <ele>128.0</ele>
        <time>2012-06-15T11:41:01Z</time>
      </trkpt>
      <trkpt lat="43.403212" lon="-6.042972">
        <ele>127.0</ele>
        <time>2012-06-15T11:41:05Z</time>
      </trkpt>
      <trkpt lat="43.40318" lon="-6.043318">
        <ele>127.0</ele>
        <time>2012-06-15T11:41:08Z</time>
      </trkpt>
      <trkpt lat="43.403056" lon="-6.043874">
        <ele>127.0</ele>
        <time>2012-06-15T11:41:13Z</time>
      </trkpt>
      <trkpt lat="43.402881" lon="-6.044263">
        <ele>127.0</ele>
        <time>2012-06-15T11:41:17Z</time>
      </trkpt>
      <trkpt lat="43.402659" lon="-6.044519">
        <ele>128.0</ele>
        <time>2012-06-15T11:41:21Z</time>
      </trkpt>
      <trkpt lat="43.402538" lon="-6.04472">
        <ele>128.0</ele>
        <time>2012-06-15T11:41:24Z</time>
      </trkpt>
      <trkpt lat="43.402437" lon="-6.045034">
        <ele>127.0</ele>
        <time>2012-06-15T11:41:28Z</time>
      </trkpt>
      <trkpt lat="43.402332" lon="-6.045341">
        <ele>127.0</ele>
        <time>2012-06-15T11:41:32Z</time>
      </trkpt>
      <trkpt lat="43.402131" lon="-6.04568">
        <ele>127.0</ele>
        <time>2012-06-15T11:41:37Z</time>
      </trkpt>
      <trkpt lat="43.401916" lon="-6.045912">
        <ele>126.0</ele>
        <time>2012-06-15T11:41:41Z</time>
      </trkpt>
      <trkpt lat="43.401685" lon="-6.046127">
        <ele>125.0</ele>
        <time>2012-06-15T11:41:45Z</time>
      </trkpt>
      <trkpt lat="43.401459" lon="-6.046345">
        <ele>125.0</ele>
        <time>2012-06-15T11:41:49Z</time>
      </trkpt>
      <trkpt lat="43.401231" lon="-6.046563">
        <ele>124.0</ele>
        <time>2012-06-15T11:41:53Z</time>
      </trkpt>
      <trkpt lat="43.401116" lon="-6.046671">
        <ele>124.0</ele>
        <time>2012-06-15T11:41:55Z</time>
      </trkpt>
      <trkpt lat="43.400776" lon="-6.04697">
        <ele>124.0</ele>
        <time>2012-06-15T11:42:01Z</time>
      </trkpt>
      <trkpt lat="43.400664" lon="-6.04707">
        <ele>124.0</ele>
        <time>2012-06-15T11:42:03Z</time>
      </trkpt>
      <trkpt lat="43.400333" lon="-6.047386">
        <ele>124.0</ele>
        <time>2012-06-15T11:42:09Z</time>
      </trkpt>
      <trkpt lat="43.400223" lon="-6.047496">
        <ele>124.0</ele>
        <time>2012-06-15T11:42:11Z</time>
      </trkpt>
      <trkpt lat="43.399897" lon="-6.047841">
        <ele>124.0</ele>
        <time>2012-06-15T11:42:17Z</time>
      </trkpt>
      <trkpt lat="43.399744" lon="-6.048028">
        <ele>124.0</ele>
        <time>2012-06-15T11:42:20Z</time>
      </trkpt>
      <trkpt lat="43.399514" lon="-6.048376">
        <ele>124.0</ele>
        <time>2012-06-15T11:42:25Z</time>
      </trkpt>
      <trkpt lat="43.399347" lon="-6.048672">
        <ele>125.0</ele>
        <time>2012-06-15T11:42:29Z</time>
      </trkpt>
      <trkpt lat="43.399189" lon="-6.048972">
        <ele>125.0</ele>
        <time>2012-06-15T11:42:33Z</time>
      </trkpt>
      <trkpt lat="43.399041" lon="-6.049283">
        <ele>125.0</ele>
        <time>2012-06-15T11:42:37Z</time>
      </trkpt>
      <trkpt lat="43.398896" lon="-6.049606">
        <ele>124.0</ele>
        <time>2012-06-15T11:42:41Z</time>
      </trkpt>
      <trkpt lat="43.398747" lon="-6.04992">
        <ele>124.0</ele>
        <time>2012-06-15T11:42:45Z</time>
      </trkpt>
      <trkpt lat="43.39859" lon="-6.050223">
        <ele>123.0</ele>
        <time>2012-06-15T11:42:49Z</time>
      </trkpt>
      <trkpt lat="43.398413" lon="-6.050505">
        <ele>123.0</ele>
        <time>2012-06-15T11:42:53Z</time>
      </trkpt>
      <trkpt lat="43.398333" lon="-6.05075">
        <ele>123.0</ele>
        <time>2012-06-15T11:42:56Z</time>
      </trkpt>
      <trkpt lat="43.398147" lon="-6.051102">
        <ele>123.0</ele>
        <time>2012-06-15T11:43:01Z</time>
      </trkpt>
      <trkpt lat="43.398026" lon="-6.051293">
        <ele>123.0</ele>
        <time>2012-06-15T11:43:04Z</time>
      </trkpt>
      <trkpt lat="43.397887" lon="-6.051673">
        <ele>124.0</ele>
        <time>2012-06-15T11:43:09Z</time>
      </trkpt>
      <trkpt lat="43.397751" lon="-6.051981">
        <ele>124.0</ele>
        <time>2012-06-15T11:43:13Z</time>
      </trkpt>
      <trkpt lat="43.397605" lon="-6.052283">
        <ele>125.0</ele>
        <time>2012-06-15T11:43:17Z</time>
      </trkpt>
      <trkpt lat="43.397452" lon="-6.052583">
        <ele>125.0</ele>
        <time>2012-06-15T11:43:21Z</time>
      </trkpt>
      <trkpt lat="43.397374" lon="-6.052734">
        <ele>125.0</ele>
        <time>2012-06-15T11:43:23Z</time>
      </trkpt>
      <trkpt lat="43.397147" lon="-6.053208">
        <ele>124.0</ele>
        <time>2012-06-15T11:43:29Z</time>
      </trkpt>
      <trkpt lat="43.396996" lon="-6.053534">
        <ele>124.0</ele>
        <time>2012-06-15T11:43:33Z</time>
      </trkpt>
      <trkpt lat="43.396847" lon="-6.053862">
        <ele>123.0</ele>
        <time>2012-06-15T11:43:37Z</time>
      </trkpt>
      <trkpt lat="43.396693" lon="-6.054188">
        <ele>122.0</ele>
        <time>2012-06-15T11:43:41Z</time>
      </trkpt>
      <trkpt lat="43.396538" lon="-6.054506">
        <ele>122.0</ele>
        <time>2012-06-15T11:43:45Z</time>
      </trkpt>
      <trkpt lat="43.396381" lon="-6.054812">
        <ele>121.0</ele>
        <time>2012-06-15T11:43:49Z</time>
      </trkpt>
      <trkpt lat="43.396224" lon="-6.055111">
        <ele>121.0</ele>
        <time>2012-06-15T11:43:53Z</time>
      </trkpt>
      <trkpt lat="43.396075" lon="-6.055414">
        <ele>121.0</ele>
        <time>2012-06-15T11:43:57Z</time>
      </trkpt>
      <trkpt lat="43.39592" lon="-6.055715">
        <ele>121.0</ele>
        <time>2012-06-15T11:44:01Z</time>
      </trkpt>
      <trkpt lat="43.395776" lon="-6.056024">
        <ele>122.0</ele>
        <time>2012-06-15T11:44:05Z</time>
      </trkpt>
      <trkpt lat="43.395631" lon="-6.056329">
        <ele>122.0</ele>
        <time>2012-06-15T11:44:09Z</time>
      </trkpt>
      <trkpt lat="43.395473" lon="-6.05665">
        <ele>123.0</ele>
        <time>2012-06-15T11:44:13Z</time>
      </trkpt>
      <trkpt lat="43.395311" lon="-6.05697">
        <ele>122.0</ele>
        <time>2012-06-15T11:44:17Z</time>
      </trkpt>
      <trkpt lat="43.395152" lon="-6.057282">
        <ele>122.0</ele>
        <time>2012-06-15T11:44:21Z</time>
      </trkpt>
      <trkpt lat="43.395079" lon="-6.057435">
        <ele>122.0</ele>
        <time>2012-06-15T11:44:23Z</time>
      </trkpt>
      <trkpt lat="43.394878" lon="-6.057882">
        <ele>121.0</ele>
        <time>2012-06-15T11:44:29Z</time>
      </trkpt>
      <trkpt lat="43.3948" lon="-6.058175">
        <ele>121.0</ele>
        <time>2012-06-15T11:44:33Z</time>
      </trkpt>
      <trkpt lat="43.394649" lon="-6.058406">
        <ele>121.0</ele>
        <time>2012-06-15T11:44:37Z</time>
      </trkpt>
      <trkpt lat="43.394484" lon="-6.05862">
        <ele>121.0</ele>
        <time>2012-06-15T11:44:41Z</time>
      </trkpt>
      <trkpt lat="43.394416" lon="-6.05875">
        <ele>121.0</ele>
        <time>2012-06-15T11:44:43Z</time>
      </trkpt>
      <trkpt lat="43.394281" lon="-6.059017">
        <ele>121.0</ele>
        <time>2012-06-15T11:44:47Z</time>
      </trkpt>
      <trkpt lat="43.394073" lon="-6.059433">
        <ele>122.0</ele>
        <time>2012-06-15T11:44:53Z</time>
      </trkpt>
      <trkpt lat="43.393932" lon="-6.059718">
        <ele>122.0</ele>
        <time>2012-06-15T11:44:57Z</time>
      </trkpt>
      <trkpt lat="43.393798" lon="-6.060012">
        <ele>123.0</ele>
        <time>2012-06-15T11:45:01Z</time>
      </trkpt>
      <trkpt lat="43.393669" lon="-6.060308">
        <ele>123.0</ele>
        <time>2012-06-15T11:45:05Z</time>
      </trkpt>
      <trkpt lat="43.393558" lon="-6.060619">
        <ele>122.0</ele>
        <time>2012-06-15T11:45:09Z</time>
      </trkpt>
      <trkpt lat="43.393534" lon="-6.060699">
        <ele>122.0</ele>
        <time>2012-06-15T11:45:10Z</time>
      </trkpt>
      <trkpt lat="43.393407" lon="-6.061275">
        <ele>122.0</ele>
        <time>2012-06-15T11:45:17Z</time>
      </trkpt>
      <trkpt lat="43.393363" lon="-6.06161">
        <ele>121.0</ele>
        <time>2012-06-15T11:45:21Z</time>
      </trkpt>
      <trkpt lat="43.393343" lon="-6.061938">
        <ele>120.0</ele>
        <time>2012-06-15T11:45:25Z</time>
      </trkpt>
      <trkpt lat="43.393336" lon="-6.062257">
        <ele>119.0</ele>
        <time>2012-06-15T11:45:29Z</time>
      </trkpt>
      <trkpt lat="43.39333" lon="-6.062575">
        <ele>118.0</ele>
        <time>2012-06-15T11:45:33Z</time>
      </trkpt>
      <trkpt lat="43.393323" lon="-6.062895">
        <ele>118.0</ele>
        <time>2012-06-15T11:45:37Z</time>
      </trkpt>
      <trkpt lat="43.393319" lon="-6.063216">
        <ele>118.0</ele>
        <time>2012-06-15T11:45:41Z</time>
      </trkpt>
      <trkpt lat="43.393322" lon="-6.063379">
        <ele>118.0</ele>
        <time>2012-06-15T11:45:43Z</time>
      </trkpt>
      <trkpt lat="43.393327" lon="-6.063861">
        <ele>118.0</ele>
        <time>2012-06-15T11:45:49Z</time>
      </trkpt>
      <trkpt lat="43.393336" lon="-6.064151">
        <ele>118.0</ele>
        <time>2012-06-15T11:45:53Z</time>
      </trkpt>
      <trkpt lat="43.393357" lon="-6.064688">
        <ele>117.0</ele>
        <time>2012-06-15T11:46:01Z</time>
      </trkpt>
      <trkpt lat="43.393359" lon="-6.064811">
        <ele>117.0</ele>
        <time>2012-06-15T11:46:03Z</time>
      </trkpt>
      <trkpt lat="43.393346" lon="-6.065191">
        <ele>116.0</ele>
        <time>2012-06-15T11:46:09Z</time>
      </trkpt>
      <trkpt lat="43.393352" lon="-6.065596">
        <ele>117.0</ele>
        <time>2012-06-15T11:46:15Z</time>
      </trkpt>
      <trkpt lat="43.393367" lon="-6.066046">
        <ele>118.0</ele>
        <time>2012-06-15T11:46:21Z</time>
      </trkpt>
      <trkpt lat="43.393367" lon="-6.06637">
        <ele>118.0</ele>
        <time>2012-06-15T11:46:25Z</time>
      </trkpt>
      <trkpt lat="43.393283" lon="-6.066658">
        <ele>118.0</ele>
        <time>2012-06-15T11:46:29Z</time>
      </trkpt>
      <trkpt lat="43.393152" lon="-6.066893">
        <ele>118.0</ele>
        <time>2012-06-15T11:46:33Z</time>
      </trkpt>
      <trkpt lat="43.392993" lon="-6.067082">
        <ele>118.0</ele>
        <time>2012-06-15T11:46:37Z</time>
      </trkpt>
      <trkpt lat="43.392903" lon="-6.067298">
        <ele>118.0</ele>
        <time>2012-06-15T11:46:41Z</time>
      </trkpt>
      <trkpt lat="43.392742" lon="-6.067381">
        <ele>119.0</ele>
        <time>2012-06-15T11:46:45Z</time>
      </trkpt>
      <trkpt lat="43.392649" lon="-6.067394">
        <ele>120.0</ele>
        <time>2012-06-15T11:46:47Z</time>
      </trkpt>
      <trkpt lat="43.392449" lon="-6.067433">
        <ele>121.0</ele>
        <time>2012-06-15T11:46:51Z</time>
      </trkpt>
      <trkpt lat="43.392449" lon="-6.067433">
        <time>2012-06-15T11:47:03Z</time>
      </trkpt>
    </trkseg>
    <trkseg>
      <trkpt lat="43.392449" lon="-6.067433">
        <time>2012-06-15T11:47:06Z</time>
      </trkpt>
      <trkpt lat="43.392024" lon="-6.067497">
        <ele>122.0</ele>
        <time>2012-06-15T11:47:08Z</time>
      </trkpt>
      <trkpt lat="43.39185" lon="-6.067472">
        <ele>122.0</ele>
        <time>2012-06-15T11:47:12Z</time>
      </trkpt>
      <trkpt lat="43.391674" lon="-6.067453">
        <ele>122.0</ele>
        <time>2012-06-15T11:47:16Z</time>
      </trkpt>
      <trkpt lat="43.391501" lon="-6.067434">
        <ele>122.0</ele>
        <time>2012-06-15T11:47:20Z</time>
      </trkpt>
      <trkpt lat="43.391361" lon="-6.067473">
        <ele>122.0</ele>
        <time>2012-06-15T11:47:24Z</time>
      </trkpt>
      <trkpt lat="43.391173" lon="-6.067547">
        <ele>123.0</ele>
        <time>2012-06-15T11:47:29Z</time>
      </trkpt>
      <trkpt lat="43.391024" lon="-6.067695">
        <ele>124.0</ele>
        <time>2012-06-15T11:47:32Z</time>
      </trkpt>
      <trkpt lat="43.390878" lon="-6.067952">
        <ele>125.0</ele>
        <time>2012-06-15T11:47:36Z</time>
      </trkpt>
      <trkpt lat="43.390747" lon="-6.068193">
        <ele>126.0</ele>
        <time>2012-06-15T11:47:40Z</time>
      </trkpt>
      <trkpt lat="43.390622" lon="-6.06844">
        <ele>127.0</ele>
        <time>2012-06-15T11:47:44Z</time>
      </trkpt>
      <trkpt lat="43.390497" lon="-6.068675">
        <ele>128.0</ele>
        <time>2012-06-15T11:47:48Z</time>
      </trkpt>
      <trkpt lat="43.39038" lon="-6.068911">
        <ele>129.0</ele>
        <time>2012-06-15T11:47:52Z</time>
      </trkpt>
      <trkpt lat="43.390267" lon="-6.069128">
        <ele>130.0</ele>
        <time>2012-06-15T11:47:56Z</time>
      </trkpt>
      <trkpt lat="43.390159" lon="-6.069333">
        <ele>131.0</ele>
        <time>2012-06-15T11:48:00Z</time>
      </trkpt>
      <trkpt lat="43.390037" lon="-6.069521">
        <ele>132.0</ele>
        <time>2012-06-15T11:48:04Z</time>
      </trkpt>
      <trkpt lat="43.389972" lon="-6.06961">
        <ele>132.0</ele>
        <time>2012-06-15T11:48:06Z</time>
      </trkpt>
      <trkpt lat="43.389785" lon="-6.069901">
        <ele>132.0</ele>
        <time>2012-06-15T11:48:12Z</time>
      </trkpt>
      <trkpt lat="43.38967" lon="-6.07011">
        <ele>132.0</ele>
        <time>2012-06-15T11:48:16Z</time>
      </trkpt>
      <trkpt lat="43.389548" lon="-6.070315">
        <ele>132.0</ele>
        <time>2012-06-15T11:48:20Z</time>
      </trkpt>
      <trkpt lat="43.389272" lon="-6.070683">
        <ele>133.0</ele>
        <time>2012-06-15T11:48:28Z</time>
      </trkpt>
      <trkpt lat="43.389121" lon="-6.07085">
        <ele>134.0</ele>
        <time>2012-06-15T11:48:32Z</time>
      </trkpt>
      <trkpt lat="43.38896" lon="-6.070996">
        <ele>134.0</ele>
        <time>2012-06-15T11:48:36Z</time>
      </trkpt>
      <trkpt lat="43.388831" lon="-6.071202">
        <ele>135.0</ele>
        <time>2012-06-15T11:48:40Z</time>
      </trkpt>
      <trkpt lat="43.388752" lon="-6.071484">
        <ele>135.0</ele>
        <time>2012-06-15T11:48:44Z</time>
      </trkpt>
      <trkpt lat="43.388637" lon="-6.072056">
        <ele>136.0</ele>
        <time>2012-06-15T11:48:52Z</time>
      </trkpt>
      <trkpt lat="43.388542" lon="-6.072638">
        <ele>136.0</ele>
        <time>2012-06-15T11:49:00Z</time>
      </trkpt>
      <trkpt lat="43.388441" lon="-6.07291">
        <ele>137.0</ele>
        <time>2012-06-15T11:49:04Z</time>
      </trkpt>
      <trkpt lat="43.388112" lon="-6.073342">
        <ele>140.0</ele>
        <time>2012-06-15T11:49:12Z</time>
      </trkpt>
      <trkpt lat="43.387914" lon="-6.073521">
        <ele>141.0</ele>
        <time>2012-06-15T11:49:16Z</time>
      </trkpt>
      <trkpt lat="43.387699" lon="-6.073687">
        <ele>142.0</ele>
        <time>2012-06-15T11:49:20Z</time>
      </trkpt>
      <trkpt lat="43.387502" lon="-6.073875">
        <ele>142.0</ele>
        <time>2012-06-15T11:49:24Z</time>
      </trkpt>
      <trkpt lat="43.387312" lon="-6.074063">
        <ele>142.0</ele>
        <time>2012-06-15T11:49:28Z</time>
      </trkpt>
      <trkpt lat="43.387135" lon="-6.074256">
        <ele>142.0</ele>
        <time>2012-06-15T11:49:32Z</time>
      </trkpt>
      <trkpt lat="43.38705" lon="-6.074349">
        <ele>142.0</ele>
        <time>2012-06-15T11:49:34Z</time>
      </trkpt>
      <trkpt lat="43.386795" lon="-6.074499">
        <ele>142.0</ele>
        <time>2012-06-15T11:49:41Z</time>
      </trkpt>
      <trkpt lat="43.387175" lon="-6.074349">
        <ele>144.0</ele>
        <time>2012-06-15T11:49:49Z</time>
      </trkpt>
      <trkpt lat="43.387462" lon="-6.074048">
        <ele>147.0</ele>
        <time>2012-06-15T11:49:53Z</time>
      </trkpt>
      <trkpt lat="43.387723" lon="-6.073741">
        <ele>149.0</ele>
        <time>2012-06-15T11:49:57Z</time>
      </trkpt>
      <trkpt lat="43.387956" lon="-6.073482">
        <ele>149.0</ele>
        <time>2012-06-15T11:50:01Z</time>
      </trkpt>
      <trkpt lat="43.388084" lon="-6.073244">
        <ele>149.0</ele>
        <time>2012-06-15T11:50:04Z</time>
      </trkpt>
      <trkpt lat="43.388245" lon="-6.072827">
        <ele>148.0</ele>
        <time>2012-06-15T11:50:09Z</time>
      </trkpt>
      <trkpt lat="43.388372" lon="-6.072506">
        <ele>148.0</ele>
        <time>2012-06-15T11:50:13Z</time>
      </trkpt>
      <trkpt lat="43.388483" lon="-6.0722">
        <ele>149.0</ele>
        <time>2012-06-15T11:50:17Z</time>
      </trkpt>
      <trkpt lat="43.388605" lon="-6.071871">
        <ele>149.0</ele>
        <time>2012-06-15T11:50:25Z</time>
      </trkpt>
      <trkpt lat="43.388568" lon="-6.071991">
        <ele>150.0</ele>
        <time>2012-06-15T11:50:33Z</time>
      </trkpt>
      <trkpt lat="43.38854" lon="-6.072112">
        <ele>151.0</ele>
        <time>2012-06-15T11:50:43Z</time>
      </trkpt>
      <trkpt lat="43.38854" lon="-6.072112">
        <time>2012-06-15T11:50:54Z</time>
      </trkpt>
    </trkseg>
    <trkseg>
      <trkpt lat="43.38854" lon="-6.072112">
        <time>2012-06-15T11:51:12Z</time>
      </trkpt>
      <trkpt lat="43.38854" lon="-6.072112">
        <time>2012-06-15T11:51:13Z</time>
      </trkpt>
    </trkseg>
  </trk>
</gpx>